<?xml version="1.0" encoding="UTF-8" standalone="no" ?>
<gpx xmlns="http://www.topografix.com/GPX/1/1" xmlns:xsi="http://www.w3.org/2001/XMLSchema-instance" xsi:schemaLocation="http://www.topografix.com/GPX/1/1 http://www.topografix.com/GPX/1/1/gpx.xsd" version="1.1" creator="VisuGPX - https://www.visugpx.com">
  <metadata>
    <name>Boucle Wintzenheim - Glasborn</name>
    <desc><![CDATA[Boucle Wintzenheim - Glasborn - http://www.utagawavtt.com/randonnee-vtt-gps.php?topo=3707]]></desc>
  </metadata>
  <trk>
    <name><![CDATA[Circuit Thierry3Epis]]></name>
    <trkseg>
      <trkpt lat="48.07729" lon="7.26761">
        <ele>248.64</ele>
        <time>2009-09-27T07:00:19Z</time>
      </trkpt>
      <trkpt lat="48.07732" lon="7.26759">
        <ele>248.64</ele>
        <time>2009-09-27T07:00:27Z</time>
      </trkpt>
      <trkpt lat="48.07731" lon="7.26758">
        <ele>243.35</ele>
        <time>2009-09-27T07:00:30Z</time>
      </trkpt>
      <trkpt lat="48.07731" lon="7.26756">
        <ele>249.12</ele>
        <time>2009-09-27T07:00:33Z</time>
      </trkpt>
      <trkpt lat="48.07733" lon="7.26761">
        <ele>249.6</ele>
        <time>2009-09-27T07:00:53Z</time>
      </trkpt>
      <trkpt lat="48.07733" lon="7.26761">
        <ele>250.56</ele>
        <time>2009-09-27T07:01:22Z</time>
      </trkpt>
      <trkpt lat="48.07734" lon="7.26761">
        <ele>248.64</ele>
        <time>2009-09-27T07:01:42Z</time>
      </trkpt>
      <trkpt lat="48.07735" lon="7.2676">
        <ele>249.6</ele>
        <time>2009-09-27T07:01:44Z</time>
      </trkpt>
      <trkpt lat="48.07763" lon="7.26765">
        <ele>250.08</ele>
        <time>2009-09-27T07:01:57Z</time>
      </trkpt>
      <trkpt lat="48.07765" lon="7.26763">
        <ele>248.64</ele>
        <time>2009-09-27T07:01:58Z</time>
      </trkpt>
      <trkpt lat="48.07787" lon="7.26759">
        <ele>248.64</ele>
        <time>2009-09-27T07:02:05Z</time>
      </trkpt>
      <trkpt lat="48.07797" lon="7.26727">
        <ele>248.64</ele>
        <time>2009-09-27T07:02:14Z</time>
      </trkpt>
      <trkpt lat="48.07798" lon="7.2672">
        <ele>249.12</ele>
        <time>2009-09-27T07:02:16Z</time>
      </trkpt>
      <trkpt lat="48.07799" lon="7.26713">
        <ele>248.64</ele>
        <time>2009-09-27T07:02:18Z</time>
      </trkpt>
      <trkpt lat="48.078" lon="7.26704">
        <ele>249.12</ele>
        <time>2009-09-27T07:02:21Z</time>
      </trkpt>
      <trkpt lat="48.07806" lon="7.26695">
        <ele>248.64</ele>
        <time>2009-09-27T07:02:24Z</time>
      </trkpt>
      <trkpt lat="48.07809" lon="7.26689">
        <ele>249.12</ele>
        <time>2009-09-27T07:02:25Z</time>
      </trkpt>
      <trkpt lat="48.0781" lon="7.26683">
        <ele>249.12</ele>
        <time>2009-09-27T07:02:26Z</time>
      </trkpt>
      <trkpt lat="48.07811" lon="7.26677">
        <ele>249.6</ele>
        <time>2009-09-27T07:02:27Z</time>
      </trkpt>
      <trkpt lat="48.07814" lon="7.26674">
        <ele>248.64</ele>
        <time>2009-09-27T07:02:28Z</time>
      </trkpt>
      <trkpt lat="48.07817" lon="7.26673">
        <ele>248.64</ele>
        <time>2009-09-27T07:02:29Z</time>
      </trkpt>
      <trkpt lat="48.0782" lon="7.26675">
        <ele>250.08</ele>
        <time>2009-09-27T07:02:30Z</time>
      </trkpt>
      <trkpt lat="48.07824" lon="7.26679">
        <ele>249.12</ele>
        <time>2009-09-27T07:02:31Z</time>
      </trkpt>
      <trkpt lat="48.07827" lon="7.26683">
        <ele>248.64</ele>
        <time>2009-09-27T07:02:32Z</time>
      </trkpt>
      <trkpt lat="48.07837" lon="7.26696">
        <ele>249.12</ele>
        <time>2009-09-27T07:02:35Z</time>
      </trkpt>
      <trkpt lat="48.0784" lon="7.267">
        <ele>248.16</ele>
        <time>2009-09-27T07:02:36Z</time>
      </trkpt>
      <trkpt lat="48.07844" lon="7.26705">
        <ele>247.68</ele>
        <time>2009-09-27T07:02:37Z</time>
      </trkpt>
      <trkpt lat="48.07847" lon="7.26709">
        <ele>248.64</ele>
        <time>2009-09-27T07:02:38Z</time>
      </trkpt>
      <trkpt lat="48.0785" lon="7.26715">
        <ele>248.64</ele>
        <time>2009-09-27T07:02:39Z</time>
      </trkpt>
      <trkpt lat="48.07853" lon="7.2672">
        <ele>247.68</ele>
        <time>2009-09-27T07:02:40Z</time>
      </trkpt>
      <trkpt lat="48.07858" lon="7.26731">
        <ele>249.12</ele>
        <time>2009-09-27T07:02:42Z</time>
      </trkpt>
      <trkpt lat="48.0786" lon="7.26736">
        <ele>249.12</ele>
        <time>2009-09-27T07:02:43Z</time>
      </trkpt>
      <trkpt lat="48.07868" lon="7.26759">
        <ele>249.12</ele>
        <time>2009-09-27T07:02:47Z</time>
      </trkpt>
      <trkpt lat="48.0788" lon="7.2681">
        <ele>247.2</ele>
        <time>2009-09-27T07:02:55Z</time>
      </trkpt>
      <trkpt lat="48.07892" lon="7.26848">
        <ele>247.68</ele>
        <time>2009-09-27T07:03:01Z</time>
      </trkpt>
      <trkpt lat="48.07897" lon="7.2686">
        <ele>247.2</ele>
        <time>2009-09-27T07:03:03Z</time>
      </trkpt>
      <trkpt lat="48.079" lon="7.26865">
        <ele>247.2</ele>
        <time>2009-09-27T07:03:04Z</time>
      </trkpt>
      <trkpt lat="48.07904" lon="7.26869">
        <ele>247.2</ele>
        <time>2009-09-27T07:03:05Z</time>
      </trkpt>
      <trkpt lat="48.07908" lon="7.26872">
        <ele>248.16</ele>
        <time>2009-09-27T07:03:06Z</time>
      </trkpt>
      <trkpt lat="48.07913" lon="7.26874">
        <ele>248.16</ele>
        <time>2009-09-27T07:03:07Z</time>
      </trkpt>
      <trkpt lat="48.07918" lon="7.26875">
        <ele>246.72</ele>
        <time>2009-09-27T07:03:08Z</time>
      </trkpt>
      <trkpt lat="48.07923" lon="7.26874">
        <ele>246.72</ele>
        <time>2009-09-27T07:03:09Z</time>
      </trkpt>
      <trkpt lat="48.07928" lon="7.26874">
        <ele>247.68</ele>
        <time>2009-09-27T07:03:10Z</time>
      </trkpt>
      <trkpt lat="48.07967" lon="7.26864">
        <ele>246.72</ele>
        <time>2009-09-27T07:03:18Z</time>
      </trkpt>
      <trkpt lat="48.07972" lon="7.26864">
        <ele>246.72</ele>
        <time>2009-09-27T07:03:19Z</time>
      </trkpt>
      <trkpt lat="48.07977" lon="7.26865">
        <ele>246.23</ele>
        <time>2009-09-27T07:03:20Z</time>
      </trkpt>
      <trkpt lat="48.07982" lon="7.26867">
        <ele>246.72</ele>
        <time>2009-09-27T07:03:21Z</time>
      </trkpt>
      <trkpt lat="48.07986" lon="7.2687">
        <ele>246.72</ele>
        <time>2009-09-27T07:03:22Z</time>
      </trkpt>
      <trkpt lat="48.0799" lon="7.26874">
        <ele>246.72</ele>
        <time>2009-09-27T07:03:23Z</time>
      </trkpt>
      <trkpt lat="48.07994" lon="7.26879">
        <ele>245.75</ele>
        <time>2009-09-27T07:03:24Z</time>
      </trkpt>
      <trkpt lat="48.08009" lon="7.269">
        <ele>245.75</ele>
        <time>2009-09-27T07:03:28Z</time>
      </trkpt>
      <trkpt lat="48.08026" lon="7.2692">
        <ele>245.27</ele>
        <time>2009-09-27T07:03:35Z</time>
      </trkpt>
      <trkpt lat="48.08027" lon="7.2692">
        <ele>245.75</ele>
        <time>2009-09-27T07:03:36Z</time>
      </trkpt>
      <trkpt lat="48.08029" lon="7.26918">
        <ele>246.23</ele>
        <time>2009-09-27T07:03:37Z</time>
      </trkpt>
      <trkpt lat="48.08031" lon="7.26916">
        <ele>246.23</ele>
        <time>2009-09-27T07:03:38Z</time>
      </trkpt>
      <trkpt lat="48.08033" lon="7.26913">
        <ele>245.75</ele>
        <time>2009-09-27T07:03:39Z</time>
      </trkpt>
      <trkpt lat="48.08037" lon="7.26912">
        <ele>244.79</ele>
        <time>2009-09-27T07:03:40Z</time>
      </trkpt>
      <trkpt lat="48.08042" lon="7.26911">
        <ele>246.23</ele>
        <time>2009-09-27T07:03:41Z</time>
      </trkpt>
      <trkpt lat="48.08047" lon="7.26911">
        <ele>246.23</ele>
        <time>2009-09-27T07:03:42Z</time>
      </trkpt>
      <trkpt lat="48.08051" lon="7.2691">
        <ele>246.23</ele>
        <time>2009-09-27T07:03:43Z</time>
      </trkpt>
      <trkpt lat="48.08056" lon="7.26908">
        <ele>245.75</ele>
        <time>2009-09-27T07:03:44Z</time>
      </trkpt>
      <trkpt lat="48.08061" lon="7.26906">
        <ele>246.23</ele>
        <time>2009-09-27T07:03:45Z</time>
      </trkpt>
      <trkpt lat="48.08088" lon="7.26895">
        <ele>246.72</ele>
        <time>2009-09-27T07:03:51Z</time>
      </trkpt>
      <trkpt lat="48.08092" lon="7.26893">
        <ele>245.27</ele>
        <time>2009-09-27T07:03:52Z</time>
      </trkpt>
      <trkpt lat="48.08104" lon="7.26885">
        <ele>245.75</ele>
        <time>2009-09-27T07:03:55Z</time>
      </trkpt>
      <trkpt lat="48.08108" lon="7.26882">
        <ele>246.23</ele>
        <time>2009-09-27T07:03:56Z</time>
      </trkpt>
      <trkpt lat="48.08124" lon="7.2687">
        <ele>246.23</ele>
        <time>2009-09-27T07:04:00Z</time>
      </trkpt>
      <trkpt lat="48.08127" lon="7.26867">
        <ele>246.23</ele>
        <time>2009-09-27T07:04:01Z</time>
      </trkpt>
      <trkpt lat="48.08131" lon="7.26864">
        <ele>245.75</ele>
        <time>2009-09-27T07:04:02Z</time>
      </trkpt>
      <trkpt lat="48.08135" lon="7.26861">
        <ele>245.75</ele>
        <time>2009-09-27T07:04:03Z</time>
      </trkpt>
      <trkpt lat="48.08139" lon="7.26857">
        <ele>246.23</ele>
        <time>2009-09-27T07:04:04Z</time>
      </trkpt>
      <trkpt lat="48.08169" lon="7.26831">
        <ele>246.23</ele>
        <time>2009-09-27T07:04:12Z</time>
      </trkpt>
      <trkpt lat="48.08172" lon="7.26828">
        <ele>246.23</ele>
        <time>2009-09-27T07:04:13Z</time>
      </trkpt>
      <trkpt lat="48.08174" lon="7.26826">
        <ele>245.75</ele>
        <time>2009-09-27T07:04:14Z</time>
      </trkpt>
      <trkpt lat="48.08175" lon="7.26825">
        <ele>240.95</ele>
        <time>2009-09-27T07:04:23Z</time>
      </trkpt>
      <trkpt lat="48.08175" lon="7.26825">
        <ele>244.79</ele>
        <time>2009-09-27T07:04:24Z</time>
      </trkpt>
      <trkpt lat="48.08175" lon="7.26826">
        <ele>245.75</ele>
        <time>2009-09-27T07:05:01Z</time>
      </trkpt>
      <trkpt lat="48.08192" lon="7.26811">
        <ele>245.75</ele>
        <time>2009-09-27T07:05:18Z</time>
      </trkpt>
      <trkpt lat="48.08205" lon="7.26803">
        <ele>246.23</ele>
        <time>2009-09-27T07:05:22Z</time>
      </trkpt>
      <trkpt lat="48.08228" lon="7.26788">
        <ele>246.23</ele>
        <time>2009-09-27T07:05:28Z</time>
      </trkpt>
      <trkpt lat="48.08232" lon="7.26787">
        <ele>245.75</ele>
        <time>2009-09-27T07:05:29Z</time>
      </trkpt>
      <trkpt lat="48.08236" lon="7.26787">
        <ele>245.27</ele>
        <time>2009-09-27T07:05:30Z</time>
      </trkpt>
      <trkpt lat="48.0824" lon="7.26787">
        <ele>245.27</ele>
        <time>2009-09-27T07:05:31Z</time>
      </trkpt>
      <trkpt lat="48.08244" lon="7.2679">
        <ele>244.79</ele>
        <time>2009-09-27T07:05:32Z</time>
      </trkpt>
      <trkpt lat="48.08248" lon="7.26793">
        <ele>244.79</ele>
        <time>2009-09-27T07:05:33Z</time>
      </trkpt>
      <trkpt lat="48.08252" lon="7.26796">
        <ele>245.27</ele>
        <time>2009-09-27T07:05:34Z</time>
      </trkpt>
      <trkpt lat="48.08256" lon="7.26799">
        <ele>244.79</ele>
        <time>2009-09-27T07:05:35Z</time>
      </trkpt>
      <trkpt lat="48.0826" lon="7.26802">
        <ele>244.31</ele>
        <time>2009-09-27T07:05:36Z</time>
      </trkpt>
      <trkpt lat="48.08335" lon="7.26847">
        <ele>244.31</ele>
        <time>2009-09-27T07:05:52Z</time>
      </trkpt>
      <trkpt lat="48.08348" lon="7.26864">
        <ele>243.83</ele>
        <time>2009-09-27T07:05:55Z</time>
      </trkpt>
      <trkpt lat="48.08353" lon="7.26871">
        <ele>243.83</ele>
        <time>2009-09-27T07:05:56Z</time>
      </trkpt>
      <trkpt lat="48.08356" lon="7.26878">
        <ele>243.35</ele>
        <time>2009-09-27T07:05:57Z</time>
      </trkpt>
      <trkpt lat="48.08401" lon="7.27003">
        <ele>242.87</ele>
        <time>2009-09-27T07:06:12Z</time>
      </trkpt>
      <trkpt lat="48.08404" lon="7.27011">
        <ele>242.39</ele>
        <time>2009-09-27T07:06:13Z</time>
      </trkpt>
      <trkpt lat="48.08409" lon="7.27017">
        <ele>242.87</ele>
        <time>2009-09-27T07:06:14Z</time>
      </trkpt>
      <trkpt lat="48.08414" lon="7.27023">
        <ele>242.39</ele>
        <time>2009-09-27T07:06:15Z</time>
      </trkpt>
      <trkpt lat="48.08419" lon="7.27026">
        <ele>241.91</ele>
        <time>2009-09-27T07:06:16Z</time>
      </trkpt>
      <trkpt lat="48.08425" lon="7.27027">
        <ele>242.87</ele>
        <time>2009-09-27T07:06:17Z</time>
      </trkpt>
      <trkpt lat="48.08431" lon="7.27027">
        <ele>242.87</ele>
        <time>2009-09-27T07:06:18Z</time>
      </trkpt>
      <trkpt lat="48.08499" lon="7.27026">
        <ele>242.39</ele>
        <time>2009-09-27T07:06:29Z</time>
      </trkpt>
      <trkpt lat="48.08574" lon="7.27046">
        <ele>242.39</ele>
        <time>2009-09-27T07:06:44Z</time>
      </trkpt>
      <trkpt lat="48.08579" lon="7.27047">
        <ele>242.39</ele>
        <time>2009-09-27T07:06:46Z</time>
      </trkpt>
      <trkpt lat="48.08582" lon="7.27046">
        <ele>241.91</ele>
        <time>2009-09-27T07:06:47Z</time>
      </trkpt>
      <trkpt lat="48.08584" lon="7.27042">
        <ele>242.39</ele>
        <time>2009-09-27T07:06:48Z</time>
      </trkpt>
      <trkpt lat="48.08586" lon="7.27037">
        <ele>242.39</ele>
        <time>2009-09-27T07:06:49Z</time>
      </trkpt>
      <trkpt lat="48.08587" lon="7.2703">
        <ele>242.87</ele>
        <time>2009-09-27T07:06:50Z</time>
      </trkpt>
      <trkpt lat="48.08587" lon="7.27024">
        <ele>242.39</ele>
        <time>2009-09-27T07:06:51Z</time>
      </trkpt>
      <trkpt lat="48.08589" lon="7.26988">
        <ele>242.87</ele>
        <time>2009-09-27T07:06:56Z</time>
      </trkpt>
      <trkpt lat="48.08591" lon="7.26885">
        <ele>241.91</ele>
        <time>2009-09-27T07:07:09Z</time>
      </trkpt>
      <trkpt lat="48.0859" lon="7.26877">
        <ele>241.43</ele>
        <time>2009-09-27T07:07:10Z</time>
      </trkpt>
      <trkpt lat="48.08587" lon="7.2678">
        <ele>242.39</ele>
        <time>2009-09-27T07:07:22Z</time>
      </trkpt>
      <trkpt lat="48.08586" lon="7.26771">
        <ele>242.39</ele>
        <time>2009-09-27T07:07:23Z</time>
      </trkpt>
      <trkpt lat="48.08586" lon="7.26763">
        <ele>242.87</ele>
        <time>2009-09-27T07:07:24Z</time>
      </trkpt>
      <trkpt lat="48.08586" lon="7.26755">
        <ele>242.87</ele>
        <time>2009-09-27T07:07:25Z</time>
      </trkpt>
      <trkpt lat="48.08585" lon="7.26746">
        <ele>242.87</ele>
        <time>2009-09-27T07:07:26Z</time>
      </trkpt>
      <trkpt lat="48.08574" lon="7.26621">
        <ele>242.87</ele>
        <time>2009-09-27T07:07:41Z</time>
      </trkpt>
      <trkpt lat="48.08543" lon="7.26501">
        <ele>244.31</ele>
        <time>2009-09-27T07:07:57Z</time>
      </trkpt>
      <trkpt lat="48.08522" lon="7.26429">
        <ele>245.27</ele>
        <time>2009-09-27T07:08:07Z</time>
      </trkpt>
      <trkpt lat="48.0849" lon="7.26328">
        <ele>245.75</ele>
        <time>2009-09-27T07:08:21Z</time>
      </trkpt>
      <trkpt lat="48.08472" lon="7.26272">
        <ele>246.23</ele>
        <time>2009-09-27T07:08:29Z</time>
      </trkpt>
      <trkpt lat="48.08443" lon="7.26183">
        <ele>247.68</ele>
        <time>2009-09-27T07:08:42Z</time>
      </trkpt>
      <trkpt lat="48.08441" lon="7.26177">
        <ele>247.68</ele>
        <time>2009-09-27T07:08:43Z</time>
      </trkpt>
      <trkpt lat="48.08436" lon="7.26159">
        <ele>247.2</ele>
        <time>2009-09-27T07:08:46Z</time>
      </trkpt>
      <trkpt lat="48.08431" lon="7.26147">
        <ele>248.64</ele>
        <time>2009-09-27T07:08:48Z</time>
      </trkpt>
      <trkpt lat="48.08422" lon="7.26116">
        <ele>248.16</ele>
        <time>2009-09-27T07:08:53Z</time>
      </trkpt>
      <trkpt lat="48.08408" lon="7.26027">
        <ele>250.08</ele>
        <time>2009-09-27T07:09:07Z</time>
      </trkpt>
      <trkpt lat="48.08407" lon="7.26021">
        <ele>250.56</ele>
        <time>2009-09-27T07:09:08Z</time>
      </trkpt>
      <trkpt lat="48.08399" lon="7.25978">
        <ele>251.04</ele>
        <time>2009-09-27T07:09:15Z</time>
      </trkpt>
      <trkpt lat="48.08388" lon="7.2589">
        <ele>254.41</ele>
        <time>2009-09-27T07:09:30Z</time>
      </trkpt>
      <trkpt lat="48.0838" lon="7.2582">
        <ele>255.85</ele>
        <time>2009-09-27T07:09:44Z</time>
      </trkpt>
      <trkpt lat="48.08365" lon="7.25776">
        <ele>257.77</ele>
        <time>2009-09-27T07:09:55Z</time>
      </trkpt>
      <trkpt lat="48.08361" lon="7.25768">
        <ele>259.69</ele>
        <time>2009-09-27T07:09:58Z</time>
      </trkpt>
      <trkpt lat="48.08359" lon="7.25765">
        <ele>259.21</ele>
        <time>2009-09-27T07:09:59Z</time>
      </trkpt>
      <trkpt lat="48.08358" lon="7.25762">
        <ele>259.21</ele>
        <time>2009-09-27T07:10:00Z</time>
      </trkpt>
      <trkpt lat="48.08344" lon="7.25739">
        <ele>261.14</ele>
        <time>2009-09-27T07:10:08Z</time>
      </trkpt>
      <trkpt lat="48.08342" lon="7.25736">
        <ele>261.62</ele>
        <time>2009-09-27T07:10:09Z</time>
      </trkpt>
      <trkpt lat="48.0834" lon="7.25734">
        <ele>261.62</ele>
        <time>2009-09-27T07:10:10Z</time>
      </trkpt>
      <trkpt lat="48.08337" lon="7.25732">
        <ele>261.62</ele>
        <time>2009-09-27T07:10:11Z</time>
      </trkpt>
      <trkpt lat="48.08335" lon="7.2573">
        <ele>262.1</ele>
        <time>2009-09-27T07:10:12Z</time>
      </trkpt>
      <trkpt lat="48.08333" lon="7.25727">
        <ele>262.1</ele>
        <time>2009-09-27T07:10:13Z</time>
      </trkpt>
      <trkpt lat="48.08331" lon="7.25725">
        <ele>262.58</ele>
        <time>2009-09-27T07:10:14Z</time>
      </trkpt>
      <trkpt lat="48.08308" lon="7.25696">
        <ele>264.02</ele>
        <time>2009-09-27T07:10:25Z</time>
      </trkpt>
      <trkpt lat="48.08279" lon="7.25655">
        <ele>266.9</ele>
        <time>2009-09-27T07:10:39Z</time>
      </trkpt>
      <trkpt lat="48.08258" lon="7.25617">
        <ele>266.9</ele>
        <time>2009-09-27T07:10:48Z</time>
      </trkpt>
      <trkpt lat="48.08255" lon="7.25612">
        <ele>266.9</ele>
        <time>2009-09-27T07:10:49Z</time>
      </trkpt>
      <trkpt lat="48.08235" lon="7.25569">
        <ele>266.42</ele>
        <time>2009-09-27T07:10:57Z</time>
      </trkpt>
      <trkpt lat="48.08232" lon="7.25564">
        <ele>265.94</ele>
        <time>2009-09-27T07:10:58Z</time>
      </trkpt>
      <trkpt lat="48.08224" lon="7.25547">
        <ele>266.42</ele>
        <time>2009-09-27T07:11:01Z</time>
      </trkpt>
      <trkpt lat="48.08222" lon="7.25542">
        <ele>266.9</ele>
        <time>2009-09-27T07:11:02Z</time>
      </trkpt>
      <trkpt lat="48.08219" lon="7.25536">
        <ele>266.9</ele>
        <time>2009-09-27T07:11:03Z</time>
      </trkpt>
      <trkpt lat="48.08215" lon="7.25524">
        <ele>266.9</ele>
        <time>2009-09-27T07:11:05Z</time>
      </trkpt>
      <trkpt lat="48.08213" lon="7.25518">
        <ele>266.9</ele>
        <time>2009-09-27T07:11:06Z</time>
      </trkpt>
      <trkpt lat="48.08208" lon="7.25499">
        <ele>266.42</ele>
        <time>2009-09-27T07:11:09Z</time>
      </trkpt>
      <trkpt lat="48.08183" lon="7.25379">
        <ele>266.9</ele>
        <time>2009-09-27T07:11:27Z</time>
      </trkpt>
      <trkpt lat="48.08158" lon="7.25269">
        <ele>267.86</ele>
        <time>2009-09-27T07:11:44Z</time>
      </trkpt>
      <trkpt lat="48.0815" lon="7.25237">
        <ele>268.35</ele>
        <time>2009-09-27T07:11:49Z</time>
      </trkpt>
      <trkpt lat="48.08149" lon="7.25231">
        <ele>269.31</ele>
        <time>2009-09-27T07:11:50Z</time>
      </trkpt>
      <trkpt lat="48.08147" lon="7.25225">
        <ele>268.83</ele>
        <time>2009-09-27T07:11:51Z</time>
      </trkpt>
      <trkpt lat="48.08146" lon="7.25219">
        <ele>269.31</ele>
        <time>2009-09-27T07:11:52Z</time>
      </trkpt>
      <trkpt lat="48.08145" lon="7.25214">
        <ele>269.31</ele>
        <time>2009-09-27T07:11:53Z</time>
      </trkpt>
      <trkpt lat="48.08143" lon="7.25208">
        <ele>269.31</ele>
        <time>2009-09-27T07:11:54Z</time>
      </trkpt>
      <trkpt lat="48.08141" lon="7.25202">
        <ele>269.31</ele>
        <time>2009-09-27T07:11:55Z</time>
      </trkpt>
      <trkpt lat="48.08123" lon="7.25138">
        <ele>270.27</ele>
        <time>2009-09-27T07:12:06Z</time>
      </trkpt>
      <trkpt lat="48.08111" lon="7.25079">
        <ele>271.71</ele>
        <time>2009-09-27T07:12:16Z</time>
      </trkpt>
      <trkpt lat="48.08085" lon="7.24995">
        <ele>271.71</ele>
        <time>2009-09-27T07:12:30Z</time>
      </trkpt>
      <trkpt lat="48.08074" lon="7.24966">
        <ele>271.23</ele>
        <time>2009-09-27T07:12:34Z</time>
      </trkpt>
      <trkpt lat="48.08071" lon="7.24959">
        <ele>270.75</ele>
        <time>2009-09-27T07:12:35Z</time>
      </trkpt>
      <trkpt lat="48.08064" lon="7.24946">
        <ele>270.75</ele>
        <time>2009-09-27T07:12:37Z</time>
      </trkpt>
      <trkpt lat="48.08006" lon="7.24871">
        <ele>269.79</ele>
        <time>2009-09-27T07:12:50Z</time>
      </trkpt>
      <trkpt lat="48.07999" lon="7.24858">
        <ele>269.79</ele>
        <time>2009-09-27T07:12:52Z</time>
      </trkpt>
      <trkpt lat="48.07975" lon="7.24802">
        <ele>269.79</ele>
        <time>2009-09-27T07:13:00Z</time>
      </trkpt>
      <trkpt lat="48.07973" lon="7.24796">
        <ele>270.27</ele>
        <time>2009-09-27T07:13:01Z</time>
      </trkpt>
      <trkpt lat="48.07945" lon="7.24719">
        <ele>270.75</ele>
        <time>2009-09-27T07:13:12Z</time>
      </trkpt>
      <trkpt lat="48.07934" lon="7.24686">
        <ele>270.27</ele>
        <time>2009-09-27T07:13:17Z</time>
      </trkpt>
      <trkpt lat="48.07914" lon="7.24645">
        <ele>270.75</ele>
        <time>2009-09-27T07:13:24Z</time>
      </trkpt>
      <trkpt lat="48.07903" lon="7.24626">
        <ele>271.23</ele>
        <time>2009-09-27T07:13:28Z</time>
      </trkpt>
      <trkpt lat="48.07901" lon="7.2462">
        <ele>270.75</ele>
        <time>2009-09-27T07:13:29Z</time>
      </trkpt>
      <trkpt lat="48.07901" lon="7.24615">
        <ele>271.23</ele>
        <time>2009-09-27T07:13:30Z</time>
      </trkpt>
      <trkpt lat="48.07893" lon="7.24575">
        <ele>273.15</ele>
        <time>2009-09-27T07:13:38Z</time>
      </trkpt>
      <trkpt lat="48.07883" lon="7.24504">
        <ele>276.52</ele>
        <time>2009-09-27T07:13:54Z</time>
      </trkpt>
      <trkpt lat="48.07862" lon="7.24448">
        <ele>277.96</ele>
        <time>2009-09-27T07:14:08Z</time>
      </trkpt>
      <trkpt lat="48.07847" lon="7.24405">
        <ele>283.73</ele>
        <time>2009-09-27T07:14:20Z</time>
      </trkpt>
      <trkpt lat="48.07846" lon="7.24401">
        <ele>282.28</ele>
        <time>2009-09-27T07:14:21Z</time>
      </trkpt>
      <trkpt lat="48.07843" lon="7.24394">
        <ele>280.84</ele>
        <time>2009-09-27T07:14:23Z</time>
      </trkpt>
      <trkpt lat="48.07839" lon="7.24384">
        <ele>282.28</ele>
        <time>2009-09-27T07:14:26Z</time>
      </trkpt>
      <trkpt lat="48.0783" lon="7.2436">
        <ele>283.25</ele>
        <time>2009-09-27T07:14:33Z</time>
      </trkpt>
      <trkpt lat="48.07827" lon="7.24349">
        <ele>284.69</ele>
        <time>2009-09-27T07:14:36Z</time>
      </trkpt>
      <trkpt lat="48.07823" lon="7.24292">
        <ele>286.61</ele>
        <time>2009-09-27T07:14:51Z</time>
      </trkpt>
      <trkpt lat="48.07831" lon="7.24256">
        <ele>289.97</ele>
        <time>2009-09-27T07:15:02Z</time>
      </trkpt>
      <trkpt lat="48.07836" lon="7.24224">
        <ele>291.9</ele>
        <time>2009-09-27T07:15:12Z</time>
      </trkpt>
      <trkpt lat="48.07835" lon="7.24194">
        <ele>292.86</ele>
        <time>2009-09-27T07:15:21Z</time>
      </trkpt>
      <trkpt lat="48.07834" lon="7.24191">
        <ele>293.34</ele>
        <time>2009-09-27T07:15:22Z</time>
      </trkpt>
      <trkpt lat="48.07832" lon="7.2419">
        <ele>293.34</ele>
        <time>2009-09-27T07:15:23Z</time>
      </trkpt>
      <trkpt lat="48.07793" lon="7.24177">
        <ele>294.3</ele>
        <time>2009-09-27T07:15:35Z</time>
      </trkpt>
      <trkpt lat="48.07789" lon="7.24176">
        <ele>294.3</ele>
        <time>2009-09-27T07:15:36Z</time>
      </trkpt>
      <trkpt lat="48.07781" lon="7.24175">
        <ele>293.82</ele>
        <time>2009-09-27T07:15:38Z</time>
      </trkpt>
      <trkpt lat="48.07715" lon="7.24147">
        <ele>295.74</ele>
        <time>2009-09-27T07:15:54Z</time>
      </trkpt>
      <trkpt lat="48.07712" lon="7.24144">
        <ele>294.3</ele>
        <time>2009-09-27T07:15:55Z</time>
      </trkpt>
      <trkpt lat="48.07677" lon="7.24115">
        <ele>295.26</ele>
        <time>2009-09-27T07:16:04Z</time>
      </trkpt>
      <trkpt lat="48.07672" lon="7.24112">
        <ele>295.26</ele>
        <time>2009-09-27T07:16:05Z</time>
      </trkpt>
      <trkpt lat="48.07666" lon="7.24111">
        <ele>295.26</ele>
        <time>2009-09-27T07:16:06Z</time>
      </trkpt>
      <trkpt lat="48.07661" lon="7.2411">
        <ele>294.3</ele>
        <time>2009-09-27T07:16:07Z</time>
      </trkpt>
      <trkpt lat="48.07655" lon="7.2411">
        <ele>293.34</ele>
        <time>2009-09-27T07:16:08Z</time>
      </trkpt>
      <trkpt lat="48.0758" lon="7.24096">
        <ele>295.74</ele>
        <time>2009-09-27T07:16:23Z</time>
      </trkpt>
      <trkpt lat="48.07575" lon="7.24093">
        <ele>294.78</ele>
        <time>2009-09-27T07:16:24Z</time>
      </trkpt>
      <trkpt lat="48.07567" lon="7.24086">
        <ele>294.3</ele>
        <time>2009-09-27T07:16:26Z</time>
      </trkpt>
      <trkpt lat="48.07556" lon="7.24072">
        <ele>294.78</ele>
        <time>2009-09-27T07:16:29Z</time>
      </trkpt>
      <trkpt lat="48.07553" lon="7.24067">
        <ele>295.26</ele>
        <time>2009-09-27T07:16:30Z</time>
      </trkpt>
      <trkpt lat="48.07515" lon="7.24004">
        <ele>297.67</ele>
        <time>2009-09-27T07:16:44Z</time>
      </trkpt>
      <trkpt lat="48.07489" lon="7.23953">
        <ele>301.03</ele>
        <time>2009-09-27T07:16:58Z</time>
      </trkpt>
      <trkpt lat="48.07487" lon="7.23949">
        <ele>299.59</ele>
        <time>2009-09-27T07:16:59Z</time>
      </trkpt>
      <trkpt lat="48.07484" lon="7.23944">
        <ele>301.51</ele>
        <time>2009-09-27T07:17:00Z</time>
      </trkpt>
      <trkpt lat="48.07477" lon="7.23937">
        <ele>301.51</ele>
        <time>2009-09-27T07:17:02Z</time>
      </trkpt>
      <trkpt lat="48.07472" lon="7.23934">
        <ele>300.07</ele>
        <time>2009-09-27T07:17:03Z</time>
      </trkpt>
      <trkpt lat="48.07452" lon="7.2392">
        <ele>299.59</ele>
        <time>2009-09-27T07:17:07Z</time>
      </trkpt>
      <trkpt lat="48.07447" lon="7.23914">
        <ele>299.59</ele>
        <time>2009-09-27T07:17:08Z</time>
      </trkpt>
      <trkpt lat="48.07427" lon="7.23877">
        <ele>299.11</ele>
        <time>2009-09-27T07:17:14Z</time>
      </trkpt>
      <trkpt lat="48.07425" lon="7.2387">
        <ele>300.07</ele>
        <time>2009-09-27T07:17:15Z</time>
      </trkpt>
      <trkpt lat="48.07423" lon="7.23864">
        <ele>298.63</ele>
        <time>2009-09-27T07:17:16Z</time>
      </trkpt>
      <trkpt lat="48.07422" lon="7.23857">
        <ele>299.11</ele>
        <time>2009-09-27T07:17:17Z</time>
      </trkpt>
      <trkpt lat="48.07421" lon="7.2385">
        <ele>299.59</ele>
        <time>2009-09-27T07:17:18Z</time>
      </trkpt>
      <trkpt lat="48.07404" lon="7.23798">
        <ele>299.11</ele>
        <time>2009-09-27T07:17:28Z</time>
      </trkpt>
      <trkpt lat="48.07397" lon="7.23776">
        <ele>298.63</ele>
        <time>2009-09-27T07:17:32Z</time>
      </trkpt>
      <trkpt lat="48.07395" lon="7.2377">
        <ele>298.15</ele>
        <time>2009-09-27T07:17:33Z</time>
      </trkpt>
      <trkpt lat="48.07393" lon="7.23763">
        <ele>298.15</ele>
        <time>2009-09-27T07:17:34Z</time>
      </trkpt>
      <trkpt lat="48.0739" lon="7.23757">
        <ele>298.63</ele>
        <time>2009-09-27T07:17:35Z</time>
      </trkpt>
      <trkpt lat="48.07387" lon="7.23752">
        <ele>298.15</ele>
        <time>2009-09-27T07:17:36Z</time>
      </trkpt>
      <trkpt lat="48.07383" lon="7.23746">
        <ele>297.67</ele>
        <time>2009-09-27T07:17:37Z</time>
      </trkpt>
      <trkpt lat="48.0738" lon="7.23738">
        <ele>297.18</ele>
        <time>2009-09-27T07:17:38Z</time>
      </trkpt>
      <trkpt lat="48.07379" lon="7.23731">
        <ele>297.18</ele>
        <time>2009-09-27T07:17:39Z</time>
      </trkpt>
      <trkpt lat="48.07378" lon="7.23724">
        <ele>297.67</ele>
        <time>2009-09-27T07:17:40Z</time>
      </trkpt>
      <trkpt lat="48.07379" lon="7.23717">
        <ele>297.67</ele>
        <time>2009-09-27T07:17:41Z</time>
      </trkpt>
      <trkpt lat="48.0738" lon="7.2371">
        <ele>298.15</ele>
        <time>2009-09-27T07:17:42Z</time>
      </trkpt>
      <trkpt lat="48.0738" lon="7.23703">
        <ele>297.67</ele>
        <time>2009-09-27T07:17:43Z</time>
      </trkpt>
      <trkpt lat="48.07381" lon="7.23691">
        <ele>298.63</ele>
        <time>2009-09-27T07:17:45Z</time>
      </trkpt>
      <trkpt lat="48.07377" lon="7.23674">
        <ele>298.63</ele>
        <time>2009-09-27T07:17:48Z</time>
      </trkpt>
      <trkpt lat="48.07378" lon="7.23668">
        <ele>298.63</ele>
        <time>2009-09-27T07:17:49Z</time>
      </trkpt>
      <trkpt lat="48.07379" lon="7.23661">
        <ele>298.63</ele>
        <time>2009-09-27T07:17:50Z</time>
      </trkpt>
      <trkpt lat="48.07381" lon="7.23655">
        <ele>299.11</ele>
        <time>2009-09-27T07:17:51Z</time>
      </trkpt>
      <trkpt lat="48.07383" lon="7.23649">
        <ele>299.11</ele>
        <time>2009-09-27T07:17:52Z</time>
      </trkpt>
      <trkpt lat="48.07401" lon="7.23587">
        <ele>301.51</ele>
        <time>2009-09-27T07:18:05Z</time>
      </trkpt>
      <trkpt lat="48.07402" lon="7.23582">
        <ele>301.51</ele>
        <time>2009-09-27T07:18:06Z</time>
      </trkpt>
      <trkpt lat="48.07402" lon="7.23578">
        <ele>301.51</ele>
        <time>2009-09-27T07:18:07Z</time>
      </trkpt>
      <trkpt lat="48.07402" lon="7.23574">
        <ele>301.99</ele>
        <time>2009-09-27T07:18:08Z</time>
      </trkpt>
      <trkpt lat="48.07401" lon="7.2357">
        <ele>301.51</ele>
        <time>2009-09-27T07:18:09Z</time>
      </trkpt>
      <trkpt lat="48.07399" lon="7.23567">
        <ele>302.47</ele>
        <time>2009-09-27T07:18:10Z</time>
      </trkpt>
      <trkpt lat="48.07396" lon="7.23561">
        <ele>301.99</ele>
        <time>2009-09-27T07:18:12Z</time>
      </trkpt>
      <trkpt lat="48.07395" lon="7.23556">
        <ele>302.47</ele>
        <time>2009-09-27T07:18:13Z</time>
      </trkpt>
      <trkpt lat="48.07397" lon="7.23551">
        <ele>302.95</ele>
        <time>2009-09-27T07:18:14Z</time>
      </trkpt>
      <trkpt lat="48.07399" lon="7.23548">
        <ele>302.95</ele>
        <time>2009-09-27T07:18:15Z</time>
      </trkpt>
      <trkpt lat="48.07403" lon="7.23545">
        <ele>302.47</ele>
        <time>2009-09-27T07:18:16Z</time>
      </trkpt>
      <trkpt lat="48.07407" lon="7.23544">
        <ele>303.91</ele>
        <time>2009-09-27T07:18:17Z</time>
      </trkpt>
      <trkpt lat="48.07412" lon="7.23538">
        <ele>303.43</ele>
        <time>2009-09-27T07:18:19Z</time>
      </trkpt>
      <trkpt lat="48.07412" lon="7.23533">
        <ele>303.91</ele>
        <time>2009-09-27T07:18:20Z</time>
      </trkpt>
      <trkpt lat="48.07414" lon="7.2352">
        <ele>304.39</ele>
        <time>2009-09-27T07:18:23Z</time>
      </trkpt>
      <trkpt lat="48.07418" lon="7.23519">
        <ele>303.91</ele>
        <time>2009-09-27T07:18:24Z</time>
      </trkpt>
      <trkpt lat="48.07421" lon="7.23518">
        <ele>304.39</ele>
        <time>2009-09-27T07:18:25Z</time>
      </trkpt>
      <trkpt lat="48.07424" lon="7.23509">
        <ele>305.36</ele>
        <time>2009-09-27T07:18:27Z</time>
      </trkpt>
      <trkpt lat="48.07426" lon="7.23506">
        <ele>304.39</ele>
        <time>2009-09-27T07:18:28Z</time>
      </trkpt>
      <trkpt lat="48.07428" lon="7.23503">
        <ele>306.32</ele>
        <time>2009-09-27T07:18:29Z</time>
      </trkpt>
      <trkpt lat="48.0743" lon="7.235">
        <ele>305.84</ele>
        <time>2009-09-27T07:18:30Z</time>
      </trkpt>
      <trkpt lat="48.07433" lon="7.23499">
        <ele>305.36</ele>
        <time>2009-09-27T07:18:31Z</time>
      </trkpt>
      <trkpt lat="48.07436" lon="7.23497">
        <ele>304.88</ele>
        <time>2009-09-27T07:18:32Z</time>
      </trkpt>
      <trkpt lat="48.07439" lon="7.23494">
        <ele>307.28</ele>
        <time>2009-09-27T07:18:33Z</time>
      </trkpt>
      <trkpt lat="48.07443" lon="7.23493">
        <ele>306.32</ele>
        <time>2009-09-27T07:18:34Z</time>
      </trkpt>
      <trkpt lat="48.07445" lon="7.23491">
        <ele>306.8</ele>
        <time>2009-09-27T07:18:35Z</time>
      </trkpt>
      <trkpt lat="48.07448" lon="7.23489">
        <ele>306.8</ele>
        <time>2009-09-27T07:18:36Z</time>
      </trkpt>
      <trkpt lat="48.0746" lon="7.23469">
        <ele>306.32</ele>
        <time>2009-09-27T07:18:42Z</time>
      </trkpt>
      <trkpt lat="48.07461" lon="7.23454">
        <ele>308.24</ele>
        <time>2009-09-27T07:18:45Z</time>
      </trkpt>
      <trkpt lat="48.0748" lon="7.23394">
        <ele>310.64</ele>
        <time>2009-09-27T07:18:58Z</time>
      </trkpt>
      <trkpt lat="48.07482" lon="7.23346">
        <ele>312.09</ele>
        <time>2009-09-27T07:19:08Z</time>
      </trkpt>
      <trkpt lat="48.07486" lon="7.23312">
        <ele>313.53</ele>
        <time>2009-09-27T07:19:15Z</time>
      </trkpt>
      <trkpt lat="48.07496" lon="7.23278">
        <ele>314.49</ele>
        <time>2009-09-27T07:19:23Z</time>
      </trkpt>
      <trkpt lat="48.07495" lon="7.23274">
        <ele>315.45</ele>
        <time>2009-09-27T07:19:24Z</time>
      </trkpt>
      <trkpt lat="48.07493" lon="7.23271">
        <ele>315.45</ele>
        <time>2009-09-27T07:19:25Z</time>
      </trkpt>
      <trkpt lat="48.07467" lon="7.23236">
        <ele>317.37</ele>
        <time>2009-09-27T07:19:38Z</time>
      </trkpt>
      <trkpt lat="48.07456" lon="7.23218">
        <ele>317.85</ele>
        <time>2009-09-27T07:19:43Z</time>
      </trkpt>
      <trkpt lat="48.07449" lon="7.23191">
        <ele>319.78</ele>
        <time>2009-09-27T07:19:50Z</time>
      </trkpt>
      <trkpt lat="48.07446" lon="7.23154">
        <ele>321.22</ele>
        <time>2009-09-27T07:19:59Z</time>
      </trkpt>
      <trkpt lat="48.07448" lon="7.23142">
        <ele>320.26</ele>
        <time>2009-09-27T07:20:02Z</time>
      </trkpt>
      <trkpt lat="48.07435" lon="7.23117">
        <ele>322.66</ele>
        <time>2009-09-27T07:20:09Z</time>
      </trkpt>
      <trkpt lat="48.07422" lon="7.23109">
        <ele>323.14</ele>
        <time>2009-09-27T07:20:13Z</time>
      </trkpt>
      <trkpt lat="48.0739" lon="7.23125">
        <ele>324.1</ele>
        <time>2009-09-27T07:20:25Z</time>
      </trkpt>
      <trkpt lat="48.07385" lon="7.23127">
        <ele>326.02</ele>
        <time>2009-09-27T07:20:27Z</time>
      </trkpt>
      <trkpt lat="48.07383" lon="7.23111">
        <ele>327.47</ele>
        <time>2009-09-27T07:20:33Z</time>
      </trkpt>
      <trkpt lat="48.07384" lon="7.23107">
        <ele>326.02</ele>
        <time>2009-09-27T07:20:34Z</time>
      </trkpt>
      <trkpt lat="48.07402" lon="7.23068">
        <ele>330.83</ele>
        <time>2009-09-27T07:20:48Z</time>
      </trkpt>
      <trkpt lat="48.0742" lon="7.23032">
        <ele>333.71</ele>
        <time>2009-09-27T07:21:01Z</time>
      </trkpt>
      <trkpt lat="48.07416" lon="7.22994">
        <ele>336.12</ele>
        <time>2009-09-27T07:21:14Z</time>
      </trkpt>
      <trkpt lat="48.07416" lon="7.22984">
        <ele>337.08</ele>
        <time>2009-09-27T07:21:18Z</time>
      </trkpt>
      <trkpt lat="48.07405" lon="7.22948">
        <ele>339</ele>
        <time>2009-09-27T07:21:32Z</time>
      </trkpt>
      <trkpt lat="48.07402" lon="7.22938">
        <ele>340.92</ele>
        <time>2009-09-27T07:21:36Z</time>
      </trkpt>
      <trkpt lat="48.07399" lon="7.22928">
        <ele>341.41</ele>
        <time>2009-09-27T07:21:40Z</time>
      </trkpt>
      <trkpt lat="48.07389" lon="7.22921">
        <ele>342.85</ele>
        <time>2009-09-27T07:21:47Z</time>
      </trkpt>
      <trkpt lat="48.07368" lon="7.22943">
        <ele>345.25</ele>
        <time>2009-09-27T07:21:57Z</time>
      </trkpt>
      <trkpt lat="48.07341" lon="7.22973">
        <ele>346.69</ele>
        <time>2009-09-27T07:22:10Z</time>
      </trkpt>
      <trkpt lat="48.07317" lon="7.23014">
        <ele>345.25</ele>
        <time>2009-09-27T07:22:24Z</time>
      </trkpt>
      <trkpt lat="48.07302" lon="7.23042">
        <ele>345.73</ele>
        <time>2009-09-27T07:22:30Z</time>
      </trkpt>
      <trkpt lat="48.07291" lon="7.2306">
        <ele>346.21</ele>
        <time>2009-09-27T07:22:34Z</time>
      </trkpt>
      <trkpt lat="48.07288" lon="7.23065">
        <ele>346.21</ele>
        <time>2009-09-27T07:22:35Z</time>
      </trkpt>
      <trkpt lat="48.07283" lon="7.23074">
        <ele>345.25</ele>
        <time>2009-09-27T07:22:37Z</time>
      </trkpt>
      <trkpt lat="48.0728" lon="7.23078">
        <ele>345.25</ele>
        <time>2009-09-27T07:22:38Z</time>
      </trkpt>
      <trkpt lat="48.07277" lon="7.23082">
        <ele>346.69</ele>
        <time>2009-09-27T07:22:39Z</time>
      </trkpt>
      <trkpt lat="48.07273" lon="7.23086">
        <ele>344.77</ele>
        <time>2009-09-27T07:22:40Z</time>
      </trkpt>
      <trkpt lat="48.0727" lon="7.23091">
        <ele>345.73</ele>
        <time>2009-09-27T07:22:41Z</time>
      </trkpt>
      <trkpt lat="48.07267" lon="7.23096">
        <ele>345.25</ele>
        <time>2009-09-27T07:22:42Z</time>
      </trkpt>
      <trkpt lat="48.07264" lon="7.23101">
        <ele>344.77</ele>
        <time>2009-09-27T07:22:43Z</time>
      </trkpt>
      <trkpt lat="48.07223" lon="7.23166">
        <ele>344.77</ele>
        <time>2009-09-27T07:22:56Z</time>
      </trkpt>
      <trkpt lat="48.07199" lon="7.23214">
        <ele>344.29</ele>
        <time>2009-09-27T07:23:08Z</time>
      </trkpt>
      <trkpt lat="48.07205" lon="7.23224">
        <ele>344.29</ele>
        <time>2009-09-27T07:23:11Z</time>
      </trkpt>
      <trkpt lat="48.07216" lon="7.23236">
        <ele>340.44</ele>
        <time>2009-09-27T07:23:14Z</time>
      </trkpt>
      <trkpt lat="48.07226" lon="7.23251">
        <ele>336.12</ele>
        <time>2009-09-27T07:23:18Z</time>
      </trkpt>
      <trkpt lat="48.07226" lon="7.23259">
        <ele>334.68</ele>
        <time>2009-09-27T07:23:21Z</time>
      </trkpt>
      <trkpt lat="48.07225" lon="7.23261">
        <ele>334.68</ele>
        <time>2009-09-27T07:23:22Z</time>
      </trkpt>
      <trkpt lat="48.07224" lon="7.23263">
        <ele>336.12</ele>
        <time>2009-09-27T07:23:23Z</time>
      </trkpt>
      <trkpt lat="48.07212" lon="7.23278">
        <ele>338.04</ele>
        <time>2009-09-27T07:23:30Z</time>
      </trkpt>
      <trkpt lat="48.07202" lon="7.2329">
        <ele>339</ele>
        <time>2009-09-27T07:23:36Z</time>
      </trkpt>
      <trkpt lat="48.07182" lon="7.23298">
        <ele>343.33</ele>
        <time>2009-09-27T07:23:48Z</time>
      </trkpt>
      <trkpt lat="48.07179" lon="7.23297">
        <ele>341.41</ele>
        <time>2009-09-27T07:23:50Z</time>
      </trkpt>
      <trkpt lat="48.07176" lon="7.23295">
        <ele>342.85</ele>
        <time>2009-09-27T07:23:52Z</time>
      </trkpt>
      <trkpt lat="48.07162" lon="7.23282">
        <ele>345.73</ele>
        <time>2009-09-27T07:24:02Z</time>
      </trkpt>
      <trkpt lat="48.07155" lon="7.2327">
        <ele>345.25</ele>
        <time>2009-09-27T07:24:08Z</time>
      </trkpt>
      <trkpt lat="48.07153" lon="7.23265">
        <ele>346.69</ele>
        <time>2009-09-27T07:24:10Z</time>
      </trkpt>
      <trkpt lat="48.07155" lon="7.23217">
        <ele>350.06</ele>
        <time>2009-09-27T07:24:25Z</time>
      </trkpt>
      <trkpt lat="48.07176" lon="7.23158">
        <ele>349.1</ele>
        <time>2009-09-27T07:24:39Z</time>
      </trkpt>
      <trkpt lat="48.07183" lon="7.23127">
        <ele>351.5</ele>
        <time>2009-09-27T07:24:48Z</time>
      </trkpt>
      <trkpt lat="48.07185" lon="7.23115">
        <ele>350.06</ele>
        <time>2009-09-27T07:24:52Z</time>
      </trkpt>
      <trkpt lat="48.07192" lon="7.23074">
        <ele>355.34</ele>
        <time>2009-09-27T07:25:08Z</time>
      </trkpt>
      <trkpt lat="48.07193" lon="7.23072">
        <ele>355.83</ele>
        <time>2009-09-27T07:25:09Z</time>
      </trkpt>
      <trkpt lat="48.07196" lon="7.23058">
        <ele>357.27</ele>
        <time>2009-09-27T07:25:15Z</time>
      </trkpt>
      <trkpt lat="48.07198" lon="7.23054">
        <ele>356.79</ele>
        <time>2009-09-27T07:25:17Z</time>
      </trkpt>
      <trkpt lat="48.07202" lon="7.23041">
        <ele>358.71</ele>
        <time>2009-09-27T07:25:23Z</time>
      </trkpt>
      <trkpt lat="48.07211" lon="7.2301">
        <ele>360.15</ele>
        <time>2009-09-27T07:25:35Z</time>
      </trkpt>
      <trkpt lat="48.0721" lon="7.22992">
        <ele>363.04</ele>
        <time>2009-09-27T07:25:41Z</time>
      </trkpt>
      <trkpt lat="48.07209" lon="7.22987">
        <ele>361.59</ele>
        <time>2009-09-27T07:25:44Z</time>
      </trkpt>
      <trkpt lat="48.0721" lon="7.22969">
        <ele>363.52</ele>
        <time>2009-09-27T07:25:55Z</time>
      </trkpt>
      <trkpt lat="48.07215" lon="7.22949">
        <ele>364</ele>
        <time>2009-09-27T07:26:04Z</time>
      </trkpt>
      <trkpt lat="48.07223" lon="7.2291">
        <ele>365.44</ele>
        <time>2009-09-27T07:26:18Z</time>
      </trkpt>
      <trkpt lat="48.07242" lon="7.22865">
        <ele>367.36</ele>
        <time>2009-09-27T07:26:33Z</time>
      </trkpt>
      <trkpt lat="48.07267" lon="7.22841">
        <ele>367.84</ele>
        <time>2009-09-27T07:26:46Z</time>
      </trkpt>
      <trkpt lat="48.07275" lon="7.22827">
        <ele>369.76</ele>
        <time>2009-09-27T07:26:52Z</time>
      </trkpt>
      <trkpt lat="48.07269" lon="7.2281">
        <ele>369.76</ele>
        <time>2009-09-27T07:26:58Z</time>
      </trkpt>
      <trkpt lat="48.07262" lon="7.2277">
        <ele>374.09</ele>
        <time>2009-09-27T07:27:11Z</time>
      </trkpt>
      <trkpt lat="48.07258" lon="7.22722">
        <ele>375.53</ele>
        <time>2009-09-27T07:27:25Z</time>
      </trkpt>
      <trkpt lat="48.07257" lon="7.22715">
        <ele>376.49</ele>
        <time>2009-09-27T07:27:27Z</time>
      </trkpt>
      <trkpt lat="48.07256" lon="7.22701">
        <ele>376.01</ele>
        <time>2009-09-27T07:27:31Z</time>
      </trkpt>
      <trkpt lat="48.07255" lon="7.22695">
        <ele>377.45</ele>
        <time>2009-09-27T07:27:33Z</time>
      </trkpt>
      <trkpt lat="48.07254" lon="7.22686">
        <ele>377.45</ele>
        <time>2009-09-27T07:27:36Z</time>
      </trkpt>
      <trkpt lat="48.07253" lon="7.22663">
        <ele>379.38</ele>
        <time>2009-09-27T07:27:44Z</time>
      </trkpt>
      <trkpt lat="48.07254" lon="7.22633">
        <ele>383.22</ele>
        <time>2009-09-27T07:27:54Z</time>
      </trkpt>
      <trkpt lat="48.07253" lon="7.22619">
        <ele>382.74</ele>
        <time>2009-09-27T07:27:58Z</time>
      </trkpt>
      <trkpt lat="48.07239" lon="7.22598">
        <ele>383.7</ele>
        <time>2009-09-27T07:28:06Z</time>
      </trkpt>
      <trkpt lat="48.07226" lon="7.2259">
        <ele>383.7</ele>
        <time>2009-09-27T07:28:13Z</time>
      </trkpt>
      <trkpt lat="48.07216" lon="7.22576">
        <ele>384.66</ele>
        <time>2009-09-27T07:28:19Z</time>
      </trkpt>
      <trkpt lat="48.072" lon="7.22547">
        <ele>386.59</ele>
        <time>2009-09-27T07:28:30Z</time>
      </trkpt>
      <trkpt lat="48.07194" lon="7.22522">
        <ele>388.51</ele>
        <time>2009-09-27T07:28:39Z</time>
      </trkpt>
      <trkpt lat="48.07178" lon="7.22497">
        <ele>389.95</ele>
        <time>2009-09-27T07:28:47Z</time>
      </trkpt>
      <trkpt lat="48.0716" lon="7.22483">
        <ele>393.32</ele>
        <time>2009-09-27T07:28:55Z</time>
      </trkpt>
      <trkpt lat="48.0715" lon="7.22472">
        <ele>394.76</ele>
        <time>2009-09-27T07:29:02Z</time>
      </trkpt>
      <trkpt lat="48.0715" lon="7.22466">
        <ele>396.2</ele>
        <time>2009-09-27T07:29:06Z</time>
      </trkpt>
      <trkpt lat="48.07148" lon="7.22456">
        <ele>396.2</ele>
        <time>2009-09-27T07:29:12Z</time>
      </trkpt>
      <trkpt lat="48.07142" lon="7.22436">
        <ele>398.6</ele>
        <time>2009-09-27T07:29:20Z</time>
      </trkpt>
      <trkpt lat="48.07141" lon="7.22434">
        <ele>399.08</ele>
        <time>2009-09-27T07:29:21Z</time>
      </trkpt>
      <trkpt lat="48.07138" lon="7.22429">
        <ele>401.01</ele>
        <time>2009-09-27T07:29:23Z</time>
      </trkpt>
      <trkpt lat="48.07135" lon="7.22426">
        <ele>399.08</ele>
        <time>2009-09-27T07:29:25Z</time>
      </trkpt>
      <trkpt lat="48.07124" lon="7.22412">
        <ele>401.49</ele>
        <time>2009-09-27T07:29:34Z</time>
      </trkpt>
      <trkpt lat="48.07121" lon="7.22406">
        <ele>405.81</ele>
        <time>2009-09-27T07:29:41Z</time>
      </trkpt>
      <trkpt lat="48.0712" lon="7.22406">
        <ele>405.33</ele>
        <time>2009-09-27T07:29:42Z</time>
      </trkpt>
      <trkpt lat="48.07111" lon="7.22396">
        <ele>406.77</ele>
        <time>2009-09-27T07:29:52Z</time>
      </trkpt>
      <trkpt lat="48.07107" lon="7.22394">
        <ele>406.77</ele>
        <time>2009-09-27T07:29:54Z</time>
      </trkpt>
      <trkpt lat="48.07105" lon="7.22393">
        <ele>407.74</ele>
        <time>2009-09-27T07:29:56Z</time>
      </trkpt>
      <trkpt lat="48.07103" lon="7.22391">
        <ele>406.29</ele>
        <time>2009-09-27T07:30:11Z</time>
      </trkpt>
      <trkpt lat="48.07103" lon="7.22391">
        <ele>409.66</ele>
        <time>2009-09-27T07:30:14Z</time>
      </trkpt>
      <trkpt lat="48.07103" lon="7.22391">
        <ele>409.18</ele>
        <time>2009-09-27T07:30:15Z</time>
      </trkpt>
      <trkpt lat="48.07103" lon="7.22391">
        <ele>408.22</ele>
        <time>2009-09-27T07:30:16Z</time>
      </trkpt>
      <trkpt lat="48.07102" lon="7.22391">
        <ele>411.58</ele>
        <time>2009-09-27T07:30:35Z</time>
      </trkpt>
      <trkpt lat="48.07102" lon="7.22391">
        <ele>410.14</ele>
        <time>2009-09-27T07:30:36Z</time>
      </trkpt>
      <trkpt lat="48.07098" lon="7.22389">
        <ele>409.66</ele>
        <time>2009-09-27T07:30:45Z</time>
      </trkpt>
      <trkpt lat="48.07098" lon="7.22389">
        <ele>408.7</ele>
        <time>2009-09-27T07:30:47Z</time>
      </trkpt>
      <trkpt lat="48.07098" lon="7.22389">
        <ele>408.22</ele>
        <time>2009-09-27T07:30:54Z</time>
      </trkpt>
      <trkpt lat="48.07091" lon="7.22381">
        <ele>410.14</ele>
        <time>2009-09-27T07:31:24Z</time>
      </trkpt>
      <trkpt lat="48.07083" lon="7.22378">
        <ele>411.1</ele>
        <time>2009-09-27T07:31:30Z</time>
      </trkpt>
      <trkpt lat="48.0708" lon="7.22377">
        <ele>412.54</ele>
        <time>2009-09-27T07:31:32Z</time>
      </trkpt>
      <trkpt lat="48.07069" lon="7.22372">
        <ele>413.5</ele>
        <time>2009-09-27T07:31:39Z</time>
      </trkpt>
      <trkpt lat="48.07065" lon="7.22372">
        <ele>415.91</ele>
        <time>2009-09-27T07:31:42Z</time>
      </trkpt>
      <trkpt lat="48.07048" lon="7.22361">
        <ele>418.79</ele>
        <time>2009-09-27T07:31:55Z</time>
      </trkpt>
      <trkpt lat="48.07042" lon="7.22358">
        <ele>419.75</ele>
        <time>2009-09-27T07:32:00Z</time>
      </trkpt>
      <trkpt lat="48.07039" lon="7.22357">
        <ele>421.19</ele>
        <time>2009-09-27T07:32:03Z</time>
      </trkpt>
      <trkpt lat="48.07033" lon="7.22357">
        <ele>421.19</ele>
        <time>2009-09-27T07:32:07Z</time>
      </trkpt>
      <trkpt lat="48.07021" lon="7.22358">
        <ele>424.56</ele>
        <time>2009-09-27T07:32:16Z</time>
      </trkpt>
      <trkpt lat="48.07013" lon="7.22358">
        <ele>426.48</ele>
        <time>2009-09-27T07:32:20Z</time>
      </trkpt>
      <trkpt lat="48.06993" lon="7.2236">
        <ele>427.92</ele>
        <time>2009-09-27T07:32:32Z</time>
      </trkpt>
      <trkpt lat="48.06991" lon="7.22359">
        <ele>426.96</ele>
        <time>2009-09-27T07:32:33Z</time>
      </trkpt>
      <trkpt lat="48.06988" lon="7.2236">
        <ele>429.37</ele>
        <time>2009-09-27T07:32:35Z</time>
      </trkpt>
      <trkpt lat="48.06987" lon="7.22361">
        <ele>428.89</ele>
        <time>2009-09-27T07:32:36Z</time>
      </trkpt>
      <trkpt lat="48.06985" lon="7.2236">
        <ele>430.81</ele>
        <time>2009-09-27T07:32:38Z</time>
      </trkpt>
      <trkpt lat="48.06979" lon="7.2236">
        <ele>430.33</ele>
        <time>2009-09-27T07:32:42Z</time>
      </trkpt>
      <trkpt lat="48.06972" lon="7.22361">
        <ele>431.77</ele>
        <time>2009-09-27T07:32:47Z</time>
      </trkpt>
      <trkpt lat="48.06955" lon="7.22363">
        <ele>433.69</ele>
        <time>2009-09-27T07:33:01Z</time>
      </trkpt>
      <trkpt lat="48.0693" lon="7.22366">
        <ele>436.1</ele>
        <time>2009-09-27T07:33:13Z</time>
      </trkpt>
      <trkpt lat="48.06924" lon="7.22363">
        <ele>435.61</ele>
        <time>2009-09-27T07:33:15Z</time>
      </trkpt>
      <trkpt lat="48.06902" lon="7.22356">
        <ele>435.13</ele>
        <time>2009-09-27T07:33:22Z</time>
      </trkpt>
      <trkpt lat="48.06897" lon="7.22357">
        <ele>432.73</ele>
        <time>2009-09-27T07:33:23Z</time>
      </trkpt>
      <trkpt lat="48.06891" lon="7.22358">
        <ele>431.29</ele>
        <time>2009-09-27T07:33:24Z</time>
      </trkpt>
      <trkpt lat="48.06884" lon="7.22358">
        <ele>432.25</ele>
        <time>2009-09-27T07:33:25Z</time>
      </trkpt>
      <trkpt lat="48.06872" lon="7.22359">
        <ele>429.37</ele>
        <time>2009-09-27T07:33:27Z</time>
      </trkpt>
      <trkpt lat="48.06867" lon="7.2236">
        <ele>427.92</ele>
        <time>2009-09-27T07:33:28Z</time>
      </trkpt>
      <trkpt lat="48.06862" lon="7.22362">
        <ele>426.48</ele>
        <time>2009-09-27T07:33:29Z</time>
      </trkpt>
      <trkpt lat="48.06858" lon="7.22363">
        <ele>426</ele>
        <time>2009-09-27T07:33:30Z</time>
      </trkpt>
      <trkpt lat="48.06854" lon="7.22362">
        <ele>426</ele>
        <time>2009-09-27T07:33:31Z</time>
      </trkpt>
      <trkpt lat="48.06852" lon="7.22361">
        <ele>425.52</ele>
        <time>2009-09-27T07:33:32Z</time>
      </trkpt>
      <trkpt lat="48.06851" lon="7.22359">
        <ele>423.12</ele>
        <time>2009-09-27T07:33:33Z</time>
      </trkpt>
      <trkpt lat="48.0685" lon="7.22357">
        <ele>424.08</ele>
        <time>2009-09-27T07:33:34Z</time>
      </trkpt>
      <trkpt lat="48.06851" lon="7.22355">
        <ele>425.04</ele>
        <time>2009-09-27T07:33:35Z</time>
      </trkpt>
      <trkpt lat="48.06852" lon="7.22354">
        <ele>424.56</ele>
        <time>2009-09-27T07:33:36Z</time>
      </trkpt>
      <trkpt lat="48.06858" lon="7.22346">
        <ele>427.92</ele>
        <time>2009-09-27T07:33:42Z</time>
      </trkpt>
      <trkpt lat="48.06859" lon="7.22345">
        <ele>426.96</ele>
        <time>2009-09-27T07:33:43Z</time>
      </trkpt>
      <trkpt lat="48.06869" lon="7.22328">
        <ele>429.85</ele>
        <time>2009-09-27T07:33:56Z</time>
      </trkpt>
      <trkpt lat="48.06871" lon="7.22325">
        <ele>428.89</ele>
        <time>2009-09-27T07:33:58Z</time>
      </trkpt>
      <trkpt lat="48.06872" lon="7.22324">
        <ele>431.77</ele>
        <time>2009-09-27T07:33:59Z</time>
      </trkpt>
      <trkpt lat="48.06873" lon="7.22323">
        <ele>432.25</ele>
        <time>2009-09-27T07:34:00Z</time>
      </trkpt>
      <trkpt lat="48.06874" lon="7.22321">
        <ele>433.21</ele>
        <time>2009-09-27T07:34:01Z</time>
      </trkpt>
      <trkpt lat="48.06875" lon="7.2232">
        <ele>431.29</ele>
        <time>2009-09-27T07:34:02Z</time>
      </trkpt>
      <trkpt lat="48.06877" lon="7.22319">
        <ele>430.81</ele>
        <time>2009-09-27T07:34:03Z</time>
      </trkpt>
      <trkpt lat="48.06878" lon="7.22318">
        <ele>430.81</ele>
        <time>2009-09-27T07:34:04Z</time>
      </trkpt>
      <trkpt lat="48.06879" lon="7.22316">
        <ele>430.33</ele>
        <time>2009-09-27T07:34:05Z</time>
      </trkpt>
      <trkpt lat="48.0688" lon="7.22315">
        <ele>430.33</ele>
        <time>2009-09-27T07:34:06Z</time>
      </trkpt>
      <trkpt lat="48.06881" lon="7.22314">
        <ele>432.25</ele>
        <time>2009-09-27T07:34:07Z</time>
      </trkpt>
      <trkpt lat="48.06882" lon="7.22313">
        <ele>432.25</ele>
        <time>2009-09-27T07:34:08Z</time>
      </trkpt>
      <trkpt lat="48.06883" lon="7.22312">
        <ele>433.21</ele>
        <time>2009-09-27T07:34:09Z</time>
      </trkpt>
      <trkpt lat="48.06885" lon="7.22311">
        <ele>432.73</ele>
        <time>2009-09-27T07:34:10Z</time>
      </trkpt>
      <trkpt lat="48.06904" lon="7.22297">
        <ele>435.61</ele>
        <time>2009-09-27T07:34:24Z</time>
      </trkpt>
      <trkpt lat="48.06906" lon="7.22295">
        <ele>437.06</ele>
        <time>2009-09-27T07:34:26Z</time>
      </trkpt>
      <trkpt lat="48.06916" lon="7.22289">
        <ele>437.06</ele>
        <time>2009-09-27T07:34:33Z</time>
      </trkpt>
      <trkpt lat="48.06918" lon="7.22289">
        <ele>438.5</ele>
        <time>2009-09-27T07:34:34Z</time>
      </trkpt>
      <trkpt lat="48.06919" lon="7.22289">
        <ele>437.54</ele>
        <time>2009-09-27T07:34:35Z</time>
      </trkpt>
      <trkpt lat="48.06921" lon="7.22288">
        <ele>438.5</ele>
        <time>2009-09-27T07:34:36Z</time>
      </trkpt>
      <trkpt lat="48.06922" lon="7.22287">
        <ele>438.5</ele>
        <time>2009-09-27T07:34:37Z</time>
      </trkpt>
      <trkpt lat="48.06923" lon="7.22286">
        <ele>438.02</ele>
        <time>2009-09-27T07:34:38Z</time>
      </trkpt>
      <trkpt lat="48.06924" lon="7.22285">
        <ele>438.02</ele>
        <time>2009-09-27T07:34:39Z</time>
      </trkpt>
      <trkpt lat="48.06925" lon="7.22284">
        <ele>438.98</ele>
        <time>2009-09-27T07:34:40Z</time>
      </trkpt>
      <trkpt lat="48.06926" lon="7.22283">
        <ele>438.5</ele>
        <time>2009-09-27T07:34:41Z</time>
      </trkpt>
      <trkpt lat="48.06933" lon="7.22277">
        <ele>439.46</ele>
        <time>2009-09-27T07:34:47Z</time>
      </trkpt>
      <trkpt lat="48.06937" lon="7.22271">
        <ele>440.9</ele>
        <time>2009-09-27T07:34:51Z</time>
      </trkpt>
      <trkpt lat="48.06939" lon="7.2227">
        <ele>440.9</ele>
        <time>2009-09-27T07:34:52Z</time>
      </trkpt>
      <trkpt lat="48.0694" lon="7.22269">
        <ele>440.42</ele>
        <time>2009-09-27T07:34:53Z</time>
      </trkpt>
      <trkpt lat="48.06942" lon="7.22267">
        <ele>439.94</ele>
        <time>2009-09-27T07:34:54Z</time>
      </trkpt>
      <trkpt lat="48.06943" lon="7.22266">
        <ele>440.42</ele>
        <time>2009-09-27T07:34:55Z</time>
      </trkpt>
      <trkpt lat="48.06945" lon="7.22265">
        <ele>441.38</ele>
        <time>2009-09-27T07:34:56Z</time>
      </trkpt>
      <trkpt lat="48.06946" lon="7.22263">
        <ele>439.46</ele>
        <time>2009-09-27T07:34:57Z</time>
      </trkpt>
      <trkpt lat="48.06947" lon="7.22262">
        <ele>439.46</ele>
        <time>2009-09-27T07:34:58Z</time>
      </trkpt>
      <trkpt lat="48.0696" lon="7.22248">
        <ele>442.82</ele>
        <time>2009-09-27T07:35:08Z</time>
      </trkpt>
      <trkpt lat="48.06961" lon="7.22246">
        <ele>443.31</ele>
        <time>2009-09-27T07:35:09Z</time>
      </trkpt>
      <trkpt lat="48.06974" lon="7.22234">
        <ele>444.75</ele>
        <time>2009-09-27T07:35:18Z</time>
      </trkpt>
      <trkpt lat="48.06975" lon="7.22234">
        <ele>443.31</ele>
        <time>2009-09-27T07:35:19Z</time>
      </trkpt>
      <trkpt lat="48.06977" lon="7.22233">
        <ele>445.71</ele>
        <time>2009-09-27T07:35:20Z</time>
      </trkpt>
      <trkpt lat="48.06978" lon="7.22233">
        <ele>443.31</ele>
        <time>2009-09-27T07:35:21Z</time>
      </trkpt>
      <trkpt lat="48.06984" lon="7.22229">
        <ele>444.75</ele>
        <time>2009-09-27T07:35:25Z</time>
      </trkpt>
      <trkpt lat="48.06985" lon="7.22228">
        <ele>444.27</ele>
        <time>2009-09-27T07:35:26Z</time>
      </trkpt>
      <trkpt lat="48.06988" lon="7.22225">
        <ele>445.71</ele>
        <time>2009-09-27T07:35:28Z</time>
      </trkpt>
      <trkpt lat="48.06989" lon="7.22223">
        <ele>445.23</ele>
        <time>2009-09-27T07:35:29Z</time>
      </trkpt>
      <trkpt lat="48.0699" lon="7.22222">
        <ele>446.19</ele>
        <time>2009-09-27T07:35:30Z</time>
      </trkpt>
      <trkpt lat="48.06991" lon="7.22222">
        <ele>447.63</ele>
        <time>2009-09-27T07:35:31Z</time>
      </trkpt>
      <trkpt lat="48.06993" lon="7.2222">
        <ele>446.67</ele>
        <time>2009-09-27T07:35:32Z</time>
      </trkpt>
      <trkpt lat="48.06997" lon="7.22216">
        <ele>447.15</ele>
        <time>2009-09-27T07:35:36Z</time>
      </trkpt>
      <trkpt lat="48.06998" lon="7.22214">
        <ele>449.07</ele>
        <time>2009-09-27T07:35:37Z</time>
      </trkpt>
      <trkpt lat="48.07006" lon="7.22184">
        <ele>450.03</ele>
        <time>2009-09-27T07:35:51Z</time>
      </trkpt>
      <trkpt lat="48.07007" lon="7.22182">
        <ele>450.03</ele>
        <time>2009-09-27T07:35:52Z</time>
      </trkpt>
      <trkpt lat="48.07009" lon="7.22174">
        <ele>452.44</ele>
        <time>2009-09-27T07:35:56Z</time>
      </trkpt>
      <trkpt lat="48.07009" lon="7.22172">
        <ele>450.52</ele>
        <time>2009-09-27T07:35:57Z</time>
      </trkpt>
      <trkpt lat="48.07009" lon="7.22168">
        <ele>451</ele>
        <time>2009-09-27T07:35:58Z</time>
      </trkpt>
      <trkpt lat="48.07009" lon="7.22165">
        <ele>451.48</ele>
        <time>2009-09-27T07:35:59Z</time>
      </trkpt>
      <trkpt lat="48.07009" lon="7.22163">
        <ele>451.96</ele>
        <time>2009-09-27T07:36:00Z</time>
      </trkpt>
      <trkpt lat="48.07009" lon="7.22141">
        <ele>455.32</ele>
        <time>2009-09-27T07:36:08Z</time>
      </trkpt>
      <trkpt lat="48.07009" lon="7.22116">
        <ele>456.76</ele>
        <time>2009-09-27T07:36:19Z</time>
      </trkpt>
      <trkpt lat="48.07008" lon="7.2211">
        <ele>457.24</ele>
        <time>2009-09-27T07:36:22Z</time>
      </trkpt>
      <trkpt lat="48.07008" lon="7.22107">
        <ele>457.72</ele>
        <time>2009-09-27T07:36:23Z</time>
      </trkpt>
      <trkpt lat="48.07008" lon="7.22105">
        <ele>458.21</ele>
        <time>2009-09-27T07:36:24Z</time>
      </trkpt>
      <trkpt lat="48.07008" lon="7.22097">
        <ele>456.28</ele>
        <time>2009-09-27T07:36:27Z</time>
      </trkpt>
      <trkpt lat="48.07007" lon="7.22079">
        <ele>457.72</ele>
        <time>2009-09-27T07:36:33Z</time>
      </trkpt>
      <trkpt lat="48.07007" lon="7.22077">
        <ele>458.69</ele>
        <time>2009-09-27T07:36:34Z</time>
      </trkpt>
      <trkpt lat="48.07007" lon="7.22052">
        <ele>459.17</ele>
        <time>2009-09-27T07:36:43Z</time>
      </trkpt>
      <trkpt lat="48.07008" lon="7.22042">
        <ele>460.13</ele>
        <time>2009-09-27T07:36:47Z</time>
      </trkpt>
      <trkpt lat="48.07008" lon="7.2204">
        <ele>461.09</ele>
        <time>2009-09-27T07:36:48Z</time>
      </trkpt>
      <trkpt lat="48.07009" lon="7.22039">
        <ele>463.97</ele>
        <time>2009-09-27T07:36:49Z</time>
      </trkpt>
      <trkpt lat="48.07009" lon="7.22037">
        <ele>462.05</ele>
        <time>2009-09-27T07:36:50Z</time>
      </trkpt>
      <trkpt lat="48.07016" lon="7.22027">
        <ele>463.49</ele>
        <time>2009-09-27T07:36:57Z</time>
      </trkpt>
      <trkpt lat="48.07018" lon="7.22022">
        <ele>463.97</ele>
        <time>2009-09-27T07:37:00Z</time>
      </trkpt>
      <trkpt lat="48.07017" lon="7.22006">
        <ele>464.93</ele>
        <time>2009-09-27T07:37:07Z</time>
      </trkpt>
      <trkpt lat="48.07015" lon="7.21986">
        <ele>463.97</ele>
        <time>2009-09-27T07:37:16Z</time>
      </trkpt>
      <trkpt lat="48.07018" lon="7.21981">
        <ele>464.45</ele>
        <time>2009-09-27T07:37:19Z</time>
      </trkpt>
      <trkpt lat="48.07022" lon="7.21981">
        <ele>467.34</ele>
        <time>2009-09-27T07:37:25Z</time>
      </trkpt>
      <trkpt lat="48.07021" lon="7.21973">
        <ele>468.3</ele>
        <time>2009-09-27T07:37:38Z</time>
      </trkpt>
      <trkpt lat="48.07022" lon="7.21974">
        <ele>469.74</ele>
        <time>2009-09-27T07:37:40Z</time>
      </trkpt>
      <trkpt lat="48.07023" lon="7.21971">
        <ele>469.26</ele>
        <time>2009-09-27T07:37:48Z</time>
      </trkpt>
      <trkpt lat="48.07028" lon="7.21962">
        <ele>471.18</ele>
        <time>2009-09-27T07:37:54Z</time>
      </trkpt>
      <trkpt lat="48.07031" lon="7.21962">
        <ele>470.22</ele>
        <time>2009-09-27T07:37:56Z</time>
      </trkpt>
      <trkpt lat="48.0704" lon="7.21958">
        <ele>473.59</ele>
        <time>2009-09-27T07:38:03Z</time>
      </trkpt>
      <trkpt lat="48.07043" lon="7.21957">
        <ele>470.7</ele>
        <time>2009-09-27T07:38:06Z</time>
      </trkpt>
      <trkpt lat="48.07051" lon="7.21958">
        <ele>474.07</ele>
        <time>2009-09-27T07:38:13Z</time>
      </trkpt>
      <trkpt lat="48.07062" lon="7.21955">
        <ele>476.47</ele>
        <time>2009-09-27T07:38:22Z</time>
      </trkpt>
      <trkpt lat="48.07067" lon="7.21953">
        <ele>475.03</ele>
        <time>2009-09-27T07:38:27Z</time>
      </trkpt>
      <trkpt lat="48.07079" lon="7.21953">
        <ele>478.87</ele>
        <time>2009-09-27T07:38:38Z</time>
      </trkpt>
      <trkpt lat="48.07085" lon="7.21955">
        <ele>480.8</ele>
        <time>2009-09-27T07:38:42Z</time>
      </trkpt>
      <trkpt lat="48.07088" lon="7.21954">
        <ele>480.8</ele>
        <time>2009-09-27T07:38:45Z</time>
      </trkpt>
      <trkpt lat="48.07101" lon="7.21954">
        <ele>483.68</ele>
        <time>2009-09-27T07:38:55Z</time>
      </trkpt>
      <trkpt lat="48.07109" lon="7.21953">
        <ele>483.68</ele>
        <time>2009-09-27T07:39:02Z</time>
      </trkpt>
      <trkpt lat="48.07111" lon="7.21955">
        <ele>485.12</ele>
        <time>2009-09-27T07:39:04Z</time>
      </trkpt>
      <trkpt lat="48.07126" lon="7.21954">
        <ele>485.6</ele>
        <time>2009-09-27T07:39:14Z</time>
      </trkpt>
      <trkpt lat="48.0713" lon="7.21955">
        <ele>486.56</ele>
        <time>2009-09-27T07:39:18Z</time>
      </trkpt>
      <trkpt lat="48.07137" lon="7.21952">
        <ele>487.53</ele>
        <time>2009-09-27T07:39:25Z</time>
      </trkpt>
      <trkpt lat="48.0714" lon="7.21952">
        <ele>488.97</ele>
        <time>2009-09-27T07:39:27Z</time>
      </trkpt>
      <trkpt lat="48.07143" lon="7.21952">
        <ele>488.97</ele>
        <time>2009-09-27T07:39:30Z</time>
      </trkpt>
      <trkpt lat="48.07145" lon="7.21951">
        <ele>490.89</ele>
        <time>2009-09-27T07:39:32Z</time>
      </trkpt>
      <trkpt lat="48.07152" lon="7.21946">
        <ele>491.37</ele>
        <time>2009-09-27T07:39:39Z</time>
      </trkpt>
      <trkpt lat="48.07161" lon="7.21939">
        <ele>494.26</ele>
        <time>2009-09-27T07:39:47Z</time>
      </trkpt>
      <trkpt lat="48.07162" lon="7.21937">
        <ele>494.26</ele>
        <time>2009-09-27T07:39:49Z</time>
      </trkpt>
      <trkpt lat="48.07167" lon="7.21928">
        <ele>494.74</ele>
        <time>2009-09-27T07:39:56Z</time>
      </trkpt>
      <trkpt lat="48.07167" lon="7.21927">
        <ele>494.74</ele>
        <time>2009-09-27T07:39:57Z</time>
      </trkpt>
      <trkpt lat="48.07168" lon="7.21923">
        <ele>495.7</ele>
        <time>2009-09-27T07:40:00Z</time>
      </trkpt>
      <trkpt lat="48.07169" lon="7.2192">
        <ele>495.22</ele>
        <time>2009-09-27T07:40:02Z</time>
      </trkpt>
      <trkpt lat="48.07173" lon="7.21908">
        <ele>496.18</ele>
        <time>2009-09-27T07:40:08Z</time>
      </trkpt>
      <trkpt lat="48.07173" lon="7.21901">
        <ele>497.14</ele>
        <time>2009-09-27T07:40:10Z</time>
      </trkpt>
      <trkpt lat="48.07173" lon="7.21896">
        <ele>498.58</ele>
        <time>2009-09-27T07:40:13Z</time>
      </trkpt>
      <trkpt lat="48.07174" lon="7.21889">
        <ele>499.06</ele>
        <time>2009-09-27T07:40:16Z</time>
      </trkpt>
      <trkpt lat="48.07176" lon="7.21882">
        <ele>499.06</ele>
        <time>2009-09-27T07:40:19Z</time>
      </trkpt>
      <trkpt lat="48.07178" lon="7.21878">
        <ele>499.54</ele>
        <time>2009-09-27T07:40:21Z</time>
      </trkpt>
      <trkpt lat="48.07183" lon="7.21857">
        <ele>502.91</ele>
        <time>2009-09-27T07:40:32Z</time>
      </trkpt>
      <trkpt lat="48.07183" lon="7.21846">
        <ele>504.83</ele>
        <time>2009-09-27T07:40:38Z</time>
      </trkpt>
      <trkpt lat="48.07185" lon="7.21844">
        <ele>502.43</ele>
        <time>2009-09-27T07:40:40Z</time>
      </trkpt>
      <trkpt lat="48.07185" lon="7.2184">
        <ele>503.87</ele>
        <time>2009-09-27T07:40:42Z</time>
      </trkpt>
      <trkpt lat="48.07187" lon="7.21831">
        <ele>504.83</ele>
        <time>2009-09-27T07:40:46Z</time>
      </trkpt>
      <trkpt lat="48.0719" lon="7.21807">
        <ele>509.16</ele>
        <time>2009-09-27T07:40:57Z</time>
      </trkpt>
      <trkpt lat="48.07193" lon="7.2179">
        <ele>510.6</ele>
        <time>2009-09-27T07:41:08Z</time>
      </trkpt>
      <trkpt lat="48.07197" lon="7.21776">
        <ele>512.04</ele>
        <time>2009-09-27T07:41:15Z</time>
      </trkpt>
      <trkpt lat="48.07201" lon="7.21766">
        <ele>513</ele>
        <time>2009-09-27T07:41:21Z</time>
      </trkpt>
      <trkpt lat="48.07201" lon="7.2176">
        <ele>513.48</ele>
        <time>2009-09-27T07:41:24Z</time>
      </trkpt>
      <trkpt lat="48.07206" lon="7.21748">
        <ele>512.52</ele>
        <time>2009-09-27T07:41:30Z</time>
      </trkpt>
      <trkpt lat="48.07212" lon="7.21736">
        <ele>516.85</ele>
        <time>2009-09-27T07:41:37Z</time>
      </trkpt>
      <trkpt lat="48.07216" lon="7.21731">
        <ele>516.37</ele>
        <time>2009-09-27T07:41:42Z</time>
      </trkpt>
      <trkpt lat="48.07224" lon="7.21721">
        <ele>520.21</ele>
        <time>2009-09-27T07:41:50Z</time>
      </trkpt>
      <trkpt lat="48.07232" lon="7.21706">
        <ele>520.21</ele>
        <time>2009-09-27T07:41:59Z</time>
      </trkpt>
      <trkpt lat="48.07234" lon="7.21703">
        <ele>522.13</ele>
        <time>2009-09-27T07:42:01Z</time>
      </trkpt>
      <trkpt lat="48.07245" lon="7.21689">
        <ele>523.09</ele>
        <time>2009-09-27T07:42:12Z</time>
      </trkpt>
      <trkpt lat="48.07252" lon="7.21681">
        <ele>524.06</ele>
        <time>2009-09-27T07:42:22Z</time>
      </trkpt>
      <trkpt lat="48.07262" lon="7.2167">
        <ele>528.86</ele>
        <time>2009-09-27T07:42:33Z</time>
      </trkpt>
      <trkpt lat="48.07262" lon="7.21669">
        <ele>528.38</ele>
        <time>2009-09-27T07:42:34Z</time>
      </trkpt>
      <trkpt lat="48.07263" lon="7.21668">
        <ele>527.9</ele>
        <time>2009-09-27T07:42:35Z</time>
      </trkpt>
      <trkpt lat="48.07265" lon="7.21667">
        <ele>529.82</ele>
        <time>2009-09-27T07:42:37Z</time>
      </trkpt>
      <trkpt lat="48.0727" lon="7.2166">
        <ele>529.82</ele>
        <time>2009-09-27T07:42:43Z</time>
      </trkpt>
      <trkpt lat="48.07274" lon="7.21651">
        <ele>529.82</ele>
        <time>2009-09-27T07:42:49Z</time>
      </trkpt>
      <trkpt lat="48.07274" lon="7.21648">
        <ele>530.3</ele>
        <time>2009-09-27T07:42:51Z</time>
      </trkpt>
      <trkpt lat="48.07276" lon="7.21645">
        <ele>532.23</ele>
        <time>2009-09-27T07:42:53Z</time>
      </trkpt>
      <trkpt lat="48.07285" lon="7.21631">
        <ele>532.71</ele>
        <time>2009-09-27T07:43:04Z</time>
      </trkpt>
      <trkpt lat="48.07294" lon="7.21617">
        <ele>536.07</ele>
        <time>2009-09-27T07:43:14Z</time>
      </trkpt>
      <trkpt lat="48.07295" lon="7.21615">
        <ele>536.07</ele>
        <time>2009-09-27T07:43:15Z</time>
      </trkpt>
      <trkpt lat="48.07298" lon="7.21609">
        <ele>535.59</ele>
        <time>2009-09-27T07:43:19Z</time>
      </trkpt>
      <trkpt lat="48.07309" lon="7.21594">
        <ele>538.96</ele>
        <time>2009-09-27T07:43:31Z</time>
      </trkpt>
      <trkpt lat="48.07315" lon="7.21584">
        <ele>539.92</ele>
        <time>2009-09-27T07:43:38Z</time>
      </trkpt>
      <trkpt lat="48.0732" lon="7.21574">
        <ele>542.32</ele>
        <time>2009-09-27T07:43:44Z</time>
      </trkpt>
      <trkpt lat="48.07321" lon="7.21571">
        <ele>541.36</ele>
        <time>2009-09-27T07:43:46Z</time>
      </trkpt>
      <trkpt lat="48.07323" lon="7.21563">
        <ele>541.84</ele>
        <time>2009-09-27T07:43:50Z</time>
      </trkpt>
      <trkpt lat="48.07322" lon="7.21556">
        <ele>542.8</ele>
        <time>2009-09-27T07:43:52Z</time>
      </trkpt>
      <trkpt lat="48.07324" lon="7.2155">
        <ele>544.24</ele>
        <time>2009-09-27T07:43:55Z</time>
      </trkpt>
      <trkpt lat="48.07326" lon="7.21542">
        <ele>545.69</ele>
        <time>2009-09-27T07:43:59Z</time>
      </trkpt>
      <trkpt lat="48.07333" lon="7.21532">
        <ele>544.24</ele>
        <time>2009-09-27T07:44:06Z</time>
      </trkpt>
      <trkpt lat="48.07335" lon="7.2153">
        <ele>546.65</ele>
        <time>2009-09-27T07:44:08Z</time>
      </trkpt>
      <trkpt lat="48.07337" lon="7.21527">
        <ele>547.61</ele>
        <time>2009-09-27T07:44:11Z</time>
      </trkpt>
      <trkpt lat="48.07339" lon="7.2152">
        <ele>548.09</ele>
        <time>2009-09-27T07:44:15Z</time>
      </trkpt>
      <trkpt lat="48.07342" lon="7.21511">
        <ele>549.05</ele>
        <time>2009-09-27T07:44:19Z</time>
      </trkpt>
      <trkpt lat="48.07342" lon="7.21511">
        <ele>549.53</ele>
        <time>2009-09-27T07:44:20Z</time>
      </trkpt>
      <trkpt lat="48.07348" lon="7.21491">
        <ele>550.97</ele>
        <time>2009-09-27T07:44:29Z</time>
      </trkpt>
      <trkpt lat="48.07351" lon="7.21486">
        <ele>550.97</ele>
        <time>2009-09-27T07:44:32Z</time>
      </trkpt>
      <trkpt lat="48.07355" lon="7.21473">
        <ele>553.86</ele>
        <time>2009-09-27T07:44:40Z</time>
      </trkpt>
      <trkpt lat="48.07357" lon="7.21466">
        <ele>553.38</ele>
        <time>2009-09-27T07:44:44Z</time>
      </trkpt>
      <trkpt lat="48.07358" lon="7.21453">
        <ele>556.74</ele>
        <time>2009-09-27T07:44:52Z</time>
      </trkpt>
      <trkpt lat="48.07358" lon="7.21451">
        <ele>556.26</ele>
        <time>2009-09-27T07:44:53Z</time>
      </trkpt>
      <trkpt lat="48.07359" lon="7.21444">
        <ele>557.22</ele>
        <time>2009-09-27T07:44:57Z</time>
      </trkpt>
      <trkpt lat="48.07361" lon="7.21428">
        <ele>558.18</ele>
        <time>2009-09-27T07:45:05Z</time>
      </trkpt>
      <trkpt lat="48.07362" lon="7.21424">
        <ele>558.66</ele>
        <time>2009-09-27T07:45:07Z</time>
      </trkpt>
      <trkpt lat="48.07362" lon="7.21416">
        <ele>559.62</ele>
        <time>2009-09-27T07:45:11Z</time>
      </trkpt>
      <trkpt lat="48.07363" lon="7.2141">
        <ele>560.11</ele>
        <time>2009-09-27T07:45:15Z</time>
      </trkpt>
      <trkpt lat="48.07361" lon="7.21389">
        <ele>561.55</ele>
        <time>2009-09-27T07:45:26Z</time>
      </trkpt>
      <trkpt lat="48.07362" lon="7.21382">
        <ele>563.47</ele>
        <time>2009-09-27T07:45:30Z</time>
      </trkpt>
      <trkpt lat="48.07361" lon="7.21379">
        <ele>562.03</ele>
        <time>2009-09-27T07:45:32Z</time>
      </trkpt>
      <trkpt lat="48.07361" lon="7.21373">
        <ele>565.39</ele>
        <time>2009-09-27T07:45:35Z</time>
      </trkpt>
      <trkpt lat="48.07359" lon="7.21358">
        <ele>564.43</ele>
        <time>2009-09-27T07:45:41Z</time>
      </trkpt>
      <trkpt lat="48.07358" lon="7.21337">
        <ele>566.35</ele>
        <time>2009-09-27T07:45:53Z</time>
      </trkpt>
      <trkpt lat="48.07355" lon="7.21328">
        <ele>568.28</ele>
        <time>2009-09-27T07:45:58Z</time>
      </trkpt>
      <trkpt lat="48.07353" lon="7.21322">
        <ele>570.68</ele>
        <time>2009-09-27T07:46:02Z</time>
      </trkpt>
      <trkpt lat="48.07353" lon="7.21315">
        <ele>568.28</ele>
        <time>2009-09-27T07:46:05Z</time>
      </trkpt>
      <trkpt lat="48.07353" lon="7.21308">
        <ele>571.16</ele>
        <time>2009-09-27T07:46:08Z</time>
      </trkpt>
      <trkpt lat="48.07353" lon="7.21304">
        <ele>571.16</ele>
        <time>2009-09-27T07:46:11Z</time>
      </trkpt>
      <trkpt lat="48.07353" lon="7.21299">
        <ele>572.6</ele>
        <time>2009-09-27T07:46:13Z</time>
      </trkpt>
      <trkpt lat="48.07353" lon="7.2129">
        <ele>574.04</ele>
        <time>2009-09-27T07:46:17Z</time>
      </trkpt>
      <trkpt lat="48.07354" lon="7.21287">
        <ele>573.56</ele>
        <time>2009-09-27T07:46:19Z</time>
      </trkpt>
      <trkpt lat="48.07354" lon="7.21274">
        <ele>574.53</ele>
        <time>2009-09-27T07:46:25Z</time>
      </trkpt>
      <trkpt lat="48.07353" lon="7.2127">
        <ele>574.53</ele>
        <time>2009-09-27T07:46:27Z</time>
      </trkpt>
      <trkpt lat="48.07352" lon="7.21267">
        <ele>573.08</ele>
        <time>2009-09-27T07:46:29Z</time>
      </trkpt>
      <trkpt lat="48.07353" lon="7.21264">
        <ele>574.04</ele>
        <time>2009-09-27T07:46:31Z</time>
      </trkpt>
      <trkpt lat="48.07354" lon="7.21257">
        <ele>577.41</ele>
        <time>2009-09-27T07:46:35Z</time>
      </trkpt>
      <trkpt lat="48.07354" lon="7.2125">
        <ele>576.93</ele>
        <time>2009-09-27T07:46:38Z</time>
      </trkpt>
      <trkpt lat="48.07359" lon="7.21237">
        <ele>578.85</ele>
        <time>2009-09-27T07:46:47Z</time>
      </trkpt>
      <trkpt lat="48.07362" lon="7.21232">
        <ele>579.81</ele>
        <time>2009-09-27T07:46:51Z</time>
      </trkpt>
      <trkpt lat="48.07364" lon="7.21228">
        <ele>579.33</ele>
        <time>2009-09-27T07:46:55Z</time>
      </trkpt>
      <trkpt lat="48.07371" lon="7.21218">
        <ele>583.18</ele>
        <time>2009-09-27T07:47:03Z</time>
      </trkpt>
      <trkpt lat="48.07379" lon="7.21209">
        <ele>582.22</ele>
        <time>2009-09-27T07:47:14Z</time>
      </trkpt>
      <trkpt lat="48.07384" lon="7.21206">
        <ele>583.66</ele>
        <time>2009-09-27T07:47:18Z</time>
      </trkpt>
      <trkpt lat="48.07385" lon="7.21204">
        <ele>584.62</ele>
        <time>2009-09-27T07:47:20Z</time>
      </trkpt>
      <trkpt lat="48.07388" lon="7.21198">
        <ele>584.62</ele>
        <time>2009-09-27T07:47:24Z</time>
      </trkpt>
      <trkpt lat="48.0739" lon="7.21195">
        <ele>585.58</ele>
        <time>2009-09-27T07:47:26Z</time>
      </trkpt>
      <trkpt lat="48.07392" lon="7.21191">
        <ele>586.06</ele>
        <time>2009-09-27T07:47:29Z</time>
      </trkpt>
      <trkpt lat="48.074" lon="7.21185">
        <ele>587.5</ele>
        <time>2009-09-27T07:47:37Z</time>
      </trkpt>
      <trkpt lat="48.07406" lon="7.2118">
        <ele>588.46</ele>
        <time>2009-09-27T07:47:43Z</time>
      </trkpt>
      <trkpt lat="48.07415" lon="7.21169">
        <ele>589.91</ele>
        <time>2009-09-27T07:47:53Z</time>
      </trkpt>
      <trkpt lat="48.07424" lon="7.21158">
        <ele>593.75</ele>
        <time>2009-09-27T07:48:03Z</time>
      </trkpt>
      <trkpt lat="48.07429" lon="7.2115">
        <ele>590.87</ele>
        <time>2009-09-27T07:48:10Z</time>
      </trkpt>
      <trkpt lat="48.07432" lon="7.21146">
        <ele>595.67</ele>
        <time>2009-09-27T07:48:13Z</time>
      </trkpt>
      <trkpt lat="48.07433" lon="7.21145">
        <ele>594.71</ele>
        <time>2009-09-27T07:48:14Z</time>
      </trkpt>
      <trkpt lat="48.07435" lon="7.21142">
        <ele>594.71</ele>
        <time>2009-09-27T07:48:16Z</time>
      </trkpt>
      <trkpt lat="48.07438" lon="7.21139">
        <ele>593.75</ele>
        <time>2009-09-27T07:48:19Z</time>
      </trkpt>
      <trkpt lat="48.07439" lon="7.21135">
        <ele>596.64</ele>
        <time>2009-09-27T07:48:22Z</time>
      </trkpt>
      <trkpt lat="48.07443" lon="7.21129">
        <ele>597.12</ele>
        <time>2009-09-27T07:48:26Z</time>
      </trkpt>
      <trkpt lat="48.07453" lon="7.21121">
        <ele>599.04</ele>
        <time>2009-09-27T07:48:36Z</time>
      </trkpt>
      <trkpt lat="48.07454" lon="7.21119">
        <ele>598.56</ele>
        <time>2009-09-27T07:48:37Z</time>
      </trkpt>
      <trkpt lat="48.07458" lon="7.21116">
        <ele>600.48</ele>
        <time>2009-09-27T07:48:41Z</time>
      </trkpt>
      <trkpt lat="48.0747" lon="7.21108">
        <ele>601.92</ele>
        <time>2009-09-27T07:48:51Z</time>
      </trkpt>
      <trkpt lat="48.07471" lon="7.21108">
        <ele>601.92</ele>
        <time>2009-09-27T07:48:52Z</time>
      </trkpt>
      <trkpt lat="48.07473" lon="7.21106">
        <ele>600.96</ele>
        <time>2009-09-27T07:48:54Z</time>
      </trkpt>
      <trkpt lat="48.07476" lon="7.21104">
        <ele>603.36</ele>
        <time>2009-09-27T07:48:57Z</time>
      </trkpt>
      <trkpt lat="48.07484" lon="7.211">
        <ele>604.33</ele>
        <time>2009-09-27T07:49:05Z</time>
      </trkpt>
      <trkpt lat="48.07485" lon="7.21099">
        <ele>604.33</ele>
        <time>2009-09-27T07:49:07Z</time>
      </trkpt>
      <trkpt lat="48.07487" lon="7.21097">
        <ele>603.85</ele>
        <time>2009-09-27T07:49:09Z</time>
      </trkpt>
      <trkpt lat="48.07493" lon="7.21092">
        <ele>606.25</ele>
        <time>2009-09-27T07:49:14Z</time>
      </trkpt>
      <trkpt lat="48.07494" lon="7.21091">
        <ele>609.13</ele>
        <time>2009-09-27T07:49:15Z</time>
      </trkpt>
      <trkpt lat="48.07496" lon="7.21086">
        <ele>607.21</ele>
        <time>2009-09-27T07:49:18Z</time>
      </trkpt>
      <trkpt lat="48.075" lon="7.21079">
        <ele>607.69</ele>
        <time>2009-09-27T07:49:23Z</time>
      </trkpt>
      <trkpt lat="48.07502" lon="7.21077">
        <ele>607.69</ele>
        <time>2009-09-27T07:49:25Z</time>
      </trkpt>
      <trkpt lat="48.07508" lon="7.21064">
        <ele>611.54</ele>
        <time>2009-09-27T07:49:33Z</time>
      </trkpt>
      <trkpt lat="48.07511" lon="7.2106">
        <ele>609.61</ele>
        <time>2009-09-27T07:49:36Z</time>
      </trkpt>
      <trkpt lat="48.07518" lon="7.21049">
        <ele>612.5</ele>
        <time>2009-09-27T07:49:45Z</time>
      </trkpt>
      <trkpt lat="48.07519" lon="7.21042">
        <ele>610.09</ele>
        <time>2009-09-27T07:49:49Z</time>
      </trkpt>
      <trkpt lat="48.07522" lon="7.21039">
        <ele>613.46</ele>
        <time>2009-09-27T07:49:52Z</time>
      </trkpt>
      <trkpt lat="48.07528" lon="7.21032">
        <ele>614.42</ele>
        <time>2009-09-27T07:49:58Z</time>
      </trkpt>
      <trkpt lat="48.07533" lon="7.21027">
        <ele>614.9</ele>
        <time>2009-09-27T07:50:04Z</time>
      </trkpt>
      <trkpt lat="48.07538" lon="7.21019">
        <ele>617.3</ele>
        <time>2009-09-27T07:50:10Z</time>
      </trkpt>
      <trkpt lat="48.07539" lon="7.21017">
        <ele>617.78</ele>
        <time>2009-09-27T07:50:11Z</time>
      </trkpt>
      <trkpt lat="48.0754" lon="7.2101">
        <ele>616.34</ele>
        <time>2009-09-27T07:50:14Z</time>
      </trkpt>
      <trkpt lat="48.07543" lon="7.21006">
        <ele>617.78</ele>
        <time>2009-09-27T07:50:18Z</time>
      </trkpt>
      <trkpt lat="48.07549" lon="7.20998">
        <ele>618.75</ele>
        <time>2009-09-27T07:50:25Z</time>
      </trkpt>
      <trkpt lat="48.07552" lon="7.20992">
        <ele>622.11</ele>
        <time>2009-09-27T07:50:30Z</time>
      </trkpt>
      <trkpt lat="48.07551" lon="7.20985">
        <ele>622.11</ele>
        <time>2009-09-27T07:50:33Z</time>
      </trkpt>
      <trkpt lat="48.07552" lon="7.20984">
        <ele>620.67</ele>
        <time>2009-09-27T07:50:34Z</time>
      </trkpt>
      <trkpt lat="48.07554" lon="7.20962">
        <ele>622.11</ele>
        <time>2009-09-27T07:50:43Z</time>
      </trkpt>
      <trkpt lat="48.07555" lon="7.20957">
        <ele>617.78</ele>
        <time>2009-09-27T07:50:46Z</time>
      </trkpt>
      <trkpt lat="48.07555" lon="7.20956">
        <ele>624.03</ele>
        <time>2009-09-27T07:50:47Z</time>
      </trkpt>
      <trkpt lat="48.07555" lon="7.20955">
        <ele>626.92</ele>
        <time>2009-09-27T07:50:48Z</time>
      </trkpt>
      <trkpt lat="48.07555" lon="7.20949">
        <ele>623.55</ele>
        <time>2009-09-27T07:50:51Z</time>
      </trkpt>
      <trkpt lat="48.07556" lon="7.20946">
        <ele>624.99</ele>
        <time>2009-09-27T07:50:53Z</time>
      </trkpt>
      <trkpt lat="48.07557" lon="7.20939">
        <ele>626.44</ele>
        <time>2009-09-27T07:50:56Z</time>
      </trkpt>
      <trkpt lat="48.07557" lon="7.20933">
        <ele>631.24</ele>
        <time>2009-09-27T07:51:00Z</time>
      </trkpt>
      <trkpt lat="48.07557" lon="7.20929">
        <ele>621.63</ele>
        <time>2009-09-27T07:51:02Z</time>
      </trkpt>
      <trkpt lat="48.07558" lon="7.20927">
        <ele>624.03</ele>
        <time>2009-09-27T07:51:03Z</time>
      </trkpt>
      <trkpt lat="48.07558" lon="7.20924">
        <ele>626.44</ele>
        <time>2009-09-27T07:51:05Z</time>
      </trkpt>
      <trkpt lat="48.07559" lon="7.20922">
        <ele>624.99</ele>
        <time>2009-09-27T07:51:07Z</time>
      </trkpt>
      <trkpt lat="48.07561" lon="7.20919">
        <ele>626.92</ele>
        <time>2009-09-27T07:51:09Z</time>
      </trkpt>
      <trkpt lat="48.07564" lon="7.20915">
        <ele>628.36</ele>
        <time>2009-09-27T07:51:14Z</time>
      </trkpt>
      <trkpt lat="48.07566" lon="7.20912">
        <ele>630.76</ele>
        <time>2009-09-27T07:51:18Z</time>
      </trkpt>
      <trkpt lat="48.07565" lon="7.20906">
        <ele>630.28</ele>
        <time>2009-09-27T07:51:22Z</time>
      </trkpt>
      <trkpt lat="48.07565" lon="7.20894">
        <ele>633.65</ele>
        <time>2009-09-27T07:51:29Z</time>
      </trkpt>
      <trkpt lat="48.07564" lon="7.20889">
        <ele>632.68</ele>
        <time>2009-09-27T07:51:30Z</time>
      </trkpt>
      <trkpt lat="48.07565" lon="7.20875">
        <ele>633.65</ele>
        <time>2009-09-27T07:51:39Z</time>
      </trkpt>
      <trkpt lat="48.07558" lon="7.20849">
        <ele>634.61</ele>
        <time>2009-09-27T07:51:49Z</time>
      </trkpt>
      <trkpt lat="48.07555" lon="7.20841">
        <ele>636.53</ele>
        <time>2009-09-27T07:51:53Z</time>
      </trkpt>
      <trkpt lat="48.07552" lon="7.20829">
        <ele>637.49</ele>
        <time>2009-09-27T07:52:00Z</time>
      </trkpt>
      <trkpt lat="48.07552" lon="7.20826">
        <ele>638.45</ele>
        <time>2009-09-27T07:52:02Z</time>
      </trkpt>
      <trkpt lat="48.07554" lon="7.20823">
        <ele>637.01</ele>
        <time>2009-09-27T07:52:05Z</time>
      </trkpt>
      <trkpt lat="48.07555" lon="7.20808">
        <ele>639.89</ele>
        <time>2009-09-27T07:52:16Z</time>
      </trkpt>
      <trkpt lat="48.07556" lon="7.20805">
        <ele>638.93</ele>
        <time>2009-09-27T07:52:18Z</time>
      </trkpt>
      <trkpt lat="48.07557" lon="7.20779">
        <ele>644.22</ele>
        <time>2009-09-27T07:52:31Z</time>
      </trkpt>
      <trkpt lat="48.07558" lon="7.2077">
        <ele>644.22</ele>
        <time>2009-09-27T07:52:39Z</time>
      </trkpt>
      <trkpt lat="48.07558" lon="7.20764">
        <ele>643.26</ele>
        <time>2009-09-27T07:52:42Z</time>
      </trkpt>
      <trkpt lat="48.07556" lon="7.20758">
        <ele>644.7</ele>
        <time>2009-09-27T07:52:46Z</time>
      </trkpt>
      <trkpt lat="48.07553" lon="7.20745">
        <ele>647.59</ele>
        <time>2009-09-27T07:52:56Z</time>
      </trkpt>
      <trkpt lat="48.07553" lon="7.20743">
        <ele>644.22</ele>
        <time>2009-09-27T07:52:57Z</time>
      </trkpt>
      <trkpt lat="48.07552" lon="7.20744">
        <ele>644.7</ele>
        <time>2009-09-27T07:53:01Z</time>
      </trkpt>
      <trkpt lat="48.07555" lon="7.20755">
        <ele>644.7</ele>
        <time>2009-09-27T07:53:06Z</time>
      </trkpt>
      <trkpt lat="48.07559" lon="7.20754">
        <ele>645.18</ele>
        <time>2009-09-27T07:53:14Z</time>
      </trkpt>
      <trkpt lat="48.07561" lon="7.20746">
        <ele>646.62</ele>
        <time>2009-09-27T07:53:19Z</time>
      </trkpt>
      <trkpt lat="48.07559" lon="7.2074">
        <ele>646.62</ele>
        <time>2009-09-27T07:53:22Z</time>
      </trkpt>
      <trkpt lat="48.07558" lon="7.20734">
        <ele>645.18</ele>
        <time>2009-09-27T07:53:26Z</time>
      </trkpt>
      <trkpt lat="48.07558" lon="7.20733">
        <ele>648.55</ele>
        <time>2009-09-27T07:53:27Z</time>
      </trkpt>
      <trkpt lat="48.07558" lon="7.20732">
        <ele>647.1</ele>
        <time>2009-09-27T07:53:28Z</time>
      </trkpt>
      <trkpt lat="48.07556" lon="7.20719">
        <ele>648.55</ele>
        <time>2009-09-27T07:53:35Z</time>
      </trkpt>
      <trkpt lat="48.07556" lon="7.20713">
        <ele>649.99</ele>
        <time>2009-09-27T07:53:38Z</time>
      </trkpt>
      <trkpt lat="48.07557" lon="7.20703">
        <ele>650.95</ele>
        <time>2009-09-27T07:53:45Z</time>
      </trkpt>
      <trkpt lat="48.07556" lon="7.20699">
        <ele>651.91</ele>
        <time>2009-09-27T07:53:47Z</time>
      </trkpt>
      <trkpt lat="48.07558" lon="7.20696">
        <ele>652.39</ele>
        <time>2009-09-27T07:53:49Z</time>
      </trkpt>
      <trkpt lat="48.07566" lon="7.20687">
        <ele>654.31</ele>
        <time>2009-09-27T07:53:59Z</time>
      </trkpt>
      <trkpt lat="48.07565" lon="7.20674">
        <ele>655.76</ele>
        <time>2009-09-27T07:54:05Z</time>
      </trkpt>
      <trkpt lat="48.07564" lon="7.20659">
        <ele>654.31</ele>
        <time>2009-09-27T07:54:10Z</time>
      </trkpt>
      <trkpt lat="48.07572" lon="7.20638">
        <ele>659.12</ele>
        <time>2009-09-27T07:54:22Z</time>
      </trkpt>
      <trkpt lat="48.07572" lon="7.20634">
        <ele>656.72</ele>
        <time>2009-09-27T07:54:24Z</time>
      </trkpt>
      <trkpt lat="48.07576" lon="7.20623">
        <ele>661.04</ele>
        <time>2009-09-27T07:54:32Z</time>
      </trkpt>
      <trkpt lat="48.07576" lon="7.20617">
        <ele>660.56</ele>
        <time>2009-09-27T07:54:36Z</time>
      </trkpt>
      <trkpt lat="48.07578" lon="7.20599">
        <ele>663.93</ele>
        <time>2009-09-27T07:54:48Z</time>
      </trkpt>
      <trkpt lat="48.07582" lon="7.20583">
        <ele>662.97</ele>
        <time>2009-09-27T07:54:57Z</time>
      </trkpt>
      <trkpt lat="48.07583" lon="7.20574">
        <ele>664.41</ele>
        <time>2009-09-27T07:55:01Z</time>
      </trkpt>
      <trkpt lat="48.07586" lon="7.20561">
        <ele>665.85</ele>
        <time>2009-09-27T07:55:10Z</time>
      </trkpt>
      <trkpt lat="48.07586" lon="7.20558">
        <ele>667.29</ele>
        <time>2009-09-27T07:55:12Z</time>
      </trkpt>
      <trkpt lat="48.07591" lon="7.20552">
        <ele>668.25</ele>
        <time>2009-09-27T07:55:16Z</time>
      </trkpt>
      <trkpt lat="48.07598" lon="7.20545">
        <ele>667.77</ele>
        <time>2009-09-27T07:55:24Z</time>
      </trkpt>
      <trkpt lat="48.07601" lon="7.20543">
        <ele>670.18</ele>
        <time>2009-09-27T07:55:27Z</time>
      </trkpt>
      <trkpt lat="48.07612" lon="7.20529">
        <ele>671.62</ele>
        <time>2009-09-27T07:55:38Z</time>
      </trkpt>
      <trkpt lat="48.07617" lon="7.20521">
        <ele>674.02</ele>
        <time>2009-09-27T07:55:46Z</time>
      </trkpt>
      <trkpt lat="48.0762" lon="7.20513">
        <ele>675.46</ele>
        <time>2009-09-27T07:55:51Z</time>
      </trkpt>
      <trkpt lat="48.07625" lon="7.20508">
        <ele>676.42</ele>
        <time>2009-09-27T07:55:57Z</time>
      </trkpt>
      <trkpt lat="48.07626" lon="7.20505">
        <ele>674.5</ele>
        <time>2009-09-27T07:55:59Z</time>
      </trkpt>
      <trkpt lat="48.07629" lon="7.20498">
        <ele>674.5</ele>
        <time>2009-09-27T07:56:03Z</time>
      </trkpt>
      <trkpt lat="48.07635" lon="7.20484">
        <ele>677.87</ele>
        <time>2009-09-27T07:56:10Z</time>
      </trkpt>
      <trkpt lat="48.0764" lon="7.20475">
        <ele>677.87</ele>
        <time>2009-09-27T07:56:17Z</time>
      </trkpt>
      <trkpt lat="48.07642" lon="7.20467">
        <ele>681.23</ele>
        <time>2009-09-27T07:56:22Z</time>
      </trkpt>
      <trkpt lat="48.07649" lon="7.20453">
        <ele>683.15</ele>
        <time>2009-09-27T07:56:34Z</time>
      </trkpt>
      <trkpt lat="48.07654" lon="7.20449">
        <ele>683.63</ele>
        <time>2009-09-27T07:56:38Z</time>
      </trkpt>
      <trkpt lat="48.07663" lon="7.20439">
        <ele>685.08</ele>
        <time>2009-09-27T07:56:47Z</time>
      </trkpt>
      <trkpt lat="48.0767" lon="7.20427">
        <ele>686.52</ele>
        <time>2009-09-27T07:56:57Z</time>
      </trkpt>
      <trkpt lat="48.07674" lon="7.2042">
        <ele>686.52</ele>
        <time>2009-09-27T07:57:01Z</time>
      </trkpt>
      <trkpt lat="48.0768" lon="7.20408">
        <ele>688.44</ele>
        <time>2009-09-27T07:57:11Z</time>
      </trkpt>
      <trkpt lat="48.07686" lon="7.20398">
        <ele>691.81</ele>
        <time>2009-09-27T07:57:20Z</time>
      </trkpt>
      <trkpt lat="48.07688" lon="7.20394">
        <ele>690.36</ele>
        <time>2009-09-27T07:57:23Z</time>
      </trkpt>
      <trkpt lat="48.07694" lon="7.20382">
        <ele>692.77</ele>
        <time>2009-09-27T07:57:32Z</time>
      </trkpt>
      <trkpt lat="48.07696" lon="7.20378">
        <ele>690.84</ele>
        <time>2009-09-27T07:57:36Z</time>
      </trkpt>
      <trkpt lat="48.077" lon="7.20372">
        <ele>694.69</ele>
        <time>2009-09-27T07:57:43Z</time>
      </trkpt>
      <trkpt lat="48.07706" lon="7.20366">
        <ele>697.09</ele>
        <time>2009-09-27T07:57:50Z</time>
      </trkpt>
      <trkpt lat="48.0771" lon="7.2036">
        <ele>696.61</ele>
        <time>2009-09-27T07:57:55Z</time>
      </trkpt>
      <trkpt lat="48.07716" lon="7.20348">
        <ele>696.13</ele>
        <time>2009-09-27T07:58:05Z</time>
      </trkpt>
      <trkpt lat="48.07721" lon="7.20336">
        <ele>699.5</ele>
        <time>2009-09-27T07:58:11Z</time>
      </trkpt>
      <trkpt lat="48.0773" lon="7.20326">
        <ele>699.98</ele>
        <time>2009-09-27T07:58:23Z</time>
      </trkpt>
      <trkpt lat="48.07736" lon="7.20313">
        <ele>701.9</ele>
        <time>2009-09-27T07:58:33Z</time>
      </trkpt>
      <trkpt lat="48.07739" lon="7.20307">
        <ele>703.34</ele>
        <time>2009-09-27T07:58:37Z</time>
      </trkpt>
      <trkpt lat="48.0774" lon="7.20304">
        <ele>702.38</ele>
        <time>2009-09-27T07:58:39Z</time>
      </trkpt>
      <trkpt lat="48.07743" lon="7.20299">
        <ele>703.82</ele>
        <time>2009-09-27T07:58:44Z</time>
      </trkpt>
      <trkpt lat="48.07749" lon="7.20288">
        <ele>707.19</ele>
        <time>2009-09-27T07:58:53Z</time>
      </trkpt>
      <trkpt lat="48.07749" lon="7.20287">
        <ele>706.71</ele>
        <time>2009-09-27T07:58:54Z</time>
      </trkpt>
      <trkpt lat="48.07751" lon="7.20286">
        <ele>705.26</ele>
        <time>2009-09-27T07:58:56Z</time>
      </trkpt>
      <trkpt lat="48.07757" lon="7.20275">
        <ele>709.11</ele>
        <time>2009-09-27T07:59:05Z</time>
      </trkpt>
      <trkpt lat="48.07758" lon="7.20273">
        <ele>707.19</ele>
        <time>2009-09-27T07:59:06Z</time>
      </trkpt>
      <trkpt lat="48.07759" lon="7.20271">
        <ele>707.67</ele>
        <time>2009-09-27T07:59:08Z</time>
      </trkpt>
      <trkpt lat="48.07761" lon="7.20269">
        <ele>707.67</ele>
        <time>2009-09-27T07:59:10Z</time>
      </trkpt>
      <trkpt lat="48.07764" lon="7.20266">
        <ele>708.63</ele>
        <time>2009-09-27T07:59:14Z</time>
      </trkpt>
      <trkpt lat="48.07768" lon="7.20259">
        <ele>710.55</ele>
        <time>2009-09-27T07:59:20Z</time>
      </trkpt>
      <trkpt lat="48.07771" lon="7.20251">
        <ele>711.03</ele>
        <time>2009-09-27T07:59:28Z</time>
      </trkpt>
      <trkpt lat="48.07771" lon="7.20248">
        <ele>712.47</ele>
        <time>2009-09-27T07:59:30Z</time>
      </trkpt>
      <trkpt lat="48.07773" lon="7.20241">
        <ele>712.47</ele>
        <time>2009-09-27T07:59:34Z</time>
      </trkpt>
      <trkpt lat="48.07773" lon="7.20217">
        <ele>713.92</ele>
        <time>2009-09-27T07:59:45Z</time>
      </trkpt>
      <trkpt lat="48.07771" lon="7.20197">
        <ele>715.36</ele>
        <time>2009-09-27T07:59:52Z</time>
      </trkpt>
      <trkpt lat="48.07772" lon="7.20189">
        <ele>716.32</ele>
        <time>2009-09-27T07:59:56Z</time>
      </trkpt>
      <trkpt lat="48.07775" lon="7.20173">
        <ele>720.16</ele>
        <time>2009-09-27T08:00:06Z</time>
      </trkpt>
      <trkpt lat="48.07777" lon="7.20165">
        <ele>718.72</ele>
        <time>2009-09-27T08:00:11Z</time>
      </trkpt>
      <trkpt lat="48.07781" lon="7.20155">
        <ele>721.61</ele>
        <time>2009-09-27T08:00:19Z</time>
      </trkpt>
      <trkpt lat="48.07782" lon="7.20154">
        <ele>721.61</ele>
        <time>2009-09-27T08:00:20Z</time>
      </trkpt>
      <trkpt lat="48.07782" lon="7.20153">
        <ele>720.65</ele>
        <time>2009-09-27T08:00:21Z</time>
      </trkpt>
      <trkpt lat="48.07783" lon="7.20146">
        <ele>722.09</ele>
        <time>2009-09-27T08:00:25Z</time>
      </trkpt>
      <trkpt lat="48.07783" lon="7.20143">
        <ele>721.13</ele>
        <time>2009-09-27T08:00:27Z</time>
      </trkpt>
      <trkpt lat="48.07784" lon="7.20131">
        <ele>724.49</ele>
        <time>2009-09-27T08:00:37Z</time>
      </trkpt>
      <trkpt lat="48.07784" lon="7.20126">
        <ele>724.49</ele>
        <time>2009-09-27T08:00:40Z</time>
      </trkpt>
      <trkpt lat="48.07786" lon="7.20117">
        <ele>726.89</ele>
        <time>2009-09-27T08:00:45Z</time>
      </trkpt>
      <trkpt lat="48.07787" lon="7.20106">
        <ele>726.89</ele>
        <time>2009-09-27T08:00:50Z</time>
      </trkpt>
      <trkpt lat="48.07788" lon="7.201">
        <ele>726.41</ele>
        <time>2009-09-27T08:00:54Z</time>
      </trkpt>
      <trkpt lat="48.07785" lon="7.20091">
        <ele>726.89</ele>
        <time>2009-09-27T08:00:59Z</time>
      </trkpt>
      <trkpt lat="48.07786" lon="7.2008">
        <ele>728.82</ele>
        <time>2009-09-27T08:01:08Z</time>
      </trkpt>
      <trkpt lat="48.07788" lon="7.20069">
        <ele>731.22</ele>
        <time>2009-09-27T08:01:16Z</time>
      </trkpt>
      <trkpt lat="48.07789" lon="7.20046">
        <ele>731.7</ele>
        <time>2009-09-27T08:01:29Z</time>
      </trkpt>
      <trkpt lat="48.07791" lon="7.2003">
        <ele>734.58</ele>
        <time>2009-09-27T08:01:40Z</time>
      </trkpt>
      <trkpt lat="48.07794" lon="7.20023">
        <ele>733.14</ele>
        <time>2009-09-27T08:01:47Z</time>
      </trkpt>
      <trkpt lat="48.07795" lon="7.20009">
        <ele>736.51</ele>
        <time>2009-09-27T08:01:55Z</time>
      </trkpt>
      <trkpt lat="48.07795" lon="7.20002">
        <ele>736.99</ele>
        <time>2009-09-27T08:01:59Z</time>
      </trkpt>
      <trkpt lat="48.07796" lon="7.19991">
        <ele>737.95</ele>
        <time>2009-09-27T08:02:06Z</time>
      </trkpt>
      <trkpt lat="48.07797" lon="7.19989">
        <ele>737.47</ele>
        <time>2009-09-27T08:02:08Z</time>
      </trkpt>
      <trkpt lat="48.07798" lon="7.1997">
        <ele>739.87</ele>
        <time>2009-09-27T08:02:20Z</time>
      </trkpt>
      <trkpt lat="48.078" lon="7.19955">
        <ele>742.76</ele>
        <time>2009-09-27T08:02:31Z</time>
      </trkpt>
      <trkpt lat="48.07802" lon="7.19937">
        <ele>745.64</ele>
        <time>2009-09-27T08:02:42Z</time>
      </trkpt>
      <trkpt lat="48.07803" lon="7.19925">
        <ele>744.68</ele>
        <time>2009-09-27T08:02:51Z</time>
      </trkpt>
      <trkpt lat="48.07803" lon="7.19917">
        <ele>745.64</ele>
        <time>2009-09-27T08:02:56Z</time>
      </trkpt>
      <trkpt lat="48.07807" lon="7.199">
        <ele>748.04</ele>
        <time>2009-09-27T08:03:09Z</time>
      </trkpt>
      <trkpt lat="48.07807" lon="7.19899">
        <ele>746.6</ele>
        <time>2009-09-27T08:03:10Z</time>
      </trkpt>
      <trkpt lat="48.07812" lon="7.19889">
        <ele>749.97</ele>
        <time>2009-09-27T08:03:18Z</time>
      </trkpt>
      <trkpt lat="48.07817" lon="7.1987">
        <ele>751.41</ele>
        <time>2009-09-27T08:03:29Z</time>
      </trkpt>
      <trkpt lat="48.07818" lon="7.19868">
        <ele>751.89</ele>
        <time>2009-09-27T08:03:31Z</time>
      </trkpt>
      <trkpt lat="48.07819" lon="7.19867">
        <ele>752.85</ele>
        <time>2009-09-27T08:03:32Z</time>
      </trkpt>
      <trkpt lat="48.07819" lon="7.19864">
        <ele>752.85</ele>
        <time>2009-09-27T08:03:34Z</time>
      </trkpt>
      <trkpt lat="48.0782" lon="7.19858">
        <ele>753.33</ele>
        <time>2009-09-27T08:03:37Z</time>
      </trkpt>
      <trkpt lat="48.07828" lon="7.19836">
        <ele>756.69</ele>
        <time>2009-09-27T08:03:50Z</time>
      </trkpt>
      <trkpt lat="48.0783" lon="7.19825">
        <ele>757.18</ele>
        <time>2009-09-27T08:03:57Z</time>
      </trkpt>
      <trkpt lat="48.07836" lon="7.19805">
        <ele>759.58</ele>
        <time>2009-09-27T08:04:10Z</time>
      </trkpt>
      <trkpt lat="48.07841" lon="7.19788">
        <ele>761.5</ele>
        <time>2009-09-27T08:04:21Z</time>
      </trkpt>
      <trkpt lat="48.07846" lon="7.19772">
        <ele>762.94</ele>
        <time>2009-09-27T08:04:35Z</time>
      </trkpt>
      <trkpt lat="48.07847" lon="7.19765">
        <ele>763.9</ele>
        <time>2009-09-27T08:04:38Z</time>
      </trkpt>
      <trkpt lat="48.07851" lon="7.19758">
        <ele>762.46</ele>
        <time>2009-09-27T08:04:42Z</time>
      </trkpt>
      <trkpt lat="48.07856" lon="7.19739">
        <ele>766.79</ele>
        <time>2009-09-27T08:04:53Z</time>
      </trkpt>
      <trkpt lat="48.07859" lon="7.19735">
        <ele>766.31</ele>
        <time>2009-09-27T08:04:57Z</time>
      </trkpt>
      <trkpt lat="48.07864" lon="7.19721">
        <ele>769.67</ele>
        <time>2009-09-27T08:05:06Z</time>
      </trkpt>
      <trkpt lat="48.07866" lon="7.1971">
        <ele>770.63</ele>
        <time>2009-09-27T08:05:13Z</time>
      </trkpt>
      <trkpt lat="48.07867" lon="7.19709">
        <ele>769.19</ele>
        <time>2009-09-27T08:05:14Z</time>
      </trkpt>
      <trkpt lat="48.07868" lon="7.19704">
        <ele>770.63</ele>
        <time>2009-09-27T08:05:17Z</time>
      </trkpt>
      <trkpt lat="48.07878" lon="7.19689">
        <ele>772.08</ele>
        <time>2009-09-27T08:05:30Z</time>
      </trkpt>
      <trkpt lat="48.07878" lon="7.19688">
        <ele>772.56</ele>
        <time>2009-09-27T08:05:31Z</time>
      </trkpt>
      <trkpt lat="48.07883" lon="7.19682">
        <ele>774</ele>
        <time>2009-09-27T08:05:39Z</time>
      </trkpt>
      <trkpt lat="48.07895" lon="7.19677">
        <ele>776.4</ele>
        <time>2009-09-27T08:05:51Z</time>
      </trkpt>
      <trkpt lat="48.07896" lon="7.19678">
        <ele>776.88</ele>
        <time>2009-09-27T08:05:52Z</time>
      </trkpt>
      <trkpt lat="48.07902" lon="7.19677">
        <ele>777.84</ele>
        <time>2009-09-27T08:05:57Z</time>
      </trkpt>
      <trkpt lat="48.07904" lon="7.19675">
        <ele>776.88</ele>
        <time>2009-09-27T08:06:01Z</time>
      </trkpt>
      <trkpt lat="48.07914" lon="7.19673">
        <ele>779.29</ele>
        <time>2009-09-27T08:06:12Z</time>
      </trkpt>
      <trkpt lat="48.07926" lon="7.19673">
        <ele>781.21</ele>
        <time>2009-09-27T08:06:23Z</time>
      </trkpt>
      <trkpt lat="48.07935" lon="7.19671">
        <ele>782.65</ele>
        <time>2009-09-27T08:06:30Z</time>
      </trkpt>
      <trkpt lat="48.07945" lon="7.19669">
        <ele>783.61</ele>
        <time>2009-09-27T08:06:40Z</time>
      </trkpt>
      <trkpt lat="48.07948" lon="7.19667">
        <ele>785.53</ele>
        <time>2009-09-27T08:06:43Z</time>
      </trkpt>
      <trkpt lat="48.07953" lon="7.19669">
        <ele>786.5</ele>
        <time>2009-09-27T08:06:49Z</time>
      </trkpt>
      <trkpt lat="48.07955" lon="7.19669">
        <ele>785.05</ele>
        <time>2009-09-27T08:06:51Z</time>
      </trkpt>
      <trkpt lat="48.07958" lon="7.1967">
        <ele>788.42</ele>
        <time>2009-09-27T08:06:53Z</time>
      </trkpt>
      <trkpt lat="48.07963" lon="7.19671">
        <ele>787.46</ele>
        <time>2009-09-27T08:06:58Z</time>
      </trkpt>
      <trkpt lat="48.07967" lon="7.19672">
        <ele>787.94</ele>
        <time>2009-09-27T08:07:01Z</time>
      </trkpt>
      <trkpt lat="48.07978" lon="7.19671">
        <ele>789.38</ele>
        <time>2009-09-27T08:07:09Z</time>
      </trkpt>
      <trkpt lat="48.07987" lon="7.19671">
        <ele>788.9</ele>
        <time>2009-09-27T08:07:19Z</time>
      </trkpt>
      <trkpt lat="48.08002" lon="7.19672">
        <ele>790.82</ele>
        <time>2009-09-27T08:07:28Z</time>
      </trkpt>
      <trkpt lat="48.08013" lon="7.19671">
        <ele>791.78</ele>
        <time>2009-09-27T08:07:35Z</time>
      </trkpt>
      <trkpt lat="48.08025" lon="7.19664">
        <ele>792.74</ele>
        <time>2009-09-27T08:07:44Z</time>
      </trkpt>
      <trkpt lat="48.08028" lon="7.19661">
        <ele>791.3</ele>
        <time>2009-09-27T08:07:46Z</time>
      </trkpt>
      <trkpt lat="48.08034" lon="7.19658">
        <ele>792.74</ele>
        <time>2009-09-27T08:07:50Z</time>
      </trkpt>
      <trkpt lat="48.08047" lon="7.19648">
        <ele>794.19</ele>
        <time>2009-09-27T08:07:58Z</time>
      </trkpt>
      <trkpt lat="48.08069" lon="7.19635">
        <ele>795.15</ele>
        <time>2009-09-27T08:08:11Z</time>
      </trkpt>
      <trkpt lat="48.08075" lon="7.19632">
        <ele>797.55</ele>
        <time>2009-09-27T08:08:15Z</time>
      </trkpt>
      <trkpt lat="48.08082" lon="7.19633">
        <ele>797.07</ele>
        <time>2009-09-27T08:08:22Z</time>
      </trkpt>
      <trkpt lat="48.08088" lon="7.19638">
        <ele>798.99</ele>
        <time>2009-09-27T08:08:27Z</time>
      </trkpt>
      <trkpt lat="48.08094" lon="7.1964">
        <ele>799.95</ele>
        <time>2009-09-27T08:08:31Z</time>
      </trkpt>
      <trkpt lat="48.08104" lon="7.19641">
        <ele>802.84</ele>
        <time>2009-09-27T08:08:37Z</time>
      </trkpt>
      <trkpt lat="48.08105" lon="7.19641">
        <ele>800.92</ele>
        <time>2009-09-27T08:08:38Z</time>
      </trkpt>
      <trkpt lat="48.08112" lon="7.1964">
        <ele>801.88</ele>
        <time>2009-09-27T08:08:44Z</time>
      </trkpt>
      <trkpt lat="48.08121" lon="7.19635">
        <ele>804.28</ele>
        <time>2009-09-27T08:08:51Z</time>
      </trkpt>
      <trkpt lat="48.08127" lon="7.19627">
        <ele>805.24</ele>
        <time>2009-09-27T08:08:58Z</time>
      </trkpt>
      <trkpt lat="48.08132" lon="7.19625">
        <ele>807.16</ele>
        <time>2009-09-27T08:09:02Z</time>
      </trkpt>
      <trkpt lat="48.08142" lon="7.19623">
        <ele>808.61</ele>
        <time>2009-09-27T08:09:11Z</time>
      </trkpt>
      <trkpt lat="48.08144" lon="7.19622">
        <ele>809.09</ele>
        <time>2009-09-27T08:09:14Z</time>
      </trkpt>
      <trkpt lat="48.08148" lon="7.1962">
        <ele>811.01</ele>
        <time>2009-09-27T08:09:17Z</time>
      </trkpt>
      <trkpt lat="48.08149" lon="7.19619">
        <ele>812.45</ele>
        <time>2009-09-27T08:09:18Z</time>
      </trkpt>
      <trkpt lat="48.08153" lon="7.19614">
        <ele>812.93</ele>
        <time>2009-09-27T08:09:22Z</time>
      </trkpt>
      <trkpt lat="48.08161" lon="7.19611">
        <ele>814.85</ele>
        <time>2009-09-27T08:09:29Z</time>
      </trkpt>
      <trkpt lat="48.08166" lon="7.19608">
        <ele>815.82</ele>
        <time>2009-09-27T08:09:33Z</time>
      </trkpt>
      <trkpt lat="48.08168" lon="7.19607">
        <ele>816.78</ele>
        <time>2009-09-27T08:09:35Z</time>
      </trkpt>
      <trkpt lat="48.08171" lon="7.19605">
        <ele>814.37</ele>
        <time>2009-09-27T08:09:38Z</time>
      </trkpt>
      <trkpt lat="48.0818" lon="7.19601">
        <ele>817.74</ele>
        <time>2009-09-27T08:09:47Z</time>
      </trkpt>
      <trkpt lat="48.08184" lon="7.19595">
        <ele>821.1</ele>
        <time>2009-09-27T08:09:56Z</time>
      </trkpt>
      <trkpt lat="48.08189" lon="7.1959">
        <ele>822.06</ele>
        <time>2009-09-27T08:10:02Z</time>
      </trkpt>
      <trkpt lat="48.08191" lon="7.19588">
        <ele>820.14</ele>
        <time>2009-09-27T08:10:05Z</time>
      </trkpt>
      <trkpt lat="48.08193" lon="7.19584">
        <ele>822.06</ele>
        <time>2009-09-27T08:10:08Z</time>
      </trkpt>
      <trkpt lat="48.08194" lon="7.19579">
        <ele>823.99</ele>
        <time>2009-09-27T08:10:11Z</time>
      </trkpt>
      <trkpt lat="48.08197" lon="7.19566">
        <ele>823.03</ele>
        <time>2009-09-27T08:10:20Z</time>
      </trkpt>
      <trkpt lat="48.08201" lon="7.1955">
        <ele>825.91</ele>
        <time>2009-09-27T08:10:32Z</time>
      </trkpt>
      <trkpt lat="48.08201" lon="7.19548">
        <ele>824.95</ele>
        <time>2009-09-27T08:10:33Z</time>
      </trkpt>
      <trkpt lat="48.08202" lon="7.19541">
        <ele>826.39</ele>
        <time>2009-09-27T08:10:38Z</time>
      </trkpt>
      <trkpt lat="48.08204" lon="7.19533">
        <ele>826.87</ele>
        <time>2009-09-27T08:10:43Z</time>
      </trkpt>
      <trkpt lat="48.08205" lon="7.19527">
        <ele>828.31</ele>
        <time>2009-09-27T08:10:47Z</time>
      </trkpt>
      <trkpt lat="48.08209" lon="7.19502">
        <ele>831.2</ele>
        <time>2009-09-27T08:10:59Z</time>
      </trkpt>
      <trkpt lat="48.08209" lon="7.19502">
        <ele>801.88</ele>
        <time>2009-09-27T08:11:01Z</time>
      </trkpt>
      <trkpt lat="48.08209" lon="7.19502">
        <ele>830.24</ele>
        <time>2009-09-27T08:11:02Z</time>
      </trkpt>
      <trkpt lat="48.08209" lon="7.19501">
        <ele>828.79</ele>
        <time>2009-09-27T08:11:07Z</time>
      </trkpt>
      <trkpt lat="48.0821" lon="7.195">
        <ele>830.72</ele>
        <time>2009-09-27T08:11:09Z</time>
      </trkpt>
      <trkpt lat="48.08211" lon="7.19496">
        <ele>829.76</ele>
        <time>2009-09-27T08:11:15Z</time>
      </trkpt>
      <trkpt lat="48.08212" lon="7.19495">
        <ele>832.16</ele>
        <time>2009-09-27T08:11:20Z</time>
      </trkpt>
      <trkpt lat="48.08214" lon="7.19493">
        <ele>832.64</ele>
        <time>2009-09-27T08:11:27Z</time>
      </trkpt>
      <trkpt lat="48.08219" lon="7.19498">
        <ele>833.12</ele>
        <time>2009-09-27T08:11:31Z</time>
      </trkpt>
      <trkpt lat="48.08222" lon="7.19496">
        <ele>834.08</ele>
        <time>2009-09-27T08:11:33Z</time>
      </trkpt>
      <trkpt lat="48.08227" lon="7.1949">
        <ele>834.08</ele>
        <time>2009-09-27T08:11:47Z</time>
      </trkpt>
      <trkpt lat="48.08226" lon="7.19488">
        <ele>833.6</ele>
        <time>2009-09-27T08:11:49Z</time>
      </trkpt>
      <trkpt lat="48.08223" lon="7.1948">
        <ele>833.6</ele>
        <time>2009-09-27T08:11:57Z</time>
      </trkpt>
      <trkpt lat="48.08222" lon="7.1948">
        <ele>834.56</ele>
        <time>2009-09-27T08:12:15Z</time>
      </trkpt>
      <trkpt lat="48.08223" lon="7.1948">
        <ele>833.6</ele>
        <time>2009-09-27T08:12:30Z</time>
      </trkpt>
      <trkpt lat="48.08227" lon="7.19453">
        <ele>834.08</ele>
        <time>2009-09-27T08:12:42Z</time>
      </trkpt>
      <trkpt lat="48.08228" lon="7.19446">
        <ele>835.52</ele>
        <time>2009-09-27T08:12:44Z</time>
      </trkpt>
      <trkpt lat="48.08228" lon="7.19443">
        <ele>832.16</ele>
        <time>2009-09-27T08:12:45Z</time>
      </trkpt>
      <trkpt lat="48.08229" lon="7.1944">
        <ele>836</ele>
        <time>2009-09-27T08:12:46Z</time>
      </trkpt>
      <trkpt lat="48.08229" lon="7.19401">
        <ele>834.08</ele>
        <time>2009-09-27T08:13:00Z</time>
      </trkpt>
      <trkpt lat="48.08226" lon="7.19394">
        <ele>836</ele>
        <time>2009-09-27T08:13:03Z</time>
      </trkpt>
      <trkpt lat="48.08225" lon="7.19391">
        <ele>836</ele>
        <time>2009-09-27T08:13:04Z</time>
      </trkpt>
      <trkpt lat="48.08211" lon="7.19342">
        <ele>834.08</ele>
        <time>2009-09-27T08:13:14Z</time>
      </trkpt>
      <trkpt lat="48.08209" lon="7.19333">
        <ele>836</ele>
        <time>2009-09-27T08:13:16Z</time>
      </trkpt>
      <trkpt lat="48.08204" lon="7.19312">
        <ele>837.45</ele>
        <time>2009-09-27T08:13:21Z</time>
      </trkpt>
      <trkpt lat="48.08199" lon="7.19286">
        <ele>836</ele>
        <time>2009-09-27T08:13:27Z</time>
      </trkpt>
      <trkpt lat="48.08193" lon="7.19265">
        <ele>837.45</ele>
        <time>2009-09-27T08:13:32Z</time>
      </trkpt>
      <trkpt lat="48.08192" lon="7.19232">
        <ele>839.85</ele>
        <time>2009-09-27T08:13:43Z</time>
      </trkpt>
      <trkpt lat="48.08192" lon="7.19229">
        <ele>839.37</ele>
        <time>2009-09-27T08:13:44Z</time>
      </trkpt>
      <trkpt lat="48.08191" lon="7.19187">
        <ele>841.29</ele>
        <time>2009-09-27T08:13:54Z</time>
      </trkpt>
      <trkpt lat="48.08191" lon="7.19183">
        <ele>839.37</ele>
        <time>2009-09-27T08:13:55Z</time>
      </trkpt>
      <trkpt lat="48.08195" lon="7.19129">
        <ele>839.37</ele>
        <time>2009-09-27T08:14:08Z</time>
      </trkpt>
      <trkpt lat="48.08199" lon="7.19118">
        <ele>841.77</ele>
        <time>2009-09-27T08:14:11Z</time>
      </trkpt>
      <trkpt lat="48.0821" lon="7.19094">
        <ele>843.69</ele>
        <time>2009-09-27T08:14:18Z</time>
      </trkpt>
      <trkpt lat="48.08217" lon="7.19081">
        <ele>842.25</ele>
        <time>2009-09-27T08:14:22Z</time>
      </trkpt>
      <trkpt lat="48.08236" lon="7.19042">
        <ele>843.21</ele>
        <time>2009-09-27T08:14:34Z</time>
      </trkpt>
      <trkpt lat="48.08246" lon="7.19028">
        <ele>844.18</ele>
        <time>2009-09-27T08:14:39Z</time>
      </trkpt>
      <trkpt lat="48.08265" lon="7.19005">
        <ele>847.06</ele>
        <time>2009-09-27T08:14:51Z</time>
      </trkpt>
      <trkpt lat="48.08267" lon="7.19001">
        <ele>846.58</ele>
        <time>2009-09-27T08:14:54Z</time>
      </trkpt>
      <trkpt lat="48.08269" lon="7.19001">
        <ele>846.1</ele>
        <time>2009-09-27T08:14:56Z</time>
      </trkpt>
      <trkpt lat="48.0827" lon="7.19004">
        <ele>848.02</ele>
        <time>2009-09-27T08:14:58Z</time>
      </trkpt>
      <trkpt lat="48.0827" lon="7.1901">
        <ele>848.02</ele>
        <time>2009-09-27T08:15:05Z</time>
      </trkpt>
      <trkpt lat="48.08282" lon="7.18993">
        <ele>848.02</ele>
        <time>2009-09-27T08:15:13Z</time>
      </trkpt>
      <trkpt lat="48.08289" lon="7.18986">
        <ele>848.5</ele>
        <time>2009-09-27T08:15:18Z</time>
      </trkpt>
      <trkpt lat="48.08293" lon="7.18983">
        <ele>847.06</ele>
        <time>2009-09-27T08:15:20Z</time>
      </trkpt>
      <trkpt lat="48.08295" lon="7.18982">
        <ele>850.42</ele>
        <time>2009-09-27T08:15:21Z</time>
      </trkpt>
      <trkpt lat="48.08313" lon="7.18969">
        <ele>850.42</ele>
        <time>2009-09-27T08:15:32Z</time>
      </trkpt>
      <trkpt lat="48.08317" lon="7.18966">
        <ele>851.38</ele>
        <time>2009-09-27T08:15:36Z</time>
      </trkpt>
      <trkpt lat="48.08324" lon="7.18963">
        <ele>852.83</ele>
        <time>2009-09-27T08:15:40Z</time>
      </trkpt>
      <trkpt lat="48.08336" lon="7.18952">
        <ele>854.27</ele>
        <time>2009-09-27T08:15:50Z</time>
      </trkpt>
      <trkpt lat="48.08347" lon="7.18943">
        <ele>855.71</ele>
        <time>2009-09-27T08:15:58Z</time>
      </trkpt>
      <trkpt lat="48.08352" lon="7.18941">
        <ele>855.71</ele>
        <time>2009-09-27T08:16:01Z</time>
      </trkpt>
      <trkpt lat="48.08367" lon="7.18934">
        <ele>858.11</ele>
        <time>2009-09-27T08:16:12Z</time>
      </trkpt>
      <trkpt lat="48.0837" lon="7.18932">
        <ele>856.67</ele>
        <time>2009-09-27T08:16:14Z</time>
      </trkpt>
      <trkpt lat="48.08373" lon="7.1893">
        <ele>857.63</ele>
        <time>2009-09-27T08:16:17Z</time>
      </trkpt>
      <trkpt lat="48.08384" lon="7.18916">
        <ele>860.52</ele>
        <time>2009-09-27T08:16:27Z</time>
      </trkpt>
      <trkpt lat="48.08387" lon="7.18908">
        <ele>859.08</ele>
        <time>2009-09-27T08:16:30Z</time>
      </trkpt>
      <trkpt lat="48.08389" lon="7.18893">
        <ele>859.56</ele>
        <time>2009-09-27T08:16:35Z</time>
      </trkpt>
      <trkpt lat="48.08389" lon="7.18867">
        <ele>861.96</ele>
        <time>2009-09-27T08:16:45Z</time>
      </trkpt>
      <trkpt lat="48.08389" lon="7.18862">
        <ele>861.48</ele>
        <time>2009-09-27T08:16:47Z</time>
      </trkpt>
      <trkpt lat="48.0839" lon="7.18851">
        <ele>861.96</ele>
        <time>2009-09-27T08:16:51Z</time>
      </trkpt>
      <trkpt lat="48.08393" lon="7.18838">
        <ele>860.52</ele>
        <time>2009-09-27T08:16:55Z</time>
      </trkpt>
      <trkpt lat="48.08395" lon="7.18828">
        <ele>862.44</ele>
        <time>2009-09-27T08:16:59Z</time>
      </trkpt>
      <trkpt lat="48.08395" lon="7.18815">
        <ele>863.88</ele>
        <time>2009-09-27T08:17:03Z</time>
      </trkpt>
      <trkpt lat="48.08399" lon="7.1878">
        <ele>862.92</ele>
        <time>2009-09-27T08:17:14Z</time>
      </trkpt>
      <trkpt lat="48.084" lon="7.18776">
        <ele>863.88</ele>
        <time>2009-09-27T08:17:16Z</time>
      </trkpt>
      <trkpt lat="48.08405" lon="7.18766">
        <ele>864.36</ele>
        <time>2009-09-27T08:17:22Z</time>
      </trkpt>
      <trkpt lat="48.08409" lon="7.18758">
        <ele>865.8</ele>
        <time>2009-09-27T08:17:25Z</time>
      </trkpt>
      <trkpt lat="48.08418" lon="7.18748">
        <ele>867.73</ele>
        <time>2009-09-27T08:17:31Z</time>
      </trkpt>
      <trkpt lat="48.08425" lon="7.18732">
        <ele>871.09</ele>
        <time>2009-09-27T08:17:41Z</time>
      </trkpt>
      <trkpt lat="48.08428" lon="7.18727">
        <ele>872.05</ele>
        <time>2009-09-27T08:17:45Z</time>
      </trkpt>
      <trkpt lat="48.08432" lon="7.18719">
        <ele>872.53</ele>
        <time>2009-09-27T08:17:55Z</time>
      </trkpt>
      <trkpt lat="48.08435" lon="7.18713">
        <ele>873.98</ele>
        <time>2009-09-27T08:18:00Z</time>
      </trkpt>
      <trkpt lat="48.08441" lon="7.18697">
        <ele>875.9</ele>
        <time>2009-09-27T08:18:12Z</time>
      </trkpt>
      <trkpt lat="48.08446" lon="7.18684">
        <ele>878.78</ele>
        <time>2009-09-27T08:18:20Z</time>
      </trkpt>
      <trkpt lat="48.08448" lon="7.18681">
        <ele>877.34</ele>
        <time>2009-09-27T08:18:23Z</time>
      </trkpt>
      <trkpt lat="48.08452" lon="7.18674">
        <ele>880.71</ele>
        <time>2009-09-27T08:18:28Z</time>
      </trkpt>
      <trkpt lat="48.08455" lon="7.18663">
        <ele>882.63</ele>
        <time>2009-09-27T08:18:35Z</time>
      </trkpt>
      <trkpt lat="48.08456" lon="7.1866">
        <ele>883.11</ele>
        <time>2009-09-27T08:18:37Z</time>
      </trkpt>
      <trkpt lat="48.08457" lon="7.18654">
        <ele>885.51</ele>
        <time>2009-09-27T08:18:40Z</time>
      </trkpt>
      <trkpt lat="48.08461" lon="7.18646">
        <ele>885.51</ele>
        <time>2009-09-27T08:18:51Z</time>
      </trkpt>
      <trkpt lat="48.08461" lon="7.18644">
        <ele>887.91</ele>
        <time>2009-09-27T08:18:52Z</time>
      </trkpt>
      <trkpt lat="48.08464" lon="7.1864">
        <ele>889.36</ele>
        <time>2009-09-27T08:18:55Z</time>
      </trkpt>
      <trkpt lat="48.08464" lon="7.18638">
        <ele>888.88</ele>
        <time>2009-09-27T08:18:56Z</time>
      </trkpt>
      <trkpt lat="48.08468" lon="7.1863">
        <ele>889.36</ele>
        <time>2009-09-27T08:19:00Z</time>
      </trkpt>
      <trkpt lat="48.08471" lon="7.18624">
        <ele>887.91</ele>
        <time>2009-09-27T08:19:04Z</time>
      </trkpt>
      <trkpt lat="48.08471" lon="7.18617">
        <ele>890.32</ele>
        <time>2009-09-27T08:19:07Z</time>
      </trkpt>
      <trkpt lat="48.0847" lon="7.18609">
        <ele>888.88</ele>
        <time>2009-09-27T08:19:11Z</time>
      </trkpt>
      <trkpt lat="48.0847" lon="7.18608">
        <ele>889.36</ele>
        <time>2009-09-27T08:19:12Z</time>
      </trkpt>
      <trkpt lat="48.0847" lon="7.18604">
        <ele>890.32</ele>
        <time>2009-09-27T08:19:14Z</time>
      </trkpt>
      <trkpt lat="48.08468" lon="7.18602">
        <ele>889.36</ele>
        <time>2009-09-27T08:19:16Z</time>
      </trkpt>
      <trkpt lat="48.08461" lon="7.18589">
        <ele>889.84</ele>
        <time>2009-09-27T08:19:22Z</time>
      </trkpt>
      <trkpt lat="48.08457" lon="7.18585">
        <ele>888.88</ele>
        <time>2009-09-27T08:19:25Z</time>
      </trkpt>
      <trkpt lat="48.08448" lon="7.18579">
        <ele>888.88</ele>
        <time>2009-09-27T08:19:31Z</time>
      </trkpt>
      <trkpt lat="48.08429" lon="7.18552">
        <ele>887.43</ele>
        <time>2009-09-27T08:19:42Z</time>
      </trkpt>
      <trkpt lat="48.08418" lon="7.18528">
        <ele>886.95</ele>
        <time>2009-09-27T08:19:49Z</time>
      </trkpt>
      <trkpt lat="48.08411" lon="7.18519">
        <ele>884.07</ele>
        <time>2009-09-27T08:24:32Z</time>
      </trkpt>
      <trkpt lat="48.08405" lon="7.18503">
        <ele>884.55</ele>
        <time>2009-09-27T08:24:40Z</time>
      </trkpt>
      <trkpt lat="48.08401" lon="7.18493">
        <ele>885.03</ele>
        <time>2009-09-27T08:24:43Z</time>
      </trkpt>
      <trkpt lat="48.08395" lon="7.1848">
        <ele>883.59</ele>
        <time>2009-09-27T08:24:46Z</time>
      </trkpt>
      <trkpt lat="48.08388" lon="7.18465">
        <ele>883.11</ele>
        <time>2009-09-27T08:24:49Z</time>
      </trkpt>
      <trkpt lat="48.08377" lon="7.18451">
        <ele>881.19</ele>
        <time>2009-09-27T08:24:52Z</time>
      </trkpt>
      <trkpt lat="48.08374" lon="7.18445">
        <ele>881.19</ele>
        <time>2009-09-27T08:24:53Z</time>
      </trkpt>
      <trkpt lat="48.0837" lon="7.18439">
        <ele>879.74</ele>
        <time>2009-09-27T08:24:54Z</time>
      </trkpt>
      <trkpt lat="48.08366" lon="7.18434">
        <ele>880.22</ele>
        <time>2009-09-27T08:24:55Z</time>
      </trkpt>
      <trkpt lat="48.08361" lon="7.18428">
        <ele>881.67</ele>
        <time>2009-09-27T08:24:56Z</time>
      </trkpt>
      <trkpt lat="48.08356" lon="7.18421">
        <ele>878.78</ele>
        <time>2009-09-27T08:24:57Z</time>
      </trkpt>
      <trkpt lat="48.08351" lon="7.18415">
        <ele>878.78</ele>
        <time>2009-09-27T08:24:58Z</time>
      </trkpt>
      <trkpt lat="48.08327" lon="7.1839">
        <ele>876.86</ele>
        <time>2009-09-27T08:25:02Z</time>
      </trkpt>
      <trkpt lat="48.08303" lon="7.18355">
        <ele>873.01</ele>
        <time>2009-09-27T08:25:07Z</time>
      </trkpt>
      <trkpt lat="48.08291" lon="7.1833">
        <ele>873.98</ele>
        <time>2009-09-27T08:25:10Z</time>
      </trkpt>
      <trkpt lat="48.08288" lon="7.1832">
        <ele>872.53</ele>
        <time>2009-09-27T08:25:11Z</time>
      </trkpt>
      <trkpt lat="48.08284" lon="7.1831">
        <ele>872.05</ele>
        <time>2009-09-27T08:25:12Z</time>
      </trkpt>
      <trkpt lat="48.0828" lon="7.18301">
        <ele>871.09</ele>
        <time>2009-09-27T08:25:13Z</time>
      </trkpt>
      <trkpt lat="48.08276" lon="7.18291">
        <ele>871.09</ele>
        <time>2009-09-27T08:25:14Z</time>
      </trkpt>
      <trkpt lat="48.08272" lon="7.1828">
        <ele>870.61</ele>
        <time>2009-09-27T08:25:15Z</time>
      </trkpt>
      <trkpt lat="48.08264" lon="7.1826">
        <ele>868.69</ele>
        <time>2009-09-27T08:25:17Z</time>
      </trkpt>
      <trkpt lat="48.08261" lon="7.18252">
        <ele>870.61</ele>
        <time>2009-09-27T08:25:18Z</time>
      </trkpt>
      <trkpt lat="48.08259" lon="7.18244">
        <ele>870.13</ele>
        <time>2009-09-27T08:25:19Z</time>
      </trkpt>
      <trkpt lat="48.08258" lon="7.1823">
        <ele>869.17</ele>
        <time>2009-09-27T08:25:21Z</time>
      </trkpt>
      <trkpt lat="48.08255" lon="7.1822">
        <ele>867.25</ele>
        <time>2009-09-27T08:25:23Z</time>
      </trkpt>
      <trkpt lat="48.08253" lon="7.18216">
        <ele>868.69</ele>
        <time>2009-09-27T08:25:24Z</time>
      </trkpt>
      <trkpt lat="48.08225" lon="7.18159">
        <ele>868.69</ele>
        <time>2009-09-27T08:25:37Z</time>
      </trkpt>
      <trkpt lat="48.08203" lon="7.18116">
        <ele>869.65</ele>
        <time>2009-09-27T08:25:49Z</time>
      </trkpt>
      <trkpt lat="48.08192" lon="7.18095">
        <ele>873.01</ele>
        <time>2009-09-27T08:25:55Z</time>
      </trkpt>
      <trkpt lat="48.08171" lon="7.18064">
        <ele>871.57</ele>
        <time>2009-09-27T08:26:05Z</time>
      </trkpt>
      <trkpt lat="48.08147" lon="7.18041">
        <ele>873.5</ele>
        <time>2009-09-27T08:26:15Z</time>
      </trkpt>
      <trkpt lat="48.08137" lon="7.18031">
        <ele>873.98</ele>
        <time>2009-09-27T08:26:19Z</time>
      </trkpt>
      <trkpt lat="48.08114" lon="7.18011">
        <ele>875.9</ele>
        <time>2009-09-27T08:26:27Z</time>
      </trkpt>
      <trkpt lat="48.08075" lon="7.18">
        <ele>876.38</ele>
        <time>2009-09-27T08:26:39Z</time>
      </trkpt>
      <trkpt lat="48.08043" lon="7.17991">
        <ele>879.26</ele>
        <time>2009-09-27T08:26:49Z</time>
      </trkpt>
      <trkpt lat="48.08013" lon="7.17984">
        <ele>878.78</ele>
        <time>2009-09-27T08:26:58Z</time>
      </trkpt>
      <trkpt lat="48.07998" lon="7.17977">
        <ele>880.22</ele>
        <time>2009-09-27T08:27:03Z</time>
      </trkpt>
      <trkpt lat="48.07995" lon="7.17974">
        <ele>878.3</ele>
        <time>2009-09-27T08:27:04Z</time>
      </trkpt>
      <trkpt lat="48.07993" lon="7.17971">
        <ele>880.22</ele>
        <time>2009-09-27T08:27:05Z</time>
      </trkpt>
      <trkpt lat="48.07991" lon="7.17968">
        <ele>878.78</ele>
        <time>2009-09-27T08:27:06Z</time>
      </trkpt>
      <trkpt lat="48.07988" lon="7.17965">
        <ele>880.22</ele>
        <time>2009-09-27T08:27:07Z</time>
      </trkpt>
      <trkpt lat="48.07985" lon="7.17962">
        <ele>880.22</ele>
        <time>2009-09-27T08:27:08Z</time>
      </trkpt>
      <trkpt lat="48.07982" lon="7.17959">
        <ele>881.19</ele>
        <time>2009-09-27T08:27:09Z</time>
      </trkpt>
      <trkpt lat="48.07977" lon="7.17955">
        <ele>882.15</ele>
        <time>2009-09-27T08:27:11Z</time>
      </trkpt>
      <trkpt lat="48.07975" lon="7.17954">
        <ele>882.15</ele>
        <time>2009-09-27T08:27:12Z</time>
      </trkpt>
      <trkpt lat="48.07973" lon="7.17952">
        <ele>880.22</ele>
        <time>2009-09-27T08:27:13Z</time>
      </trkpt>
      <trkpt lat="48.0797" lon="7.1795">
        <ele>880.22</ele>
        <time>2009-09-27T08:27:14Z</time>
      </trkpt>
      <trkpt lat="48.07967" lon="7.17949">
        <ele>881.19</ele>
        <time>2009-09-27T08:27:15Z</time>
      </trkpt>
      <trkpt lat="48.07964" lon="7.17948">
        <ele>882.63</ele>
        <time>2009-09-27T08:27:16Z</time>
      </trkpt>
      <trkpt lat="48.07961" lon="7.17946">
        <ele>882.63</ele>
        <time>2009-09-27T08:27:17Z</time>
      </trkpt>
      <trkpt lat="48.07958" lon="7.17945">
        <ele>883.11</ele>
        <time>2009-09-27T08:27:18Z</time>
      </trkpt>
      <trkpt lat="48.07955" lon="7.17944">
        <ele>881.67</ele>
        <time>2009-09-27T08:27:19Z</time>
      </trkpt>
      <trkpt lat="48.07952" lon="7.17943">
        <ele>883.11</ele>
        <time>2009-09-27T08:27:20Z</time>
      </trkpt>
      <trkpt lat="48.07949" lon="7.1794">
        <ele>881.67</ele>
        <time>2009-09-27T08:27:21Z</time>
      </trkpt>
      <trkpt lat="48.07938" lon="7.17934">
        <ele>883.11</ele>
        <time>2009-09-27T08:27:25Z</time>
      </trkpt>
      <trkpt lat="48.07936" lon="7.17931">
        <ele>882.63</ele>
        <time>2009-09-27T08:27:26Z</time>
      </trkpt>
      <trkpt lat="48.07934" lon="7.17928">
        <ele>883.11</ele>
        <time>2009-09-27T08:27:27Z</time>
      </trkpt>
      <trkpt lat="48.07927" lon="7.17922">
        <ele>887.43</ele>
        <time>2009-09-27T08:27:30Z</time>
      </trkpt>
      <trkpt lat="48.07925" lon="7.1792">
        <ele>884.07</ele>
        <time>2009-09-27T08:27:31Z</time>
      </trkpt>
      <trkpt lat="48.07922" lon="7.17919">
        <ele>884.55</ele>
        <time>2009-09-27T08:27:32Z</time>
      </trkpt>
      <trkpt lat="48.07895" lon="7.17903">
        <ele>885.03</ele>
        <time>2009-09-27T08:27:41Z</time>
      </trkpt>
      <trkpt lat="48.07889" lon="7.17896">
        <ele>885.99</ele>
        <time>2009-09-27T08:27:43Z</time>
      </trkpt>
      <trkpt lat="48.07877" lon="7.17874">
        <ele>886.95</ele>
        <time>2009-09-27T08:27:49Z</time>
      </trkpt>
      <trkpt lat="48.07874" lon="7.17865">
        <ele>885.51</ele>
        <time>2009-09-27T08:27:51Z</time>
      </trkpt>
      <trkpt lat="48.07868" lon="7.17849">
        <ele>888.88</ele>
        <time>2009-09-27T08:27:55Z</time>
      </trkpt>
      <trkpt lat="48.07846" lon="7.17809">
        <ele>887.43</ele>
        <time>2009-09-27T08:28:05Z</time>
      </trkpt>
      <trkpt lat="48.07844" lon="7.178">
        <ele>888.88</ele>
        <time>2009-09-27T08:28:07Z</time>
      </trkpt>
      <trkpt lat="48.07842" lon="7.17777">
        <ele>892.24</ele>
        <time>2009-09-27T08:28:12Z</time>
      </trkpt>
      <trkpt lat="48.07842" lon="7.17767">
        <ele>888.88</ele>
        <time>2009-09-27T08:28:14Z</time>
      </trkpt>
      <trkpt lat="48.07842" lon="7.17762">
        <ele>888.88</ele>
        <time>2009-09-27T08:28:15Z</time>
      </trkpt>
      <trkpt lat="48.07842" lon="7.17753">
        <ele>890.32</ele>
        <time>2009-09-27T08:28:17Z</time>
      </trkpt>
      <trkpt lat="48.07846" lon="7.17706">
        <ele>891.28</ele>
        <time>2009-09-27T08:28:27Z</time>
      </trkpt>
      <trkpt lat="48.07848" lon="7.17678">
        <ele>891.28</ele>
        <time>2009-09-27T08:28:33Z</time>
      </trkpt>
      <trkpt lat="48.07856" lon="7.17625">
        <ele>893.68</ele>
        <time>2009-09-27T08:28:44Z</time>
      </trkpt>
      <trkpt lat="48.07867" lon="7.17582">
        <ele>897.53</ele>
        <time>2009-09-27T08:28:53Z</time>
      </trkpt>
      <trkpt lat="48.07868" lon="7.17578">
        <ele>897.53</ele>
        <time>2009-09-27T08:28:54Z</time>
      </trkpt>
      <trkpt lat="48.07871" lon="7.17569">
        <ele>895.61</ele>
        <time>2009-09-27T08:28:56Z</time>
      </trkpt>
      <trkpt lat="48.07892" lon="7.17536">
        <ele>899.45</ele>
        <time>2009-09-27T08:29:05Z</time>
      </trkpt>
      <trkpt lat="48.07895" lon="7.17534">
        <ele>895.61</ele>
        <time>2009-09-27T08:29:06Z</time>
      </trkpt>
      <trkpt lat="48.07912" lon="7.17527">
        <ele>898.97</ele>
        <time>2009-09-27T08:29:11Z</time>
      </trkpt>
      <trkpt lat="48.07928" lon="7.17522">
        <ele>897.53</ele>
        <time>2009-09-27T08:29:16Z</time>
      </trkpt>
      <trkpt lat="48.07954" lon="7.1751">
        <ele>901.37</ele>
        <time>2009-09-27T08:29:25Z</time>
      </trkpt>
      <trkpt lat="48.07966" lon="7.17494">
        <ele>897.05</ele>
        <time>2009-09-27T08:29:29Z</time>
      </trkpt>
      <trkpt lat="48.07971" lon="7.17485">
        <ele>903.3</ele>
        <time>2009-09-27T08:29:31Z</time>
      </trkpt>
      <trkpt lat="48.07973" lon="7.1748">
        <ele>900.89</ele>
        <time>2009-09-27T08:29:32Z</time>
      </trkpt>
      <trkpt lat="48.07979" lon="7.17464">
        <ele>901.37</ele>
        <time>2009-09-27T08:29:36Z</time>
      </trkpt>
      <trkpt lat="48.07988" lon="7.1742">
        <ele>902.33</ele>
        <time>2009-09-27T08:29:46Z</time>
      </trkpt>
      <trkpt lat="48.0799" lon="7.1737">
        <ele>902.82</ele>
        <time>2009-09-27T08:29:56Z</time>
      </trkpt>
      <trkpt lat="48.07988" lon="7.17346">
        <ele>906.18</ele>
        <time>2009-09-27T08:30:01Z</time>
      </trkpt>
      <trkpt lat="48.07987" lon="7.17342">
        <ele>906.18</ele>
        <time>2009-09-27T08:30:02Z</time>
      </trkpt>
      <trkpt lat="48.07977" lon="7.17296">
        <ele>906.18</ele>
        <time>2009-09-27T08:30:11Z</time>
      </trkpt>
      <trkpt lat="48.07953" lon="7.17241">
        <ele>909.06</ele>
        <time>2009-09-27T08:30:23Z</time>
      </trkpt>
      <trkpt lat="48.07945" lon="7.17225">
        <ele>907.14</ele>
        <time>2009-09-27T08:30:27Z</time>
      </trkpt>
      <trkpt lat="48.07941" lon="7.17218">
        <ele>908.58</ele>
        <time>2009-09-27T08:30:29Z</time>
      </trkpt>
      <trkpt lat="48.07919" lon="7.17176">
        <ele>911.95</ele>
        <time>2009-09-27T08:30:39Z</time>
      </trkpt>
      <trkpt lat="48.07912" lon="7.17153">
        <ele>911.95</ele>
        <time>2009-09-27T08:30:45Z</time>
      </trkpt>
      <trkpt lat="48.07905" lon="7.17128">
        <ele>913.87</ele>
        <time>2009-09-27T08:30:51Z</time>
      </trkpt>
      <trkpt lat="48.07904" lon="7.17125">
        <ele>913.39</ele>
        <time>2009-09-27T08:30:52Z</time>
      </trkpt>
      <trkpt lat="48.07901" lon="7.17117">
        <ele>912.43</ele>
        <time>2009-09-27T08:30:54Z</time>
      </trkpt>
      <trkpt lat="48.07884" lon="7.17074">
        <ele>913.87</ele>
        <time>2009-09-27T08:31:04Z</time>
      </trkpt>
      <trkpt lat="48.07883" lon="7.1707">
        <ele>912.91</ele>
        <time>2009-09-27T08:31:05Z</time>
      </trkpt>
      <trkpt lat="48.07881" lon="7.17066">
        <ele>913.39</ele>
        <time>2009-09-27T08:31:06Z</time>
      </trkpt>
      <trkpt lat="48.07878" lon="7.17021">
        <ele>914.35</ele>
        <time>2009-09-27T08:31:14Z</time>
      </trkpt>
      <trkpt lat="48.07877" lon="7.17006">
        <ele>911.95</ele>
        <time>2009-09-27T08:31:17Z</time>
      </trkpt>
      <trkpt lat="48.07874" lon="7.16995">
        <ele>913.87</ele>
        <time>2009-09-27T08:31:19Z</time>
      </trkpt>
      <trkpt lat="48.07863" lon="7.16963">
        <ele>914.35</ele>
        <time>2009-09-27T08:31:24Z</time>
      </trkpt>
      <trkpt lat="48.07861" lon="7.16957">
        <ele>913.39</ele>
        <time>2009-09-27T08:31:25Z</time>
      </trkpt>
      <trkpt lat="48.0786" lon="7.16951">
        <ele>913.87</ele>
        <time>2009-09-27T08:31:26Z</time>
      </trkpt>
      <trkpt lat="48.07858" lon="7.16946">
        <ele>916.27</ele>
        <time>2009-09-27T08:31:27Z</time>
      </trkpt>
      <trkpt lat="48.07857" lon="7.16941">
        <ele>913.39</ele>
        <time>2009-09-27T08:31:28Z</time>
      </trkpt>
      <trkpt lat="48.07855" lon="7.16935">
        <ele>913.39</ele>
        <time>2009-09-27T08:31:29Z</time>
      </trkpt>
      <trkpt lat="48.07853" lon="7.16931">
        <ele>915.79</ele>
        <time>2009-09-27T08:31:30Z</time>
      </trkpt>
      <trkpt lat="48.07852" lon="7.16926">
        <ele>915.79</ele>
        <time>2009-09-27T08:31:31Z</time>
      </trkpt>
      <trkpt lat="48.07847" lon="7.1691">
        <ele>913.87</ele>
        <time>2009-09-27T08:31:34Z</time>
      </trkpt>
      <trkpt lat="48.07844" lon="7.169">
        <ele>916.27</ele>
        <time>2009-09-27T08:31:36Z</time>
      </trkpt>
      <trkpt lat="48.07831" lon="7.16838">
        <ele>917.24</ele>
        <time>2009-09-27T08:31:50Z</time>
      </trkpt>
      <trkpt lat="48.07826" lon="7.16779">
        <ele>918.68</ele>
        <time>2009-09-27T08:32:03Z</time>
      </trkpt>
      <trkpt lat="48.07832" lon="7.16725">
        <ele>921.56</ele>
        <time>2009-09-27T08:32:14Z</time>
      </trkpt>
      <trkpt lat="48.07832" lon="7.16676">
        <ele>922.04</ele>
        <time>2009-09-27T08:32:24Z</time>
      </trkpt>
      <trkpt lat="48.07832" lon="7.16666">
        <ele>924.93</ele>
        <time>2009-09-27T08:32:26Z</time>
      </trkpt>
      <trkpt lat="48.07831" lon="7.16661">
        <ele>922.04</ele>
        <time>2009-09-27T08:32:27Z</time>
      </trkpt>
      <trkpt lat="48.07826" lon="7.16624">
        <ele>924.93</ele>
        <time>2009-09-27T08:32:34Z</time>
      </trkpt>
      <trkpt lat="48.07825" lon="7.16618">
        <ele>924.45</ele>
        <time>2009-09-27T08:32:35Z</time>
      </trkpt>
      <trkpt lat="48.07813" lon="7.16564">
        <ele>924.93</ele>
        <time>2009-09-27T08:32:46Z</time>
      </trkpt>
      <trkpt lat="48.07812" lon="7.16559">
        <ele>924.93</ele>
        <time>2009-09-27T08:32:47Z</time>
      </trkpt>
      <trkpt lat="48.07802" lon="7.16527">
        <ele>928.77</ele>
        <time>2009-09-27T08:32:54Z</time>
      </trkpt>
      <trkpt lat="48.07797" lon="7.16503">
        <ele>926.85</ele>
        <time>2009-09-27T08:32:59Z</time>
      </trkpt>
      <trkpt lat="48.07795" lon="7.16491">
        <ele>928.77</ele>
        <time>2009-09-27T08:33:02Z</time>
      </trkpt>
      <trkpt lat="48.0779" lon="7.16466">
        <ele>930.21</ele>
        <time>2009-09-27T08:33:09Z</time>
      </trkpt>
      <trkpt lat="48.07784" lon="7.16445">
        <ele>930.69</ele>
        <time>2009-09-27T08:33:14Z</time>
      </trkpt>
      <trkpt lat="48.07783" lon="7.16436">
        <ele>928.77</ele>
        <time>2009-09-27T08:33:16Z</time>
      </trkpt>
      <trkpt lat="48.07778" lon="7.16401">
        <ele>933.58</ele>
        <time>2009-09-27T08:33:23Z</time>
      </trkpt>
      <trkpt lat="48.07778" lon="7.16395">
        <ele>932.62</ele>
        <time>2009-09-27T08:33:24Z</time>
      </trkpt>
      <trkpt lat="48.0778" lon="7.16383">
        <ele>931.65</ele>
        <time>2009-09-27T08:33:26Z</time>
      </trkpt>
      <trkpt lat="48.07785" lon="7.16346">
        <ele>932.62</ele>
        <time>2009-09-27T08:33:33Z</time>
      </trkpt>
      <trkpt lat="48.078" lon="7.16298">
        <ele>935.5</ele>
        <time>2009-09-27T08:33:44Z</time>
      </trkpt>
      <trkpt lat="48.07818" lon="7.16254">
        <ele>934.54</ele>
        <time>2009-09-27T08:33:54Z</time>
      </trkpt>
      <trkpt lat="48.07823" lon="7.16243">
        <ele>936.94</ele>
        <time>2009-09-27T08:33:57Z</time>
      </trkpt>
      <trkpt lat="48.07835" lon="7.16186">
        <ele>937.9</ele>
        <time>2009-09-27T08:34:08Z</time>
      </trkpt>
      <trkpt lat="48.07843" lon="7.16153">
        <ele>936.46</ele>
        <time>2009-09-27T08:34:14Z</time>
      </trkpt>
      <trkpt lat="48.07845" lon="7.16148">
        <ele>936.46</ele>
        <time>2009-09-27T08:34:15Z</time>
      </trkpt>
      <trkpt lat="48.07847" lon="7.16143">
        <ele>937.42</ele>
        <time>2009-09-27T08:34:16Z</time>
      </trkpt>
      <trkpt lat="48.07862" lon="7.16111">
        <ele>938.86</ele>
        <time>2009-09-27T08:34:25Z</time>
      </trkpt>
      <trkpt lat="48.07874" lon="7.16075">
        <ele>940.31</ele>
        <time>2009-09-27T08:34:33Z</time>
      </trkpt>
      <trkpt lat="48.07876" lon="7.16065">
        <ele>938.86</ele>
        <time>2009-09-27T08:34:35Z</time>
      </trkpt>
      <trkpt lat="48.07877" lon="7.16055">
        <ele>938.38</ele>
        <time>2009-09-27T08:34:37Z</time>
      </trkpt>
      <trkpt lat="48.07877" lon="7.16049">
        <ele>939.83</ele>
        <time>2009-09-27T08:34:38Z</time>
      </trkpt>
      <trkpt lat="48.07878" lon="7.16043">
        <ele>941.27</ele>
        <time>2009-09-27T08:34:39Z</time>
      </trkpt>
      <trkpt lat="48.07881" lon="7.15999">
        <ele>937.9</ele>
        <time>2009-09-27T08:34:45Z</time>
      </trkpt>
      <trkpt lat="48.07881" lon="7.15992">
        <ele>938.86</ele>
        <time>2009-09-27T08:34:46Z</time>
      </trkpt>
      <trkpt lat="48.07882" lon="7.15985">
        <ele>938.38</ele>
        <time>2009-09-27T08:34:47Z</time>
      </trkpt>
      <trkpt lat="48.07882" lon="7.15977">
        <ele>938.38</ele>
        <time>2009-09-27T08:34:48Z</time>
      </trkpt>
      <trkpt lat="48.07882" lon="7.15963">
        <ele>938.86</ele>
        <time>2009-09-27T08:34:50Z</time>
      </trkpt>
      <trkpt lat="48.07883" lon="7.15956">
        <ele>938.86</ele>
        <time>2009-09-27T08:34:51Z</time>
      </trkpt>
      <trkpt lat="48.07883" lon="7.15949">
        <ele>937.9</ele>
        <time>2009-09-27T08:34:52Z</time>
      </trkpt>
      <trkpt lat="48.07884" lon="7.15942">
        <ele>937.9</ele>
        <time>2009-09-27T08:34:53Z</time>
      </trkpt>
      <trkpt lat="48.07885" lon="7.15936">
        <ele>938.86</ele>
        <time>2009-09-27T08:34:54Z</time>
      </trkpt>
      <trkpt lat="48.07885" lon="7.1593">
        <ele>938.38</ele>
        <time>2009-09-27T08:34:55Z</time>
      </trkpt>
      <trkpt lat="48.07885" lon="7.15924">
        <ele>938.38</ele>
        <time>2009-09-27T08:34:56Z</time>
      </trkpt>
      <trkpt lat="48.07885" lon="7.15918">
        <ele>937.9</ele>
        <time>2009-09-27T08:34:57Z</time>
      </trkpt>
      <trkpt lat="48.07885" lon="7.15912">
        <ele>940.31</ele>
        <time>2009-09-27T08:34:58Z</time>
      </trkpt>
      <trkpt lat="48.07885" lon="7.15906">
        <ele>938.38</ele>
        <time>2009-09-27T08:34:59Z</time>
      </trkpt>
      <trkpt lat="48.07884" lon="7.159">
        <ele>940.31</ele>
        <time>2009-09-27T08:35:00Z</time>
      </trkpt>
      <trkpt lat="48.07879" lon="7.15867">
        <ele>938.86</ele>
        <time>2009-09-27T08:35:05Z</time>
      </trkpt>
      <trkpt lat="48.07879" lon="7.1586">
        <ele>939.83</ele>
        <time>2009-09-27T08:35:06Z</time>
      </trkpt>
      <trkpt lat="48.07879" lon="7.15853">
        <ele>939.83</ele>
        <time>2009-09-27T08:35:07Z</time>
      </trkpt>
      <trkpt lat="48.07878" lon="7.15815">
        <ele>940.31</ele>
        <time>2009-09-27T08:35:13Z</time>
      </trkpt>
      <trkpt lat="48.07876" lon="7.15795">
        <ele>940.79</ele>
        <time>2009-09-27T08:35:16Z</time>
      </trkpt>
      <trkpt lat="48.07875" lon="7.15789">
        <ele>940.79</ele>
        <time>2009-09-27T08:35:17Z</time>
      </trkpt>
      <trkpt lat="48.07875" lon="7.15783">
        <ele>941.75</ele>
        <time>2009-09-27T08:35:18Z</time>
      </trkpt>
      <trkpt lat="48.07876" lon="7.15734">
        <ele>941.27</ele>
        <time>2009-09-27T08:35:27Z</time>
      </trkpt>
      <trkpt lat="48.07878" lon="7.15696">
        <ele>944.63</ele>
        <time>2009-09-27T08:35:36Z</time>
      </trkpt>
      <trkpt lat="48.07878" lon="7.15693">
        <ele>943.19</ele>
        <time>2009-09-27T08:35:37Z</time>
      </trkpt>
      <trkpt lat="48.07881" lon="7.15679">
        <ele>945.11</ele>
        <time>2009-09-27T08:35:41Z</time>
      </trkpt>
      <trkpt lat="48.07882" lon="7.15676">
        <ele>944.63</ele>
        <time>2009-09-27T08:35:42Z</time>
      </trkpt>
      <trkpt lat="48.07883" lon="7.15672">
        <ele>945.59</ele>
        <time>2009-09-27T08:35:43Z</time>
      </trkpt>
      <trkpt lat="48.07884" lon="7.1567">
        <ele>946.07</ele>
        <time>2009-09-27T08:35:44Z</time>
      </trkpt>
      <trkpt lat="48.07884" lon="7.15668">
        <ele>946.07</ele>
        <time>2009-09-27T08:35:45Z</time>
      </trkpt>
      <trkpt lat="48.07886" lon="7.15666">
        <ele>947.04</ele>
        <time>2009-09-27T08:35:46Z</time>
      </trkpt>
      <trkpt lat="48.07887" lon="7.15664">
        <ele>944.63</ele>
        <time>2009-09-27T08:35:47Z</time>
      </trkpt>
      <trkpt lat="48.07894" lon="7.1566">
        <ele>947.52</ele>
        <time>2009-09-27T08:35:51Z</time>
      </trkpt>
      <trkpt lat="48.07898" lon="7.15657">
        <ele>947.52</ele>
        <time>2009-09-27T08:35:53Z</time>
      </trkpt>
      <trkpt lat="48.07907" lon="7.15647">
        <ele>948.48</ele>
        <time>2009-09-27T08:35:58Z</time>
      </trkpt>
      <trkpt lat="48.07911" lon="7.15643">
        <ele>949.44</ele>
        <time>2009-09-27T08:36:00Z</time>
      </trkpt>
      <trkpt lat="48.07921" lon="7.15633">
        <ele>951.36</ele>
        <time>2009-09-27T08:36:06Z</time>
      </trkpt>
      <trkpt lat="48.0794" lon="7.15607">
        <ele>955.21</ele>
        <time>2009-09-27T08:36:17Z</time>
      </trkpt>
      <trkpt lat="48.07941" lon="7.15605">
        <ele>953.77</ele>
        <time>2009-09-27T08:36:18Z</time>
      </trkpt>
      <trkpt lat="48.07944" lon="7.15589">
        <ele>953.77</ele>
        <time>2009-09-27T08:36:24Z</time>
      </trkpt>
      <trkpt lat="48.07946" lon="7.1558">
        <ele>957.13</ele>
        <time>2009-09-27T08:36:28Z</time>
      </trkpt>
      <trkpt lat="48.07931" lon="7.15571">
        <ele>954.73</ele>
        <time>2009-09-27T08:36:36Z</time>
      </trkpt>
      <trkpt lat="48.07917" lon="7.15567">
        <ele>956.17</ele>
        <time>2009-09-27T08:36:41Z</time>
      </trkpt>
      <trkpt lat="48.07905" lon="7.15564">
        <ele>955.21</ele>
        <time>2009-09-27T08:36:44Z</time>
      </trkpt>
      <trkpt lat="48.07876" lon="7.1555">
        <ele>952.8</ele>
        <time>2009-09-27T08:36:53Z</time>
      </trkpt>
      <trkpt lat="48.0787" lon="7.15512">
        <ele>953.28</ele>
        <time>2009-09-27T08:36:59Z</time>
      </trkpt>
      <trkpt lat="48.07868" lon="7.15486">
        <ele>954.73</ele>
        <time>2009-09-27T08:37:04Z</time>
      </trkpt>
      <trkpt lat="48.07864" lon="7.15436">
        <ele>957.61</ele>
        <time>2009-09-27T08:37:16Z</time>
      </trkpt>
      <trkpt lat="48.07859" lon="7.15422">
        <ele>954.25</ele>
        <time>2009-09-27T08:37:19Z</time>
      </trkpt>
      <trkpt lat="48.07865" lon="7.1538">
        <ele>955.69</ele>
        <time>2009-09-27T08:37:28Z</time>
      </trkpt>
      <trkpt lat="48.07853" lon="7.15325">
        <ele>955.21</ele>
        <time>2009-09-27T08:37:39Z</time>
      </trkpt>
      <trkpt lat="48.07849" lon="7.1531">
        <ele>957.13</ele>
        <time>2009-09-27T08:37:42Z</time>
      </trkpt>
      <trkpt lat="48.07846" lon="7.15296">
        <ele>954.73</ele>
        <time>2009-09-27T08:37:44Z</time>
      </trkpt>
      <trkpt lat="48.07844" lon="7.15282">
        <ele>955.69</ele>
        <time>2009-09-27T08:37:46Z</time>
      </trkpt>
      <trkpt lat="48.07842" lon="7.15249">
        <ele>954.73</ele>
        <time>2009-09-27T08:37:50Z</time>
      </trkpt>
      <trkpt lat="48.07844" lon="7.1521">
        <ele>955.21</ele>
        <time>2009-09-27T08:37:55Z</time>
      </trkpt>
      <trkpt lat="48.07843" lon="7.15151">
        <ele>954.25</ele>
        <time>2009-09-27T08:38:05Z</time>
      </trkpt>
      <trkpt lat="48.07842" lon="7.15144">
        <ele>952.8</ele>
        <time>2009-09-27T08:38:06Z</time>
      </trkpt>
      <trkpt lat="48.07841" lon="7.1512">
        <ele>950.88</ele>
        <time>2009-09-27T08:38:09Z</time>
      </trkpt>
      <trkpt lat="48.07835" lon="7.15071">
        <ele>951.36</ele>
        <time>2009-09-27T08:38:17Z</time>
      </trkpt>
      <trkpt lat="48.07831" lon="7.15048">
        <ele>952.32</ele>
        <time>2009-09-27T08:38:21Z</time>
      </trkpt>
      <trkpt lat="48.07822" lon="7.15033">
        <ele>950.88</ele>
        <time>2009-09-27T08:38:24Z</time>
      </trkpt>
      <trkpt lat="48.07806" lon="7.15011">
        <ele>948</ele>
        <time>2009-09-27T08:38:28Z</time>
      </trkpt>
      <trkpt lat="48.07801" lon="7.15005">
        <ele>948</ele>
        <time>2009-09-27T08:38:29Z</time>
      </trkpt>
      <trkpt lat="48.07785" lon="7.14989">
        <ele>944.63</ele>
        <time>2009-09-27T08:38:32Z</time>
      </trkpt>
      <trkpt lat="48.07776" lon="7.14978">
        <ele>940.79</ele>
        <time>2009-09-27T08:38:34Z</time>
      </trkpt>
      <trkpt lat="48.07759" lon="7.1497">
        <ele>936.94</ele>
        <time>2009-09-27T08:38:37Z</time>
      </trkpt>
      <trkpt lat="48.07751" lon="7.14963">
        <ele>933.58</ele>
        <time>2009-09-27T08:38:39Z</time>
      </trkpt>
      <trkpt lat="48.07747" lon="7.14959">
        <ele>934.06</ele>
        <time>2009-09-27T08:38:40Z</time>
      </trkpt>
      <trkpt lat="48.07739" lon="7.14952">
        <ele>933.1</ele>
        <time>2009-09-27T08:38:42Z</time>
      </trkpt>
      <trkpt lat="48.0773" lon="7.14944">
        <ele>931.65</ele>
        <time>2009-09-27T08:38:44Z</time>
      </trkpt>
      <trkpt lat="48.07725" lon="7.1494">
        <ele>929.25</ele>
        <time>2009-09-27T08:38:45Z</time>
      </trkpt>
      <trkpt lat="48.0772" lon="7.14935">
        <ele>927.33</ele>
        <time>2009-09-27T08:38:46Z</time>
      </trkpt>
      <trkpt lat="48.077" lon="7.14927">
        <ele>923</ele>
        <time>2009-09-27T08:38:49Z</time>
      </trkpt>
      <trkpt lat="48.07707" lon="7.14907">
        <ele>923.96</ele>
        <time>2009-09-27T08:38:50Z</time>
      </trkpt>
      <trkpt lat="48.07703" lon="7.14896">
        <ele>922.52</ele>
        <time>2009-09-27T08:38:51Z</time>
      </trkpt>
      <trkpt lat="48.07699" lon="7.14891">
        <ele>921.08</ele>
        <time>2009-09-27T08:38:52Z</time>
      </trkpt>
      <trkpt lat="48.07694" lon="7.14897">
        <ele>921.08</ele>
        <time>2009-09-27T08:38:53Z</time>
      </trkpt>
      <trkpt lat="48.07689" lon="7.14899">
        <ele>919.64</ele>
        <time>2009-09-27T08:38:54Z</time>
      </trkpt>
      <trkpt lat="48.0768" lon="7.149">
        <ele>918.2</ele>
        <time>2009-09-27T08:38:56Z</time>
      </trkpt>
      <trkpt lat="48.07675" lon="7.14898">
        <ele>917.72</ele>
        <time>2009-09-27T08:38:57Z</time>
      </trkpt>
      <trkpt lat="48.07671" lon="7.14897">
        <ele>917.24</ele>
        <time>2009-09-27T08:38:58Z</time>
      </trkpt>
      <trkpt lat="48.07668" lon="7.14894">
        <ele>916.27</ele>
        <time>2009-09-27T08:38:59Z</time>
      </trkpt>
      <trkpt lat="48.07665" lon="7.14891">
        <ele>915.31</ele>
        <time>2009-09-27T08:39:00Z</time>
      </trkpt>
      <trkpt lat="48.07662" lon="7.1489">
        <ele>915.79</ele>
        <time>2009-09-27T08:39:01Z</time>
      </trkpt>
      <trkpt lat="48.07659" lon="7.14888">
        <ele>913.87</ele>
        <time>2009-09-27T08:39:02Z</time>
      </trkpt>
      <trkpt lat="48.07656" lon="7.14886">
        <ele>914.83</ele>
        <time>2009-09-27T08:39:03Z</time>
      </trkpt>
      <trkpt lat="48.07652" lon="7.14884">
        <ele>912.91</ele>
        <time>2009-09-27T08:39:04Z</time>
      </trkpt>
      <trkpt lat="48.07647" lon="7.14882">
        <ele>912.43</ele>
        <time>2009-09-27T08:39:05Z</time>
      </trkpt>
      <trkpt lat="48.07643" lon="7.14879">
        <ele>912.43</ele>
        <time>2009-09-27T08:39:06Z</time>
      </trkpt>
      <trkpt lat="48.0764" lon="7.14876">
        <ele>912.43</ele>
        <time>2009-09-27T08:39:07Z</time>
      </trkpt>
      <trkpt lat="48.07635" lon="7.14873">
        <ele>911.95</ele>
        <time>2009-09-27T08:39:08Z</time>
      </trkpt>
      <trkpt lat="48.07629" lon="7.14867">
        <ele>908.58</ele>
        <time>2009-09-27T08:39:09Z</time>
      </trkpt>
      <trkpt lat="48.07614" lon="7.14853">
        <ele>906.18</ele>
        <time>2009-09-27T08:39:12Z</time>
      </trkpt>
      <trkpt lat="48.07609" lon="7.14848">
        <ele>906.18</ele>
        <time>2009-09-27T08:39:13Z</time>
      </trkpt>
      <trkpt lat="48.07584" lon="7.14821">
        <ele>902.82</ele>
        <time>2009-09-27T08:39:18Z</time>
      </trkpt>
      <trkpt lat="48.0757" lon="7.14789">
        <ele>902.33</ele>
        <time>2009-09-27T08:39:21Z</time>
      </trkpt>
      <trkpt lat="48.07563" lon="7.14768">
        <ele>899.45</ele>
        <time>2009-09-27T08:39:23Z</time>
      </trkpt>
      <trkpt lat="48.07558" lon="7.14752">
        <ele>897.05</ele>
        <time>2009-09-27T08:39:25Z</time>
      </trkpt>
      <trkpt lat="48.07555" lon="7.14741">
        <ele>894.64</ele>
        <time>2009-09-27T08:39:27Z</time>
      </trkpt>
      <trkpt lat="48.07555" lon="7.14737">
        <ele>896.09</ele>
        <time>2009-09-27T08:39:28Z</time>
      </trkpt>
      <trkpt lat="48.07558" lon="7.14733">
        <ele>896.57</ele>
        <time>2009-09-27T08:39:30Z</time>
      </trkpt>
      <trkpt lat="48.07562" lon="7.14725">
        <ele>898.49</ele>
        <time>2009-09-27T08:39:37Z</time>
      </trkpt>
      <trkpt lat="48.07566" lon="7.14711">
        <ele>900.89</ele>
        <time>2009-09-27T08:39:45Z</time>
      </trkpt>
      <trkpt lat="48.07567" lon="7.14709">
        <ele>900.41</ele>
        <time>2009-09-27T08:39:46Z</time>
      </trkpt>
      <trkpt lat="48.07568" lon="7.14708">
        <ele>901.37</ele>
        <time>2009-09-27T08:39:47Z</time>
      </trkpt>
      <trkpt lat="48.07569" lon="7.14706">
        <ele>900.89</ele>
        <time>2009-09-27T08:39:48Z</time>
      </trkpt>
      <trkpt lat="48.07574" lon="7.14692">
        <ele>903.3</ele>
        <time>2009-09-27T08:39:58Z</time>
      </trkpt>
      <trkpt lat="48.07576" lon="7.14683">
        <ele>903.3</ele>
        <time>2009-09-27T08:40:05Z</time>
      </trkpt>
      <trkpt lat="48.07577" lon="7.14675">
        <ele>903.3</ele>
        <time>2009-09-27T08:40:17Z</time>
      </trkpt>
      <trkpt lat="48.07585" lon="7.14652">
        <ele>902.33</ele>
        <time>2009-09-27T08:40:30Z</time>
      </trkpt>
      <trkpt lat="48.07587" lon="7.14643">
        <ele>903.78</ele>
        <time>2009-09-27T08:40:32Z</time>
      </trkpt>
      <trkpt lat="48.07599" lon="7.14616">
        <ele>904.74</ele>
        <time>2009-09-27T08:40:43Z</time>
      </trkpt>
      <trkpt lat="48.07612" lon="7.14588">
        <ele>904.74</ele>
        <time>2009-09-27T08:40:53Z</time>
      </trkpt>
      <trkpt lat="48.07625" lon="7.14555">
        <ele>907.62</ele>
        <time>2009-09-27T08:41:03Z</time>
      </trkpt>
      <trkpt lat="48.07648" lon="7.14513">
        <ele>907.62</ele>
        <time>2009-09-27T08:41:15Z</time>
      </trkpt>
      <trkpt lat="48.07656" lon="7.14492">
        <ele>909.06</ele>
        <time>2009-09-27T08:41:20Z</time>
      </trkpt>
      <trkpt lat="48.07658" lon="7.14488">
        <ele>908.58</ele>
        <time>2009-09-27T08:41:21Z</time>
      </trkpt>
      <trkpt lat="48.07675" lon="7.14446">
        <ele>909.06</ele>
        <time>2009-09-27T08:41:31Z</time>
      </trkpt>
      <trkpt lat="48.07699" lon="7.14401">
        <ele>910.03</ele>
        <time>2009-09-27T08:41:43Z</time>
      </trkpt>
      <trkpt lat="48.0772" lon="7.14365">
        <ele>910.99</ele>
        <time>2009-09-27T08:41:53Z</time>
      </trkpt>
      <trkpt lat="48.07725" lon="7.14356">
        <ele>912.91</ele>
        <time>2009-09-27T08:41:55Z</time>
      </trkpt>
      <trkpt lat="48.07743" lon="7.14314">
        <ele>913.87</ele>
        <time>2009-09-27T08:42:04Z</time>
      </trkpt>
      <trkpt lat="48.07745" lon="7.14308">
        <ele>913.87</ele>
        <time>2009-09-27T08:42:05Z</time>
      </trkpt>
      <trkpt lat="48.07747" lon="7.14303">
        <ele>914.35</ele>
        <time>2009-09-27T08:42:06Z</time>
      </trkpt>
      <trkpt lat="48.07748" lon="7.14297">
        <ele>913.87</ele>
        <time>2009-09-27T08:42:07Z</time>
      </trkpt>
      <trkpt lat="48.07748" lon="7.14292">
        <ele>913.39</ele>
        <time>2009-09-27T08:42:08Z</time>
      </trkpt>
      <trkpt lat="48.07748" lon="7.14286">
        <ele>914.83</ele>
        <time>2009-09-27T08:42:09Z</time>
      </trkpt>
      <trkpt lat="48.07748" lon="7.14281">
        <ele>914.83</ele>
        <time>2009-09-27T08:42:10Z</time>
      </trkpt>
      <trkpt lat="48.07748" lon="7.14276">
        <ele>913.87</ele>
        <time>2009-09-27T08:42:11Z</time>
      </trkpt>
      <trkpt lat="48.07743" lon="7.14221">
        <ele>916.75</ele>
        <time>2009-09-27T08:42:22Z</time>
      </trkpt>
      <trkpt lat="48.07733" lon="7.14179">
        <ele>918.68</ele>
        <time>2009-09-27T08:42:32Z</time>
      </trkpt>
      <trkpt lat="48.0773" lon="7.14153">
        <ele>918.68</ele>
        <time>2009-09-27T08:42:38Z</time>
      </trkpt>
      <trkpt lat="48.07727" lon="7.14141">
        <ele>921.08</ele>
        <time>2009-09-27T08:42:41Z</time>
      </trkpt>
      <trkpt lat="48.07715" lon="7.14115">
        <ele>923.48</ele>
        <time>2009-09-27T08:42:50Z</time>
      </trkpt>
      <trkpt lat="48.07711" lon="7.14111">
        <ele>922.04</ele>
        <time>2009-09-27T08:42:52Z</time>
      </trkpt>
      <trkpt lat="48.07708" lon="7.1411">
        <ele>922.52</ele>
        <time>2009-09-27T08:42:53Z</time>
      </trkpt>
      <trkpt lat="48.07707" lon="7.14107">
        <ele>921.56</ele>
        <time>2009-09-27T08:42:54Z</time>
      </trkpt>
      <trkpt lat="48.07706" lon="7.14104">
        <ele>923</ele>
        <time>2009-09-27T08:42:55Z</time>
      </trkpt>
      <trkpt lat="48.07705" lon="7.14102">
        <ele>922.52</ele>
        <time>2009-09-27T08:42:56Z</time>
      </trkpt>
      <trkpt lat="48.07703" lon="7.14099">
        <ele>921.56</ele>
        <time>2009-09-27T08:42:57Z</time>
      </trkpt>
      <trkpt lat="48.07702" lon="7.14097">
        <ele>922.52</ele>
        <time>2009-09-27T08:42:58Z</time>
      </trkpt>
      <trkpt lat="48.07698" lon="7.14093">
        <ele>923</ele>
        <time>2009-09-27T08:43:00Z</time>
      </trkpt>
      <trkpt lat="48.0769" lon="7.14085">
        <ele>922.52</ele>
        <time>2009-09-27T08:43:04Z</time>
      </trkpt>
      <trkpt lat="48.07667" lon="7.14057">
        <ele>923.96</ele>
        <time>2009-09-27T08:43:14Z</time>
      </trkpt>
      <trkpt lat="48.07664" lon="7.14055">
        <ele>923.96</ele>
        <time>2009-09-27T08:43:15Z</time>
      </trkpt>
      <trkpt lat="48.07637" lon="7.14022">
        <ele>922.04</ele>
        <time>2009-09-27T08:43:24Z</time>
      </trkpt>
      <trkpt lat="48.07621" lon="7.1401">
        <ele>918.68</ele>
        <time>2009-09-27T08:43:28Z</time>
      </trkpt>
      <trkpt lat="48.07618" lon="7.14006">
        <ele>920.12</ele>
        <time>2009-09-27T08:43:29Z</time>
      </trkpt>
      <trkpt lat="48.0761" lon="7.13968">
        <ele>916.75</ele>
        <time>2009-09-27T08:43:36Z</time>
      </trkpt>
      <trkpt lat="48.07611" lon="7.13961">
        <ele>915.79</ele>
        <time>2009-09-27T08:43:37Z</time>
      </trkpt>
      <trkpt lat="48.07613" lon="7.13954">
        <ele>914.35</ele>
        <time>2009-09-27T08:43:38Z</time>
      </trkpt>
      <trkpt lat="48.07614" lon="7.13948">
        <ele>913.39</ele>
        <time>2009-09-27T08:43:39Z</time>
      </trkpt>
      <trkpt lat="48.07616" lon="7.1394">
        <ele>914.35</ele>
        <time>2009-09-27T08:43:40Z</time>
      </trkpt>
      <trkpt lat="48.07619" lon="7.13933">
        <ele>913.39</ele>
        <time>2009-09-27T08:43:41Z</time>
      </trkpt>
      <trkpt lat="48.07621" lon="7.13925">
        <ele>913.87</ele>
        <time>2009-09-27T08:43:42Z</time>
      </trkpt>
      <trkpt lat="48.07623" lon="7.13918">
        <ele>913.39</ele>
        <time>2009-09-27T08:43:43Z</time>
      </trkpt>
      <trkpt lat="48.07625" lon="7.1391">
        <ele>911.95</ele>
        <time>2009-09-27T08:43:44Z</time>
      </trkpt>
      <trkpt lat="48.07626" lon="7.13902">
        <ele>911.47</ele>
        <time>2009-09-27T08:43:45Z</time>
      </trkpt>
      <trkpt lat="48.0763" lon="7.13888">
        <ele>912.43</ele>
        <time>2009-09-27T08:43:47Z</time>
      </trkpt>
      <trkpt lat="48.07638" lon="7.13864">
        <ele>910.51</ele>
        <time>2009-09-27T08:43:51Z</time>
      </trkpt>
      <trkpt lat="48.07642" lon="7.13846">
        <ele>911.95</ele>
        <time>2009-09-27T08:43:55Z</time>
      </trkpt>
      <trkpt lat="48.07643" lon="7.13844">
        <ele>913.39</ele>
        <time>2009-09-27T08:43:56Z</time>
      </trkpt>
      <trkpt lat="48.07645" lon="7.13838">
        <ele>912.43</ele>
        <time>2009-09-27T08:43:58Z</time>
      </trkpt>
      <trkpt lat="48.07645" lon="7.13835">
        <ele>912.43</ele>
        <time>2009-09-27T08:43:59Z</time>
      </trkpt>
      <trkpt lat="48.07644" lon="7.13831">
        <ele>913.39</ele>
        <time>2009-09-27T08:44:00Z</time>
      </trkpt>
      <trkpt lat="48.07643" lon="7.13819">
        <ele>913.87</ele>
        <time>2009-09-27T08:44:04Z</time>
      </trkpt>
      <trkpt lat="48.07642" lon="7.13816">
        <ele>914.35</ele>
        <time>2009-09-27T08:44:05Z</time>
      </trkpt>
      <trkpt lat="48.07643" lon="7.13813">
        <ele>914.35</ele>
        <time>2009-09-27T08:44:06Z</time>
      </trkpt>
      <trkpt lat="48.07644" lon="7.1381">
        <ele>914.35</ele>
        <time>2009-09-27T08:44:07Z</time>
      </trkpt>
      <trkpt lat="48.07644" lon="7.13807">
        <ele>916.27</ele>
        <time>2009-09-27T08:44:08Z</time>
      </trkpt>
      <trkpt lat="48.07644" lon="7.13804">
        <ele>914.83</ele>
        <time>2009-09-27T08:44:09Z</time>
      </trkpt>
      <trkpt lat="48.07643" lon="7.13801">
        <ele>915.31</ele>
        <time>2009-09-27T08:44:10Z</time>
      </trkpt>
      <trkpt lat="48.07643" lon="7.13797">
        <ele>914.35</ele>
        <time>2009-09-27T08:44:11Z</time>
      </trkpt>
      <trkpt lat="48.07643" lon="7.13795">
        <ele>913.39</ele>
        <time>2009-09-27T08:44:12Z</time>
      </trkpt>
      <trkpt lat="48.07643" lon="7.13793">
        <ele>915.31</ele>
        <time>2009-09-27T08:44:13Z</time>
      </trkpt>
      <trkpt lat="48.07643" lon="7.13789">
        <ele>913.87</ele>
        <time>2009-09-27T08:44:14Z</time>
      </trkpt>
      <trkpt lat="48.07643" lon="7.13786">
        <ele>914.35</ele>
        <time>2009-09-27T08:44:15Z</time>
      </trkpt>
      <trkpt lat="48.07643" lon="7.13781">
        <ele>913.87</ele>
        <time>2009-09-27T08:44:16Z</time>
      </trkpt>
      <trkpt lat="48.07643" lon="7.13776">
        <ele>913.87</ele>
        <time>2009-09-27T08:44:17Z</time>
      </trkpt>
      <trkpt lat="48.07643" lon="7.1377">
        <ele>914.35</ele>
        <time>2009-09-27T08:44:18Z</time>
      </trkpt>
      <trkpt lat="48.07642" lon="7.13765">
        <ele>914.35</ele>
        <time>2009-09-27T08:44:19Z</time>
      </trkpt>
      <trkpt lat="48.0764" lon="7.13759">
        <ele>913.39</ele>
        <time>2009-09-27T08:44:20Z</time>
      </trkpt>
      <trkpt lat="48.07637" lon="7.13746">
        <ele>912.43</ele>
        <time>2009-09-27T08:44:22Z</time>
      </trkpt>
      <trkpt lat="48.07625" lon="7.1371">
        <ele>909.54</ele>
        <time>2009-09-27T08:44:27Z</time>
      </trkpt>
      <trkpt lat="48.07623" lon="7.13703">
        <ele>909.06</ele>
        <time>2009-09-27T08:44:28Z</time>
      </trkpt>
      <trkpt lat="48.07621" lon="7.13696">
        <ele>906.66</ele>
        <time>2009-09-27T08:44:29Z</time>
      </trkpt>
      <trkpt lat="48.07618" lon="7.1369">
        <ele>906.66</ele>
        <time>2009-09-27T08:44:30Z</time>
      </trkpt>
      <trkpt lat="48.07616" lon="7.13683">
        <ele>906.66</ele>
        <time>2009-09-27T08:44:31Z</time>
      </trkpt>
      <trkpt lat="48.07614" lon="7.13678">
        <ele>904.74</ele>
        <time>2009-09-27T08:44:32Z</time>
      </trkpt>
      <trkpt lat="48.07612" lon="7.13675">
        <ele>904.74</ele>
        <time>2009-09-27T08:44:33Z</time>
      </trkpt>
      <trkpt lat="48.07612" lon="7.13672">
        <ele>905.22</ele>
        <time>2009-09-27T08:44:34Z</time>
      </trkpt>
      <trkpt lat="48.07611" lon="7.13662">
        <ele>904.74</ele>
        <time>2009-09-27T08:44:38Z</time>
      </trkpt>
      <trkpt lat="48.07611" lon="7.13658">
        <ele>902.82</ele>
        <time>2009-09-27T08:44:39Z</time>
      </trkpt>
      <trkpt lat="48.0761" lon="7.13654">
        <ele>903.3</ele>
        <time>2009-09-27T08:44:40Z</time>
      </trkpt>
      <trkpt lat="48.07609" lon="7.13651">
        <ele>904.26</ele>
        <time>2009-09-27T08:44:41Z</time>
      </trkpt>
      <trkpt lat="48.07608" lon="7.13648">
        <ele>903.78</ele>
        <time>2009-09-27T08:44:42Z</time>
      </trkpt>
      <trkpt lat="48.07607" lon="7.13644">
        <ele>903.3</ele>
        <time>2009-09-27T08:44:43Z</time>
      </trkpt>
      <trkpt lat="48.07605" lon="7.13641">
        <ele>902.82</ele>
        <time>2009-09-27T08:44:44Z</time>
      </trkpt>
      <trkpt lat="48.07603" lon="7.13639">
        <ele>903.3</ele>
        <time>2009-09-27T08:44:45Z</time>
      </trkpt>
      <trkpt lat="48.07593" lon="7.13617">
        <ele>903.78</ele>
        <time>2009-09-27T08:44:51Z</time>
      </trkpt>
      <trkpt lat="48.07591" lon="7.13614">
        <ele>902.82</ele>
        <time>2009-09-27T08:44:52Z</time>
      </trkpt>
      <trkpt lat="48.0759" lon="7.1361">
        <ele>902.33</ele>
        <time>2009-09-27T08:44:53Z</time>
      </trkpt>
      <trkpt lat="48.07589" lon="7.13608">
        <ele>903.3</ele>
        <time>2009-09-27T08:44:54Z</time>
      </trkpt>
      <trkpt lat="48.07587" lon="7.13606">
        <ele>902.33</ele>
        <time>2009-09-27T08:44:55Z</time>
      </trkpt>
      <trkpt lat="48.07585" lon="7.13603">
        <ele>903.3</ele>
        <time>2009-09-27T08:44:56Z</time>
      </trkpt>
      <trkpt lat="48.07583" lon="7.13599">
        <ele>902.33</ele>
        <time>2009-09-27T08:44:57Z</time>
      </trkpt>
      <trkpt lat="48.07581" lon="7.13597">
        <ele>901.37</ele>
        <time>2009-09-27T08:44:58Z</time>
      </trkpt>
      <trkpt lat="48.07579" lon="7.13595">
        <ele>901.85</ele>
        <time>2009-09-27T08:44:59Z</time>
      </trkpt>
      <trkpt lat="48.07577" lon="7.13594">
        <ele>900.41</ele>
        <time>2009-09-27T08:45:00Z</time>
      </trkpt>
      <trkpt lat="48.07575" lon="7.13593">
        <ele>901.37</ele>
        <time>2009-09-27T08:45:01Z</time>
      </trkpt>
      <trkpt lat="48.07573" lon="7.13591">
        <ele>900.89</ele>
        <time>2009-09-27T08:45:02Z</time>
      </trkpt>
      <trkpt lat="48.07572" lon="7.13589">
        <ele>900.41</ele>
        <time>2009-09-27T08:45:03Z</time>
      </trkpt>
      <trkpt lat="48.0757" lon="7.13586">
        <ele>898.97</ele>
        <time>2009-09-27T08:45:04Z</time>
      </trkpt>
      <trkpt lat="48.07562" lon="7.13574">
        <ele>898.49</ele>
        <time>2009-09-27T08:45:15Z</time>
      </trkpt>
      <trkpt lat="48.07561" lon="7.13573">
        <ele>898.49</ele>
        <time>2009-09-27T08:45:16Z</time>
      </trkpt>
      <trkpt lat="48.07541" lon="7.13561">
        <ele>899.93</ele>
        <time>2009-09-27T08:45:24Z</time>
      </trkpt>
      <trkpt lat="48.07537" lon="7.13558">
        <ele>897.53</ele>
        <time>2009-09-27T08:45:25Z</time>
      </trkpt>
      <trkpt lat="48.07535" lon="7.13556">
        <ele>897.05</ele>
        <time>2009-09-27T08:45:26Z</time>
      </trkpt>
      <trkpt lat="48.07532" lon="7.13554">
        <ele>898.49</ele>
        <time>2009-09-27T08:45:27Z</time>
      </trkpt>
      <trkpt lat="48.07528" lon="7.13553">
        <ele>899.45</ele>
        <time>2009-09-27T08:45:28Z</time>
      </trkpt>
      <trkpt lat="48.07525" lon="7.13551">
        <ele>899.45</ele>
        <time>2009-09-27T08:45:29Z</time>
      </trkpt>
      <trkpt lat="48.07504" lon="7.1355">
        <ele>898.97</ele>
        <time>2009-09-27T08:45:35Z</time>
      </trkpt>
      <trkpt lat="48.07498" lon="7.13553">
        <ele>898.49</ele>
        <time>2009-09-27T08:45:36Z</time>
      </trkpt>
      <trkpt lat="48.07492" lon="7.13558">
        <ele>897.53</ele>
        <time>2009-09-27T08:45:37Z</time>
      </trkpt>
      <trkpt lat="48.07487" lon="7.13562">
        <ele>898.01</ele>
        <time>2009-09-27T08:45:38Z</time>
      </trkpt>
      <trkpt lat="48.07482" lon="7.13564">
        <ele>897.53</ele>
        <time>2009-09-27T08:45:39Z</time>
      </trkpt>
      <trkpt lat="48.07477" lon="7.13565">
        <ele>897.05</ele>
        <time>2009-09-27T08:45:40Z</time>
      </trkpt>
      <trkpt lat="48.07473" lon="7.13566">
        <ele>897.53</ele>
        <time>2009-09-27T08:45:41Z</time>
      </trkpt>
      <trkpt lat="48.07468" lon="7.13565">
        <ele>897.53</ele>
        <time>2009-09-27T08:45:42Z</time>
      </trkpt>
      <trkpt lat="48.07464" lon="7.13562">
        <ele>897.05</ele>
        <time>2009-09-27T08:45:43Z</time>
      </trkpt>
      <trkpt lat="48.0746" lon="7.1356">
        <ele>897.05</ele>
        <time>2009-09-27T08:45:44Z</time>
      </trkpt>
      <trkpt lat="48.07456" lon="7.13557">
        <ele>898.01</ele>
        <time>2009-09-27T08:45:45Z</time>
      </trkpt>
      <trkpt lat="48.07452" lon="7.13555">
        <ele>898.01</ele>
        <time>2009-09-27T08:45:46Z</time>
      </trkpt>
      <trkpt lat="48.07449" lon="7.13554">
        <ele>898.49</ele>
        <time>2009-09-27T08:45:47Z</time>
      </trkpt>
      <trkpt lat="48.07447" lon="7.13553">
        <ele>898.49</ele>
        <time>2009-09-27T08:45:48Z</time>
      </trkpt>
      <trkpt lat="48.07444" lon="7.1355">
        <ele>898.97</ele>
        <time>2009-09-27T08:45:49Z</time>
      </trkpt>
      <trkpt lat="48.07442" lon="7.13548">
        <ele>898.49</ele>
        <time>2009-09-27T08:45:50Z</time>
      </trkpt>
      <trkpt lat="48.07438" lon="7.13546">
        <ele>898.97</ele>
        <time>2009-09-27T08:45:51Z</time>
      </trkpt>
      <trkpt lat="48.07424" lon="7.13511">
        <ele>898.49</ele>
        <time>2009-09-27T08:46:00Z</time>
      </trkpt>
      <trkpt lat="48.07419" lon="7.13488">
        <ele>899.93</ele>
        <time>2009-09-27T08:46:07Z</time>
      </trkpt>
      <trkpt lat="48.07419" lon="7.13486">
        <ele>898.97</ele>
        <time>2009-09-27T08:46:08Z</time>
      </trkpt>
      <trkpt lat="48.07418" lon="7.13483">
        <ele>899.93</ele>
        <time>2009-09-27T08:46:09Z</time>
      </trkpt>
      <trkpt lat="48.07418" lon="7.1348">
        <ele>899.93</ele>
        <time>2009-09-27T08:46:10Z</time>
      </trkpt>
      <trkpt lat="48.07418" lon="7.13476">
        <ele>899.45</ele>
        <time>2009-09-27T08:46:11Z</time>
      </trkpt>
      <trkpt lat="48.07417" lon="7.13472">
        <ele>900.41</ele>
        <time>2009-09-27T08:46:12Z</time>
      </trkpt>
      <trkpt lat="48.07417" lon="7.13469">
        <ele>900.41</ele>
        <time>2009-09-27T08:46:13Z</time>
      </trkpt>
      <trkpt lat="48.07413" lon="7.13435">
        <ele>901.85</ele>
        <time>2009-09-27T08:46:22Z</time>
      </trkpt>
      <trkpt lat="48.07411" lon="7.13422">
        <ele>902.82</ele>
        <time>2009-09-27T08:46:26Z</time>
      </trkpt>
      <trkpt lat="48.07411" lon="7.13421">
        <ele>903.3</ele>
        <time>2009-09-27T08:46:27Z</time>
      </trkpt>
      <trkpt lat="48.0741" lon="7.13419">
        <ele>903.78</ele>
        <time>2009-09-27T08:46:28Z</time>
      </trkpt>
      <trkpt lat="48.0741" lon="7.13416">
        <ele>902.82</ele>
        <time>2009-09-27T08:46:29Z</time>
      </trkpt>
      <trkpt lat="48.0741" lon="7.13414">
        <ele>901.85</ele>
        <time>2009-09-27T08:46:30Z</time>
      </trkpt>
      <trkpt lat="48.07409" lon="7.13411">
        <ele>903.3</ele>
        <time>2009-09-27T08:46:31Z</time>
      </trkpt>
      <trkpt lat="48.07408" lon="7.13408">
        <ele>903.78</ele>
        <time>2009-09-27T08:46:32Z</time>
      </trkpt>
      <trkpt lat="48.07408" lon="7.13406">
        <ele>904.26</ele>
        <time>2009-09-27T08:46:33Z</time>
      </trkpt>
      <trkpt lat="48.07407" lon="7.13405">
        <ele>903.3</ele>
        <time>2009-09-27T08:46:34Z</time>
      </trkpt>
      <trkpt lat="48.07406" lon="7.13403">
        <ele>904.26</ele>
        <time>2009-09-27T08:46:35Z</time>
      </trkpt>
      <trkpt lat="48.07405" lon="7.13402">
        <ele>904.74</ele>
        <time>2009-09-27T08:46:36Z</time>
      </trkpt>
      <trkpt lat="48.07404" lon="7.13399">
        <ele>905.22</ele>
        <time>2009-09-27T08:46:37Z</time>
      </trkpt>
      <trkpt lat="48.07403" lon="7.1339">
        <ele>906.18</ele>
        <time>2009-09-27T08:46:39Z</time>
      </trkpt>
      <trkpt lat="48.07396" lon="7.13358">
        <ele>906.18</ele>
        <time>2009-09-27T08:46:48Z</time>
      </trkpt>
      <trkpt lat="48.07397" lon="7.13355">
        <ele>906.18</ele>
        <time>2009-09-27T08:46:49Z</time>
      </trkpt>
      <trkpt lat="48.07397" lon="7.13355">
        <ele>906.66</ele>
        <time>2009-09-27T08:46:50Z</time>
      </trkpt>
      <trkpt lat="48.07398" lon="7.13355">
        <ele>907.62</ele>
        <time>2009-09-27T08:46:51Z</time>
      </trkpt>
      <trkpt lat="48.07398" lon="7.13357">
        <ele>906.66</ele>
        <time>2009-09-27T08:46:52Z</time>
      </trkpt>
      <trkpt lat="48.07409" lon="7.13378">
        <ele>909.06</ele>
        <time>2009-09-27T08:47:04Z</time>
      </trkpt>
      <trkpt lat="48.07414" lon="7.13394">
        <ele>910.03</ele>
        <time>2009-09-27T08:47:13Z</time>
      </trkpt>
      <trkpt lat="48.07419" lon="7.13409">
        <ele>910.99</ele>
        <time>2009-09-27T08:47:19Z</time>
      </trkpt>
      <trkpt lat="48.0742" lon="7.13411">
        <ele>911.47</ele>
        <time>2009-09-27T08:47:20Z</time>
      </trkpt>
      <trkpt lat="48.07421" lon="7.13415">
        <ele>910.99</ele>
        <time>2009-09-27T08:47:21Z</time>
      </trkpt>
      <trkpt lat="48.07421" lon="7.13418">
        <ele>910.51</ele>
        <time>2009-09-27T08:47:22Z</time>
      </trkpt>
      <trkpt lat="48.07423" lon="7.13421">
        <ele>911.95</ele>
        <time>2009-09-27T08:47:23Z</time>
      </trkpt>
      <trkpt lat="48.07424" lon="7.13424">
        <ele>912.91</ele>
        <time>2009-09-27T08:47:24Z</time>
      </trkpt>
      <trkpt lat="48.07425" lon="7.13427">
        <ele>911.95</ele>
        <time>2009-09-27T08:47:25Z</time>
      </trkpt>
      <trkpt lat="48.07433" lon="7.1346">
        <ele>913.39</ele>
        <time>2009-09-27T08:47:35Z</time>
      </trkpt>
      <trkpt lat="48.07444" lon="7.13503">
        <ele>915.31</ele>
        <time>2009-09-27T08:47:48Z</time>
      </trkpt>
      <trkpt lat="48.0747" lon="7.1352">
        <ele>917.72</ele>
        <time>2009-09-27T08:48:00Z</time>
      </trkpt>
      <trkpt lat="48.07492" lon="7.13506">
        <ele>918.2</ele>
        <time>2009-09-27T08:48:10Z</time>
      </trkpt>
      <trkpt lat="48.07512" lon="7.13493">
        <ele>919.64</ele>
        <time>2009-09-27T08:48:18Z</time>
      </trkpt>
      <trkpt lat="48.07529" lon="7.13486">
        <ele>923</ele>
        <time>2009-09-27T08:48:25Z</time>
      </trkpt>
      <trkpt lat="48.07531" lon="7.13484">
        <ele>923</ele>
        <time>2009-09-27T08:48:26Z</time>
      </trkpt>
      <trkpt lat="48.0755" lon="7.13481">
        <ele>923</ele>
        <time>2009-09-27T08:48:33Z</time>
      </trkpt>
      <trkpt lat="48.07552" lon="7.13482">
        <ele>923</ele>
        <time>2009-09-27T08:48:34Z</time>
      </trkpt>
      <trkpt lat="48.07574" lon="7.13496">
        <ele>926.85</ele>
        <time>2009-09-27T08:48:44Z</time>
      </trkpt>
      <trkpt lat="48.07579" lon="7.13504">
        <ele>926.37</ele>
        <time>2009-09-27T08:48:47Z</time>
      </trkpt>
      <trkpt lat="48.07594" lon="7.13522">
        <ele>928.29</ele>
        <time>2009-09-27T08:48:54Z</time>
      </trkpt>
      <trkpt lat="48.07615" lon="7.13544">
        <ele>930.21</ele>
        <time>2009-09-27T08:49:03Z</time>
      </trkpt>
      <trkpt lat="48.07619" lon="7.13548">
        <ele>929.25</ele>
        <time>2009-09-27T08:49:05Z</time>
      </trkpt>
      <trkpt lat="48.07626" lon="7.13559">
        <ele>931.65</ele>
        <time>2009-09-27T08:49:09Z</time>
      </trkpt>
      <trkpt lat="48.07644" lon="7.13584">
        <ele>933.1</ele>
        <time>2009-09-27T08:49:18Z</time>
      </trkpt>
      <trkpt lat="48.07646" lon="7.13587">
        <ele>931.65</ele>
        <time>2009-09-27T08:49:19Z</time>
      </trkpt>
      <trkpt lat="48.07648" lon="7.13589">
        <ele>933.1</ele>
        <time>2009-09-27T08:49:20Z</time>
      </trkpt>
      <trkpt lat="48.0765" lon="7.13592">
        <ele>935.02</ele>
        <time>2009-09-27T08:49:21Z</time>
      </trkpt>
      <trkpt lat="48.07663" lon="7.13609">
        <ele>934.54</ele>
        <time>2009-09-27T08:49:27Z</time>
      </trkpt>
      <trkpt lat="48.07682" lon="7.13646">
        <ele>936.46</ele>
        <time>2009-09-27T08:49:38Z</time>
      </trkpt>
      <trkpt lat="48.07697" lon="7.13687">
        <ele>937.9</ele>
        <time>2009-09-27T08:49:49Z</time>
      </trkpt>
      <trkpt lat="48.077" lon="7.13694">
        <ele>939.83</ele>
        <time>2009-09-27T08:49:51Z</time>
      </trkpt>
      <trkpt lat="48.07706" lon="7.13716">
        <ele>940.79</ele>
        <time>2009-09-27T08:49:57Z</time>
      </trkpt>
      <trkpt lat="48.07709" lon="7.13724">
        <ele>941.75</ele>
        <time>2009-09-27T08:50:00Z</time>
      </trkpt>
      <trkpt lat="48.07715" lon="7.13711">
        <ele>942.71</ele>
        <time>2009-09-27T08:50:06Z</time>
      </trkpt>
      <trkpt lat="48.07719" lon="7.13694">
        <ele>944.63</ele>
        <time>2009-09-27T08:50:14Z</time>
      </trkpt>
      <trkpt lat="48.07719" lon="7.13691">
        <ele>946.56</ele>
        <time>2009-09-27T08:50:16Z</time>
      </trkpt>
      <trkpt lat="48.0772" lon="7.13688">
        <ele>946.56</ele>
        <time>2009-09-27T08:50:18Z</time>
      </trkpt>
      <trkpt lat="48.0772" lon="7.13682">
        <ele>947.52</ele>
        <time>2009-09-27T08:50:21Z</time>
      </trkpt>
      <trkpt lat="48.07721" lon="7.13669">
        <ele>948.96</ele>
        <time>2009-09-27T08:50:28Z</time>
      </trkpt>
      <trkpt lat="48.0772" lon="7.13655">
        <ele>950.88</ele>
        <time>2009-09-27T08:50:37Z</time>
      </trkpt>
      <trkpt lat="48.07719" lon="7.13641">
        <ele>952.32</ele>
        <time>2009-09-27T08:50:43Z</time>
      </trkpt>
      <trkpt lat="48.07718" lon="7.13638">
        <ele>952.32</ele>
        <time>2009-09-27T08:50:45Z</time>
      </trkpt>
      <trkpt lat="48.07718" lon="7.13627">
        <ele>952.8</ele>
        <time>2009-09-27T08:50:50Z</time>
      </trkpt>
      <trkpt lat="48.0772" lon="7.1362">
        <ele>953.28</ele>
        <time>2009-09-27T08:50:55Z</time>
      </trkpt>
      <trkpt lat="48.0772" lon="7.13614">
        <ele>955.21</ele>
        <time>2009-09-27T08:50:58Z</time>
      </trkpt>
      <trkpt lat="48.0772" lon="7.13612">
        <ele>955.21</ele>
        <time>2009-09-27T08:50:59Z</time>
      </trkpt>
      <trkpt lat="48.07721" lon="7.13598">
        <ele>957.61</ele>
        <time>2009-09-27T08:51:08Z</time>
      </trkpt>
      <trkpt lat="48.07724" lon="7.13587">
        <ele>958.09</ele>
        <time>2009-09-27T08:51:17Z</time>
      </trkpt>
      <trkpt lat="48.07721" lon="7.13561">
        <ele>960.01</ele>
        <time>2009-09-27T08:51:31Z</time>
      </trkpt>
      <trkpt lat="48.0772" lon="7.13553">
        <ele>960.98</ele>
        <time>2009-09-27T08:51:35Z</time>
      </trkpt>
      <trkpt lat="48.07716" lon="7.1354">
        <ele>961.94</ele>
        <time>2009-09-27T08:51:43Z</time>
      </trkpt>
      <trkpt lat="48.07716" lon="7.13536">
        <ele>962.42</ele>
        <time>2009-09-27T08:51:45Z</time>
      </trkpt>
      <trkpt lat="48.07714" lon="7.13528">
        <ele>964.34</ele>
        <time>2009-09-27T08:51:51Z</time>
      </trkpt>
      <trkpt lat="48.07716" lon="7.13507">
        <ele>964.82</ele>
        <time>2009-09-27T08:52:03Z</time>
      </trkpt>
      <trkpt lat="48.07714" lon="7.13495">
        <ele>965.78</ele>
        <time>2009-09-27T08:52:08Z</time>
      </trkpt>
      <trkpt lat="48.07714" lon="7.13489">
        <ele>967.22</ele>
        <time>2009-09-27T08:52:11Z</time>
      </trkpt>
      <trkpt lat="48.07716" lon="7.13483">
        <ele>965.78</ele>
        <time>2009-09-27T08:52:13Z</time>
      </trkpt>
      <trkpt lat="48.07718" lon="7.13474">
        <ele>967.22</ele>
        <time>2009-09-27T08:52:16Z</time>
      </trkpt>
      <trkpt lat="48.07719" lon="7.13466">
        <ele>968.18</ele>
        <time>2009-09-27T08:52:20Z</time>
      </trkpt>
      <trkpt lat="48.0773" lon="7.13433">
        <ele>968.18</ele>
        <time>2009-09-27T08:52:30Z</time>
      </trkpt>
      <trkpt lat="48.07741" lon="7.13405">
        <ele>971.55</ele>
        <time>2009-09-27T08:52:40Z</time>
      </trkpt>
      <trkpt lat="48.07744" lon="7.13396">
        <ele>969.63</ele>
        <time>2009-09-27T08:52:43Z</time>
      </trkpt>
      <trkpt lat="48.07752" lon="7.13374">
        <ele>970.11</ele>
        <time>2009-09-27T08:52:50Z</time>
      </trkpt>
      <trkpt lat="48.07757" lon="7.13362">
        <ele>969.63</ele>
        <time>2009-09-27T08:52:56Z</time>
      </trkpt>
      <trkpt lat="48.0776" lon="7.13355">
        <ele>971.55</ele>
        <time>2009-09-27T08:53:07Z</time>
      </trkpt>
      <trkpt lat="48.07764" lon="7.13346">
        <ele>969.63</ele>
        <time>2009-09-27T08:53:15Z</time>
      </trkpt>
      <trkpt lat="48.07779" lon="7.13318">
        <ele>969.63</ele>
        <time>2009-09-27T08:53:30Z</time>
      </trkpt>
      <trkpt lat="48.0778" lon="7.13295">
        <ele>968.18</ele>
        <time>2009-09-27T08:53:36Z</time>
      </trkpt>
      <trkpt lat="48.07782" lon="7.13277">
        <ele>966.26</ele>
        <time>2009-09-27T08:53:41Z</time>
      </trkpt>
      <trkpt lat="48.07782" lon="7.13271">
        <ele>966.26</ele>
        <time>2009-09-27T08:53:46Z</time>
      </trkpt>
      <trkpt lat="48.07782" lon="7.13267">
        <ele>965.78</ele>
        <time>2009-09-27T08:53:56Z</time>
      </trkpt>
      <trkpt lat="48.07782" lon="7.13267">
        <ele>968.18</ele>
        <time>2009-09-27T08:56:27Z</time>
      </trkpt>
      <trkpt lat="48.07782" lon="7.13268">
        <ele>965.78</ele>
        <time>2009-09-27T08:57:27Z</time>
      </trkpt>
      <trkpt lat="48.07782" lon="7.13268">
        <ele>964.34</ele>
        <time>2009-09-27T08:57:49Z</time>
      </trkpt>
      <trkpt lat="48.07782" lon="7.13266">
        <ele>964.34</ele>
        <time>2009-09-27T08:57:50Z</time>
      </trkpt>
      <trkpt lat="48.07782" lon="7.13261">
        <ele>967.7</ele>
        <time>2009-09-27T08:57:52Z</time>
      </trkpt>
      <trkpt lat="48.07782" lon="7.1326">
        <ele>966.74</ele>
        <time>2009-09-27T08:57:54Z</time>
      </trkpt>
      <trkpt lat="48.07782" lon="7.13258">
        <ele>965.3</ele>
        <time>2009-09-27T08:58:03Z</time>
      </trkpt>
      <trkpt lat="48.07782" lon="7.13262">
        <ele>964.82</ele>
        <time>2009-09-27T08:58:31Z</time>
      </trkpt>
      <trkpt lat="48.07782" lon="7.13268">
        <ele>965.3</ele>
        <time>2009-09-27T08:58:46Z</time>
      </trkpt>
      <trkpt lat="48.07782" lon="7.13268">
        <ele>965.78</ele>
        <time>2009-09-27T08:59:28Z</time>
      </trkpt>
      <trkpt lat="48.07783" lon="7.13269">
        <ele>967.7</ele>
        <time>2009-09-27T09:01:01Z</time>
      </trkpt>
      <trkpt lat="48.07783" lon="7.13268">
        <ele>967.22</ele>
        <time>2009-09-27T09:01:40Z</time>
      </trkpt>
      <trkpt lat="48.07782" lon="7.13266">
        <ele>967.22</ele>
        <time>2009-09-27T09:01:53Z</time>
      </trkpt>
      <trkpt lat="48.07779" lon="7.13228">
        <ele>966.74</ele>
        <time>2009-09-27T09:02:04Z</time>
      </trkpt>
      <trkpt lat="48.07779" lon="7.1319">
        <ele>962.9</ele>
        <time>2009-09-27T09:02:11Z</time>
      </trkpt>
      <trkpt lat="48.0778" lon="7.13168">
        <ele>962.42</ele>
        <time>2009-09-27T09:02:14Z</time>
      </trkpt>
      <trkpt lat="48.0778" lon="7.13146">
        <ele>960.49</ele>
        <time>2009-09-27T09:02:17Z</time>
      </trkpt>
      <trkpt lat="48.0778" lon="7.13138">
        <ele>961.46</ele>
        <time>2009-09-27T09:02:18Z</time>
      </trkpt>
      <trkpt lat="48.07779" lon="7.13122">
        <ele>961.46</ele>
        <time>2009-09-27T09:02:20Z</time>
      </trkpt>
      <trkpt lat="48.07779" lon="7.13094">
        <ele>959.53</ele>
        <time>2009-09-27T09:02:23Z</time>
      </trkpt>
      <trkpt lat="48.07779" lon="7.1305">
        <ele>956.17</ele>
        <time>2009-09-27T09:02:28Z</time>
      </trkpt>
      <trkpt lat="48.07781" lon="7.13038">
        <ele>954.73</ele>
        <time>2009-09-27T09:02:31Z</time>
      </trkpt>
      <trkpt lat="48.07781" lon="7.13033">
        <ele>954.73</ele>
        <time>2009-09-27T09:02:40Z</time>
      </trkpt>
      <trkpt lat="48.07782" lon="7.13032">
        <ele>954.73</ele>
        <time>2009-09-27T09:02:44Z</time>
      </trkpt>
      <trkpt lat="48.07783" lon="7.13031">
        <ele>954.73</ele>
        <time>2009-09-27T09:02:45Z</time>
      </trkpt>
      <trkpt lat="48.07784" lon="7.13029">
        <ele>954.25</ele>
        <time>2009-09-27T09:02:46Z</time>
      </trkpt>
      <trkpt lat="48.07784" lon="7.13026">
        <ele>955.21</ele>
        <time>2009-09-27T09:02:47Z</time>
      </trkpt>
      <trkpt lat="48.07785" lon="7.13022">
        <ele>954.25</ele>
        <time>2009-09-27T09:02:48Z</time>
      </trkpt>
      <trkpt lat="48.07786" lon="7.13018">
        <ele>953.77</ele>
        <time>2009-09-27T09:02:49Z</time>
      </trkpt>
      <trkpt lat="48.07789" lon="7.13015">
        <ele>953.77</ele>
        <time>2009-09-27T09:02:50Z</time>
      </trkpt>
      <trkpt lat="48.07792" lon="7.13012">
        <ele>955.69</ele>
        <time>2009-09-27T09:02:51Z</time>
      </trkpt>
      <trkpt lat="48.07795" lon="7.13009">
        <ele>954.25</ele>
        <time>2009-09-27T09:02:52Z</time>
      </trkpt>
      <trkpt lat="48.07797" lon="7.13007">
        <ele>955.21</ele>
        <time>2009-09-27T09:02:53Z</time>
      </trkpt>
      <trkpt lat="48.07799" lon="7.13003">
        <ele>954.73</ele>
        <time>2009-09-27T09:02:54Z</time>
      </trkpt>
      <trkpt lat="48.07801" lon="7.13">
        <ele>954.25</ele>
        <time>2009-09-27T09:02:55Z</time>
      </trkpt>
      <trkpt lat="48.07804" lon="7.12996">
        <ele>953.77</ele>
        <time>2009-09-27T09:02:56Z</time>
      </trkpt>
      <trkpt lat="48.07808" lon="7.1299">
        <ele>954.25</ele>
        <time>2009-09-27T09:02:57Z</time>
      </trkpt>
      <trkpt lat="48.07811" lon="7.12984">
        <ele>952.32</ele>
        <time>2009-09-27T09:02:58Z</time>
      </trkpt>
      <trkpt lat="48.07814" lon="7.12979">
        <ele>953.28</ele>
        <time>2009-09-27T09:02:59Z</time>
      </trkpt>
      <trkpt lat="48.07816" lon="7.12974">
        <ele>951.84</ele>
        <time>2009-09-27T09:03:00Z</time>
      </trkpt>
      <trkpt lat="48.07817" lon="7.12969">
        <ele>951.84</ele>
        <time>2009-09-27T09:03:01Z</time>
      </trkpt>
      <trkpt lat="48.07818" lon="7.12961">
        <ele>951.84</ele>
        <time>2009-09-27T09:03:02Z</time>
      </trkpt>
      <trkpt lat="48.07818" lon="7.12952">
        <ele>951.36</ele>
        <time>2009-09-27T09:03:03Z</time>
      </trkpt>
      <trkpt lat="48.07814" lon="7.1291">
        <ele>948.48</ele>
        <time>2009-09-27T09:03:07Z</time>
      </trkpt>
      <trkpt lat="48.07814" lon="7.12901">
        <ele>947.04</ele>
        <time>2009-09-27T09:03:08Z</time>
      </trkpt>
      <trkpt lat="48.07814" lon="7.12893">
        <ele>946.07</ele>
        <time>2009-09-27T09:03:09Z</time>
      </trkpt>
      <trkpt lat="48.07815" lon="7.12886">
        <ele>944.63</ele>
        <time>2009-09-27T09:03:10Z</time>
      </trkpt>
      <trkpt lat="48.07818" lon="7.12882">
        <ele>945.11</ele>
        <time>2009-09-27T09:03:11Z</time>
      </trkpt>
      <trkpt lat="48.07821" lon="7.1288">
        <ele>946.07</ele>
        <time>2009-09-27T09:03:12Z</time>
      </trkpt>
      <trkpt lat="48.07824" lon="7.12878">
        <ele>945.11</ele>
        <time>2009-09-27T09:03:13Z</time>
      </trkpt>
      <trkpt lat="48.07827" lon="7.12877">
        <ele>945.59</ele>
        <time>2009-09-27T09:03:14Z</time>
      </trkpt>
      <trkpt lat="48.0783" lon="7.12874">
        <ele>946.07</ele>
        <time>2009-09-27T09:03:15Z</time>
      </trkpt>
      <trkpt lat="48.07833" lon="7.12871">
        <ele>946.56</ele>
        <time>2009-09-27T09:03:16Z</time>
      </trkpt>
      <trkpt lat="48.07849" lon="7.12823">
        <ele>948.96</ele>
        <time>2009-09-27T09:03:28Z</time>
      </trkpt>
      <trkpt lat="48.07853" lon="7.12806">
        <ele>948.48</ele>
        <time>2009-09-27T09:03:33Z</time>
      </trkpt>
      <trkpt lat="48.07854" lon="7.12798">
        <ele>951.36</ele>
        <time>2009-09-27T09:03:42Z</time>
      </trkpt>
      <trkpt lat="48.07854" lon="7.12797">
        <ele>949.44</ele>
        <time>2009-09-27T09:03:45Z</time>
      </trkpt>
      <trkpt lat="48.07854" lon="7.12797">
        <ele>949.92</ele>
        <time>2009-09-27T09:03:46Z</time>
      </trkpt>
      <trkpt lat="48.07856" lon="7.12772">
        <ele>950.4</ele>
        <time>2009-09-27T09:03:56Z</time>
      </trkpt>
      <trkpt lat="48.07856" lon="7.1277">
        <ele>950.88</ele>
        <time>2009-09-27T09:03:57Z</time>
      </trkpt>
      <trkpt lat="48.07855" lon="7.12767">
        <ele>951.36</ele>
        <time>2009-09-27T09:03:58Z</time>
      </trkpt>
      <trkpt lat="48.07855" lon="7.12765">
        <ele>950.88</ele>
        <time>2009-09-27T09:03:59Z</time>
      </trkpt>
      <trkpt lat="48.07855" lon="7.12762">
        <ele>951.84</ele>
        <time>2009-09-27T09:04:00Z</time>
      </trkpt>
      <trkpt lat="48.07855" lon="7.12744">
        <ele>952.8</ele>
        <time>2009-09-27T09:04:07Z</time>
      </trkpt>
      <trkpt lat="48.07855" lon="7.12742">
        <ele>953.77</ele>
        <time>2009-09-27T09:04:08Z</time>
      </trkpt>
      <trkpt lat="48.07856" lon="7.12739">
        <ele>953.77</ele>
        <time>2009-09-27T09:04:09Z</time>
      </trkpt>
      <trkpt lat="48.07865" lon="7.12714">
        <ele>957.13</ele>
        <time>2009-09-27T09:04:20Z</time>
      </trkpt>
      <trkpt lat="48.07865" lon="7.12711">
        <ele>957.13</ele>
        <time>2009-09-27T09:04:21Z</time>
      </trkpt>
      <trkpt lat="48.07866" lon="7.12709">
        <ele>956.17</ele>
        <time>2009-09-27T09:04:22Z</time>
      </trkpt>
      <trkpt lat="48.07867" lon="7.12706">
        <ele>957.13</ele>
        <time>2009-09-27T09:04:23Z</time>
      </trkpt>
      <trkpt lat="48.07868" lon="7.12703">
        <ele>956.65</ele>
        <time>2009-09-27T09:04:24Z</time>
      </trkpt>
      <trkpt lat="48.07869" lon="7.127">
        <ele>957.61</ele>
        <time>2009-09-27T09:04:25Z</time>
      </trkpt>
      <trkpt lat="48.0787" lon="7.12697">
        <ele>957.61</ele>
        <time>2009-09-27T09:04:26Z</time>
      </trkpt>
      <trkpt lat="48.07872" lon="7.12695">
        <ele>956.17</ele>
        <time>2009-09-27T09:04:27Z</time>
      </trkpt>
      <trkpt lat="48.07874" lon="7.12692">
        <ele>957.13</ele>
        <time>2009-09-27T09:04:28Z</time>
      </trkpt>
      <trkpt lat="48.07875" lon="7.1269">
        <ele>958.09</ele>
        <time>2009-09-27T09:04:29Z</time>
      </trkpt>
      <trkpt lat="48.07876" lon="7.12686">
        <ele>956.17</ele>
        <time>2009-09-27T09:04:30Z</time>
      </trkpt>
      <trkpt lat="48.07877" lon="7.12683">
        <ele>957.61</ele>
        <time>2009-09-27T09:04:31Z</time>
      </trkpt>
      <trkpt lat="48.0789" lon="7.12648">
        <ele>960.01</ele>
        <time>2009-09-27T09:04:42Z</time>
      </trkpt>
      <trkpt lat="48.07908" lon="7.12632">
        <ele>957.13</ele>
        <time>2009-09-27T09:04:49Z</time>
      </trkpt>
      <trkpt lat="48.07942" lon="7.12627">
        <ele>953.77</ele>
        <time>2009-09-27T09:04:59Z</time>
      </trkpt>
      <trkpt lat="48.07947" lon="7.12626">
        <ele>953.28</ele>
        <time>2009-09-27T09:05:00Z</time>
      </trkpt>
      <trkpt lat="48.07951" lon="7.12625">
        <ele>951.84</ele>
        <time>2009-09-27T09:05:01Z</time>
      </trkpt>
      <trkpt lat="48.07954" lon="7.12621">
        <ele>951.36</ele>
        <time>2009-09-27T09:05:02Z</time>
      </trkpt>
      <trkpt lat="48.07957" lon="7.12618">
        <ele>950.4</ele>
        <time>2009-09-27T09:05:03Z</time>
      </trkpt>
      <trkpt lat="48.0796" lon="7.12614">
        <ele>950.4</ele>
        <time>2009-09-27T09:05:04Z</time>
      </trkpt>
      <trkpt lat="48.07962" lon="7.1261">
        <ele>950.4</ele>
        <time>2009-09-27T09:05:05Z</time>
      </trkpt>
      <trkpt lat="48.07966" lon="7.12605">
        <ele>950.4</ele>
        <time>2009-09-27T09:05:06Z</time>
      </trkpt>
      <trkpt lat="48.0797" lon="7.12601">
        <ele>948.96</ele>
        <time>2009-09-27T09:05:07Z</time>
      </trkpt>
      <trkpt lat="48.07976" lon="7.12595">
        <ele>947.52</ele>
        <time>2009-09-27T09:05:09Z</time>
      </trkpt>
      <trkpt lat="48.07988" lon="7.12587">
        <ele>944.15</ele>
        <time>2009-09-27T09:05:13Z</time>
      </trkpt>
      <trkpt lat="48.07992" lon="7.12585">
        <ele>943.19</ele>
        <time>2009-09-27T09:05:14Z</time>
      </trkpt>
      <trkpt lat="48.07997" lon="7.1258">
        <ele>943.19</ele>
        <time>2009-09-27T09:05:15Z</time>
      </trkpt>
      <trkpt lat="48.08002" lon="7.12573">
        <ele>942.23</ele>
        <time>2009-09-27T09:05:16Z</time>
      </trkpt>
      <trkpt lat="48.08007" lon="7.12565">
        <ele>941.27</ele>
        <time>2009-09-27T09:05:17Z</time>
      </trkpt>
      <trkpt lat="48.08012" lon="7.12557">
        <ele>941.27</ele>
        <time>2009-09-27T09:05:18Z</time>
      </trkpt>
      <trkpt lat="48.08021" lon="7.12543">
        <ele>939.83</ele>
        <time>2009-09-27T09:05:20Z</time>
      </trkpt>
      <trkpt lat="48.08038" lon="7.12512">
        <ele>941.27</ele>
        <time>2009-09-27T09:05:25Z</time>
      </trkpt>
      <trkpt lat="48.0805" lon="7.12481">
        <ele>940.31</ele>
        <time>2009-09-27T09:05:30Z</time>
      </trkpt>
      <trkpt lat="48.0805" lon="7.12476">
        <ele>943.19</ele>
        <time>2009-09-27T09:05:31Z</time>
      </trkpt>
      <trkpt lat="48.08042" lon="7.12425">
        <ele>947.04</ele>
        <time>2009-09-27T09:05:43Z</time>
      </trkpt>
      <trkpt lat="48.08036" lon="7.12365">
        <ele>946.56</ele>
        <time>2009-09-27T09:05:56Z</time>
      </trkpt>
      <trkpt lat="48.08034" lon="7.12323">
        <ele>948.96</ele>
        <time>2009-09-27T09:06:06Z</time>
      </trkpt>
      <trkpt lat="48.08047" lon="7.12281">
        <ele>948.48</ele>
        <time>2009-09-27T09:06:15Z</time>
      </trkpt>
      <trkpt lat="48.0805" lon="7.12276">
        <ele>948.96</ele>
        <time>2009-09-27T09:06:16Z</time>
      </trkpt>
      <trkpt lat="48.08054" lon="7.12271">
        <ele>948</ele>
        <time>2009-09-27T09:06:17Z</time>
      </trkpt>
      <trkpt lat="48.08057" lon="7.12267">
        <ele>948</ele>
        <time>2009-09-27T09:06:18Z</time>
      </trkpt>
      <trkpt lat="48.0806" lon="7.12262">
        <ele>948.48</ele>
        <time>2009-09-27T09:06:19Z</time>
      </trkpt>
      <trkpt lat="48.08067" lon="7.12252">
        <ele>947.04</ele>
        <time>2009-09-27T09:06:21Z</time>
      </trkpt>
      <trkpt lat="48.08091" lon="7.12222">
        <ele>947.04</ele>
        <time>2009-09-27T09:06:28Z</time>
      </trkpt>
      <trkpt lat="48.08094" lon="7.12219">
        <ele>947.04</ele>
        <time>2009-09-27T09:06:29Z</time>
      </trkpt>
      <trkpt lat="48.08101" lon="7.12212">
        <ele>947.04</ele>
        <time>2009-09-27T09:06:37Z</time>
      </trkpt>
      <trkpt lat="48.08104" lon="7.12207">
        <ele>945.59</ele>
        <time>2009-09-27T09:06:45Z</time>
      </trkpt>
      <trkpt lat="48.08114" lon="7.12195">
        <ele>946.56</ele>
        <time>2009-09-27T09:06:55Z</time>
      </trkpt>
      <trkpt lat="48.08135" lon="7.12178">
        <ele>948.48</ele>
        <time>2009-09-27T09:07:03Z</time>
      </trkpt>
      <trkpt lat="48.08147" lon="7.12167">
        <ele>948.96</ele>
        <time>2009-09-27T09:07:08Z</time>
      </trkpt>
      <trkpt lat="48.08173" lon="7.12138">
        <ele>948</ele>
        <time>2009-09-27T09:07:17Z</time>
      </trkpt>
      <trkpt lat="48.08181" lon="7.12132">
        <ele>947.52</ele>
        <time>2009-09-27T09:07:19Z</time>
      </trkpt>
      <trkpt lat="48.08185" lon="7.12129">
        <ele>948</ele>
        <time>2009-09-27T09:07:20Z</time>
      </trkpt>
      <trkpt lat="48.08189" lon="7.12126">
        <ele>948.96</ele>
        <time>2009-09-27T09:07:21Z</time>
      </trkpt>
      <trkpt lat="48.08193" lon="7.12123">
        <ele>948.48</ele>
        <time>2009-09-27T09:07:22Z</time>
      </trkpt>
      <trkpt lat="48.08197" lon="7.1212">
        <ele>948</ele>
        <time>2009-09-27T09:07:23Z</time>
      </trkpt>
      <trkpt lat="48.08201" lon="7.12117">
        <ele>949.44</ele>
        <time>2009-09-27T09:07:24Z</time>
      </trkpt>
      <trkpt lat="48.08207" lon="7.12111">
        <ele>946.56</ele>
        <time>2009-09-27T09:07:26Z</time>
      </trkpt>
      <trkpt lat="48.0821" lon="7.12108">
        <ele>946.56</ele>
        <time>2009-09-27T09:07:27Z</time>
      </trkpt>
      <trkpt lat="48.08221" lon="7.12098">
        <ele>945.11</ele>
        <time>2009-09-27T09:07:30Z</time>
      </trkpt>
      <trkpt lat="48.08225" lon="7.12096">
        <ele>945.59</ele>
        <time>2009-09-27T09:07:31Z</time>
      </trkpt>
      <trkpt lat="48.0823" lon="7.12095">
        <ele>945.59</ele>
        <time>2009-09-27T09:07:32Z</time>
      </trkpt>
      <trkpt lat="48.08264" lon="7.12083">
        <ele>945.59</ele>
        <time>2009-09-27T09:07:40Z</time>
      </trkpt>
      <trkpt lat="48.08286" lon="7.12076">
        <ele>944.63</ele>
        <time>2009-09-27T09:07:46Z</time>
      </trkpt>
      <trkpt lat="48.0831" lon="7.12066">
        <ele>943.67</ele>
        <time>2009-09-27T09:07:53Z</time>
      </trkpt>
      <trkpt lat="48.08315" lon="7.12065">
        <ele>944.15</ele>
        <time>2009-09-27T09:07:54Z</time>
      </trkpt>
      <trkpt lat="48.0832" lon="7.12063">
        <ele>943.67</ele>
        <time>2009-09-27T09:07:55Z</time>
      </trkpt>
      <trkpt lat="48.08323" lon="7.12061">
        <ele>942.71</ele>
        <time>2009-09-27T09:07:56Z</time>
      </trkpt>
      <trkpt lat="48.08326" lon="7.12058">
        <ele>942.23</ele>
        <time>2009-09-27T09:07:57Z</time>
      </trkpt>
      <trkpt lat="48.0833" lon="7.12054">
        <ele>941.27</ele>
        <time>2009-09-27T09:07:58Z</time>
      </trkpt>
      <trkpt lat="48.08335" lon="7.1205">
        <ele>941.75</ele>
        <time>2009-09-27T09:07:59Z</time>
      </trkpt>
      <trkpt lat="48.08339" lon="7.12046">
        <ele>939.83</ele>
        <time>2009-09-27T09:08:00Z</time>
      </trkpt>
      <trkpt lat="48.08342" lon="7.12041">
        <ele>938.86</ele>
        <time>2009-09-27T09:08:01Z</time>
      </trkpt>
      <trkpt lat="48.08345" lon="7.12037">
        <ele>938.86</ele>
        <time>2009-09-27T09:08:02Z</time>
      </trkpt>
      <trkpt lat="48.08347" lon="7.12033">
        <ele>939.35</ele>
        <time>2009-09-27T09:08:03Z</time>
      </trkpt>
      <trkpt lat="48.08351" lon="7.12029">
        <ele>937.42</ele>
        <time>2009-09-27T09:08:04Z</time>
      </trkpt>
      <trkpt lat="48.08356" lon="7.12023">
        <ele>936.94</ele>
        <time>2009-09-27T09:08:05Z</time>
      </trkpt>
      <trkpt lat="48.08371" lon="7.12007">
        <ele>934.54</ele>
        <time>2009-09-27T09:08:08Z</time>
      </trkpt>
      <trkpt lat="48.08383" lon="7.11994">
        <ele>931.17</ele>
        <time>2009-09-27T09:08:10Z</time>
      </trkpt>
      <trkpt lat="48.08389" lon="7.11987">
        <ele>931.65</ele>
        <time>2009-09-27T09:08:11Z</time>
      </trkpt>
      <trkpt lat="48.08394" lon="7.11979">
        <ele>932.62</ele>
        <time>2009-09-27T09:08:12Z</time>
      </trkpt>
      <trkpt lat="48.08398" lon="7.11971">
        <ele>930.21</ele>
        <time>2009-09-27T09:08:13Z</time>
      </trkpt>
      <trkpt lat="48.08403" lon="7.11963">
        <ele>929.25</ele>
        <time>2009-09-27T09:08:14Z</time>
      </trkpt>
      <trkpt lat="48.08409" lon="7.11956">
        <ele>927.81</ele>
        <time>2009-09-27T09:08:15Z</time>
      </trkpt>
      <trkpt lat="48.08415" lon="7.11948">
        <ele>926.37</ele>
        <time>2009-09-27T09:08:16Z</time>
      </trkpt>
      <trkpt lat="48.08421" lon="7.11939">
        <ele>926.37</ele>
        <time>2009-09-27T09:08:17Z</time>
      </trkpt>
      <trkpt lat="48.0845" lon="7.11893">
        <ele>922.52</ele>
        <time>2009-09-27T09:08:22Z</time>
      </trkpt>
      <trkpt lat="48.08456" lon="7.11886">
        <ele>922.52</ele>
        <time>2009-09-27T09:08:23Z</time>
      </trkpt>
      <trkpt lat="48.08462" lon="7.1188">
        <ele>922.04</ele>
        <time>2009-09-27T09:08:24Z</time>
      </trkpt>
      <trkpt lat="48.08472" lon="7.11873">
        <ele>923</ele>
        <time>2009-09-27T09:08:26Z</time>
      </trkpt>
      <trkpt lat="48.08476" lon="7.11872">
        <ele>920.6</ele>
        <time>2009-09-27T09:08:27Z</time>
      </trkpt>
      <trkpt lat="48.08481" lon="7.11869">
        <ele>920.6</ele>
        <time>2009-09-27T09:08:28Z</time>
      </trkpt>
      <trkpt lat="48.08486" lon="7.11866">
        <ele>919.16</ele>
        <time>2009-09-27T09:08:29Z</time>
      </trkpt>
      <trkpt lat="48.08491" lon="7.11862">
        <ele>918.2</ele>
        <time>2009-09-27T09:08:30Z</time>
      </trkpt>
      <trkpt lat="48.0851" lon="7.11851">
        <ele>915.31</ele>
        <time>2009-09-27T09:08:34Z</time>
      </trkpt>
      <trkpt lat="48.0852" lon="7.11846">
        <ele>910.99</ele>
        <time>2009-09-27T09:08:36Z</time>
      </trkpt>
      <trkpt lat="48.08526" lon="7.11843">
        <ele>911.47</ele>
        <time>2009-09-27T09:08:37Z</time>
      </trkpt>
      <trkpt lat="48.08537" lon="7.11838">
        <ele>909.54</ele>
        <time>2009-09-27T09:08:39Z</time>
      </trkpt>
      <trkpt lat="48.08542" lon="7.11837">
        <ele>909.06</ele>
        <time>2009-09-27T09:08:40Z</time>
      </trkpt>
      <trkpt lat="48.08546" lon="7.11835">
        <ele>909.06</ele>
        <time>2009-09-27T09:08:41Z</time>
      </trkpt>
      <trkpt lat="48.08551" lon="7.11834">
        <ele>908.58</ele>
        <time>2009-09-27T09:08:42Z</time>
      </trkpt>
      <trkpt lat="48.08555" lon="7.1183">
        <ele>908.1</ele>
        <time>2009-09-27T09:08:43Z</time>
      </trkpt>
      <trkpt lat="48.08559" lon="7.11827">
        <ele>906.18</ele>
        <time>2009-09-27T09:08:44Z</time>
      </trkpt>
      <trkpt lat="48.08571" lon="7.11818">
        <ele>903.78</ele>
        <time>2009-09-27T09:08:47Z</time>
      </trkpt>
      <trkpt lat="48.08583" lon="7.11805">
        <ele>900.89</ele>
        <time>2009-09-27T09:08:51Z</time>
      </trkpt>
      <trkpt lat="48.08588" lon="7.11801">
        <ele>900.41</ele>
        <time>2009-09-27T09:08:52Z</time>
      </trkpt>
      <trkpt lat="48.08594" lon="7.11796">
        <ele>899.45</ele>
        <time>2009-09-27T09:08:53Z</time>
      </trkpt>
      <trkpt lat="48.08599" lon="7.11791">
        <ele>899.45</ele>
        <time>2009-09-27T09:08:54Z</time>
      </trkpt>
      <trkpt lat="48.08605" lon="7.11786">
        <ele>899.93</ele>
        <time>2009-09-27T09:08:55Z</time>
      </trkpt>
      <trkpt lat="48.0861" lon="7.11779">
        <ele>898.01</ele>
        <time>2009-09-27T09:08:56Z</time>
      </trkpt>
      <trkpt lat="48.08615" lon="7.11772">
        <ele>898.97</ele>
        <time>2009-09-27T09:08:57Z</time>
      </trkpt>
      <trkpt lat="48.0862" lon="7.11764">
        <ele>898.49</ele>
        <time>2009-09-27T09:08:58Z</time>
      </trkpt>
      <trkpt lat="48.08624" lon="7.11758">
        <ele>897.05</ele>
        <time>2009-09-27T09:08:59Z</time>
      </trkpt>
      <trkpt lat="48.08629" lon="7.11752">
        <ele>895.61</ele>
        <time>2009-09-27T09:09:00Z</time>
      </trkpt>
      <trkpt lat="48.08635" lon="7.11747">
        <ele>897.05</ele>
        <time>2009-09-27T09:09:01Z</time>
      </trkpt>
      <trkpt lat="48.08641" lon="7.11743">
        <ele>895.12</ele>
        <time>2009-09-27T09:09:02Z</time>
      </trkpt>
      <trkpt lat="48.08647" lon="7.1174">
        <ele>894.64</ele>
        <time>2009-09-27T09:09:03Z</time>
      </trkpt>
      <trkpt lat="48.08652" lon="7.11738">
        <ele>893.68</ele>
        <time>2009-09-27T09:09:04Z</time>
      </trkpt>
      <trkpt lat="48.08657" lon="7.11737">
        <ele>892.72</ele>
        <time>2009-09-27T09:09:05Z</time>
      </trkpt>
      <trkpt lat="48.08676" lon="7.11733">
        <ele>890.32</ele>
        <time>2009-09-27T09:09:10Z</time>
      </trkpt>
      <trkpt lat="48.08699" lon="7.11723">
        <ele>888.88</ele>
        <time>2009-09-27T09:09:16Z</time>
      </trkpt>
      <trkpt lat="48.08703" lon="7.11718">
        <ele>889.84</ele>
        <time>2009-09-27T09:09:17Z</time>
      </trkpt>
      <trkpt lat="48.08707" lon="7.11713">
        <ele>888.4</ele>
        <time>2009-09-27T09:09:18Z</time>
      </trkpt>
      <trkpt lat="48.08711" lon="7.11708">
        <ele>887.43</ele>
        <time>2009-09-27T09:09:19Z</time>
      </trkpt>
      <trkpt lat="48.08715" lon="7.11702">
        <ele>889.84</ele>
        <time>2009-09-27T09:09:20Z</time>
      </trkpt>
      <trkpt lat="48.08719" lon="7.11696">
        <ele>887.91</ele>
        <time>2009-09-27T09:09:21Z</time>
      </trkpt>
      <trkpt lat="48.0878" lon="7.11632">
        <ele>885.03</ele>
        <time>2009-09-27T09:09:34Z</time>
      </trkpt>
      <trkpt lat="48.08783" lon="7.11629">
        <ele>884.55</ele>
        <time>2009-09-27T09:09:36Z</time>
      </trkpt>
      <trkpt lat="48.08794" lon="7.11602">
        <ele>885.99</ele>
        <time>2009-09-27T09:09:42Z</time>
      </trkpt>
      <trkpt lat="48.08806" lon="7.11568">
        <ele>887.43</ele>
        <time>2009-09-27T09:09:50Z</time>
      </trkpt>
      <trkpt lat="48.08812" lon="7.11553">
        <ele>886.95</ele>
        <time>2009-09-27T09:09:55Z</time>
      </trkpt>
      <trkpt lat="48.08815" lon="7.11547">
        <ele>888.4</ele>
        <time>2009-09-27T09:09:57Z</time>
      </trkpt>
      <trkpt lat="48.08816" lon="7.11544">
        <ele>886.95</ele>
        <time>2009-09-27T09:09:58Z</time>
      </trkpt>
      <trkpt lat="48.08817" lon="7.11541">
        <ele>887.43</ele>
        <time>2009-09-27T09:09:59Z</time>
      </trkpt>
      <trkpt lat="48.08819" lon="7.11538">
        <ele>888.4</ele>
        <time>2009-09-27T09:10:00Z</time>
      </trkpt>
      <trkpt lat="48.08819" lon="7.11536">
        <ele>887.43</ele>
        <time>2009-09-27T09:10:01Z</time>
      </trkpt>
      <trkpt lat="48.08821" lon="7.11533">
        <ele>888.4</ele>
        <time>2009-09-27T09:10:02Z</time>
      </trkpt>
      <trkpt lat="48.08822" lon="7.11531">
        <ele>888.88</ele>
        <time>2009-09-27T09:10:03Z</time>
      </trkpt>
      <trkpt lat="48.0884" lon="7.11502">
        <ele>891.28</ele>
        <time>2009-09-27T09:10:13Z</time>
      </trkpt>
      <trkpt lat="48.08858" lon="7.11478">
        <ele>892.24</ele>
        <time>2009-09-27T09:10:25Z</time>
      </trkpt>
      <trkpt lat="48.08863" lon="7.11469">
        <ele>895.12</ele>
        <time>2009-09-27T09:10:29Z</time>
      </trkpt>
      <trkpt lat="48.08864" lon="7.11467">
        <ele>893.68</ele>
        <time>2009-09-27T09:10:30Z</time>
      </trkpt>
      <trkpt lat="48.08865" lon="7.11465">
        <ele>894.16</ele>
        <time>2009-09-27T09:10:31Z</time>
      </trkpt>
      <trkpt lat="48.08884" lon="7.11431">
        <ele>896.57</ele>
        <time>2009-09-27T09:10:44Z</time>
      </trkpt>
      <trkpt lat="48.08885" lon="7.11429">
        <ele>896.09</ele>
        <time>2009-09-27T09:10:45Z</time>
      </trkpt>
      <trkpt lat="48.08886" lon="7.11426">
        <ele>897.53</ele>
        <time>2009-09-27T09:10:46Z</time>
      </trkpt>
      <trkpt lat="48.08895" lon="7.11401">
        <ele>899.45</ele>
        <time>2009-09-27T09:10:55Z</time>
      </trkpt>
      <trkpt lat="48.08898" lon="7.11395">
        <ele>898.01</ele>
        <time>2009-09-27T09:10:57Z</time>
      </trkpt>
      <trkpt lat="48.08902" lon="7.11385">
        <ele>900.41</ele>
        <time>2009-09-27T09:11:01Z</time>
      </trkpt>
      <trkpt lat="48.08911" lon="7.11351">
        <ele>903.3</ele>
        <time>2009-09-27T09:11:13Z</time>
      </trkpt>
      <trkpt lat="48.08911" lon="7.11345">
        <ele>904.26</ele>
        <time>2009-09-27T09:11:15Z</time>
      </trkpt>
      <trkpt lat="48.08912" lon="7.11342">
        <ele>903.78</ele>
        <time>2009-09-27T09:11:16Z</time>
      </trkpt>
      <trkpt lat="48.08913" lon="7.11337">
        <ele>904.26</ele>
        <time>2009-09-27T09:11:18Z</time>
      </trkpt>
      <trkpt lat="48.08915" lon="7.11335">
        <ele>906.18</ele>
        <time>2009-09-27T09:11:19Z</time>
      </trkpt>
      <trkpt lat="48.08915" lon="7.11333">
        <ele>904.74</ele>
        <time>2009-09-27T09:11:20Z</time>
      </trkpt>
      <trkpt lat="48.08915" lon="7.1133">
        <ele>905.22</ele>
        <time>2009-09-27T09:11:21Z</time>
      </trkpt>
      <trkpt lat="48.08916" lon="7.11327">
        <ele>905.22</ele>
        <time>2009-09-27T09:11:22Z</time>
      </trkpt>
      <trkpt lat="48.08917" lon="7.11325">
        <ele>905.7</ele>
        <time>2009-09-27T09:11:23Z</time>
      </trkpt>
      <trkpt lat="48.08917" lon="7.11322">
        <ele>904.26</ele>
        <time>2009-09-27T09:11:24Z</time>
      </trkpt>
      <trkpt lat="48.08917" lon="7.11319">
        <ele>904.26</ele>
        <time>2009-09-27T09:11:25Z</time>
      </trkpt>
      <trkpt lat="48.08917" lon="7.11317">
        <ele>905.7</ele>
        <time>2009-09-27T09:11:26Z</time>
      </trkpt>
      <trkpt lat="48.08918" lon="7.11314">
        <ele>904.74</ele>
        <time>2009-09-27T09:11:27Z</time>
      </trkpt>
      <trkpt lat="48.08918" lon="7.11311">
        <ele>905.7</ele>
        <time>2009-09-27T09:11:28Z</time>
      </trkpt>
      <trkpt lat="48.08918" lon="7.11308">
        <ele>907.14</ele>
        <time>2009-09-27T09:11:29Z</time>
      </trkpt>
      <trkpt lat="48.08917" lon="7.11305">
        <ele>906.66</ele>
        <time>2009-09-27T09:11:30Z</time>
      </trkpt>
      <trkpt lat="48.08917" lon="7.11302">
        <ele>910.03</ele>
        <time>2009-09-27T09:11:31Z</time>
      </trkpt>
      <trkpt lat="48.08917" lon="7.113">
        <ele>909.06</ele>
        <time>2009-09-27T09:11:32Z</time>
      </trkpt>
      <trkpt lat="48.08915" lon="7.11294">
        <ele>908.58</ele>
        <time>2009-09-27T09:11:34Z</time>
      </trkpt>
      <trkpt lat="48.08912" lon="7.1126">
        <ele>910.03</ele>
        <time>2009-09-27T09:11:45Z</time>
      </trkpt>
      <trkpt lat="48.08904" lon="7.11235">
        <ele>912.91</ele>
        <time>2009-09-27T09:11:54Z</time>
      </trkpt>
      <trkpt lat="48.08889" lon="7.1121">
        <ele>913.87</ele>
        <time>2009-09-27T09:12:05Z</time>
      </trkpt>
      <trkpt lat="48.08887" lon="7.11208">
        <ele>913.87</ele>
        <time>2009-09-27T09:12:06Z</time>
      </trkpt>
      <trkpt lat="48.08886" lon="7.11206">
        <ele>912.91</ele>
        <time>2009-09-27T09:12:07Z</time>
      </trkpt>
      <trkpt lat="48.08885" lon="7.11205">
        <ele>913.87</ele>
        <time>2009-09-27T09:12:08Z</time>
      </trkpt>
      <trkpt lat="48.08884" lon="7.11203">
        <ele>914.83</ele>
        <time>2009-09-27T09:12:09Z</time>
      </trkpt>
      <trkpt lat="48.08883" lon="7.11201">
        <ele>914.83</ele>
        <time>2009-09-27T09:12:10Z</time>
      </trkpt>
      <trkpt lat="48.08881" lon="7.112">
        <ele>913.87</ele>
        <time>2009-09-27T09:12:11Z</time>
      </trkpt>
      <trkpt lat="48.08878" lon="7.11198">
        <ele>915.31</ele>
        <time>2009-09-27T09:12:12Z</time>
      </trkpt>
      <trkpt lat="48.08861" lon="7.11178">
        <ele>918.68</ele>
        <time>2009-09-27T09:12:22Z</time>
      </trkpt>
      <trkpt lat="48.08855" lon="7.11167">
        <ele>918.68</ele>
        <time>2009-09-27T09:12:26Z</time>
      </trkpt>
      <trkpt lat="48.08843" lon="7.11125">
        <ele>921.56</ele>
        <time>2009-09-27T09:12:40Z</time>
      </trkpt>
      <trkpt lat="48.08842" lon="7.11122">
        <ele>921.56</ele>
        <time>2009-09-27T09:12:41Z</time>
      </trkpt>
      <trkpt lat="48.08835" lon="7.11094">
        <ele>925.41</ele>
        <time>2009-09-27T09:12:50Z</time>
      </trkpt>
      <trkpt lat="48.08835" lon="7.11074">
        <ele>923.96</ele>
        <time>2009-09-27T09:12:56Z</time>
      </trkpt>
      <trkpt lat="48.08839" lon="7.11057">
        <ele>926.85</ele>
        <time>2009-09-27T09:13:02Z</time>
      </trkpt>
      <trkpt lat="48.08843" lon="7.11048">
        <ele>924.93</ele>
        <time>2009-09-27T09:13:05Z</time>
      </trkpt>
      <trkpt lat="48.08847" lon="7.11009">
        <ele>927.81</ele>
        <time>2009-09-27T09:13:17Z</time>
      </trkpt>
      <trkpt lat="48.08844" lon="7.10978">
        <ele>926.37</ele>
        <time>2009-09-27T09:13:25Z</time>
      </trkpt>
      <trkpt lat="48.08845" lon="7.10974">
        <ele>927.81</ele>
        <time>2009-09-27T09:13:26Z</time>
      </trkpt>
      <trkpt lat="48.08847" lon="7.10971">
        <ele>926.37</ele>
        <time>2009-09-27T09:13:27Z</time>
      </trkpt>
      <trkpt lat="48.08847" lon="7.10967">
        <ele>927.81</ele>
        <time>2009-09-27T09:13:28Z</time>
      </trkpt>
      <trkpt lat="48.08847" lon="7.10963">
        <ele>927.81</ele>
        <time>2009-09-27T09:13:29Z</time>
      </trkpt>
      <trkpt lat="48.08853" lon="7.10915">
        <ele>926.85</ele>
        <time>2009-09-27T09:13:40Z</time>
      </trkpt>
      <trkpt lat="48.08853" lon="7.10906">
        <ele>928.29</ele>
        <time>2009-09-27T09:13:42Z</time>
      </trkpt>
      <trkpt lat="48.08853" lon="7.10886">
        <ele>928.77</ele>
        <time>2009-09-27T09:13:47Z</time>
      </trkpt>
      <trkpt lat="48.08851" lon="7.10851">
        <ele>926.85</ele>
        <time>2009-09-27T09:13:55Z</time>
      </trkpt>
      <trkpt lat="48.08849" lon="7.10839">
        <ele>928.29</ele>
        <time>2009-09-27T09:13:57Z</time>
      </trkpt>
      <trkpt lat="48.08848" lon="7.10833">
        <ele>925.89</ele>
        <time>2009-09-27T09:13:58Z</time>
      </trkpt>
      <trkpt lat="48.08846" lon="7.10826">
        <ele>927.33</ele>
        <time>2009-09-27T09:13:59Z</time>
      </trkpt>
      <trkpt lat="48.08845" lon="7.10819">
        <ele>925.41</ele>
        <time>2009-09-27T09:14:00Z</time>
      </trkpt>
      <trkpt lat="48.08844" lon="7.10811">
        <ele>925.89</ele>
        <time>2009-09-27T09:14:01Z</time>
      </trkpt>
      <trkpt lat="48.08843" lon="7.10803">
        <ele>926.37</ele>
        <time>2009-09-27T09:14:02Z</time>
      </trkpt>
      <trkpt lat="48.08842" lon="7.10794">
        <ele>925.41</ele>
        <time>2009-09-27T09:14:03Z</time>
      </trkpt>
      <trkpt lat="48.08842" lon="7.10785">
        <ele>925.41</ele>
        <time>2009-09-27T09:14:04Z</time>
      </trkpt>
      <trkpt lat="48.08842" lon="7.10776">
        <ele>923.48</ele>
        <time>2009-09-27T09:14:05Z</time>
      </trkpt>
      <trkpt lat="48.08843" lon="7.10758">
        <ele>924.93</ele>
        <time>2009-09-27T09:14:07Z</time>
      </trkpt>
      <trkpt lat="48.08845" lon="7.10749">
        <ele>922.04</ele>
        <time>2009-09-27T09:14:08Z</time>
      </trkpt>
      <trkpt lat="48.08846" lon="7.10741">
        <ele>923</ele>
        <time>2009-09-27T09:14:09Z</time>
      </trkpt>
      <trkpt lat="48.08849" lon="7.10733">
        <ele>923.96</ele>
        <time>2009-09-27T09:14:10Z</time>
      </trkpt>
      <trkpt lat="48.08851" lon="7.10726">
        <ele>921.56</ele>
        <time>2009-09-27T09:14:11Z</time>
      </trkpt>
      <trkpt lat="48.08854" lon="7.10722">
        <ele>922.04</ele>
        <time>2009-09-27T09:14:12Z</time>
      </trkpt>
      <trkpt lat="48.08859" lon="7.10714">
        <ele>918.68</ele>
        <time>2009-09-27T09:14:15Z</time>
      </trkpt>
      <trkpt lat="48.08875" lon="7.10696">
        <ele>920.12</ele>
        <time>2009-09-27T09:14:21Z</time>
      </trkpt>
      <trkpt lat="48.08878" lon="7.1069">
        <ele>919.16</ele>
        <time>2009-09-27T09:14:22Z</time>
      </trkpt>
      <trkpt lat="48.08881" lon="7.10685">
        <ele>917.24</ele>
        <time>2009-09-27T09:14:23Z</time>
      </trkpt>
      <trkpt lat="48.08884" lon="7.10681">
        <ele>918.2</ele>
        <time>2009-09-27T09:14:24Z</time>
      </trkpt>
      <trkpt lat="48.08888" lon="7.10676">
        <ele>918.2</ele>
        <time>2009-09-27T09:14:25Z</time>
      </trkpt>
      <trkpt lat="48.08915" lon="7.10646">
        <ele>914.83</ele>
        <time>2009-09-27T09:14:30Z</time>
      </trkpt>
      <trkpt lat="48.08921" lon="7.1064">
        <ele>913.87</ele>
        <time>2009-09-27T09:14:31Z</time>
      </trkpt>
      <trkpt lat="48.08927" lon="7.10635">
        <ele>913.39</ele>
        <time>2009-09-27T09:14:32Z</time>
      </trkpt>
      <trkpt lat="48.08934" lon="7.10629">
        <ele>911.95</ele>
        <time>2009-09-27T09:14:33Z</time>
      </trkpt>
      <trkpt lat="48.0894" lon="7.10623">
        <ele>913.39</ele>
        <time>2009-09-27T09:14:34Z</time>
      </trkpt>
      <trkpt lat="48.08967" lon="7.106">
        <ele>911.47</ele>
        <time>2009-09-27T09:14:38Z</time>
      </trkpt>
      <trkpt lat="48.08974" lon="7.10594">
        <ele>909.54</ele>
        <time>2009-09-27T09:14:39Z</time>
      </trkpt>
      <trkpt lat="48.08981" lon="7.10589">
        <ele>908.1</ele>
        <time>2009-09-27T09:14:40Z</time>
      </trkpt>
      <trkpt lat="48.08988" lon="7.10584">
        <ele>911.47</ele>
        <time>2009-09-27T09:14:41Z</time>
      </trkpt>
      <trkpt lat="48.08995" lon="7.10581">
        <ele>908.58</ele>
        <time>2009-09-27T09:14:42Z</time>
      </trkpt>
      <trkpt lat="48.09001" lon="7.10578">
        <ele>909.54</ele>
        <time>2009-09-27T09:14:43Z</time>
      </trkpt>
      <trkpt lat="48.09007" lon="7.10572">
        <ele>909.54</ele>
        <time>2009-09-27T09:14:44Z</time>
      </trkpt>
      <trkpt lat="48.09013" lon="7.10566">
        <ele>907.62</ele>
        <time>2009-09-27T09:14:45Z</time>
      </trkpt>
      <trkpt lat="48.09019" lon="7.10562">
        <ele>906.18</ele>
        <time>2009-09-27T09:14:46Z</time>
      </trkpt>
      <trkpt lat="48.09025" lon="7.10559">
        <ele>906.18</ele>
        <time>2009-09-27T09:14:47Z</time>
      </trkpt>
      <trkpt lat="48.09031" lon="7.10558">
        <ele>907.62</ele>
        <time>2009-09-27T09:14:48Z</time>
      </trkpt>
      <trkpt lat="48.09037" lon="7.10556">
        <ele>905.22</ele>
        <time>2009-09-27T09:14:49Z</time>
      </trkpt>
      <trkpt lat="48.09042" lon="7.10555">
        <ele>905.7</ele>
        <time>2009-09-27T09:14:50Z</time>
      </trkpt>
      <trkpt lat="48.09046" lon="7.10554">
        <ele>904.74</ele>
        <time>2009-09-27T09:14:51Z</time>
      </trkpt>
      <trkpt lat="48.0905" lon="7.10553">
        <ele>905.7</ele>
        <time>2009-09-27T09:14:52Z</time>
      </trkpt>
      <trkpt lat="48.09054" lon="7.10552">
        <ele>906.18</ele>
        <time>2009-09-27T09:14:53Z</time>
      </trkpt>
      <trkpt lat="48.09058" lon="7.1055">
        <ele>906.18</ele>
        <time>2009-09-27T09:14:54Z</time>
      </trkpt>
      <trkpt lat="48.09062" lon="7.10549">
        <ele>905.22</ele>
        <time>2009-09-27T09:14:55Z</time>
      </trkpt>
      <trkpt lat="48.09066" lon="7.10547">
        <ele>905.7</ele>
        <time>2009-09-27T09:14:56Z</time>
      </trkpt>
      <trkpt lat="48.09074" lon="7.10543">
        <ele>906.66</ele>
        <time>2009-09-27T09:14:58Z</time>
      </trkpt>
      <trkpt lat="48.09103" lon="7.10532">
        <ele>907.14</ele>
        <time>2009-09-27T09:15:06Z</time>
      </trkpt>
      <trkpt lat="48.09124" lon="7.10529">
        <ele>909.06</ele>
        <time>2009-09-27T09:15:12Z</time>
      </trkpt>
      <trkpt lat="48.09128" lon="7.10529">
        <ele>907.62</ele>
        <time>2009-09-27T09:15:13Z</time>
      </trkpt>
      <trkpt lat="48.09132" lon="7.10528">
        <ele>908.1</ele>
        <time>2009-09-27T09:15:14Z</time>
      </trkpt>
      <trkpt lat="48.09135" lon="7.10526">
        <ele>909.54</ele>
        <time>2009-09-27T09:15:15Z</time>
      </trkpt>
      <trkpt lat="48.09138" lon="7.10525">
        <ele>909.06</ele>
        <time>2009-09-27T09:15:16Z</time>
      </trkpt>
      <trkpt lat="48.09141" lon="7.10523">
        <ele>909.06</ele>
        <time>2009-09-27T09:15:17Z</time>
      </trkpt>
      <trkpt lat="48.09144" lon="7.10521">
        <ele>909.54</ele>
        <time>2009-09-27T09:15:18Z</time>
      </trkpt>
      <trkpt lat="48.09161" lon="7.10515">
        <ele>909.06</ele>
        <time>2009-09-27T09:15:24Z</time>
      </trkpt>
      <trkpt lat="48.09178" lon="7.1051">
        <ele>911.95</ele>
        <time>2009-09-27T09:15:29Z</time>
      </trkpt>
      <trkpt lat="48.09205" lon="7.10501">
        <ele>912.91</ele>
        <time>2009-09-27T09:15:38Z</time>
      </trkpt>
      <trkpt lat="48.09212" lon="7.10499">
        <ele>909.54</ele>
        <time>2009-09-27T09:15:40Z</time>
      </trkpt>
      <trkpt lat="48.0923" lon="7.10491">
        <ele>913.39</ele>
        <time>2009-09-27T09:15:45Z</time>
      </trkpt>
      <trkpt lat="48.09234" lon="7.10488">
        <ele>909.54</ele>
        <time>2009-09-27T09:15:46Z</time>
      </trkpt>
      <trkpt lat="48.09246" lon="7.10482">
        <ele>910.99</ele>
        <time>2009-09-27T09:15:50Z</time>
      </trkpt>
      <trkpt lat="48.09251" lon="7.10479">
        <ele>910.51</ele>
        <time>2009-09-27T09:15:59Z</time>
      </trkpt>
      <trkpt lat="48.09252" lon="7.10477">
        <ele>912.43</ele>
        <time>2009-09-27T09:16:00Z</time>
      </trkpt>
      <trkpt lat="48.09254" lon="7.10476">
        <ele>911.47</ele>
        <time>2009-09-27T09:16:01Z</time>
      </trkpt>
      <trkpt lat="48.09258" lon="7.10472">
        <ele>911.47</ele>
        <time>2009-09-27T09:16:04Z</time>
      </trkpt>
      <trkpt lat="48.09259" lon="7.10472">
        <ele>910.03</ele>
        <time>2009-09-27T09:16:05Z</time>
      </trkpt>
      <trkpt lat="48.0926" lon="7.1047">
        <ele>910.03</ele>
        <time>2009-09-27T09:16:06Z</time>
      </trkpt>
      <trkpt lat="48.09262" lon="7.10469">
        <ele>910.51</ele>
        <time>2009-09-27T09:16:09Z</time>
      </trkpt>
      <trkpt lat="48.09264" lon="7.10469">
        <ele>911.47</ele>
        <time>2009-09-27T09:16:16Z</time>
      </trkpt>
      <trkpt lat="48.09265" lon="7.10465">
        <ele>910.03</ele>
        <time>2009-09-27T09:16:18Z</time>
      </trkpt>
      <trkpt lat="48.09276" lon="7.10458">
        <ele>908.58</ele>
        <time>2009-09-27T09:16:30Z</time>
      </trkpt>
      <trkpt lat="48.09279" lon="7.10455">
        <ele>908.58</ele>
        <time>2009-09-27T09:16:31Z</time>
      </trkpt>
      <trkpt lat="48.09307" lon="7.10435">
        <ele>910.99</ele>
        <time>2009-09-27T09:16:40Z</time>
      </trkpt>
      <trkpt lat="48.09318" lon="7.10425">
        <ele>909.54</ele>
        <time>2009-09-27T09:16:43Z</time>
      </trkpt>
      <trkpt lat="48.09346" lon="7.10407">
        <ele>910.03</ele>
        <time>2009-09-27T09:16:51Z</time>
      </trkpt>
      <trkpt lat="48.09365" lon="7.1041">
        <ele>910.99</ele>
        <time>2009-09-27T09:17:01Z</time>
      </trkpt>
      <trkpt lat="48.09383" lon="7.10413">
        <ele>914.83</ele>
        <time>2009-09-27T09:17:13Z</time>
      </trkpt>
      <trkpt lat="48.09406" lon="7.10418">
        <ele>916.75</ele>
        <time>2009-09-27T09:17:28Z</time>
      </trkpt>
      <trkpt lat="48.09418" lon="7.10421">
        <ele>919.64</ele>
        <time>2009-09-27T09:17:36Z</time>
      </trkpt>
      <trkpt lat="48.09435" lon="7.10424">
        <ele>921.56</ele>
        <time>2009-09-27T09:17:47Z</time>
      </trkpt>
      <trkpt lat="48.09447" lon="7.10426">
        <ele>922.04</ele>
        <time>2009-09-27T09:17:56Z</time>
      </trkpt>
      <trkpt lat="48.09451" lon="7.10427">
        <ele>923.96</ele>
        <time>2009-09-27T09:17:59Z</time>
      </trkpt>
      <trkpt lat="48.09452" lon="7.10427">
        <ele>923.96</ele>
        <time>2009-09-27T09:18:00Z</time>
      </trkpt>
      <trkpt lat="48.09453" lon="7.10427">
        <ele>923.48</ele>
        <time>2009-09-27T09:18:01Z</time>
      </trkpt>
      <trkpt lat="48.09455" lon="7.10427">
        <ele>923</ele>
        <time>2009-09-27T09:18:02Z</time>
      </trkpt>
      <trkpt lat="48.09456" lon="7.10427">
        <ele>923.96</ele>
        <time>2009-09-27T09:18:03Z</time>
      </trkpt>
      <trkpt lat="48.09457" lon="7.10428">
        <ele>924.45</ele>
        <time>2009-09-27T09:18:04Z</time>
      </trkpt>
      <trkpt lat="48.09458" lon="7.10428">
        <ele>922.52</ele>
        <time>2009-09-27T09:18:05Z</time>
      </trkpt>
      <trkpt lat="48.0946" lon="7.10428">
        <ele>923.48</ele>
        <time>2009-09-27T09:18:06Z</time>
      </trkpt>
      <trkpt lat="48.09461" lon="7.10428">
        <ele>924.45</ele>
        <time>2009-09-27T09:18:07Z</time>
      </trkpt>
      <trkpt lat="48.09462" lon="7.10428">
        <ele>924.93</ele>
        <time>2009-09-27T09:18:08Z</time>
      </trkpt>
      <trkpt lat="48.09463" lon="7.10428">
        <ele>926.37</ele>
        <time>2009-09-27T09:18:09Z</time>
      </trkpt>
      <trkpt lat="48.09464" lon="7.10427">
        <ele>925.89</ele>
        <time>2009-09-27T09:18:10Z</time>
      </trkpt>
      <trkpt lat="48.09465" lon="7.10427">
        <ele>925.89</ele>
        <time>2009-09-27T09:18:11Z</time>
      </trkpt>
      <trkpt lat="48.09467" lon="7.10428">
        <ele>925.41</ele>
        <time>2009-09-27T09:18:12Z</time>
      </trkpt>
      <trkpt lat="48.09471" lon="7.10428">
        <ele>927.33</ele>
        <time>2009-09-27T09:18:15Z</time>
      </trkpt>
      <trkpt lat="48.09472" lon="7.10428">
        <ele>926.37</ele>
        <time>2009-09-27T09:18:16Z</time>
      </trkpt>
      <trkpt lat="48.09473" lon="7.10428">
        <ele>926.85</ele>
        <time>2009-09-27T09:18:17Z</time>
      </trkpt>
      <trkpt lat="48.09474" lon="7.10428">
        <ele>926.85</ele>
        <time>2009-09-27T09:18:18Z</time>
      </trkpt>
      <trkpt lat="48.09476" lon="7.10427">
        <ele>925.41</ele>
        <time>2009-09-27T09:18:19Z</time>
      </trkpt>
      <trkpt lat="48.09477" lon="7.10427">
        <ele>927.81</ele>
        <time>2009-09-27T09:18:20Z</time>
      </trkpt>
      <trkpt lat="48.09478" lon="7.10427">
        <ele>927.81</ele>
        <time>2009-09-27T09:18:21Z</time>
      </trkpt>
      <trkpt lat="48.0948" lon="7.10427">
        <ele>926.37</ele>
        <time>2009-09-27T09:18:22Z</time>
      </trkpt>
      <trkpt lat="48.09481" lon="7.10427">
        <ele>927.81</ele>
        <time>2009-09-27T09:18:23Z</time>
      </trkpt>
      <trkpt lat="48.09483" lon="7.10427">
        <ele>927.81</ele>
        <time>2009-09-27T09:18:24Z</time>
      </trkpt>
      <trkpt lat="48.09488" lon="7.10428">
        <ele>928.77</ele>
        <time>2009-09-27T09:18:28Z</time>
      </trkpt>
      <trkpt lat="48.09501" lon="7.1043">
        <ele>929.25</ele>
        <time>2009-09-27T09:18:37Z</time>
      </trkpt>
      <trkpt lat="48.09503" lon="7.1043">
        <ele>929.25</ele>
        <time>2009-09-27T09:18:38Z</time>
      </trkpt>
      <trkpt lat="48.09504" lon="7.1043">
        <ele>929.25</ele>
        <time>2009-09-27T09:18:39Z</time>
      </trkpt>
      <trkpt lat="48.09505" lon="7.10429">
        <ele>929.25</ele>
        <time>2009-09-27T09:18:40Z</time>
      </trkpt>
      <trkpt lat="48.09506" lon="7.10429">
        <ele>929.73</ele>
        <time>2009-09-27T09:18:41Z</time>
      </trkpt>
      <trkpt lat="48.09508" lon="7.10429">
        <ele>931.17</ele>
        <time>2009-09-27T09:18:42Z</time>
      </trkpt>
      <trkpt lat="48.09509" lon="7.10429">
        <ele>931.65</ele>
        <time>2009-09-27T09:18:43Z</time>
      </trkpt>
      <trkpt lat="48.09522" lon="7.10429">
        <ele>932.62</ele>
        <time>2009-09-27T09:18:53Z</time>
      </trkpt>
      <trkpt lat="48.09523" lon="7.10429">
        <ele>935.98</ele>
        <time>2009-09-27T09:18:54Z</time>
      </trkpt>
      <trkpt lat="48.09525" lon="7.10429">
        <ele>931.17</ele>
        <time>2009-09-27T09:18:56Z</time>
      </trkpt>
      <trkpt lat="48.09525" lon="7.10429">
        <ele>932.62</ele>
        <time>2009-09-27T09:18:57Z</time>
      </trkpt>
      <trkpt lat="48.09525" lon="7.10429">
        <ele>934.54</ele>
        <time>2009-09-27T09:19:01Z</time>
      </trkpt>
      <trkpt lat="48.09526" lon="7.1043">
        <ele>932.62</ele>
        <time>2009-09-27T09:19:07Z</time>
      </trkpt>
      <trkpt lat="48.09527" lon="7.1043">
        <ele>935.02</ele>
        <time>2009-09-27T09:19:08Z</time>
      </trkpt>
      <trkpt lat="48.09529" lon="7.1043">
        <ele>934.06</ele>
        <time>2009-09-27T09:19:09Z</time>
      </trkpt>
      <trkpt lat="48.0953" lon="7.1043">
        <ele>935.02</ele>
        <time>2009-09-27T09:19:10Z</time>
      </trkpt>
      <trkpt lat="48.09531" lon="7.1043">
        <ele>934.54</ele>
        <time>2009-09-27T09:19:11Z</time>
      </trkpt>
      <trkpt lat="48.09532" lon="7.10429">
        <ele>935.5</ele>
        <time>2009-09-27T09:19:12Z</time>
      </trkpt>
      <trkpt lat="48.09533" lon="7.10429">
        <ele>932.62</ele>
        <time>2009-09-27T09:19:13Z</time>
      </trkpt>
      <trkpt lat="48.09535" lon="7.10429">
        <ele>935.98</ele>
        <time>2009-09-27T09:19:14Z</time>
      </trkpt>
      <trkpt lat="48.09546" lon="7.10428">
        <ele>936.46</ele>
        <time>2009-09-27T09:19:26Z</time>
      </trkpt>
      <trkpt lat="48.09549" lon="7.1043">
        <ele>937.9</ele>
        <time>2009-09-27T09:19:39Z</time>
      </trkpt>
      <trkpt lat="48.09549" lon="7.10429">
        <ele>936.94</ele>
        <time>2009-09-27T09:19:51Z</time>
      </trkpt>
      <trkpt lat="48.09557" lon="7.10429">
        <ele>938.38</ele>
        <time>2009-09-27T09:20:02Z</time>
      </trkpt>
      <trkpt lat="48.09571" lon="7.10427">
        <ele>941.75</ele>
        <time>2009-09-27T09:20:11Z</time>
      </trkpt>
      <trkpt lat="48.09585" lon="7.10426">
        <ele>943.19</ele>
        <time>2009-09-27T09:20:22Z</time>
      </trkpt>
      <trkpt lat="48.09602" lon="7.10426">
        <ele>946.56</ele>
        <time>2009-09-27T09:20:34Z</time>
      </trkpt>
      <trkpt lat="48.09603" lon="7.10427">
        <ele>946.56</ele>
        <time>2009-09-27T09:20:35Z</time>
      </trkpt>
      <trkpt lat="48.09616" lon="7.10429">
        <ele>949.92</ele>
        <time>2009-09-27T09:20:45Z</time>
      </trkpt>
      <trkpt lat="48.09621" lon="7.10431">
        <ele>949.92</ele>
        <time>2009-09-27T09:20:49Z</time>
      </trkpt>
      <trkpt lat="48.09637" lon="7.10441">
        <ele>952.8</ele>
        <time>2009-09-27T09:21:03Z</time>
      </trkpt>
      <trkpt lat="48.09648" lon="7.10448">
        <ele>955.69</ele>
        <time>2009-09-27T09:21:13Z</time>
      </trkpt>
      <trkpt lat="48.09658" lon="7.10457">
        <ele>956.65</ele>
        <time>2009-09-27T09:21:21Z</time>
      </trkpt>
      <trkpt lat="48.09674" lon="7.10471">
        <ele>959.53</ele>
        <time>2009-09-27T09:21:34Z</time>
      </trkpt>
      <trkpt lat="48.09682" lon="7.10479">
        <ele>960.98</ele>
        <time>2009-09-27T09:21:40Z</time>
      </trkpt>
      <trkpt lat="48.09695" lon="7.10497">
        <ele>964.34</ele>
        <time>2009-09-27T09:21:53Z</time>
      </trkpt>
      <trkpt lat="48.09695" lon="7.10499">
        <ele>963.38</ele>
        <time>2009-09-27T09:21:54Z</time>
      </trkpt>
      <trkpt lat="48.09695" lon="7.10505">
        <ele>962.9</ele>
        <time>2009-09-27T09:21:55Z</time>
      </trkpt>
      <trkpt lat="48.09692" lon="7.10525">
        <ele>962.42</ele>
        <time>2009-09-27T09:21:57Z</time>
      </trkpt>
      <trkpt lat="48.09692" lon="7.10528">
        <ele>963.38</ele>
        <time>2009-09-27T09:21:58Z</time>
      </trkpt>
      <trkpt lat="48.09689" lon="7.10506">
        <ele>963.86</ele>
        <time>2009-09-27T09:22:08Z</time>
      </trkpt>
      <trkpt lat="48.09697" lon="7.10504">
        <ele>963.86</ele>
        <time>2009-09-27T09:22:18Z</time>
      </trkpt>
      <trkpt lat="48.09716" lon="7.10522">
        <ele>965.78</ele>
        <time>2009-09-27T09:22:29Z</time>
      </trkpt>
      <trkpt lat="48.09726" lon="7.1054">
        <ele>968.18</ele>
        <time>2009-09-27T09:22:36Z</time>
      </trkpt>
      <trkpt lat="48.09748" lon="7.10554">
        <ele>968.18</ele>
        <time>2009-09-27T09:22:47Z</time>
      </trkpt>
      <trkpt lat="48.09796" lon="7.10572">
        <ele>969.15</ele>
        <time>2009-09-27T09:23:05Z</time>
      </trkpt>
      <trkpt lat="48.09842" lon="7.10592">
        <ele>971.55</ele>
        <time>2009-09-27T09:23:19Z</time>
      </trkpt>
      <trkpt lat="48.09877" lon="7.10607">
        <ele>971.55</ele>
        <time>2009-09-27T09:23:30Z</time>
      </trkpt>
      <trkpt lat="48.09895" lon="7.10615">
        <ele>972.03</ele>
        <time>2009-09-27T09:23:36Z</time>
      </trkpt>
      <trkpt lat="48.09927" lon="7.10663">
        <ele>970.11</ele>
        <time>2009-09-27T09:23:49Z</time>
      </trkpt>
      <trkpt lat="48.09937" lon="7.10682">
        <ele>970.59</ele>
        <time>2009-09-27T09:23:52Z</time>
      </trkpt>
      <trkpt lat="48.0994" lon="7.10689">
        <ele>969.63</ele>
        <time>2009-09-27T09:23:53Z</time>
      </trkpt>
      <trkpt lat="48.09943" lon="7.10712">
        <ele>965.78</ele>
        <time>2009-09-27T09:23:56Z</time>
      </trkpt>
      <trkpt lat="48.0994" lon="7.10721">
        <ele>964.34</ele>
        <time>2009-09-27T09:23:57Z</time>
      </trkpt>
      <trkpt lat="48.09936" lon="7.10729">
        <ele>963.86</ele>
        <time>2009-09-27T09:23:58Z</time>
      </trkpt>
      <trkpt lat="48.09931" lon="7.10737">
        <ele>963.38</ele>
        <time>2009-09-27T09:23:59Z</time>
      </trkpt>
      <trkpt lat="48.09925" lon="7.10745">
        <ele>962.9</ele>
        <time>2009-09-27T09:24:00Z</time>
      </trkpt>
      <trkpt lat="48.09912" lon="7.10766">
        <ele>959.53</ele>
        <time>2009-09-27T09:24:03Z</time>
      </trkpt>
      <trkpt lat="48.09905" lon="7.10778">
        <ele>958.09</ele>
        <time>2009-09-27T09:24:05Z</time>
      </trkpt>
      <trkpt lat="48.09903" lon="7.10783">
        <ele>957.13</ele>
        <time>2009-09-27T09:24:06Z</time>
      </trkpt>
      <trkpt lat="48.099" lon="7.10786">
        <ele>956.65</ele>
        <time>2009-09-27T09:24:07Z</time>
      </trkpt>
      <trkpt lat="48.09899" lon="7.10789">
        <ele>957.13</ele>
        <time>2009-09-27T09:24:08Z</time>
      </trkpt>
      <trkpt lat="48.09897" lon="7.10793">
        <ele>956.65</ele>
        <time>2009-09-27T09:24:09Z</time>
      </trkpt>
      <trkpt lat="48.09895" lon="7.10797">
        <ele>956.17</ele>
        <time>2009-09-27T09:24:10Z</time>
      </trkpt>
      <trkpt lat="48.09892" lon="7.10802">
        <ele>956.17</ele>
        <time>2009-09-27T09:24:11Z</time>
      </trkpt>
      <trkpt lat="48.0988" lon="7.10824">
        <ele>953.28</ele>
        <time>2009-09-27T09:24:14Z</time>
      </trkpt>
      <trkpt lat="48.09877" lon="7.10834">
        <ele>951.36</ele>
        <time>2009-09-27T09:24:15Z</time>
      </trkpt>
      <trkpt lat="48.09873" lon="7.10844">
        <ele>950.88</ele>
        <time>2009-09-27T09:24:16Z</time>
      </trkpt>
      <trkpt lat="48.0987" lon="7.10853">
        <ele>949.44</ele>
        <time>2009-09-27T09:24:17Z</time>
      </trkpt>
      <trkpt lat="48.09867" lon="7.10861">
        <ele>948.96</ele>
        <time>2009-09-27T09:24:18Z</time>
      </trkpt>
      <trkpt lat="48.09862" lon="7.10876">
        <ele>945.11</ele>
        <time>2009-09-27T09:24:21Z</time>
      </trkpt>
      <trkpt lat="48.09859" lon="7.10886">
        <ele>944.15</ele>
        <time>2009-09-27T09:24:23Z</time>
      </trkpt>
      <trkpt lat="48.09856" lon="7.10896">
        <ele>942.23</ele>
        <time>2009-09-27T09:24:25Z</time>
      </trkpt>
      <trkpt lat="48.09854" lon="7.109">
        <ele>941.75</ele>
        <time>2009-09-27T09:24:26Z</time>
      </trkpt>
      <trkpt lat="48.09847" lon="7.10917">
        <ele>938.86</ele>
        <time>2009-09-27T09:24:30Z</time>
      </trkpt>
      <trkpt lat="48.09846" lon="7.10921">
        <ele>938.38</ele>
        <time>2009-09-27T09:24:31Z</time>
      </trkpt>
      <trkpt lat="48.09845" lon="7.10925">
        <ele>937.42</ele>
        <time>2009-09-27T09:24:32Z</time>
      </trkpt>
      <trkpt lat="48.0984" lon="7.10942">
        <ele>933.1</ele>
        <time>2009-09-27T09:24:36Z</time>
      </trkpt>
      <trkpt lat="48.09836" lon="7.10961">
        <ele>930.69</ele>
        <time>2009-09-27T09:24:39Z</time>
      </trkpt>
      <trkpt lat="48.09832" lon="7.10979">
        <ele>927.81</ele>
        <time>2009-09-27T09:24:42Z</time>
      </trkpt>
      <trkpt lat="48.0983" lon="7.10993">
        <ele>925.89</ele>
        <time>2009-09-27T09:24:44Z</time>
      </trkpt>
      <trkpt lat="48.09828" lon="7.11">
        <ele>924.93</ele>
        <time>2009-09-27T09:24:45Z</time>
      </trkpt>
      <trkpt lat="48.09826" lon="7.11007">
        <ele>922.52</ele>
        <time>2009-09-27T09:24:46Z</time>
      </trkpt>
      <trkpt lat="48.09825" lon="7.11014">
        <ele>922.52</ele>
        <time>2009-09-27T09:24:47Z</time>
      </trkpt>
      <trkpt lat="48.09825" lon="7.11018">
        <ele>922.52</ele>
        <time>2009-09-27T09:24:48Z</time>
      </trkpt>
      <trkpt lat="48.09824" lon="7.11021">
        <ele>921.08</ele>
        <time>2009-09-27T09:24:49Z</time>
      </trkpt>
      <trkpt lat="48.09823" lon="7.11024">
        <ele>921.08</ele>
        <time>2009-09-27T09:24:50Z</time>
      </trkpt>
      <trkpt lat="48.09823" lon="7.11028">
        <ele>920.6</ele>
        <time>2009-09-27T09:24:51Z</time>
      </trkpt>
      <trkpt lat="48.09821" lon="7.11038">
        <ele>920.6</ele>
        <time>2009-09-27T09:24:53Z</time>
      </trkpt>
      <trkpt lat="48.09822" lon="7.11057">
        <ele>919.16</ele>
        <time>2009-09-27T09:24:56Z</time>
      </trkpt>
      <trkpt lat="48.09823" lon="7.11063">
        <ele>919.16</ele>
        <time>2009-09-27T09:24:57Z</time>
      </trkpt>
      <trkpt lat="48.09825" lon="7.11068">
        <ele>917.24</ele>
        <time>2009-09-27T09:24:58Z</time>
      </trkpt>
      <trkpt lat="48.09826" lon="7.11073">
        <ele>917.24</ele>
        <time>2009-09-27T09:24:59Z</time>
      </trkpt>
      <trkpt lat="48.09827" lon="7.11076">
        <ele>915.79</ele>
        <time>2009-09-27T09:25:00Z</time>
      </trkpt>
      <trkpt lat="48.09829" lon="7.11079">
        <ele>916.27</ele>
        <time>2009-09-27T09:25:01Z</time>
      </trkpt>
      <trkpt lat="48.09831" lon="7.11081">
        <ele>916.75</ele>
        <time>2009-09-27T09:25:02Z</time>
      </trkpt>
      <trkpt lat="48.09834" lon="7.11083">
        <ele>914.83</ele>
        <time>2009-09-27T09:25:03Z</time>
      </trkpt>
      <trkpt lat="48.09837" lon="7.11086">
        <ele>914.35</ele>
        <time>2009-09-27T09:25:04Z</time>
      </trkpt>
      <trkpt lat="48.09839" lon="7.11089">
        <ele>914.35</ele>
        <time>2009-09-27T09:25:05Z</time>
      </trkpt>
      <trkpt lat="48.09842" lon="7.11094">
        <ele>913.39</ele>
        <time>2009-09-27T09:25:06Z</time>
      </trkpt>
      <trkpt lat="48.09844" lon="7.11099">
        <ele>912.43</ele>
        <time>2009-09-27T09:25:07Z</time>
      </trkpt>
      <trkpt lat="48.09846" lon="7.11105">
        <ele>912.43</ele>
        <time>2009-09-27T09:25:08Z</time>
      </trkpt>
      <trkpt lat="48.09848" lon="7.11111">
        <ele>910.99</ele>
        <time>2009-09-27T09:25:09Z</time>
      </trkpt>
      <trkpt lat="48.0985" lon="7.11117">
        <ele>910.51</ele>
        <time>2009-09-27T09:25:10Z</time>
      </trkpt>
      <trkpt lat="48.09852" lon="7.11124">
        <ele>910.51</ele>
        <time>2009-09-27T09:25:11Z</time>
      </trkpt>
      <trkpt lat="48.09854" lon="7.11131">
        <ele>910.03</ele>
        <time>2009-09-27T09:25:12Z</time>
      </trkpt>
      <trkpt lat="48.09861" lon="7.11161">
        <ele>906.66</ele>
        <time>2009-09-27T09:25:16Z</time>
      </trkpt>
      <trkpt lat="48.09864" lon="7.11185">
        <ele>903.3</ele>
        <time>2009-09-27T09:25:21Z</time>
      </trkpt>
      <trkpt lat="48.09864" lon="7.11187">
        <ele>904.26</ele>
        <time>2009-09-27T09:25:22Z</time>
      </trkpt>
      <trkpt lat="48.09862" lon="7.11189">
        <ele>903.78</ele>
        <time>2009-09-27T09:25:23Z</time>
      </trkpt>
      <trkpt lat="48.0986" lon="7.11188">
        <ele>904.26</ele>
        <time>2009-09-27T09:25:24Z</time>
      </trkpt>
      <trkpt lat="48.09858" lon="7.11186">
        <ele>904.26</ele>
        <time>2009-09-27T09:25:25Z</time>
      </trkpt>
      <trkpt lat="48.09856" lon="7.11185">
        <ele>905.22</ele>
        <time>2009-09-27T09:25:26Z</time>
      </trkpt>
      <trkpt lat="48.09854" lon="7.11182">
        <ele>905.22</ele>
        <time>2009-09-27T09:25:27Z</time>
      </trkpt>
      <trkpt lat="48.09852" lon="7.11179">
        <ele>905.22</ele>
        <time>2009-09-27T09:25:28Z</time>
      </trkpt>
      <trkpt lat="48.0985" lon="7.11177">
        <ele>905.22</ele>
        <time>2009-09-27T09:25:29Z</time>
      </trkpt>
      <trkpt lat="48.09849" lon="7.11174">
        <ele>905.7</ele>
        <time>2009-09-27T09:25:30Z</time>
      </trkpt>
      <trkpt lat="48.09847" lon="7.11171">
        <ele>905.22</ele>
        <time>2009-09-27T09:25:31Z</time>
      </trkpt>
      <trkpt lat="48.09837" lon="7.11153">
        <ele>907.14</ele>
        <time>2009-09-27T09:25:37Z</time>
      </trkpt>
      <trkpt lat="48.0983" lon="7.11145">
        <ele>907.62</ele>
        <time>2009-09-27T09:25:41Z</time>
      </trkpt>
      <trkpt lat="48.09826" lon="7.11142">
        <ele>909.06</ele>
        <time>2009-09-27T09:25:43Z</time>
      </trkpt>
      <trkpt lat="48.09799" lon="7.11137">
        <ele>910.51</ele>
        <time>2009-09-27T09:25:56Z</time>
      </trkpt>
      <trkpt lat="48.09777" lon="7.11138">
        <ele>913.39</ele>
        <time>2009-09-27T09:26:07Z</time>
      </trkpt>
      <trkpt lat="48.0977" lon="7.11142">
        <ele>914.35</ele>
        <time>2009-09-27T09:26:11Z</time>
      </trkpt>
      <trkpt lat="48.09769" lon="7.11144">
        <ele>915.31</ele>
        <time>2009-09-27T09:26:12Z</time>
      </trkpt>
      <trkpt lat="48.09767" lon="7.11145">
        <ele>914.35</ele>
        <time>2009-09-27T09:26:13Z</time>
      </trkpt>
      <trkpt lat="48.09748" lon="7.11147">
        <ele>916.75</ele>
        <time>2009-09-27T09:26:23Z</time>
      </trkpt>
      <trkpt lat="48.09746" lon="7.11147">
        <ele>916.75</ele>
        <time>2009-09-27T09:26:24Z</time>
      </trkpt>
      <trkpt lat="48.09744" lon="7.11147">
        <ele>918.2</ele>
        <time>2009-09-27T09:26:25Z</time>
      </trkpt>
      <trkpt lat="48.09742" lon="7.11147">
        <ele>917.72</ele>
        <time>2009-09-27T09:26:26Z</time>
      </trkpt>
      <trkpt lat="48.0974" lon="7.11147">
        <ele>917.24</ele>
        <time>2009-09-27T09:26:27Z</time>
      </trkpt>
      <trkpt lat="48.09738" lon="7.11147">
        <ele>917.72</ele>
        <time>2009-09-27T09:26:28Z</time>
      </trkpt>
      <trkpt lat="48.09736" lon="7.11146">
        <ele>918.2</ele>
        <time>2009-09-27T09:26:29Z</time>
      </trkpt>
      <trkpt lat="48.09734" lon="7.11146">
        <ele>918.68</ele>
        <time>2009-09-27T09:26:30Z</time>
      </trkpt>
      <trkpt lat="48.09732" lon="7.11146">
        <ele>918.2</ele>
        <time>2009-09-27T09:26:31Z</time>
      </trkpt>
      <trkpt lat="48.09722" lon="7.11147">
        <ele>920.12</ele>
        <time>2009-09-27T09:26:36Z</time>
      </trkpt>
      <trkpt lat="48.09695" lon="7.11153">
        <ele>920.6</ele>
        <time>2009-09-27T09:26:49Z</time>
      </trkpt>
      <trkpt lat="48.09688" lon="7.11154">
        <ele>922.04</ele>
        <time>2009-09-27T09:26:52Z</time>
      </trkpt>
      <trkpt lat="48.09655" lon="7.11158">
        <ele>923</ele>
        <time>2009-09-27T09:27:06Z</time>
      </trkpt>
      <trkpt lat="48.0962" lon="7.11157">
        <ele>923.96</ele>
        <time>2009-09-27T09:27:18Z</time>
      </trkpt>
      <trkpt lat="48.09571" lon="7.1115">
        <ele>923.48</ele>
        <time>2009-09-27T09:27:32Z</time>
      </trkpt>
      <trkpt lat="48.0952" lon="7.11149">
        <ele>922.52</ele>
        <time>2009-09-27T09:27:45Z</time>
      </trkpt>
      <trkpt lat="48.09468" lon="7.11158">
        <ele>923</ele>
        <time>2009-09-27T09:27:59Z</time>
      </trkpt>
      <trkpt lat="48.09415" lon="7.11163">
        <ele>924.45</ele>
        <time>2009-09-27T09:28:14Z</time>
      </trkpt>
      <trkpt lat="48.09383" lon="7.11151">
        <ele>927.81</ele>
        <time>2009-09-27T09:28:27Z</time>
      </trkpt>
      <trkpt lat="48.09376" lon="7.11144">
        <ele>929.25</ele>
        <time>2009-09-27T09:28:31Z</time>
      </trkpt>
      <trkpt lat="48.09352" lon="7.11129">
        <ele>931.65</ele>
        <time>2009-09-27T09:28:45Z</time>
      </trkpt>
      <trkpt lat="48.09327" lon="7.11127">
        <ele>934.54</ele>
        <time>2009-09-27T09:28:59Z</time>
      </trkpt>
      <trkpt lat="48.09314" lon="7.11132">
        <ele>935.98</ele>
        <time>2009-09-27T09:29:07Z</time>
      </trkpt>
      <trkpt lat="48.09296" lon="7.11129">
        <ele>937.9</ele>
        <time>2009-09-27T09:29:19Z</time>
      </trkpt>
      <trkpt lat="48.09286" lon="7.11124">
        <ele>939.35</ele>
        <time>2009-09-27T09:29:27Z</time>
      </trkpt>
      <trkpt lat="48.09284" lon="7.11124">
        <ele>940.31</ele>
        <time>2009-09-27T09:29:28Z</time>
      </trkpt>
      <trkpt lat="48.09283" lon="7.11124">
        <ele>940.31</ele>
        <time>2009-09-27T09:29:29Z</time>
      </trkpt>
      <trkpt lat="48.09281" lon="7.11124">
        <ele>939.83</ele>
        <time>2009-09-27T09:29:30Z</time>
      </trkpt>
      <trkpt lat="48.0928" lon="7.11124">
        <ele>940.31</ele>
        <time>2009-09-27T09:29:31Z</time>
      </trkpt>
      <trkpt lat="48.09278" lon="7.11124">
        <ele>940.79</ele>
        <time>2009-09-27T09:29:32Z</time>
      </trkpt>
      <trkpt lat="48.09277" lon="7.11123">
        <ele>941.27</ele>
        <time>2009-09-27T09:29:33Z</time>
      </trkpt>
      <trkpt lat="48.09275" lon="7.11123">
        <ele>941.75</ele>
        <time>2009-09-27T09:29:34Z</time>
      </trkpt>
      <trkpt lat="48.09274" lon="7.11124">
        <ele>941.27</ele>
        <time>2009-09-27T09:29:35Z</time>
      </trkpt>
      <trkpt lat="48.09258" lon="7.11128">
        <ele>943.67</ele>
        <time>2009-09-27T09:29:46Z</time>
      </trkpt>
      <trkpt lat="48.09252" lon="7.11133">
        <ele>944.63</ele>
        <time>2009-09-27T09:29:50Z</time>
      </trkpt>
      <trkpt lat="48.09231" lon="7.11154">
        <ele>945.11</ele>
        <time>2009-09-27T09:30:02Z</time>
      </trkpt>
      <trkpt lat="48.09221" lon="7.11169">
        <ele>945.59</ele>
        <time>2009-09-27T09:30:08Z</time>
      </trkpt>
      <trkpt lat="48.09221" lon="7.1117">
        <ele>945.11</ele>
        <time>2009-09-27T09:30:09Z</time>
      </trkpt>
      <trkpt lat="48.09213" lon="7.11179">
        <ele>946.56</ele>
        <time>2009-09-27T09:30:14Z</time>
      </trkpt>
      <trkpt lat="48.09193" lon="7.11202">
        <ele>947.52</ele>
        <time>2009-09-27T09:30:26Z</time>
      </trkpt>
      <trkpt lat="48.09188" lon="7.11207">
        <ele>948</ele>
        <time>2009-09-27T09:30:29Z</time>
      </trkpt>
      <trkpt lat="48.09186" lon="7.11207">
        <ele>948</ele>
        <time>2009-09-27T09:30:30Z</time>
      </trkpt>
      <trkpt lat="48.09184" lon="7.11208">
        <ele>948</ele>
        <time>2009-09-27T09:30:31Z</time>
      </trkpt>
      <trkpt lat="48.09182" lon="7.1121">
        <ele>948.48</ele>
        <time>2009-09-27T09:30:32Z</time>
      </trkpt>
      <trkpt lat="48.09181" lon="7.11211">
        <ele>948.96</ele>
        <time>2009-09-27T09:30:33Z</time>
      </trkpt>
      <trkpt lat="48.09179" lon="7.11212">
        <ele>948.48</ele>
        <time>2009-09-27T09:30:34Z</time>
      </trkpt>
      <trkpt lat="48.09178" lon="7.11214">
        <ele>948</ele>
        <time>2009-09-27T09:30:35Z</time>
      </trkpt>
      <trkpt lat="48.09176" lon="7.11215">
        <ele>948.96</ele>
        <time>2009-09-27T09:30:36Z</time>
      </trkpt>
      <trkpt lat="48.09175" lon="7.11217">
        <ele>949.92</ele>
        <time>2009-09-27T09:30:37Z</time>
      </trkpt>
      <trkpt lat="48.09173" lon="7.11219">
        <ele>949.44</ele>
        <time>2009-09-27T09:30:38Z</time>
      </trkpt>
      <trkpt lat="48.09168" lon="7.11225">
        <ele>950.88</ele>
        <time>2009-09-27T09:30:41Z</time>
      </trkpt>
      <trkpt lat="48.0915" lon="7.11236">
        <ele>952.8</ele>
        <time>2009-09-27T09:30:52Z</time>
      </trkpt>
      <trkpt lat="48.09123" lon="7.1123">
        <ele>954.25</ele>
        <time>2009-09-27T09:31:05Z</time>
      </trkpt>
      <trkpt lat="48.09113" lon="7.1122">
        <ele>954.73</ele>
        <time>2009-09-27T09:31:11Z</time>
      </trkpt>
      <trkpt lat="48.0911" lon="7.11219">
        <ele>953.77</ele>
        <time>2009-09-27T09:31:12Z</time>
      </trkpt>
      <trkpt lat="48.09107" lon="7.11218">
        <ele>955.21</ele>
        <time>2009-09-27T09:31:13Z</time>
      </trkpt>
      <trkpt lat="48.09104" lon="7.11219">
        <ele>953.77</ele>
        <time>2009-09-27T09:31:14Z</time>
      </trkpt>
      <trkpt lat="48.09101" lon="7.1122">
        <ele>954.25</ele>
        <time>2009-09-27T09:31:15Z</time>
      </trkpt>
      <trkpt lat="48.09098" lon="7.1122">
        <ele>954.25</ele>
        <time>2009-09-27T09:31:16Z</time>
      </trkpt>
      <trkpt lat="48.09095" lon="7.11221">
        <ele>953.77</ele>
        <time>2009-09-27T09:31:17Z</time>
      </trkpt>
      <trkpt lat="48.09091" lon="7.11222">
        <ele>954.73</ele>
        <time>2009-09-27T09:31:18Z</time>
      </trkpt>
      <trkpt lat="48.09088" lon="7.11223">
        <ele>955.21</ele>
        <time>2009-09-27T09:31:19Z</time>
      </trkpt>
      <trkpt lat="48.09086" lon="7.11223">
        <ele>954.25</ele>
        <time>2009-09-27T09:31:20Z</time>
      </trkpt>
      <trkpt lat="48.09083" lon="7.11223">
        <ele>953.77</ele>
        <time>2009-09-27T09:31:21Z</time>
      </trkpt>
      <trkpt lat="48.09079" lon="7.11224">
        <ele>953.77</ele>
        <time>2009-09-27T09:31:22Z</time>
      </trkpt>
      <trkpt lat="48.09076" lon="7.11224">
        <ele>953.28</ele>
        <time>2009-09-27T09:31:23Z</time>
      </trkpt>
      <trkpt lat="48.09072" lon="7.11223">
        <ele>953.28</ele>
        <time>2009-09-27T09:31:24Z</time>
      </trkpt>
      <trkpt lat="48.09068" lon="7.1122">
        <ele>952.8</ele>
        <time>2009-09-27T09:31:25Z</time>
      </trkpt>
      <trkpt lat="48.09065" lon="7.11216">
        <ele>953.28</ele>
        <time>2009-09-27T09:31:26Z</time>
      </trkpt>
      <trkpt lat="48.09062" lon="7.1121">
        <ele>952.8</ele>
        <time>2009-09-27T09:31:27Z</time>
      </trkpt>
      <trkpt lat="48.09059" lon="7.11206">
        <ele>952.32</ele>
        <time>2009-09-27T09:31:28Z</time>
      </trkpt>
      <trkpt lat="48.09056" lon="7.11202">
        <ele>952.8</ele>
        <time>2009-09-27T09:31:29Z</time>
      </trkpt>
      <trkpt lat="48.09053" lon="7.11199">
        <ele>951.84</ele>
        <time>2009-09-27T09:31:30Z</time>
      </trkpt>
      <trkpt lat="48.09051" lon="7.11197">
        <ele>952.32</ele>
        <time>2009-09-27T09:31:31Z</time>
      </trkpt>
      <trkpt lat="48.09049" lon="7.11198">
        <ele>950.88</ele>
        <time>2009-09-27T09:31:32Z</time>
      </trkpt>
      <trkpt lat="48.09046" lon="7.112">
        <ele>950.4</ele>
        <time>2009-09-27T09:31:33Z</time>
      </trkpt>
      <trkpt lat="48.09044" lon="7.11202">
        <ele>950.88</ele>
        <time>2009-09-27T09:31:34Z</time>
      </trkpt>
      <trkpt lat="48.09041" lon="7.11204">
        <ele>950.88</ele>
        <time>2009-09-27T09:31:35Z</time>
      </trkpt>
      <trkpt lat="48.09039" lon="7.11206">
        <ele>950.4</ele>
        <time>2009-09-27T09:31:36Z</time>
      </trkpt>
      <trkpt lat="48.09038" lon="7.11208">
        <ele>948.96</ele>
        <time>2009-09-27T09:31:37Z</time>
      </trkpt>
      <trkpt lat="48.09036" lon="7.11211">
        <ele>948.96</ele>
        <time>2009-09-27T09:31:38Z</time>
      </trkpt>
      <trkpt lat="48.09026" lon="7.11224">
        <ele>948.48</ele>
        <time>2009-09-27T09:31:41Z</time>
      </trkpt>
      <trkpt lat="48.09021" lon="7.11229">
        <ele>947.52</ele>
        <time>2009-09-27T09:31:42Z</time>
      </trkpt>
      <trkpt lat="48.09017" lon="7.11235">
        <ele>947.52</ele>
        <time>2009-09-27T09:31:43Z</time>
      </trkpt>
      <trkpt lat="48.09014" lon="7.1124">
        <ele>946.07</ele>
        <time>2009-09-27T09:31:44Z</time>
      </trkpt>
      <trkpt lat="48.09011" lon="7.11245">
        <ele>946.56</ele>
        <time>2009-09-27T09:31:45Z</time>
      </trkpt>
      <trkpt lat="48.09009" lon="7.11249">
        <ele>945.59</ele>
        <time>2009-09-27T09:31:46Z</time>
      </trkpt>
      <trkpt lat="48.09005" lon="7.11254">
        <ele>944.15</ele>
        <time>2009-09-27T09:31:48Z</time>
      </trkpt>
      <trkpt lat="48.08995" lon="7.11265">
        <ele>942.23</ele>
        <time>2009-09-27T09:31:54Z</time>
      </trkpt>
      <trkpt lat="48.08989" lon="7.11281">
        <ele>939.35</ele>
        <time>2009-09-27T09:31:58Z</time>
      </trkpt>
      <trkpt lat="48.08988" lon="7.11284">
        <ele>940.31</ele>
        <time>2009-09-27T09:31:59Z</time>
      </trkpt>
      <trkpt lat="48.08987" lon="7.11287">
        <ele>938.38</ele>
        <time>2009-09-27T09:32:00Z</time>
      </trkpt>
      <trkpt lat="48.08985" lon="7.1129">
        <ele>937.9</ele>
        <time>2009-09-27T09:32:01Z</time>
      </trkpt>
      <trkpt lat="48.08984" lon="7.11293">
        <ele>937.9</ele>
        <time>2009-09-27T09:32:02Z</time>
      </trkpt>
      <trkpt lat="48.08983" lon="7.11295">
        <ele>936.94</ele>
        <time>2009-09-27T09:32:03Z</time>
      </trkpt>
      <trkpt lat="48.08982" lon="7.11297">
        <ele>936.46</ele>
        <time>2009-09-27T09:32:04Z</time>
      </trkpt>
      <trkpt lat="48.08981" lon="7.113">
        <ele>936.46</ele>
        <time>2009-09-27T09:32:05Z</time>
      </trkpt>
      <trkpt lat="48.0898" lon="7.11305">
        <ele>934.06</ele>
        <time>2009-09-27T09:32:07Z</time>
      </trkpt>
      <trkpt lat="48.08979" lon="7.11307">
        <ele>934.54</ele>
        <time>2009-09-27T09:32:08Z</time>
      </trkpt>
      <trkpt lat="48.08978" lon="7.1131">
        <ele>933.1</ele>
        <time>2009-09-27T09:32:09Z</time>
      </trkpt>
      <trkpt lat="48.08978" lon="7.11314">
        <ele>933.1</ele>
        <time>2009-09-27T09:32:10Z</time>
      </trkpt>
      <trkpt lat="48.08977" lon="7.11317">
        <ele>933.58</ele>
        <time>2009-09-27T09:32:11Z</time>
      </trkpt>
      <trkpt lat="48.08976" lon="7.11331">
        <ele>931.17</ele>
        <time>2009-09-27T09:32:16Z</time>
      </trkpt>
      <trkpt lat="48.08974" lon="7.11337">
        <ele>930.69</ele>
        <time>2009-09-27T09:32:17Z</time>
      </trkpt>
      <trkpt lat="48.08972" lon="7.11343">
        <ele>928.77</ele>
        <time>2009-09-27T09:32:18Z</time>
      </trkpt>
      <trkpt lat="48.0897" lon="7.11347">
        <ele>928.29</ele>
        <time>2009-09-27T09:32:19Z</time>
      </trkpt>
      <trkpt lat="48.08968" lon="7.11351">
        <ele>927.33</ele>
        <time>2009-09-27T09:32:20Z</time>
      </trkpt>
      <trkpt lat="48.08967" lon="7.11355">
        <ele>925.89</ele>
        <time>2009-09-27T09:32:21Z</time>
      </trkpt>
      <trkpt lat="48.08965" lon="7.11359">
        <ele>924.93</ele>
        <time>2009-09-27T09:32:22Z</time>
      </trkpt>
      <trkpt lat="48.08964" lon="7.11363">
        <ele>924.93</ele>
        <time>2009-09-27T09:32:23Z</time>
      </trkpt>
      <trkpt lat="48.08957" lon="7.11381">
        <ele>921.56</ele>
        <time>2009-09-27T09:32:27Z</time>
      </trkpt>
      <trkpt lat="48.08956" lon="7.11384">
        <ele>922.04</ele>
        <time>2009-09-27T09:32:28Z</time>
      </trkpt>
      <trkpt lat="48.08954" lon="7.11387">
        <ele>921.56</ele>
        <time>2009-09-27T09:32:29Z</time>
      </trkpt>
      <trkpt lat="48.08952" lon="7.1139">
        <ele>921.56</ele>
        <time>2009-09-27T09:32:30Z</time>
      </trkpt>
      <trkpt lat="48.08951" lon="7.11393">
        <ele>920.12</ele>
        <time>2009-09-27T09:32:31Z</time>
      </trkpt>
      <trkpt lat="48.08949" lon="7.11396">
        <ele>919.64</ele>
        <time>2009-09-27T09:32:32Z</time>
      </trkpt>
      <trkpt lat="48.08948" lon="7.11399">
        <ele>918.2</ele>
        <time>2009-09-27T09:32:33Z</time>
      </trkpt>
      <trkpt lat="48.08946" lon="7.11402">
        <ele>916.27</ele>
        <time>2009-09-27T09:32:34Z</time>
      </trkpt>
      <trkpt lat="48.08944" lon="7.11404">
        <ele>917.72</ele>
        <time>2009-09-27T09:32:35Z</time>
      </trkpt>
      <trkpt lat="48.08941" lon="7.11409">
        <ele>916.75</ele>
        <time>2009-09-27T09:32:37Z</time>
      </trkpt>
      <trkpt lat="48.0894" lon="7.11411">
        <ele>914.83</ele>
        <time>2009-09-27T09:32:38Z</time>
      </trkpt>
      <trkpt lat="48.08939" lon="7.11414">
        <ele>914.35</ele>
        <time>2009-09-27T09:32:39Z</time>
      </trkpt>
      <trkpt lat="48.08938" lon="7.11418">
        <ele>914.83</ele>
        <time>2009-09-27T09:32:40Z</time>
      </trkpt>
      <trkpt lat="48.08937" lon="7.11422">
        <ele>914.35</ele>
        <time>2009-09-27T09:32:41Z</time>
      </trkpt>
      <trkpt lat="48.08935" lon="7.11425">
        <ele>911.95</ele>
        <time>2009-09-27T09:32:42Z</time>
      </trkpt>
      <trkpt lat="48.08933" lon="7.11429">
        <ele>912.43</ele>
        <time>2009-09-27T09:32:43Z</time>
      </trkpt>
      <trkpt lat="48.08931" lon="7.11433">
        <ele>910.99</ele>
        <time>2009-09-27T09:32:44Z</time>
      </trkpt>
      <trkpt lat="48.08929" lon="7.11435">
        <ele>909.54</ele>
        <time>2009-09-27T09:32:45Z</time>
      </trkpt>
      <trkpt lat="48.08924" lon="7.1144">
        <ele>909.54</ele>
        <time>2009-09-27T09:32:46Z</time>
      </trkpt>
      <trkpt lat="48.0892" lon="7.11446">
        <ele>908.58</ele>
        <time>2009-09-27T09:32:47Z</time>
      </trkpt>
      <trkpt lat="48.08916" lon="7.11452">
        <ele>907.62</ele>
        <time>2009-09-27T09:32:48Z</time>
      </trkpt>
      <trkpt lat="48.08904" lon="7.1147">
        <ele>903.78</ele>
        <time>2009-09-27T09:32:51Z</time>
      </trkpt>
      <trkpt lat="48.089" lon="7.11475">
        <ele>902.82</ele>
        <time>2009-09-27T09:32:52Z</time>
      </trkpt>
      <trkpt lat="48.08896" lon="7.11481">
        <ele>902.33</ele>
        <time>2009-09-27T09:32:53Z</time>
      </trkpt>
      <trkpt lat="48.08883" lon="7.11506">
        <ele>898.49</ele>
        <time>2009-09-27T09:32:57Z</time>
      </trkpt>
      <trkpt lat="48.0888" lon="7.11515">
        <ele>897.05</ele>
        <time>2009-09-27T09:32:59Z</time>
      </trkpt>
      <trkpt lat="48.0887" lon="7.11534">
        <ele>894.64</ele>
        <time>2009-09-27T09:33:05Z</time>
      </trkpt>
      <trkpt lat="48.08867" lon="7.11536">
        <ele>894.64</ele>
        <time>2009-09-27T09:33:06Z</time>
      </trkpt>
      <trkpt lat="48.08864" lon="7.11539">
        <ele>893.68</ele>
        <time>2009-09-27T09:33:07Z</time>
      </trkpt>
      <trkpt lat="48.08861" lon="7.1154">
        <ele>893.2</ele>
        <time>2009-09-27T09:33:08Z</time>
      </trkpt>
      <trkpt lat="48.08857" lon="7.11543">
        <ele>892.24</ele>
        <time>2009-09-27T09:33:09Z</time>
      </trkpt>
      <trkpt lat="48.08853" lon="7.11546">
        <ele>893.2</ele>
        <time>2009-09-27T09:33:10Z</time>
      </trkpt>
      <trkpt lat="48.08836" lon="7.11563">
        <ele>889.84</ele>
        <time>2009-09-27T09:33:14Z</time>
      </trkpt>
      <trkpt lat="48.08823" lon="7.11576">
        <ele>887.91</ele>
        <time>2009-09-27T09:33:17Z</time>
      </trkpt>
      <trkpt lat="48.08803" lon="7.11587">
        <ele>885.51</ele>
        <time>2009-09-27T09:33:22Z</time>
      </trkpt>
      <trkpt lat="48.088" lon="7.11589">
        <ele>885.99</ele>
        <time>2009-09-27T09:33:23Z</time>
      </trkpt>
      <trkpt lat="48.08797" lon="7.11591">
        <ele>885.99</ele>
        <time>2009-09-27T09:33:24Z</time>
      </trkpt>
      <trkpt lat="48.08794" lon="7.11595">
        <ele>886.47</ele>
        <time>2009-09-27T09:33:25Z</time>
      </trkpt>
      <trkpt lat="48.08792" lon="7.11597">
        <ele>884.55</ele>
        <time>2009-09-27T09:33:26Z</time>
      </trkpt>
      <trkpt lat="48.0879" lon="7.11599">
        <ele>886.95</ele>
        <time>2009-09-27T09:33:27Z</time>
      </trkpt>
      <trkpt lat="48.08787" lon="7.11602">
        <ele>886.47</ele>
        <time>2009-09-27T09:33:28Z</time>
      </trkpt>
      <trkpt lat="48.08785" lon="7.11606">
        <ele>886.47</ele>
        <time>2009-09-27T09:33:29Z</time>
      </trkpt>
      <trkpt lat="48.08782" lon="7.11609">
        <ele>885.51</ele>
        <time>2009-09-27T09:33:30Z</time>
      </trkpt>
      <trkpt lat="48.08781" lon="7.11614">
        <ele>885.51</ele>
        <time>2009-09-27T09:33:31Z</time>
      </trkpt>
      <trkpt lat="48.08781" lon="7.11617">
        <ele>885.99</ele>
        <time>2009-09-27T09:33:32Z</time>
      </trkpt>
      <trkpt lat="48.0878" lon="7.11619">
        <ele>885.51</ele>
        <time>2009-09-27T09:33:33Z</time>
      </trkpt>
      <trkpt lat="48.08779" lon="7.11622">
        <ele>886.95</ele>
        <time>2009-09-27T09:33:34Z</time>
      </trkpt>
      <trkpt lat="48.08778" lon="7.11623">
        <ele>886.47</ele>
        <time>2009-09-27T09:33:35Z</time>
      </trkpt>
      <trkpt lat="48.08777" lon="7.11624">
        <ele>886.47</ele>
        <time>2009-09-27T09:33:36Z</time>
      </trkpt>
      <trkpt lat="48.08775" lon="7.11627">
        <ele>885.99</ele>
        <time>2009-09-27T09:33:37Z</time>
      </trkpt>
      <trkpt lat="48.08753" lon="7.11648">
        <ele>886.95</ele>
        <time>2009-09-27T09:33:46Z</time>
      </trkpt>
      <trkpt lat="48.08728" lon="7.11683">
        <ele>886.95</ele>
        <time>2009-09-27T09:33:58Z</time>
      </trkpt>
      <trkpt lat="48.08705" lon="7.11711">
        <ele>890.32</ele>
        <time>2009-09-27T09:34:09Z</time>
      </trkpt>
      <trkpt lat="48.08696" lon="7.11723">
        <ele>889.36</ele>
        <time>2009-09-27T09:34:14Z</time>
      </trkpt>
      <trkpt lat="48.08694" lon="7.11724">
        <ele>890.8</ele>
        <time>2009-09-27T09:34:15Z</time>
      </trkpt>
      <trkpt lat="48.08692" lon="7.11725">
        <ele>889.84</ele>
        <time>2009-09-27T09:34:16Z</time>
      </trkpt>
      <trkpt lat="48.0869" lon="7.11725">
        <ele>889.84</ele>
        <time>2009-09-27T09:34:17Z</time>
      </trkpt>
      <trkpt lat="48.08688" lon="7.11725">
        <ele>889.84</ele>
        <time>2009-09-27T09:34:18Z</time>
      </trkpt>
      <trkpt lat="48.0868" lon="7.1173">
        <ele>890.32</ele>
        <time>2009-09-27T09:34:25Z</time>
      </trkpt>
      <trkpt lat="48.0867" lon="7.1173">
        <ele>892.24</ele>
        <time>2009-09-27T09:34:32Z</time>
      </trkpt>
      <trkpt lat="48.08667" lon="7.1173">
        <ele>892.72</ele>
        <time>2009-09-27T09:34:33Z</time>
      </trkpt>
      <trkpt lat="48.08657" lon="7.11733">
        <ele>893.68</ele>
        <time>2009-09-27T09:34:37Z</time>
      </trkpt>
      <trkpt lat="48.08655" lon="7.11734">
        <ele>893.2</ele>
        <time>2009-09-27T09:34:38Z</time>
      </trkpt>
      <trkpt lat="48.08652" lon="7.11735">
        <ele>892.72</ele>
        <time>2009-09-27T09:34:39Z</time>
      </trkpt>
      <trkpt lat="48.0865" lon="7.11735">
        <ele>894.64</ele>
        <time>2009-09-27T09:34:40Z</time>
      </trkpt>
      <trkpt lat="48.08649" lon="7.11736">
        <ele>894.16</ele>
        <time>2009-09-27T09:34:41Z</time>
      </trkpt>
      <trkpt lat="48.08648" lon="7.11738">
        <ele>894.64</ele>
        <time>2009-09-27T09:34:42Z</time>
      </trkpt>
      <trkpt lat="48.08647" lon="7.11739">
        <ele>894.64</ele>
        <time>2009-09-27T09:34:43Z</time>
      </trkpt>
      <trkpt lat="48.08647" lon="7.1174">
        <ele>894.64</ele>
        <time>2009-09-27T09:34:44Z</time>
      </trkpt>
      <trkpt lat="48.08646" lon="7.11741">
        <ele>894.64</ele>
        <time>2009-09-27T09:34:45Z</time>
      </trkpt>
      <trkpt lat="48.08641" lon="7.11745">
        <ele>895.12</ele>
        <time>2009-09-27T09:34:49Z</time>
      </trkpt>
      <trkpt lat="48.08635" lon="7.11751">
        <ele>894.64</ele>
        <time>2009-09-27T09:34:52Z</time>
      </trkpt>
      <trkpt lat="48.08634" lon="7.11754">
        <ele>895.12</ele>
        <time>2009-09-27T09:34:53Z</time>
      </trkpt>
      <trkpt lat="48.08633" lon="7.11756">
        <ele>896.57</ele>
        <time>2009-09-27T09:34:54Z</time>
      </trkpt>
      <trkpt lat="48.08632" lon="7.11758">
        <ele>896.09</ele>
        <time>2009-09-27T09:34:55Z</time>
      </trkpt>
      <trkpt lat="48.0863" lon="7.11759">
        <ele>896.09</ele>
        <time>2009-09-27T09:34:56Z</time>
      </trkpt>
      <trkpt lat="48.08629" lon="7.11761">
        <ele>897.05</ele>
        <time>2009-09-27T09:34:57Z</time>
      </trkpt>
      <trkpt lat="48.08626" lon="7.11763">
        <ele>898.01</ele>
        <time>2009-09-27T09:34:58Z</time>
      </trkpt>
      <trkpt lat="48.08619" lon="7.11778">
        <ele>899.45</ele>
        <time>2009-09-27T09:35:05Z</time>
      </trkpt>
      <trkpt lat="48.08617" lon="7.11779">
        <ele>899.45</ele>
        <time>2009-09-27T09:35:06Z</time>
      </trkpt>
      <trkpt lat="48.08601" lon="7.11799">
        <ele>898.97</ele>
        <time>2009-09-27T09:35:15Z</time>
      </trkpt>
      <trkpt lat="48.08592" lon="7.11809">
        <ele>901.85</ele>
        <time>2009-09-27T09:35:22Z</time>
      </trkpt>
      <trkpt lat="48.08583" lon="7.11815">
        <ele>904.26</ele>
        <time>2009-09-27T09:35:30Z</time>
      </trkpt>
      <trkpt lat="48.08581" lon="7.11816">
        <ele>903.3</ele>
        <time>2009-09-27T09:35:32Z</time>
      </trkpt>
      <trkpt lat="48.0858" lon="7.11819">
        <ele>904.74</ele>
        <time>2009-09-27T09:35:34Z</time>
      </trkpt>
      <trkpt lat="48.08573" lon="7.11824">
        <ele>906.18</ele>
        <time>2009-09-27T09:35:40Z</time>
      </trkpt>
      <trkpt lat="48.08566" lon="7.11825">
        <ele>907.14</ele>
        <time>2009-09-27T09:35:43Z</time>
      </trkpt>
      <trkpt lat="48.08565" lon="7.11827">
        <ele>907.14</ele>
        <time>2009-09-27T09:35:45Z</time>
      </trkpt>
      <trkpt lat="48.08563" lon="7.11829">
        <ele>908.1</ele>
        <time>2009-09-27T09:35:47Z</time>
      </trkpt>
      <trkpt lat="48.0856" lon="7.11831">
        <ele>909.54</ele>
        <time>2009-09-27T09:35:50Z</time>
      </trkpt>
      <trkpt lat="48.08549" lon="7.11837">
        <ele>910.99</ele>
        <time>2009-09-27T09:35:56Z</time>
      </trkpt>
      <trkpt lat="48.08546" lon="7.11839">
        <ele>911.95</ele>
        <time>2009-09-27T09:35:58Z</time>
      </trkpt>
      <trkpt lat="48.08544" lon="7.11842">
        <ele>911.95</ele>
        <time>2009-09-27T09:36:01Z</time>
      </trkpt>
      <trkpt lat="48.08534" lon="7.11855">
        <ele>914.35</ele>
        <time>2009-09-27T09:36:12Z</time>
      </trkpt>
      <trkpt lat="48.08516" lon="7.11858">
        <ele>914.35</ele>
        <time>2009-09-27T09:36:17Z</time>
      </trkpt>
      <trkpt lat="48.08509" lon="7.11861">
        <ele>917.24</ele>
        <time>2009-09-27T09:36:20Z</time>
      </trkpt>
      <trkpt lat="48.08502" lon="7.11864">
        <ele>917.24</ele>
        <time>2009-09-27T09:36:24Z</time>
      </trkpt>
      <trkpt lat="48.08493" lon="7.11868">
        <ele>919.16</ele>
        <time>2009-09-27T09:36:29Z</time>
      </trkpt>
      <trkpt lat="48.08494" lon="7.11875">
        <ele>920.6</ele>
        <time>2009-09-27T09:36:34Z</time>
      </trkpt>
      <trkpt lat="48.08488" lon="7.11881">
        <ele>920.12</ele>
        <time>2009-09-27T09:36:38Z</time>
      </trkpt>
      <trkpt lat="48.08483" lon="7.11887">
        <ele>922.04</ele>
        <time>2009-09-27T09:36:43Z</time>
      </trkpt>
      <trkpt lat="48.08479" lon="7.11892">
        <ele>921.56</ele>
        <time>2009-09-27T09:36:46Z</time>
      </trkpt>
      <trkpt lat="48.08466" lon="7.11908">
        <ele>922.04</ele>
        <time>2009-09-27T09:36:53Z</time>
      </trkpt>
      <trkpt lat="48.0845" lon="7.11913">
        <ele>923.48</ele>
        <time>2009-09-27T09:36:56Z</time>
      </trkpt>
      <trkpt lat="48.08444" lon="7.11923">
        <ele>923</ele>
        <time>2009-09-27T09:37:00Z</time>
      </trkpt>
      <trkpt lat="48.08443" lon="7.11925">
        <ele>923.96</ele>
        <time>2009-09-27T09:37:01Z</time>
      </trkpt>
      <trkpt lat="48.0844" lon="7.11927">
        <ele>924.45</ele>
        <time>2009-09-27T09:37:02Z</time>
      </trkpt>
      <trkpt lat="48.0843" lon="7.11934">
        <ele>924.45</ele>
        <time>2009-09-27T09:37:06Z</time>
      </trkpt>
      <trkpt lat="48.08428" lon="7.11938">
        <ele>924.93</ele>
        <time>2009-09-27T09:37:07Z</time>
      </trkpt>
      <trkpt lat="48.08427" lon="7.11941">
        <ele>926.85</ele>
        <time>2009-09-27T09:37:08Z</time>
      </trkpt>
      <trkpt lat="48.08428" lon="7.11945">
        <ele>926.37</ele>
        <time>2009-09-27T09:37:09Z</time>
      </trkpt>
      <trkpt lat="48.08426" lon="7.11947">
        <ele>926.85</ele>
        <time>2009-09-27T09:37:10Z</time>
      </trkpt>
      <trkpt lat="48.08426" lon="7.1195">
        <ele>927.33</ele>
        <time>2009-09-27T09:37:11Z</time>
      </trkpt>
      <trkpt lat="48.08424" lon="7.11952">
        <ele>926.37</ele>
        <time>2009-09-27T09:37:12Z</time>
      </trkpt>
      <trkpt lat="48.08425" lon="7.11955">
        <ele>926.37</ele>
        <time>2009-09-27T09:37:13Z</time>
      </trkpt>
      <trkpt lat="48.08426" lon="7.11957">
        <ele>927.81</ele>
        <time>2009-09-27T09:37:14Z</time>
      </trkpt>
      <trkpt lat="48.08427" lon="7.11959">
        <ele>927.33</ele>
        <time>2009-09-27T09:37:15Z</time>
      </trkpt>
      <trkpt lat="48.08429" lon="7.11962">
        <ele>928.77</ele>
        <time>2009-09-27T09:37:16Z</time>
      </trkpt>
      <trkpt lat="48.08431" lon="7.11965">
        <ele>925.89</ele>
        <time>2009-09-27T09:37:17Z</time>
      </trkpt>
      <trkpt lat="48.08432" lon="7.11967">
        <ele>927.33</ele>
        <time>2009-09-27T09:37:18Z</time>
      </trkpt>
      <trkpt lat="48.08432" lon="7.1197">
        <ele>927.81</ele>
        <time>2009-09-27T09:37:19Z</time>
      </trkpt>
      <trkpt lat="48.08432" lon="7.11972">
        <ele>928.29</ele>
        <time>2009-09-27T09:37:20Z</time>
      </trkpt>
      <trkpt lat="48.08432" lon="7.11974">
        <ele>927.81</ele>
        <time>2009-09-27T09:37:21Z</time>
      </trkpt>
      <trkpt lat="48.08431" lon="7.11976">
        <ele>928.77</ele>
        <time>2009-09-27T09:37:22Z</time>
      </trkpt>
      <trkpt lat="48.08431" lon="7.11979">
        <ele>929.25</ele>
        <time>2009-09-27T09:37:23Z</time>
      </trkpt>
      <trkpt lat="48.08431" lon="7.11981">
        <ele>928.77</ele>
        <time>2009-09-27T09:37:24Z</time>
      </trkpt>
      <trkpt lat="48.0843" lon="7.11983">
        <ele>928.77</ele>
        <time>2009-09-27T09:37:25Z</time>
      </trkpt>
      <trkpt lat="48.08429" lon="7.11986">
        <ele>930.21</ele>
        <time>2009-09-27T09:37:26Z</time>
      </trkpt>
      <trkpt lat="48.08427" lon="7.11988">
        <ele>929.73</ele>
        <time>2009-09-27T09:37:27Z</time>
      </trkpt>
      <trkpt lat="48.08407" lon="7.12003">
        <ele>931.17</ele>
        <time>2009-09-27T09:37:36Z</time>
      </trkpt>
      <trkpt lat="48.08407" lon="7.12006">
        <ele>932.62</ele>
        <time>2009-09-27T09:37:37Z</time>
      </trkpt>
      <trkpt lat="48.08407" lon="7.12009">
        <ele>934.06</ele>
        <time>2009-09-27T09:37:38Z</time>
      </trkpt>
      <trkpt lat="48.08397" lon="7.12018">
        <ele>934.54</ele>
        <time>2009-09-27T09:37:43Z</time>
      </trkpt>
      <trkpt lat="48.08396" lon="7.12024">
        <ele>934.06</ele>
        <time>2009-09-27T09:37:46Z</time>
      </trkpt>
      <trkpt lat="48.08395" lon="7.12025">
        <ele>934.06</ele>
        <time>2009-09-27T09:37:47Z</time>
      </trkpt>
      <trkpt lat="48.08389" lon="7.12029">
        <ele>936.46</ele>
        <time>2009-09-27T09:37:50Z</time>
      </trkpt>
      <trkpt lat="48.08384" lon="7.12029">
        <ele>936.46</ele>
        <time>2009-09-27T09:37:51Z</time>
      </trkpt>
      <trkpt lat="48.08381" lon="7.12031">
        <ele>936.94</ele>
        <time>2009-09-27T09:37:52Z</time>
      </trkpt>
      <trkpt lat="48.0838" lon="7.12032">
        <ele>936.94</ele>
        <time>2009-09-27T09:37:53Z</time>
      </trkpt>
      <trkpt lat="48.08379" lon="7.12034">
        <ele>937.42</ele>
        <time>2009-09-27T09:37:54Z</time>
      </trkpt>
      <trkpt lat="48.08378" lon="7.12036">
        <ele>936.94</ele>
        <time>2009-09-27T09:37:55Z</time>
      </trkpt>
      <trkpt lat="48.08367" lon="7.12052">
        <ele>938.86</ele>
        <time>2009-09-27T09:38:03Z</time>
      </trkpt>
      <trkpt lat="48.08361" lon="7.1206">
        <ele>941.75</ele>
        <time>2009-09-27T09:38:09Z</time>
      </trkpt>
      <trkpt lat="48.08352" lon="7.12071">
        <ele>941.75</ele>
        <time>2009-09-27T09:38:17Z</time>
      </trkpt>
      <trkpt lat="48.0835" lon="7.12076">
        <ele>942.71</ele>
        <time>2009-09-27T09:38:21Z</time>
      </trkpt>
      <trkpt lat="48.08347" lon="7.1208">
        <ele>944.15</ele>
        <time>2009-09-27T09:38:24Z</time>
      </trkpt>
      <trkpt lat="48.08331" lon="7.12085">
        <ele>943.19</ele>
        <time>2009-09-27T09:38:31Z</time>
      </trkpt>
      <trkpt lat="48.08325" lon="7.12087">
        <ele>945.11</ele>
        <time>2009-09-27T09:38:35Z</time>
      </trkpt>
      <trkpt lat="48.08323" lon="7.12088">
        <ele>943.19</ele>
        <time>2009-09-27T09:38:36Z</time>
      </trkpt>
      <trkpt lat="48.08316" lon="7.12091">
        <ele>942.71</ele>
        <time>2009-09-27T09:38:39Z</time>
      </trkpt>
      <trkpt lat="48.08309" lon="7.12095">
        <ele>942.71</ele>
        <time>2009-09-27T09:38:43Z</time>
      </trkpt>
      <trkpt lat="48.08298" lon="7.12101">
        <ele>942.23</ele>
        <time>2009-09-27T09:38:47Z</time>
      </trkpt>
      <trkpt lat="48.08288" lon="7.12105">
        <ele>943.19</ele>
        <time>2009-09-27T09:38:52Z</time>
      </trkpt>
      <trkpt lat="48.08289" lon="7.12105">
        <ele>942.71</ele>
        <time>2009-09-27T09:38:53Z</time>
      </trkpt>
      <trkpt lat="48.0829" lon="7.12107">
        <ele>942.23</ele>
        <time>2009-09-27T09:38:55Z</time>
      </trkpt>
      <trkpt lat="48.0828" lon="7.12111">
        <ele>942.71</ele>
        <time>2009-09-27T09:39:01Z</time>
      </trkpt>
      <trkpt lat="48.08268" lon="7.12118">
        <ele>944.15</ele>
        <time>2009-09-27T09:39:04Z</time>
      </trkpt>
      <trkpt lat="48.08263" lon="7.12121">
        <ele>943.67</ele>
        <time>2009-09-27T09:39:05Z</time>
      </trkpt>
      <trkpt lat="48.08255" lon="7.12128">
        <ele>944.15</ele>
        <time>2009-09-27T09:39:07Z</time>
      </trkpt>
      <trkpt lat="48.0825" lon="7.12131">
        <ele>944.63</ele>
        <time>2009-09-27T09:39:08Z</time>
      </trkpt>
      <trkpt lat="48.08246" lon="7.12133">
        <ele>945.11</ele>
        <time>2009-09-27T09:39:09Z</time>
      </trkpt>
      <trkpt lat="48.08225" lon="7.12147">
        <ele>946.07</ele>
        <time>2009-09-27T09:39:15Z</time>
      </trkpt>
      <trkpt lat="48.08214" lon="7.12152">
        <ele>947.04</ele>
        <time>2009-09-27T09:39:19Z</time>
      </trkpt>
      <trkpt lat="48.08183" lon="7.12179">
        <ele>947.04</ele>
        <time>2009-09-27T09:39:29Z</time>
      </trkpt>
      <trkpt lat="48.08179" lon="7.12182">
        <ele>946.56</ele>
        <time>2009-09-27T09:39:30Z</time>
      </trkpt>
      <trkpt lat="48.08175" lon="7.12184">
        <ele>945.11</ele>
        <time>2009-09-27T09:39:31Z</time>
      </trkpt>
      <trkpt lat="48.08171" lon="7.12186">
        <ele>945.11</ele>
        <time>2009-09-27T09:39:32Z</time>
      </trkpt>
      <trkpt lat="48.08126" lon="7.12215">
        <ele>943.67</ele>
        <time>2009-09-27T09:39:44Z</time>
      </trkpt>
      <trkpt lat="48.08122" lon="7.12219">
        <ele>946.56</ele>
        <time>2009-09-27T09:39:46Z</time>
      </trkpt>
      <trkpt lat="48.08117" lon="7.12221">
        <ele>943.67</ele>
        <time>2009-09-27T09:39:48Z</time>
      </trkpt>
      <trkpt lat="48.0811" lon="7.12222">
        <ele>944.15</ele>
        <time>2009-09-27T09:39:57Z</time>
      </trkpt>
      <trkpt lat="48.08106" lon="7.12222">
        <ele>943.67</ele>
        <time>2009-09-27T09:40:07Z</time>
      </trkpt>
      <trkpt lat="48.08104" lon="7.12224">
        <ele>941.75</ele>
        <time>2009-09-27T09:40:10Z</time>
      </trkpt>
      <trkpt lat="48.08103" lon="7.12226">
        <ele>943.19</ele>
        <time>2009-09-27T09:40:11Z</time>
      </trkpt>
      <trkpt lat="48.08102" lon="7.12227">
        <ele>944.15</ele>
        <time>2009-09-27T09:40:13Z</time>
      </trkpt>
      <trkpt lat="48.08101" lon="7.12227">
        <ele>941.75</ele>
        <time>2009-09-27T09:40:14Z</time>
      </trkpt>
      <trkpt lat="48.081" lon="7.12229">
        <ele>943.19</ele>
        <time>2009-09-27T09:40:15Z</time>
      </trkpt>
      <trkpt lat="48.08098" lon="7.1223">
        <ele>944.15</ele>
        <time>2009-09-27T09:40:16Z</time>
      </trkpt>
      <trkpt lat="48.08097" lon="7.12231">
        <ele>943.67</ele>
        <time>2009-09-27T09:40:17Z</time>
      </trkpt>
      <trkpt lat="48.08096" lon="7.12232">
        <ele>943.19</ele>
        <time>2009-09-27T09:40:18Z</time>
      </trkpt>
      <trkpt lat="48.08095" lon="7.12234">
        <ele>943.19</ele>
        <time>2009-09-27T09:40:19Z</time>
      </trkpt>
      <trkpt lat="48.08094" lon="7.12236">
        <ele>943.19</ele>
        <time>2009-09-27T09:40:20Z</time>
      </trkpt>
      <trkpt lat="48.08093" lon="7.12238">
        <ele>944.15</ele>
        <time>2009-09-27T09:40:21Z</time>
      </trkpt>
      <trkpt lat="48.08092" lon="7.12239">
        <ele>943.19</ele>
        <time>2009-09-27T09:40:22Z</time>
      </trkpt>
      <trkpt lat="48.0809" lon="7.12241">
        <ele>944.15</ele>
        <time>2009-09-27T09:40:23Z</time>
      </trkpt>
      <trkpt lat="48.08089" lon="7.12242">
        <ele>944.63</ele>
        <time>2009-09-27T09:40:24Z</time>
      </trkpt>
      <trkpt lat="48.08061" lon="7.12266">
        <ele>944.63</ele>
        <time>2009-09-27T09:40:38Z</time>
      </trkpt>
      <trkpt lat="48.0804" lon="7.12296">
        <ele>943.67</ele>
        <time>2009-09-27T09:40:47Z</time>
      </trkpt>
      <trkpt lat="48.08036" lon="7.12308">
        <ele>945.11</ele>
        <time>2009-09-27T09:40:50Z</time>
      </trkpt>
      <trkpt lat="48.08034" lon="7.12315">
        <ele>945.59</ele>
        <time>2009-09-27T09:40:52Z</time>
      </trkpt>
      <trkpt lat="48.08033" lon="7.12319">
        <ele>947.52</ele>
        <time>2009-09-27T09:40:53Z</time>
      </trkpt>
      <trkpt lat="48.08033" lon="7.12324">
        <ele>945.11</ele>
        <time>2009-09-27T09:40:54Z</time>
      </trkpt>
      <trkpt lat="48.08033" lon="7.1233">
        <ele>945.11</ele>
        <time>2009-09-27T09:40:55Z</time>
      </trkpt>
      <trkpt lat="48.08034" lon="7.12337">
        <ele>946.56</ele>
        <time>2009-09-27T09:40:56Z</time>
      </trkpt>
      <trkpt lat="48.08035" lon="7.12358">
        <ele>943.67</ele>
        <time>2009-09-27T09:40:59Z</time>
      </trkpt>
      <trkpt lat="48.08041" lon="7.1242">
        <ele>943.19</ele>
        <time>2009-09-27T09:41:07Z</time>
      </trkpt>
      <trkpt lat="48.08045" lon="7.12463">
        <ele>940.79</ele>
        <time>2009-09-27T09:41:12Z</time>
      </trkpt>
      <trkpt lat="48.08048" lon="7.12485">
        <ele>939.35</ele>
        <time>2009-09-27T09:41:14Z</time>
      </trkpt>
      <trkpt lat="48.08046" lon="7.12496">
        <ele>938.86</ele>
        <time>2009-09-27T09:41:15Z</time>
      </trkpt>
      <trkpt lat="48.08042" lon="7.12507">
        <ele>937.9</ele>
        <time>2009-09-27T09:41:16Z</time>
      </trkpt>
      <trkpt lat="48.08037" lon="7.12515">
        <ele>938.38</ele>
        <time>2009-09-27T09:41:17Z</time>
      </trkpt>
      <trkpt lat="48.08032" lon="7.12523">
        <ele>938.86</ele>
        <time>2009-09-27T09:41:18Z</time>
      </trkpt>
      <trkpt lat="48.08023" lon="7.12539">
        <ele>935.98</ele>
        <time>2009-09-27T09:41:20Z</time>
      </trkpt>
      <trkpt lat="48.08019" lon="7.12546">
        <ele>935.98</ele>
        <time>2009-09-27T09:41:21Z</time>
      </trkpt>
      <trkpt lat="48.08011" lon="7.12559">
        <ele>937.42</ele>
        <time>2009-09-27T09:41:23Z</time>
      </trkpt>
      <trkpt lat="48.08005" lon="7.12569">
        <ele>935.98</ele>
        <time>2009-09-27T09:41:25Z</time>
      </trkpt>
      <trkpt lat="48.08" lon="7.12577">
        <ele>937.42</ele>
        <time>2009-09-27T09:41:27Z</time>
      </trkpt>
      <trkpt lat="48.07988" lon="7.12589">
        <ele>938.86</ele>
        <time>2009-09-27T09:41:34Z</time>
      </trkpt>
      <trkpt lat="48.07986" lon="7.12589">
        <ele>939.83</ele>
        <time>2009-09-27T09:41:35Z</time>
      </trkpt>
      <trkpt lat="48.07975" lon="7.12597">
        <ele>943.19</ele>
        <time>2009-09-27T09:41:40Z</time>
      </trkpt>
      <trkpt lat="48.07958" lon="7.12621">
        <ele>945.59</ele>
        <time>2009-09-27T09:41:52Z</time>
      </trkpt>
      <trkpt lat="48.07943" lon="7.12625">
        <ele>948.96</ele>
        <time>2009-09-27T09:42:01Z</time>
      </trkpt>
      <trkpt lat="48.07939" lon="7.12624">
        <ele>948</ele>
        <time>2009-09-27T09:42:03Z</time>
      </trkpt>
      <trkpt lat="48.07938" lon="7.12623">
        <ele>948.96</ele>
        <time>2009-09-27T09:42:04Z</time>
      </trkpt>
      <trkpt lat="48.07936" lon="7.12624">
        <ele>948.96</ele>
        <time>2009-09-27T09:42:05Z</time>
      </trkpt>
      <trkpt lat="48.07931" lon="7.12624">
        <ele>950.4</ele>
        <time>2009-09-27T09:42:07Z</time>
      </trkpt>
      <trkpt lat="48.07922" lon="7.12624">
        <ele>951.84</ele>
        <time>2009-09-27T09:42:11Z</time>
      </trkpt>
      <trkpt lat="48.07913" lon="7.12628">
        <ele>953.28</ele>
        <time>2009-09-27T09:42:15Z</time>
      </trkpt>
      <trkpt lat="48.07911" lon="7.12629">
        <ele>953.28</ele>
        <time>2009-09-27T09:42:16Z</time>
      </trkpt>
      <trkpt lat="48.07905" lon="7.12632">
        <ele>954.25</ele>
        <time>2009-09-27T09:42:19Z</time>
      </trkpt>
      <trkpt lat="48.07903" lon="7.12633">
        <ele>953.28</ele>
        <time>2009-09-27T09:42:20Z</time>
      </trkpt>
      <trkpt lat="48.07901" lon="7.12632">
        <ele>954.73</ele>
        <time>2009-09-27T09:42:21Z</time>
      </trkpt>
      <trkpt lat="48.07899" lon="7.12632">
        <ele>954.25</ele>
        <time>2009-09-27T09:42:22Z</time>
      </trkpt>
      <trkpt lat="48.07898" lon="7.12632">
        <ele>953.77</ele>
        <time>2009-09-27T09:42:23Z</time>
      </trkpt>
      <trkpt lat="48.07896" lon="7.12634">
        <ele>954.73</ele>
        <time>2009-09-27T09:42:24Z</time>
      </trkpt>
      <trkpt lat="48.07894" lon="7.12636">
        <ele>954.25</ele>
        <time>2009-09-27T09:42:25Z</time>
      </trkpt>
      <trkpt lat="48.07893" lon="7.12638">
        <ele>955.21</ele>
        <time>2009-09-27T09:42:26Z</time>
      </trkpt>
      <trkpt lat="48.07876" lon="7.12674">
        <ele>955.21</ele>
        <time>2009-09-27T09:42:38Z</time>
      </trkpt>
      <trkpt lat="48.07872" lon="7.12688">
        <ele>953.28</ele>
        <time>2009-09-27T09:42:41Z</time>
      </trkpt>
      <trkpt lat="48.07858" lon="7.12722">
        <ele>952.32</ele>
        <time>2009-09-27T09:42:49Z</time>
      </trkpt>
      <trkpt lat="48.07851" lon="7.12741">
        <ele>949.92</ele>
        <time>2009-09-27T09:42:52Z</time>
      </trkpt>
      <trkpt lat="48.07851" lon="7.12748">
        <ele>950.4</ele>
        <time>2009-09-27T09:42:53Z</time>
      </trkpt>
      <trkpt lat="48.07851" lon="7.12757">
        <ele>950.88</ele>
        <time>2009-09-27T09:42:54Z</time>
      </trkpt>
      <trkpt lat="48.07852" lon="7.12787">
        <ele>947.04</ele>
        <time>2009-09-27T09:42:57Z</time>
      </trkpt>
      <trkpt lat="48.07852" lon="7.12794">
        <ele>946.56</ele>
        <time>2009-09-27T09:42:58Z</time>
      </trkpt>
      <trkpt lat="48.07851" lon="7.12802">
        <ele>946.56</ele>
        <time>2009-09-27T09:43:05Z</time>
      </trkpt>
      <trkpt lat="48.07852" lon="7.12806">
        <ele>947.04</ele>
        <time>2009-09-27T09:43:15Z</time>
      </trkpt>
      <trkpt lat="48.07852" lon="7.12807">
        <ele>947.04</ele>
        <time>2009-09-27T09:43:16Z</time>
      </trkpt>
      <trkpt lat="48.07853" lon="7.12812">
        <ele>944.63</ele>
        <time>2009-09-27T09:43:19Z</time>
      </trkpt>
      <trkpt lat="48.07854" lon="7.12813">
        <ele>945.11</ele>
        <time>2009-09-27T09:43:20Z</time>
      </trkpt>
      <trkpt lat="48.07855" lon="7.12814">
        <ele>943.67</ele>
        <time>2009-09-27T09:43:21Z</time>
      </trkpt>
      <trkpt lat="48.07856" lon="7.12815">
        <ele>945.59</ele>
        <time>2009-09-27T09:43:22Z</time>
      </trkpt>
      <trkpt lat="48.07858" lon="7.12817">
        <ele>945.59</ele>
        <time>2009-09-27T09:43:23Z</time>
      </trkpt>
      <trkpt lat="48.07859" lon="7.12818">
        <ele>946.56</ele>
        <time>2009-09-27T09:43:24Z</time>
      </trkpt>
      <trkpt lat="48.07861" lon="7.12819">
        <ele>946.07</ele>
        <time>2009-09-27T09:43:25Z</time>
      </trkpt>
      <trkpt lat="48.07862" lon="7.12821">
        <ele>945.59</ele>
        <time>2009-09-27T09:43:26Z</time>
      </trkpt>
      <trkpt lat="48.07862" lon="7.12823">
        <ele>946.07</ele>
        <time>2009-09-27T09:43:27Z</time>
      </trkpt>
      <trkpt lat="48.07862" lon="7.12826">
        <ele>947.52</ele>
        <time>2009-09-27T09:43:28Z</time>
      </trkpt>
      <trkpt lat="48.07863" lon="7.12829">
        <ele>947.04</ele>
        <time>2009-09-27T09:43:29Z</time>
      </trkpt>
      <trkpt lat="48.07863" lon="7.12833">
        <ele>946.07</ele>
        <time>2009-09-27T09:43:30Z</time>
      </trkpt>
      <trkpt lat="48.07864" lon="7.12836">
        <ele>946.07</ele>
        <time>2009-09-27T09:43:31Z</time>
      </trkpt>
      <trkpt lat="48.07865" lon="7.12839">
        <ele>947.04</ele>
        <time>2009-09-27T09:43:32Z</time>
      </trkpt>
      <trkpt lat="48.07865" lon="7.12843">
        <ele>948</ele>
        <time>2009-09-27T09:43:33Z</time>
      </trkpt>
      <trkpt lat="48.07877" lon="7.12885">
        <ele>948.96</ele>
        <time>2009-09-27T09:43:47Z</time>
      </trkpt>
      <trkpt lat="48.07887" lon="7.12906">
        <ele>950.4</ele>
        <time>2009-09-27T09:43:55Z</time>
      </trkpt>
      <trkpt lat="48.07909" lon="7.12931">
        <ele>949.44</ele>
        <time>2009-09-27T09:44:06Z</time>
      </trkpt>
      <trkpt lat="48.07923" lon="7.12947">
        <ele>949.44</ele>
        <time>2009-09-27T09:44:13Z</time>
      </trkpt>
      <trkpt lat="48.07923" lon="7.1295">
        <ele>951.36</ele>
        <time>2009-09-27T09:44:14Z</time>
      </trkpt>
      <trkpt lat="48.07922" lon="7.12953">
        <ele>950.88</ele>
        <time>2009-09-27T09:44:15Z</time>
      </trkpt>
      <trkpt lat="48.07916" lon="7.12965">
        <ele>950.88</ele>
        <time>2009-09-27T09:44:19Z</time>
      </trkpt>
      <trkpt lat="48.07914" lon="7.12966">
        <ele>952.8</ele>
        <time>2009-09-27T09:44:20Z</time>
      </trkpt>
      <trkpt lat="48.07911" lon="7.12967">
        <ele>951.84</ele>
        <time>2009-09-27T09:44:21Z</time>
      </trkpt>
      <trkpt lat="48.07908" lon="7.12968">
        <ele>952.32</ele>
        <time>2009-09-27T09:44:22Z</time>
      </trkpt>
      <trkpt lat="48.07907" lon="7.12969">
        <ele>952.8</ele>
        <time>2009-09-27T09:44:23Z</time>
      </trkpt>
      <trkpt lat="48.07906" lon="7.12971">
        <ele>950.88</ele>
        <time>2009-09-27T09:44:24Z</time>
      </trkpt>
      <trkpt lat="48.07904" lon="7.1297">
        <ele>952.32</ele>
        <time>2009-09-27T09:44:25Z</time>
      </trkpt>
      <trkpt lat="48.07903" lon="7.12968">
        <ele>952.32</ele>
        <time>2009-09-27T09:44:26Z</time>
      </trkpt>
      <trkpt lat="48.07902" lon="7.12968">
        <ele>952.8</ele>
        <time>2009-09-27T09:44:27Z</time>
      </trkpt>
      <trkpt lat="48.07901" lon="7.12969">
        <ele>952.32</ele>
        <time>2009-09-27T09:44:28Z</time>
      </trkpt>
      <trkpt lat="48.07903" lon="7.1297">
        <ele>951.84</ele>
        <time>2009-09-27T09:44:30Z</time>
      </trkpt>
      <trkpt lat="48.07904" lon="7.12969">
        <ele>951.36</ele>
        <time>2009-09-27T09:44:31Z</time>
      </trkpt>
      <trkpt lat="48.07906" lon="7.12968">
        <ele>952.32</ele>
        <time>2009-09-27T09:44:32Z</time>
      </trkpt>
      <trkpt lat="48.07907" lon="7.12968">
        <ele>952.8</ele>
        <time>2009-09-27T09:44:33Z</time>
      </trkpt>
      <trkpt lat="48.07908" lon="7.1297">
        <ele>951.84</ele>
        <time>2009-09-27T09:44:34Z</time>
      </trkpt>
      <trkpt lat="48.07906" lon="7.12975">
        <ele>951.84</ele>
        <time>2009-09-27T09:44:36Z</time>
      </trkpt>
      <trkpt lat="48.07902" lon="7.12984">
        <ele>952.32</ele>
        <time>2009-09-27T09:44:39Z</time>
      </trkpt>
      <trkpt lat="48.07889" lon="7.13009">
        <ele>956.17</ele>
        <time>2009-09-27T09:44:48Z</time>
      </trkpt>
      <trkpt lat="48.07873" lon="7.13044">
        <ele>956.17</ele>
        <time>2009-09-27T09:45:02Z</time>
      </trkpt>
      <trkpt lat="48.07858" lon="7.13087">
        <ele>957.61</ele>
        <time>2009-09-27T09:45:14Z</time>
      </trkpt>
      <trkpt lat="48.07836" lon="7.13149">
        <ele>959.53</ele>
        <time>2009-09-27T09:45:27Z</time>
      </trkpt>
      <trkpt lat="48.07827" lon="7.13177">
        <ele>958.57</ele>
        <time>2009-09-27T09:45:33Z</time>
      </trkpt>
      <trkpt lat="48.07825" lon="7.13182">
        <ele>959.53</ele>
        <time>2009-09-27T09:45:35Z</time>
      </trkpt>
      <trkpt lat="48.07823" lon="7.13192">
        <ele>959.53</ele>
        <time>2009-09-27T09:45:39Z</time>
      </trkpt>
      <trkpt lat="48.07811" lon="7.13236">
        <ele>962.42</ele>
        <time>2009-09-27T09:45:52Z</time>
      </trkpt>
      <trkpt lat="48.0781" lon="7.13242">
        <ele>961.94</ele>
        <time>2009-09-27T09:45:54Z</time>
      </trkpt>
      <trkpt lat="48.07815" lon="7.13275">
        <ele>965.78</ele>
        <time>2009-09-27T09:46:04Z</time>
      </trkpt>
      <trkpt lat="48.07816" lon="7.13278">
        <ele>965.78</ele>
        <time>2009-09-27T09:46:05Z</time>
      </trkpt>
      <trkpt lat="48.07817" lon="7.1329">
        <ele>966.26</ele>
        <time>2009-09-27T09:46:09Z</time>
      </trkpt>
      <trkpt lat="48.07821" lon="7.13301">
        <ele>967.22</ele>
        <time>2009-09-27T09:46:13Z</time>
      </trkpt>
      <trkpt lat="48.07824" lon="7.13313">
        <ele>968.18</ele>
        <time>2009-09-27T09:46:18Z</time>
      </trkpt>
      <trkpt lat="48.07823" lon="7.13315">
        <ele>967.7</ele>
        <time>2009-09-27T09:46:20Z</time>
      </trkpt>
      <trkpt lat="48.07825" lon="7.13325">
        <ele>969.63</ele>
        <time>2009-09-27T09:46:24Z</time>
      </trkpt>
      <trkpt lat="48.07832" lon="7.13345">
        <ele>972.51</ele>
        <time>2009-09-27T09:46:34Z</time>
      </trkpt>
      <trkpt lat="48.07829" lon="7.13352">
        <ele>971.07</ele>
        <time>2009-09-27T09:46:37Z</time>
      </trkpt>
      <trkpt lat="48.07826" lon="7.13353">
        <ele>971.55</ele>
        <time>2009-09-27T09:46:39Z</time>
      </trkpt>
      <trkpt lat="48.07814" lon="7.13364">
        <ele>972.99</ele>
        <time>2009-09-27T09:46:46Z</time>
      </trkpt>
      <trkpt lat="48.07795" lon="7.13383">
        <ele>972.51</ele>
        <time>2009-09-27T09:46:57Z</time>
      </trkpt>
      <trkpt lat="48.07789" lon="7.13408">
        <ele>972.99</ele>
        <time>2009-09-27T09:47:05Z</time>
      </trkpt>
      <trkpt lat="48.0779" lon="7.13435">
        <ele>974.91</ele>
        <time>2009-09-27T09:47:13Z</time>
      </trkpt>
      <trkpt lat="48.0779" lon="7.1344">
        <ele>975.39</ele>
        <time>2009-09-27T09:47:15Z</time>
      </trkpt>
      <trkpt lat="48.07791" lon="7.13446">
        <ele>975.88</ele>
        <time>2009-09-27T09:47:17Z</time>
      </trkpt>
      <trkpt lat="48.07786" lon="7.1346">
        <ele>977.8</ele>
        <time>2009-09-27T09:47:23Z</time>
      </trkpt>
      <trkpt lat="48.07783" lon="7.13471">
        <ele>978.76</ele>
        <time>2009-09-27T09:47:27Z</time>
      </trkpt>
      <trkpt lat="48.07786" lon="7.13491">
        <ele>981.64</ele>
        <time>2009-09-27T09:47:35Z</time>
      </trkpt>
      <trkpt lat="48.07788" lon="7.13511">
        <ele>982.12</ele>
        <time>2009-09-27T09:47:43Z</time>
      </trkpt>
      <trkpt lat="48.07789" lon="7.13514">
        <ele>983.09</ele>
        <time>2009-09-27T09:47:44Z</time>
      </trkpt>
      <trkpt lat="48.07791" lon="7.13519">
        <ele>984.05</ele>
        <time>2009-09-27T09:47:47Z</time>
      </trkpt>
      <trkpt lat="48.07792" lon="7.13529">
        <ele>984.05</ele>
        <time>2009-09-27T09:47:51Z</time>
      </trkpt>
      <trkpt lat="48.07793" lon="7.13541">
        <ele>985.97</ele>
        <time>2009-09-27T09:47:56Z</time>
      </trkpt>
      <trkpt lat="48.07793" lon="7.13546">
        <ele>986.45</ele>
        <time>2009-09-27T09:47:58Z</time>
      </trkpt>
      <trkpt lat="48.07801" lon="7.13572">
        <ele>987.41</ele>
        <time>2009-09-27T09:48:07Z</time>
      </trkpt>
      <trkpt lat="48.078" lon="7.13595">
        <ele>988.37</ele>
        <time>2009-09-27T09:48:17Z</time>
      </trkpt>
      <trkpt lat="48.07802" lon="7.13625">
        <ele>990.78</ele>
        <time>2009-09-27T09:48:26Z</time>
      </trkpt>
      <trkpt lat="48.07803" lon="7.13658">
        <ele>991.26</ele>
        <time>2009-09-27T09:48:34Z</time>
      </trkpt>
      <trkpt lat="48.07807" lon="7.13677">
        <ele>990.78</ele>
        <time>2009-09-27T09:48:38Z</time>
      </trkpt>
      <trkpt lat="48.07819" lon="7.13708">
        <ele>992.22</ele>
        <time>2009-09-27T09:48:43Z</time>
      </trkpt>
      <trkpt lat="48.07814" lon="7.1373">
        <ele>991.26</ele>
        <time>2009-09-27T09:48:47Z</time>
      </trkpt>
      <trkpt lat="48.0781" lon="7.13735">
        <ele>990.78</ele>
        <time>2009-09-27T09:48:48Z</time>
      </trkpt>
      <trkpt lat="48.07806" lon="7.1374">
        <ele>990.78</ele>
        <time>2009-09-27T09:48:49Z</time>
      </trkpt>
      <trkpt lat="48.07793" lon="7.13756">
        <ele>989.33</ele>
        <time>2009-09-27T09:48:52Z</time>
      </trkpt>
      <trkpt lat="48.07789" lon="7.13762">
        <ele>989.81</ele>
        <time>2009-09-27T09:48:53Z</time>
      </trkpt>
      <trkpt lat="48.07788" lon="7.13767">
        <ele>989.33</ele>
        <time>2009-09-27T09:48:54Z</time>
      </trkpt>
      <trkpt lat="48.07788" lon="7.13774">
        <ele>990.3</ele>
        <time>2009-09-27T09:48:55Z</time>
      </trkpt>
      <trkpt lat="48.07788" lon="7.1378">
        <ele>988.85</ele>
        <time>2009-09-27T09:48:56Z</time>
      </trkpt>
      <trkpt lat="48.07786" lon="7.13786">
        <ele>989.33</ele>
        <time>2009-09-27T09:48:57Z</time>
      </trkpt>
      <trkpt lat="48.07783" lon="7.13792">
        <ele>989.81</ele>
        <time>2009-09-27T09:48:58Z</time>
      </trkpt>
      <trkpt lat="48.0778" lon="7.13799">
        <ele>990.3</ele>
        <time>2009-09-27T09:48:59Z</time>
      </trkpt>
      <trkpt lat="48.07778" lon="7.13808">
        <ele>988.85</ele>
        <time>2009-09-27T09:49:00Z</time>
      </trkpt>
      <trkpt lat="48.07777" lon="7.13816">
        <ele>988.37</ele>
        <time>2009-09-27T09:49:01Z</time>
      </trkpt>
      <trkpt lat="48.07777" lon="7.13824">
        <ele>987.41</ele>
        <time>2009-09-27T09:49:02Z</time>
      </trkpt>
      <trkpt lat="48.07777" lon="7.13833">
        <ele>988.85</ele>
        <time>2009-09-27T09:49:03Z</time>
      </trkpt>
      <trkpt lat="48.07778" lon="7.13842">
        <ele>989.81</ele>
        <time>2009-09-27T09:49:04Z</time>
      </trkpt>
      <trkpt lat="48.0778" lon="7.13851">
        <ele>991.26</ele>
        <time>2009-09-27T09:49:05Z</time>
      </trkpt>
      <trkpt lat="48.0778" lon="7.13859">
        <ele>988.85</ele>
        <time>2009-09-27T09:49:06Z</time>
      </trkpt>
      <trkpt lat="48.07782" lon="7.13869">
        <ele>989.81</ele>
        <time>2009-09-27T09:49:07Z</time>
      </trkpt>
      <trkpt lat="48.07785" lon="7.13887">
        <ele>989.33</ele>
        <time>2009-09-27T09:49:09Z</time>
      </trkpt>
      <trkpt lat="48.07788" lon="7.13897">
        <ele>990.78</ele>
        <time>2009-09-27T09:49:10Z</time>
      </trkpt>
      <trkpt lat="48.07791" lon="7.13906">
        <ele>989.33</ele>
        <time>2009-09-27T09:49:11Z</time>
      </trkpt>
      <trkpt lat="48.07795" lon="7.13922">
        <ele>990.3</ele>
        <time>2009-09-27T09:49:13Z</time>
      </trkpt>
      <trkpt lat="48.07795" lon="7.1393">
        <ele>991.26</ele>
        <time>2009-09-27T09:49:14Z</time>
      </trkpt>
      <trkpt lat="48.07796" lon="7.13938">
        <ele>989.81</ele>
        <time>2009-09-27T09:49:15Z</time>
      </trkpt>
      <trkpt lat="48.07798" lon="7.13947">
        <ele>989.33</ele>
        <time>2009-09-27T09:49:16Z</time>
      </trkpt>
      <trkpt lat="48.07802" lon="7.13953">
        <ele>989.81</ele>
        <time>2009-09-27T09:49:17Z</time>
      </trkpt>
      <trkpt lat="48.07804" lon="7.13959">
        <ele>989.81</ele>
        <time>2009-09-27T09:49:18Z</time>
      </trkpt>
      <trkpt lat="48.07809" lon="7.13979">
        <ele>989.33</ele>
        <time>2009-09-27T09:49:21Z</time>
      </trkpt>
      <trkpt lat="48.07812" lon="7.13986">
        <ele>989.33</ele>
        <time>2009-09-27T09:49:22Z</time>
      </trkpt>
      <trkpt lat="48.07819" lon="7.14001">
        <ele>988.85</ele>
        <time>2009-09-27T09:49:24Z</time>
      </trkpt>
      <trkpt lat="48.07823" lon="7.14008">
        <ele>990.3</ele>
        <time>2009-09-27T09:49:25Z</time>
      </trkpt>
      <trkpt lat="48.07826" lon="7.14014">
        <ele>990.3</ele>
        <time>2009-09-27T09:49:26Z</time>
      </trkpt>
      <trkpt lat="48.07831" lon="7.1402">
        <ele>989.81</ele>
        <time>2009-09-27T09:49:27Z</time>
      </trkpt>
      <trkpt lat="48.07835" lon="7.14023">
        <ele>989.33</ele>
        <time>2009-09-27T09:49:28Z</time>
      </trkpt>
      <trkpt lat="48.07839" lon="7.14027">
        <ele>990.3</ele>
        <time>2009-09-27T09:49:29Z</time>
      </trkpt>
      <trkpt lat="48.07843" lon="7.14029">
        <ele>992.22</ele>
        <time>2009-09-27T09:49:30Z</time>
      </trkpt>
      <trkpt lat="48.07847" lon="7.14032">
        <ele>990.78</ele>
        <time>2009-09-27T09:49:31Z</time>
      </trkpt>
      <trkpt lat="48.0785" lon="7.14034">
        <ele>990.78</ele>
        <time>2009-09-27T09:49:32Z</time>
      </trkpt>
      <trkpt lat="48.07853" lon="7.14037">
        <ele>991.74</ele>
        <time>2009-09-27T09:49:33Z</time>
      </trkpt>
      <trkpt lat="48.07857" lon="7.14043">
        <ele>991.74</ele>
        <time>2009-09-27T09:49:34Z</time>
      </trkpt>
      <trkpt lat="48.07877" lon="7.14084">
        <ele>994.62</ele>
        <time>2009-09-27T09:49:42Z</time>
      </trkpt>
      <trkpt lat="48.07879" lon="7.14093">
        <ele>990.3</ele>
        <time>2009-09-27T09:49:44Z</time>
      </trkpt>
      <trkpt lat="48.07881" lon="7.14098">
        <ele>991.74</ele>
        <time>2009-09-27T09:49:45Z</time>
      </trkpt>
      <trkpt lat="48.07889" lon="7.14113">
        <ele>994.14</ele>
        <time>2009-09-27T09:49:48Z</time>
      </trkpt>
      <trkpt lat="48.07893" lon="7.14118">
        <ele>993.18</ele>
        <time>2009-09-27T09:49:49Z</time>
      </trkpt>
      <trkpt lat="48.07897" lon="7.14122">
        <ele>993.18</ele>
        <time>2009-09-27T09:49:50Z</time>
      </trkpt>
      <trkpt lat="48.07901" lon="7.14126">
        <ele>993.66</ele>
        <time>2009-09-27T09:49:51Z</time>
      </trkpt>
      <trkpt lat="48.07905" lon="7.14132">
        <ele>992.7</ele>
        <time>2009-09-27T09:49:52Z</time>
      </trkpt>
      <trkpt lat="48.07908" lon="7.14138">
        <ele>994.62</ele>
        <time>2009-09-27T09:49:53Z</time>
      </trkpt>
      <trkpt lat="48.07912" lon="7.14143">
        <ele>992.7</ele>
        <time>2009-09-27T09:49:54Z</time>
      </trkpt>
      <trkpt lat="48.07914" lon="7.14148">
        <ele>993.18</ele>
        <time>2009-09-27T09:49:55Z</time>
      </trkpt>
      <trkpt lat="48.07914" lon="7.14153">
        <ele>991.74</ele>
        <time>2009-09-27T09:49:56Z</time>
      </trkpt>
      <trkpt lat="48.07916" lon="7.14167">
        <ele>991.26</ele>
        <time>2009-09-27T09:49:58Z</time>
      </trkpt>
      <trkpt lat="48.07916" lon="7.14173">
        <ele>991.26</ele>
        <time>2009-09-27T09:49:59Z</time>
      </trkpt>
      <trkpt lat="48.07914" lon="7.14182">
        <ele>986.93</ele>
        <time>2009-09-27T09:50:01Z</time>
      </trkpt>
      <trkpt lat="48.07913" lon="7.14187">
        <ele>987.41</ele>
        <time>2009-09-27T09:50:02Z</time>
      </trkpt>
      <trkpt lat="48.07908" lon="7.14207">
        <ele>983.57</ele>
        <time>2009-09-27T09:50:06Z</time>
      </trkpt>
      <trkpt lat="48.07905" lon="7.14213">
        <ele>979.72</ele>
        <time>2009-09-27T09:50:07Z</time>
      </trkpt>
      <trkpt lat="48.07903" lon="7.14221">
        <ele>981.16</ele>
        <time>2009-09-27T09:50:08Z</time>
      </trkpt>
      <trkpt lat="48.07893" lon="7.14253">
        <ele>976.36</ele>
        <time>2009-09-27T09:50:11Z</time>
      </trkpt>
      <trkpt lat="48.07891" lon="7.14265">
        <ele>976.84</ele>
        <time>2009-09-27T09:50:12Z</time>
      </trkpt>
      <trkpt lat="48.07887" lon="7.14287">
        <ele>973.47</ele>
        <time>2009-09-27T09:50:14Z</time>
      </trkpt>
      <trkpt lat="48.07886" lon="7.14297">
        <ele>972.03</ele>
        <time>2009-09-27T09:50:15Z</time>
      </trkpt>
      <trkpt lat="48.07887" lon="7.14304">
        <ele>972.03</ele>
        <time>2009-09-27T09:50:16Z</time>
      </trkpt>
      <trkpt lat="48.07886" lon="7.14308">
        <ele>973.47</ele>
        <time>2009-09-27T09:50:17Z</time>
      </trkpt>
      <trkpt lat="48.07886" lon="7.14312">
        <ele>970.59</ele>
        <time>2009-09-27T09:50:18Z</time>
      </trkpt>
      <trkpt lat="48.07885" lon="7.14315">
        <ele>971.55</ele>
        <time>2009-09-27T09:50:19Z</time>
      </trkpt>
      <trkpt lat="48.07886" lon="7.14319">
        <ele>972.51</ele>
        <time>2009-09-27T09:50:20Z</time>
      </trkpt>
      <trkpt lat="48.07886" lon="7.14324">
        <ele>970.59</ele>
        <time>2009-09-27T09:50:21Z</time>
      </trkpt>
      <trkpt lat="48.07887" lon="7.1433">
        <ele>970.59</ele>
        <time>2009-09-27T09:50:22Z</time>
      </trkpt>
      <trkpt lat="48.07888" lon="7.14334">
        <ele>973.47</ele>
        <time>2009-09-27T09:50:23Z</time>
      </trkpt>
      <trkpt lat="48.07888" lon="7.1434">
        <ele>972.51</ele>
        <time>2009-09-27T09:50:24Z</time>
      </trkpt>
      <trkpt lat="48.0789" lon="7.14346">
        <ele>973.47</ele>
        <time>2009-09-27T09:50:25Z</time>
      </trkpt>
      <trkpt lat="48.07893" lon="7.14352">
        <ele>972.03</ele>
        <time>2009-09-27T09:50:26Z</time>
      </trkpt>
      <trkpt lat="48.07895" lon="7.14357">
        <ele>972.03</ele>
        <time>2009-09-27T09:50:27Z</time>
      </trkpt>
      <trkpt lat="48.07898" lon="7.14361">
        <ele>973.47</ele>
        <time>2009-09-27T09:50:28Z</time>
      </trkpt>
      <trkpt lat="48.079" lon="7.14367">
        <ele>971.55</ele>
        <time>2009-09-27T09:50:29Z</time>
      </trkpt>
      <trkpt lat="48.07904" lon="7.14378">
        <ele>972.99</ele>
        <time>2009-09-27T09:50:31Z</time>
      </trkpt>
      <trkpt lat="48.07909" lon="7.14389">
        <ele>972.03</ele>
        <time>2009-09-27T09:50:33Z</time>
      </trkpt>
      <trkpt lat="48.07919" lon="7.14407">
        <ele>971.07</ele>
        <time>2009-09-27T09:50:36Z</time>
      </trkpt>
      <trkpt lat="48.07936" lon="7.14451">
        <ele>969.63</ele>
        <time>2009-09-27T09:50:42Z</time>
      </trkpt>
      <trkpt lat="48.07938" lon="7.1446">
        <ele>969.15</ele>
        <time>2009-09-27T09:50:43Z</time>
      </trkpt>
      <trkpt lat="48.0794" lon="7.14477">
        <ele>969.63</ele>
        <time>2009-09-27T09:50:45Z</time>
      </trkpt>
      <trkpt lat="48.0794" lon="7.14482">
        <ele>970.11</ele>
        <time>2009-09-27T09:50:46Z</time>
      </trkpt>
      <trkpt lat="48.0794" lon="7.14485">
        <ele>970.59</ele>
        <time>2009-09-27T09:50:47Z</time>
      </trkpt>
      <trkpt lat="48.0794" lon="7.14488">
        <ele>971.07</ele>
        <time>2009-09-27T09:50:48Z</time>
      </trkpt>
      <trkpt lat="48.0794" lon="7.14491">
        <ele>972.99</ele>
        <time>2009-09-27T09:50:49Z</time>
      </trkpt>
      <trkpt lat="48.07939" lon="7.145">
        <ele>972.51</ele>
        <time>2009-09-27T09:50:52Z</time>
      </trkpt>
      <trkpt lat="48.07938" lon="7.14501">
        <ele>972.51</ele>
        <time>2009-09-27T09:50:53Z</time>
      </trkpt>
      <trkpt lat="48.07938" lon="7.14506">
        <ele>973.95</ele>
        <time>2009-09-27T09:50:57Z</time>
      </trkpt>
      <trkpt lat="48.07937" lon="7.14509">
        <ele>974.43</ele>
        <time>2009-09-27T09:50:58Z</time>
      </trkpt>
      <trkpt lat="48.07936" lon="7.14511">
        <ele>974.43</ele>
        <time>2009-09-27T09:50:59Z</time>
      </trkpt>
      <trkpt lat="48.07934" lon="7.14513">
        <ele>972.99</ele>
        <time>2009-09-27T09:51:00Z</time>
      </trkpt>
      <trkpt lat="48.07933" lon="7.14515">
        <ele>973.47</ele>
        <time>2009-09-27T09:51:01Z</time>
      </trkpt>
      <trkpt lat="48.07932" lon="7.14517">
        <ele>972.99</ele>
        <time>2009-09-27T09:51:02Z</time>
      </trkpt>
      <trkpt lat="48.07931" lon="7.14521">
        <ele>972.99</ele>
        <time>2009-09-27T09:51:03Z</time>
      </trkpt>
      <trkpt lat="48.07931" lon="7.14524">
        <ele>974.91</ele>
        <time>2009-09-27T09:51:04Z</time>
      </trkpt>
      <trkpt lat="48.0793" lon="7.14527">
        <ele>975.88</ele>
        <time>2009-09-27T09:51:05Z</time>
      </trkpt>
      <trkpt lat="48.07929" lon="7.1453">
        <ele>974.91</ele>
        <time>2009-09-27T09:51:06Z</time>
      </trkpt>
      <trkpt lat="48.07929" lon="7.14534">
        <ele>974.43</ele>
        <time>2009-09-27T09:51:07Z</time>
      </trkpt>
      <trkpt lat="48.0793" lon="7.14538">
        <ele>973.95</ele>
        <time>2009-09-27T09:51:08Z</time>
      </trkpt>
      <trkpt lat="48.07931" lon="7.14542">
        <ele>976.36</ele>
        <time>2009-09-27T09:51:09Z</time>
      </trkpt>
      <trkpt lat="48.07932" lon="7.14546">
        <ele>975.88</ele>
        <time>2009-09-27T09:51:10Z</time>
      </trkpt>
      <trkpt lat="48.07932" lon="7.1455">
        <ele>975.39</ele>
        <time>2009-09-27T09:51:11Z</time>
      </trkpt>
      <trkpt lat="48.07933" lon="7.14554">
        <ele>975.39</ele>
        <time>2009-09-27T09:51:12Z</time>
      </trkpt>
      <trkpt lat="48.07933" lon="7.14559">
        <ele>974.91</ele>
        <time>2009-09-27T09:51:13Z</time>
      </trkpt>
      <trkpt lat="48.07933" lon="7.14562">
        <ele>975.88</ele>
        <time>2009-09-27T09:51:14Z</time>
      </trkpt>
      <trkpt lat="48.07933" lon="7.14565">
        <ele>977.8</ele>
        <time>2009-09-27T09:51:15Z</time>
      </trkpt>
      <trkpt lat="48.07933" lon="7.14568">
        <ele>976.84</ele>
        <time>2009-09-27T09:51:16Z</time>
      </trkpt>
      <trkpt lat="48.07931" lon="7.14571">
        <ele>975.88</ele>
        <time>2009-09-27T09:51:17Z</time>
      </trkpt>
      <trkpt lat="48.07931" lon="7.14574">
        <ele>974.43</ele>
        <time>2009-09-27T09:51:18Z</time>
      </trkpt>
      <trkpt lat="48.07931" lon="7.14577">
        <ele>976.84</ele>
        <time>2009-09-27T09:51:19Z</time>
      </trkpt>
      <trkpt lat="48.07932" lon="7.14581">
        <ele>977.8</ele>
        <time>2009-09-27T09:51:20Z</time>
      </trkpt>
      <trkpt lat="48.07932" lon="7.14584">
        <ele>976.84</ele>
        <time>2009-09-27T09:51:21Z</time>
      </trkpt>
      <trkpt lat="48.07932" lon="7.14588">
        <ele>977.32</ele>
        <time>2009-09-27T09:51:22Z</time>
      </trkpt>
      <trkpt lat="48.07932" lon="7.14592">
        <ele>977.8</ele>
        <time>2009-09-27T09:51:23Z</time>
      </trkpt>
      <trkpt lat="48.07932" lon="7.14596">
        <ele>977.32</ele>
        <time>2009-09-27T09:51:24Z</time>
      </trkpt>
      <trkpt lat="48.07933" lon="7.146">
        <ele>976.84</ele>
        <time>2009-09-27T09:51:25Z</time>
      </trkpt>
      <trkpt lat="48.07935" lon="7.14615">
        <ele>977.8</ele>
        <time>2009-09-27T09:51:29Z</time>
      </trkpt>
      <trkpt lat="48.07935" lon="7.14617">
        <ele>978.28</ele>
        <time>2009-09-27T09:51:30Z</time>
      </trkpt>
      <trkpt lat="48.07935" lon="7.1462">
        <ele>979.24</ele>
        <time>2009-09-27T09:51:31Z</time>
      </trkpt>
      <trkpt lat="48.07936" lon="7.14624">
        <ele>979.72</ele>
        <time>2009-09-27T09:51:32Z</time>
      </trkpt>
      <trkpt lat="48.07936" lon="7.14628">
        <ele>979.72</ele>
        <time>2009-09-27T09:51:33Z</time>
      </trkpt>
      <trkpt lat="48.07937" lon="7.14632">
        <ele>979.24</ele>
        <time>2009-09-27T09:51:34Z</time>
      </trkpt>
      <trkpt lat="48.07937" lon="7.14635">
        <ele>979.72</ele>
        <time>2009-09-27T09:51:35Z</time>
      </trkpt>
      <trkpt lat="48.07942" lon="7.14662">
        <ele>980.2</ele>
        <time>2009-09-27T09:51:43Z</time>
      </trkpt>
      <trkpt lat="48.07942" lon="7.14666">
        <ele>980.2</ele>
        <time>2009-09-27T09:51:44Z</time>
      </trkpt>
      <trkpt lat="48.07941" lon="7.1467">
        <ele>982.12</ele>
        <time>2009-09-27T09:51:45Z</time>
      </trkpt>
      <trkpt lat="48.07941" lon="7.14674">
        <ele>981.64</ele>
        <time>2009-09-27T09:51:46Z</time>
      </trkpt>
      <trkpt lat="48.07941" lon="7.14677">
        <ele>982.6</ele>
        <time>2009-09-27T09:51:47Z</time>
      </trkpt>
      <trkpt lat="48.07942" lon="7.14681">
        <ele>982.12</ele>
        <time>2009-09-27T09:51:48Z</time>
      </trkpt>
      <trkpt lat="48.07946" lon="7.14688">
        <ele>982.12</ele>
        <time>2009-09-27T09:51:49Z</time>
      </trkpt>
      <trkpt lat="48.07949" lon="7.14695">
        <ele>980.68</ele>
        <time>2009-09-27T09:51:50Z</time>
      </trkpt>
      <trkpt lat="48.07949" lon="7.147">
        <ele>982.6</ele>
        <time>2009-09-27T09:51:51Z</time>
      </trkpt>
      <trkpt lat="48.0795" lon="7.14706">
        <ele>983.09</ele>
        <time>2009-09-27T09:51:52Z</time>
      </trkpt>
      <trkpt lat="48.0795" lon="7.14711">
        <ele>982.12</ele>
        <time>2009-09-27T09:51:53Z</time>
      </trkpt>
      <trkpt lat="48.0795" lon="7.14717">
        <ele>981.64</ele>
        <time>2009-09-27T09:51:54Z</time>
      </trkpt>
      <trkpt lat="48.07951" lon="7.14722">
        <ele>984.05</ele>
        <time>2009-09-27T09:51:55Z</time>
      </trkpt>
      <trkpt lat="48.07952" lon="7.14728">
        <ele>983.57</ele>
        <time>2009-09-27T09:51:56Z</time>
      </trkpt>
      <trkpt lat="48.07953" lon="7.14734">
        <ele>985.49</ele>
        <time>2009-09-27T09:51:57Z</time>
      </trkpt>
      <trkpt lat="48.07953" lon="7.14739">
        <ele>985.01</ele>
        <time>2009-09-27T09:51:58Z</time>
      </trkpt>
      <trkpt lat="48.0794" lon="7.14771">
        <ele>985.97</ele>
        <time>2009-09-27T09:52:05Z</time>
      </trkpt>
      <trkpt lat="48.07937" lon="7.14781">
        <ele>987.41</ele>
        <time>2009-09-27T09:52:07Z</time>
      </trkpt>
      <trkpt lat="48.07931" lon="7.1479">
        <ele>986.93</ele>
        <time>2009-09-27T09:52:09Z</time>
      </trkpt>
      <trkpt lat="48.07929" lon="7.14795">
        <ele>987.41</ele>
        <time>2009-09-27T09:52:10Z</time>
      </trkpt>
      <trkpt lat="48.07928" lon="7.148">
        <ele>986.45</ele>
        <time>2009-09-27T09:52:11Z</time>
      </trkpt>
      <trkpt lat="48.07935" lon="7.14849">
        <ele>986.93</ele>
        <time>2009-09-27T09:52:19Z</time>
      </trkpt>
      <trkpt lat="48.07936" lon="7.14863">
        <ele>986.45</ele>
        <time>2009-09-27T09:52:21Z</time>
      </trkpt>
      <trkpt lat="48.07938" lon="7.14871">
        <ele>985.97</ele>
        <time>2009-09-27T09:52:22Z</time>
      </trkpt>
      <trkpt lat="48.07939" lon="7.14879">
        <ele>984.53</ele>
        <time>2009-09-27T09:52:23Z</time>
      </trkpt>
      <trkpt lat="48.07939" lon="7.14887">
        <ele>983.09</ele>
        <time>2009-09-27T09:52:24Z</time>
      </trkpt>
      <trkpt lat="48.07938" lon="7.14896">
        <ele>983.57</ele>
        <time>2009-09-27T09:52:25Z</time>
      </trkpt>
      <trkpt lat="48.07938" lon="7.14906">
        <ele>982.6</ele>
        <time>2009-09-27T09:52:26Z</time>
      </trkpt>
      <trkpt lat="48.07939" lon="7.14916">
        <ele>980.68</ele>
        <time>2009-09-27T09:52:27Z</time>
      </trkpt>
      <trkpt lat="48.07938" lon="7.14925">
        <ele>980.2</ele>
        <time>2009-09-27T09:52:28Z</time>
      </trkpt>
      <trkpt lat="48.07932" lon="7.14954">
        <ele>979.72</ele>
        <time>2009-09-27T09:52:31Z</time>
      </trkpt>
      <trkpt lat="48.07928" lon="7.14964">
        <ele>978.76</ele>
        <time>2009-09-27T09:52:32Z</time>
      </trkpt>
      <trkpt lat="48.07924" lon="7.14973">
        <ele>976.36</ele>
        <time>2009-09-27T09:52:33Z</time>
      </trkpt>
      <trkpt lat="48.07919" lon="7.14982">
        <ele>977.32</ele>
        <time>2009-09-27T09:52:34Z</time>
      </trkpt>
      <trkpt lat="48.07914" lon="7.1499">
        <ele>975.88</ele>
        <time>2009-09-27T09:52:35Z</time>
      </trkpt>
      <trkpt lat="48.0791" lon="7.14997">
        <ele>975.39</ele>
        <time>2009-09-27T09:52:36Z</time>
      </trkpt>
      <trkpt lat="48.07906" lon="7.15006">
        <ele>975.39</ele>
        <time>2009-09-27T09:52:37Z</time>
      </trkpt>
      <trkpt lat="48.07905" lon="7.15016">
        <ele>976.84</ele>
        <time>2009-09-27T09:52:38Z</time>
      </trkpt>
      <trkpt lat="48.07904" lon="7.15027">
        <ele>975.88</ele>
        <time>2009-09-27T09:52:39Z</time>
      </trkpt>
      <trkpt lat="48.07905" lon="7.15038">
        <ele>974.91</ele>
        <time>2009-09-27T09:52:40Z</time>
      </trkpt>
      <trkpt lat="48.07908" lon="7.1505">
        <ele>974.43</ele>
        <time>2009-09-27T09:52:41Z</time>
      </trkpt>
      <trkpt lat="48.07911" lon="7.15062">
        <ele>973.95</ele>
        <time>2009-09-27T09:52:42Z</time>
      </trkpt>
      <trkpt lat="48.07914" lon="7.15073">
        <ele>975.88</ele>
        <time>2009-09-27T09:52:43Z</time>
      </trkpt>
      <trkpt lat="48.07916" lon="7.15083">
        <ele>976.84</ele>
        <time>2009-09-27T09:52:44Z</time>
      </trkpt>
      <trkpt lat="48.07921" lon="7.15101">
        <ele>976.84</ele>
        <time>2009-09-27T09:52:46Z</time>
      </trkpt>
      <trkpt lat="48.07929" lon="7.15132">
        <ele>977.8</ele>
        <time>2009-09-27T09:52:50Z</time>
      </trkpt>
      <trkpt lat="48.07934" lon="7.15152">
        <ele>976.84</ele>
        <time>2009-09-27T09:52:53Z</time>
      </trkpt>
      <trkpt lat="48.07939" lon="7.15169">
        <ele>977.8</ele>
        <time>2009-09-27T09:52:55Z</time>
      </trkpt>
      <trkpt lat="48.07942" lon="7.15178">
        <ele>977.8</ele>
        <time>2009-09-27T09:52:56Z</time>
      </trkpt>
      <trkpt lat="48.07944" lon="7.15188">
        <ele>977.32</ele>
        <time>2009-09-27T09:52:57Z</time>
      </trkpt>
      <trkpt lat="48.07946" lon="7.15197">
        <ele>977.32</ele>
        <time>2009-09-27T09:52:58Z</time>
      </trkpt>
      <trkpt lat="48.07949" lon="7.15207">
        <ele>977.32</ele>
        <time>2009-09-27T09:52:59Z</time>
      </trkpt>
      <trkpt lat="48.0795" lon="7.15215">
        <ele>976.84</ele>
        <time>2009-09-27T09:53:00Z</time>
      </trkpt>
      <trkpt lat="48.07951" lon="7.15224">
        <ele>976.36</ele>
        <time>2009-09-27T09:53:01Z</time>
      </trkpt>
      <trkpt lat="48.07952" lon="7.15232">
        <ele>976.36</ele>
        <time>2009-09-27T09:53:02Z</time>
      </trkpt>
      <trkpt lat="48.07953" lon="7.15239">
        <ele>975.39</ele>
        <time>2009-09-27T09:53:03Z</time>
      </trkpt>
      <trkpt lat="48.07955" lon="7.15246">
        <ele>975.88</ele>
        <time>2009-09-27T09:53:04Z</time>
      </trkpt>
      <trkpt lat="48.07957" lon="7.15254">
        <ele>977.32</ele>
        <time>2009-09-27T09:53:05Z</time>
      </trkpt>
      <trkpt lat="48.07959" lon="7.15262">
        <ele>976.36</ele>
        <time>2009-09-27T09:53:06Z</time>
      </trkpt>
      <trkpt lat="48.07962" lon="7.1527">
        <ele>974.43</ele>
        <time>2009-09-27T09:53:07Z</time>
      </trkpt>
      <trkpt lat="48.07964" lon="7.15278">
        <ele>973.95</ele>
        <time>2009-09-27T09:53:08Z</time>
      </trkpt>
      <trkpt lat="48.07966" lon="7.15286">
        <ele>974.43</ele>
        <time>2009-09-27T09:53:09Z</time>
      </trkpt>
      <trkpt lat="48.07968" lon="7.15295">
        <ele>975.88</ele>
        <time>2009-09-27T09:53:10Z</time>
      </trkpt>
      <trkpt lat="48.07969" lon="7.15305">
        <ele>973.95</ele>
        <time>2009-09-27T09:53:11Z</time>
      </trkpt>
      <trkpt lat="48.0797" lon="7.15316">
        <ele>973.47</ele>
        <time>2009-09-27T09:53:12Z</time>
      </trkpt>
      <trkpt lat="48.0797" lon="7.15327">
        <ele>972.51</ele>
        <time>2009-09-27T09:53:13Z</time>
      </trkpt>
      <trkpt lat="48.0797" lon="7.15339">
        <ele>972.03</ele>
        <time>2009-09-27T09:53:14Z</time>
      </trkpt>
      <trkpt lat="48.07968" lon="7.1535">
        <ele>970.59</ele>
        <time>2009-09-27T09:53:15Z</time>
      </trkpt>
      <trkpt lat="48.07965" lon="7.1536">
        <ele>969.63</ele>
        <time>2009-09-27T09:53:16Z</time>
      </trkpt>
      <trkpt lat="48.07961" lon="7.1537">
        <ele>972.51</ele>
        <time>2009-09-27T09:53:17Z</time>
      </trkpt>
      <trkpt lat="48.07956" lon="7.15378">
        <ele>969.15</ele>
        <time>2009-09-27T09:53:18Z</time>
      </trkpt>
      <trkpt lat="48.07951" lon="7.15386">
        <ele>967.7</ele>
        <time>2009-09-27T09:53:19Z</time>
      </trkpt>
      <trkpt lat="48.07944" lon="7.15396">
        <ele>965.78</ele>
        <time>2009-09-27T09:53:20Z</time>
      </trkpt>
      <trkpt lat="48.07938" lon="7.15406">
        <ele>965.3</ele>
        <time>2009-09-27T09:53:21Z</time>
      </trkpt>
      <trkpt lat="48.07931" lon="7.15416">
        <ele>963.38</ele>
        <time>2009-09-27T09:53:22Z</time>
      </trkpt>
      <trkpt lat="48.07926" lon="7.15427">
        <ele>962.9</ele>
        <time>2009-09-27T09:53:23Z</time>
      </trkpt>
      <trkpt lat="48.07922" lon="7.1544">
        <ele>961.94</ele>
        <time>2009-09-27T09:53:24Z</time>
      </trkpt>
      <trkpt lat="48.07919" lon="7.15452">
        <ele>957.61</ele>
        <time>2009-09-27T09:53:25Z</time>
      </trkpt>
      <trkpt lat="48.07917" lon="7.15465">
        <ele>957.61</ele>
        <time>2009-09-27T09:53:26Z</time>
      </trkpt>
      <trkpt lat="48.07916" lon="7.15479">
        <ele>959.05</ele>
        <time>2009-09-27T09:53:27Z</time>
      </trkpt>
      <trkpt lat="48.07918" lon="7.15493">
        <ele>956.17</ele>
        <time>2009-09-27T09:53:28Z</time>
      </trkpt>
      <trkpt lat="48.0792" lon="7.15507">
        <ele>955.69</ele>
        <time>2009-09-27T09:53:29Z</time>
      </trkpt>
      <trkpt lat="48.07927" lon="7.15536">
        <ele>954.73</ele>
        <time>2009-09-27T09:53:31Z</time>
      </trkpt>
      <trkpt lat="48.07941" lon="7.15583">
        <ele>952.32</ele>
        <time>2009-09-27T09:53:34Z</time>
      </trkpt>
      <trkpt lat="48.07946" lon="7.15596">
        <ele>952.32</ele>
        <time>2009-09-27T09:53:35Z</time>
      </trkpt>
      <trkpt lat="48.07969" lon="7.15653">
        <ele>954.73</ele>
        <time>2009-09-27T09:53:40Z</time>
      </trkpt>
      <trkpt lat="48.07973" lon="7.15663">
        <ele>953.28</ele>
        <time>2009-09-27T09:53:41Z</time>
      </trkpt>
      <trkpt lat="48.07985" lon="7.1569">
        <ele>957.13</ele>
        <time>2009-09-27T09:53:44Z</time>
      </trkpt>
      <trkpt lat="48.07988" lon="7.15699">
        <ele>953.77</ele>
        <time>2009-09-27T09:53:45Z</time>
      </trkpt>
      <trkpt lat="48.07991" lon="7.15706">
        <ele>953.77</ele>
        <time>2009-09-27T09:53:46Z</time>
      </trkpt>
      <trkpt lat="48.07993" lon="7.15713">
        <ele>956.17</ele>
        <time>2009-09-27T09:53:47Z</time>
      </trkpt>
      <trkpt lat="48.07995" lon="7.15726">
        <ele>955.21</ele>
        <time>2009-09-27T09:53:49Z</time>
      </trkpt>
      <trkpt lat="48.07995" lon="7.15732">
        <ele>956.65</ele>
        <time>2009-09-27T09:53:50Z</time>
      </trkpt>
      <trkpt lat="48.07994" lon="7.15737">
        <ele>956.17</ele>
        <time>2009-09-27T09:53:51Z</time>
      </trkpt>
      <trkpt lat="48.07997" lon="7.15752">
        <ele>959.53</ele>
        <time>2009-09-27T09:53:54Z</time>
      </trkpt>
      <trkpt lat="48.07998" lon="7.15757">
        <ele>958.57</ele>
        <time>2009-09-27T09:53:55Z</time>
      </trkpt>
      <trkpt lat="48.08008" lon="7.15801">
        <ele>959.53</ele>
        <time>2009-09-27T09:54:03Z</time>
      </trkpt>
      <trkpt lat="48.08013" lon="7.15827">
        <ele>960.01</ele>
        <time>2009-09-27T09:54:08Z</time>
      </trkpt>
      <trkpt lat="48.08015" lon="7.15833">
        <ele>960.49</ele>
        <time>2009-09-27T09:54:09Z</time>
      </trkpt>
      <trkpt lat="48.08017" lon="7.15839">
        <ele>960.49</ele>
        <time>2009-09-27T09:54:10Z</time>
      </trkpt>
      <trkpt lat="48.08019" lon="7.15844">
        <ele>960.01</ele>
        <time>2009-09-27T09:54:11Z</time>
      </trkpt>
      <trkpt lat="48.0802" lon="7.1585">
        <ele>961.46</ele>
        <time>2009-09-27T09:54:12Z</time>
      </trkpt>
      <trkpt lat="48.0802" lon="7.15854">
        <ele>961.46</ele>
        <time>2009-09-27T09:54:13Z</time>
      </trkpt>
      <trkpt lat="48.08022" lon="7.15859">
        <ele>961.94</ele>
        <time>2009-09-27T09:54:14Z</time>
      </trkpt>
      <trkpt lat="48.08023" lon="7.15864">
        <ele>962.42</ele>
        <time>2009-09-27T09:54:15Z</time>
      </trkpt>
      <trkpt lat="48.08024" lon="7.15869">
        <ele>960.98</ele>
        <time>2009-09-27T09:54:16Z</time>
      </trkpt>
      <trkpt lat="48.08026" lon="7.15875">
        <ele>962.9</ele>
        <time>2009-09-27T09:54:17Z</time>
      </trkpt>
      <trkpt lat="48.08027" lon="7.15881">
        <ele>965.78</ele>
        <time>2009-09-27T09:54:18Z</time>
      </trkpt>
      <trkpt lat="48.08029" lon="7.15886">
        <ele>964.34</ele>
        <time>2009-09-27T09:54:19Z</time>
      </trkpt>
      <trkpt lat="48.08029" lon="7.15891">
        <ele>962.9</ele>
        <time>2009-09-27T09:54:20Z</time>
      </trkpt>
      <trkpt lat="48.08028" lon="7.15895">
        <ele>963.38</ele>
        <time>2009-09-27T09:54:21Z</time>
      </trkpt>
      <trkpt lat="48.08027" lon="7.159">
        <ele>961.94</ele>
        <time>2009-09-27T09:54:22Z</time>
      </trkpt>
      <trkpt lat="48.08027" lon="7.15905">
        <ele>963.86</ele>
        <time>2009-09-27T09:54:23Z</time>
      </trkpt>
      <trkpt lat="48.08027" lon="7.1591">
        <ele>963.86</ele>
        <time>2009-09-27T09:54:24Z</time>
      </trkpt>
      <trkpt lat="48.08026" lon="7.15915">
        <ele>963.86</ele>
        <time>2009-09-27T09:54:25Z</time>
      </trkpt>
      <trkpt lat="48.08026" lon="7.1592">
        <ele>963.38</ele>
        <time>2009-09-27T09:54:26Z</time>
      </trkpt>
      <trkpt lat="48.08027" lon="7.15932">
        <ele>967.22</ele>
        <time>2009-09-27T09:54:28Z</time>
      </trkpt>
      <trkpt lat="48.08031" lon="7.15956">
        <ele>965.78</ele>
        <time>2009-09-27T09:54:32Z</time>
      </trkpt>
      <trkpt lat="48.08031" lon="7.15961">
        <ele>963.86</ele>
        <time>2009-09-27T09:54:33Z</time>
      </trkpt>
      <trkpt lat="48.08031" lon="7.15966">
        <ele>964.34</ele>
        <time>2009-09-27T09:54:34Z</time>
      </trkpt>
      <trkpt lat="48.08031" lon="7.15972">
        <ele>962.42</ele>
        <time>2009-09-27T09:54:35Z</time>
      </trkpt>
      <trkpt lat="48.08032" lon="7.15976">
        <ele>964.34</ele>
        <time>2009-09-27T09:54:36Z</time>
      </trkpt>
      <trkpt lat="48.08032" lon="7.1598">
        <ele>962.42</ele>
        <time>2009-09-27T09:54:37Z</time>
      </trkpt>
      <trkpt lat="48.08031" lon="7.15985">
        <ele>962.42</ele>
        <time>2009-09-27T09:54:38Z</time>
      </trkpt>
      <trkpt lat="48.0803" lon="7.15991">
        <ele>965.78</ele>
        <time>2009-09-27T09:54:39Z</time>
      </trkpt>
      <trkpt lat="48.0803" lon="7.15997">
        <ele>963.86</ele>
        <time>2009-09-27T09:54:40Z</time>
      </trkpt>
      <trkpt lat="48.08028" lon="7.16003">
        <ele>964.34</ele>
        <time>2009-09-27T09:54:41Z</time>
      </trkpt>
      <trkpt lat="48.08026" lon="7.16014">
        <ele>963.86</ele>
        <time>2009-09-27T09:54:43Z</time>
      </trkpt>
      <trkpt lat="48.08022" lon="7.16025">
        <ele>963.38</ele>
        <time>2009-09-27T09:54:45Z</time>
      </trkpt>
      <trkpt lat="48.08012" lon="7.16038">
        <ele>966.74</ele>
        <time>2009-09-27T09:54:48Z</time>
      </trkpt>
      <trkpt lat="48.0801" lon="7.16043">
        <ele>964.82</ele>
        <time>2009-09-27T09:54:49Z</time>
      </trkpt>
      <trkpt lat="48.07996" lon="7.16067">
        <ele>965.78</ele>
        <time>2009-09-27T09:54:54Z</time>
      </trkpt>
      <trkpt lat="48.07994" lon="7.16072">
        <ele>963.38</ele>
        <time>2009-09-27T09:54:55Z</time>
      </trkpt>
      <trkpt lat="48.07992" lon="7.16078">
        <ele>965.3</ele>
        <time>2009-09-27T09:54:56Z</time>
      </trkpt>
      <trkpt lat="48.07986" lon="7.16088">
        <ele>964.82</ele>
        <time>2009-09-27T09:54:58Z</time>
      </trkpt>
      <trkpt lat="48.07983" lon="7.16093">
        <ele>963.38</ele>
        <time>2009-09-27T09:54:59Z</time>
      </trkpt>
      <trkpt lat="48.07981" lon="7.16098">
        <ele>966.26</ele>
        <time>2009-09-27T09:55:00Z</time>
      </trkpt>
      <trkpt lat="48.07979" lon="7.16104">
        <ele>964.34</ele>
        <time>2009-09-27T09:55:01Z</time>
      </trkpt>
      <trkpt lat="48.07978" lon="7.1611">
        <ele>964.34</ele>
        <time>2009-09-27T09:55:02Z</time>
      </trkpt>
      <trkpt lat="48.07977" lon="7.16116">
        <ele>963.38</ele>
        <time>2009-09-27T09:55:03Z</time>
      </trkpt>
      <trkpt lat="48.07975" lon="7.16122">
        <ele>964.34</ele>
        <time>2009-09-27T09:55:04Z</time>
      </trkpt>
      <trkpt lat="48.07973" lon="7.16127">
        <ele>963.86</ele>
        <time>2009-09-27T09:55:05Z</time>
      </trkpt>
      <trkpt lat="48.07971" lon="7.16143">
        <ele>963.38</ele>
        <time>2009-09-27T09:55:07Z</time>
      </trkpt>
      <trkpt lat="48.07972" lon="7.16153">
        <ele>962.42</ele>
        <time>2009-09-27T09:55:08Z</time>
      </trkpt>
      <trkpt lat="48.07974" lon="7.1616">
        <ele>960.01</ele>
        <time>2009-09-27T09:55:09Z</time>
      </trkpt>
      <trkpt lat="48.07975" lon="7.16167">
        <ele>963.38</ele>
        <time>2009-09-27T09:55:10Z</time>
      </trkpt>
      <trkpt lat="48.07975" lon="7.16173">
        <ele>962.42</ele>
        <time>2009-09-27T09:55:11Z</time>
      </trkpt>
      <trkpt lat="48.07975" lon="7.16178">
        <ele>962.42</ele>
        <time>2009-09-27T09:55:12Z</time>
      </trkpt>
      <trkpt lat="48.07975" lon="7.16183">
        <ele>961.94</ele>
        <time>2009-09-27T09:55:13Z</time>
      </trkpt>
      <trkpt lat="48.07976" lon="7.16189">
        <ele>962.42</ele>
        <time>2009-09-27T09:55:14Z</time>
      </trkpt>
      <trkpt lat="48.07976" lon="7.16194">
        <ele>961.94</ele>
        <time>2009-09-27T09:55:15Z</time>
      </trkpt>
      <trkpt lat="48.07975" lon="7.16213">
        <ele>960.01</ele>
        <time>2009-09-27T09:55:18Z</time>
      </trkpt>
      <trkpt lat="48.07974" lon="7.1622">
        <ele>959.05</ele>
        <time>2009-09-27T09:55:19Z</time>
      </trkpt>
      <trkpt lat="48.07975" lon="7.16225">
        <ele>960.01</ele>
        <time>2009-09-27T09:55:20Z</time>
      </trkpt>
      <trkpt lat="48.07976" lon="7.1623">
        <ele>958.57</ele>
        <time>2009-09-27T09:55:21Z</time>
      </trkpt>
      <trkpt lat="48.07976" lon="7.16234">
        <ele>958.57</ele>
        <time>2009-09-27T09:55:22Z</time>
      </trkpt>
      <trkpt lat="48.07976" lon="7.16238">
        <ele>957.61</ele>
        <time>2009-09-27T09:55:23Z</time>
      </trkpt>
      <trkpt lat="48.07977" lon="7.16242">
        <ele>957.61</ele>
        <time>2009-09-27T09:55:24Z</time>
      </trkpt>
      <trkpt lat="48.07977" lon="7.16247">
        <ele>958.57</ele>
        <time>2009-09-27T09:55:25Z</time>
      </trkpt>
      <trkpt lat="48.07978" lon="7.16254">
        <ele>954.73</ele>
        <time>2009-09-27T09:55:26Z</time>
      </trkpt>
      <trkpt lat="48.07978" lon="7.1626">
        <ele>955.69</ele>
        <time>2009-09-27T09:55:27Z</time>
      </trkpt>
      <trkpt lat="48.07977" lon="7.16266">
        <ele>957.61</ele>
        <time>2009-09-27T09:55:28Z</time>
      </trkpt>
      <trkpt lat="48.07974" lon="7.16273">
        <ele>955.21</ele>
        <time>2009-09-27T09:55:29Z</time>
      </trkpt>
      <trkpt lat="48.07972" lon="7.16282">
        <ele>955.69</ele>
        <time>2009-09-27T09:55:30Z</time>
      </trkpt>
      <trkpt lat="48.07969" lon="7.1629">
        <ele>952.32</ele>
        <time>2009-09-27T09:55:31Z</time>
      </trkpt>
      <trkpt lat="48.07967" lon="7.16299">
        <ele>953.28</ele>
        <time>2009-09-27T09:55:32Z</time>
      </trkpt>
      <trkpt lat="48.07963" lon="7.16305">
        <ele>952.8</ele>
        <time>2009-09-27T09:55:33Z</time>
      </trkpt>
      <trkpt lat="48.0796" lon="7.16312">
        <ele>953.77</ele>
        <time>2009-09-27T09:55:34Z</time>
      </trkpt>
      <trkpt lat="48.07956" lon="7.16318">
        <ele>949.92</ele>
        <time>2009-09-27T09:55:35Z</time>
      </trkpt>
      <trkpt lat="48.07949" lon="7.16329">
        <ele>948</ele>
        <time>2009-09-27T09:55:37Z</time>
      </trkpt>
      <trkpt lat="48.07941" lon="7.16339">
        <ele>947.52</ele>
        <time>2009-09-27T09:55:39Z</time>
      </trkpt>
      <trkpt lat="48.07939" lon="7.16345">
        <ele>947.04</ele>
        <time>2009-09-27T09:55:40Z</time>
      </trkpt>
      <trkpt lat="48.07937" lon="7.16352">
        <ele>945.59</ele>
        <time>2009-09-27T09:55:41Z</time>
      </trkpt>
      <trkpt lat="48.07936" lon="7.1636">
        <ele>944.15</ele>
        <time>2009-09-27T09:55:42Z</time>
      </trkpt>
      <trkpt lat="48.07934" lon="7.16369">
        <ele>946.56</ele>
        <time>2009-09-27T09:55:43Z</time>
      </trkpt>
      <trkpt lat="48.07932" lon="7.16378">
        <ele>945.11</ele>
        <time>2009-09-27T09:55:44Z</time>
      </trkpt>
      <trkpt lat="48.07929" lon="7.16388">
        <ele>943.67</ele>
        <time>2009-09-27T09:55:45Z</time>
      </trkpt>
      <trkpt lat="48.07925" lon="7.16398">
        <ele>944.63</ele>
        <time>2009-09-27T09:55:46Z</time>
      </trkpt>
      <trkpt lat="48.0789" lon="7.16452">
        <ele>940.31</ele>
        <time>2009-09-27T09:55:53Z</time>
      </trkpt>
      <trkpt lat="48.07887" lon="7.16455">
        <ele>940.31</ele>
        <time>2009-09-27T09:55:54Z</time>
      </trkpt>
      <trkpt lat="48.07884" lon="7.16465">
        <ele>939.35</ele>
        <time>2009-09-27T09:55:57Z</time>
      </trkpt>
      <trkpt lat="48.07883" lon="7.1648">
        <ele>937.9</ele>
        <time>2009-09-27T09:55:59Z</time>
      </trkpt>
      <trkpt lat="48.07882" lon="7.16489">
        <ele>936.94</ele>
        <time>2009-09-27T09:56:00Z</time>
      </trkpt>
      <trkpt lat="48.07881" lon="7.16498">
        <ele>936.46</ele>
        <time>2009-09-27T09:56:01Z</time>
      </trkpt>
      <trkpt lat="48.07883" lon="7.16519">
        <ele>936.94</ele>
        <time>2009-09-27T09:56:03Z</time>
      </trkpt>
      <trkpt lat="48.07881" lon="7.16549">
        <ele>935.5</ele>
        <time>2009-09-27T09:56:06Z</time>
      </trkpt>
      <trkpt lat="48.07881" lon="7.16557">
        <ele>934.54</ele>
        <time>2009-09-27T09:56:07Z</time>
      </trkpt>
      <trkpt lat="48.07879" lon="7.16564">
        <ele>933.58</ele>
        <time>2009-09-27T09:56:08Z</time>
      </trkpt>
      <trkpt lat="48.07875" lon="7.16572">
        <ele>933.1</ele>
        <time>2009-09-27T09:56:09Z</time>
      </trkpt>
      <trkpt lat="48.07873" lon="7.1658">
        <ele>932.62</ele>
        <time>2009-09-27T09:56:10Z</time>
      </trkpt>
      <trkpt lat="48.07871" lon="7.16589">
        <ele>933.1</ele>
        <time>2009-09-27T09:56:11Z</time>
      </trkpt>
      <trkpt lat="48.07871" lon="7.166">
        <ele>933.1</ele>
        <time>2009-09-27T09:56:12Z</time>
      </trkpt>
      <trkpt lat="48.07871" lon="7.16613">
        <ele>933.58</ele>
        <time>2009-09-27T09:56:13Z</time>
      </trkpt>
      <trkpt lat="48.0787" lon="7.16623">
        <ele>930.21</ele>
        <time>2009-09-27T09:56:14Z</time>
      </trkpt>
      <trkpt lat="48.07869" lon="7.16632">
        <ele>930.21</ele>
        <time>2009-09-27T09:56:15Z</time>
      </trkpt>
      <trkpt lat="48.07875" lon="7.16655">
        <ele>928.29</ele>
        <time>2009-09-27T09:56:17Z</time>
      </trkpt>
      <trkpt lat="48.07874" lon="7.16664">
        <ele>929.73</ele>
        <time>2009-09-27T09:56:18Z</time>
      </trkpt>
      <trkpt lat="48.07874" lon="7.16675">
        <ele>928.29</ele>
        <time>2009-09-27T09:56:19Z</time>
      </trkpt>
      <trkpt lat="48.07869" lon="7.16681">
        <ele>927.81</ele>
        <time>2009-09-27T09:56:20Z</time>
      </trkpt>
      <trkpt lat="48.07867" lon="7.1669">
        <ele>928.29</ele>
        <time>2009-09-27T09:56:21Z</time>
      </trkpt>
      <trkpt lat="48.07862" lon="7.16697">
        <ele>926.85</ele>
        <time>2009-09-27T09:56:22Z</time>
      </trkpt>
      <trkpt lat="48.07857" lon="7.16705">
        <ele>927.81</ele>
        <time>2009-09-27T09:56:23Z</time>
      </trkpt>
      <trkpt lat="48.07854" lon="7.16711">
        <ele>927.33</ele>
        <time>2009-09-27T09:56:24Z</time>
      </trkpt>
      <trkpt lat="48.07854" lon="7.16718">
        <ele>927.81</ele>
        <time>2009-09-27T09:56:25Z</time>
      </trkpt>
      <trkpt lat="48.07855" lon="7.16726">
        <ele>926.37</ele>
        <time>2009-09-27T09:56:26Z</time>
      </trkpt>
      <trkpt lat="48.07856" lon="7.16733">
        <ele>925.89</ele>
        <time>2009-09-27T09:56:27Z</time>
      </trkpt>
      <trkpt lat="48.07859" lon="7.1674">
        <ele>924.93</ele>
        <time>2009-09-27T09:56:28Z</time>
      </trkpt>
      <trkpt lat="48.07861" lon="7.16747">
        <ele>924.45</ele>
        <time>2009-09-27T09:56:29Z</time>
      </trkpt>
      <trkpt lat="48.07864" lon="7.16755">
        <ele>924.45</ele>
        <time>2009-09-27T09:56:30Z</time>
      </trkpt>
      <trkpt lat="48.0788" lon="7.16794">
        <ele>923.96</ele>
        <time>2009-09-27T09:56:34Z</time>
      </trkpt>
      <trkpt lat="48.07887" lon="7.16808">
        <ele>923.96</ele>
        <time>2009-09-27T09:56:35Z</time>
      </trkpt>
      <trkpt lat="48.07895" lon="7.16821">
        <ele>923</ele>
        <time>2009-09-27T09:56:36Z</time>
      </trkpt>
      <trkpt lat="48.07903" lon="7.16834">
        <ele>922.04</ele>
        <time>2009-09-27T09:56:37Z</time>
      </trkpt>
      <trkpt lat="48.0791" lon="7.16842">
        <ele>920.12</ele>
        <time>2009-09-27T09:56:38Z</time>
      </trkpt>
      <trkpt lat="48.07919" lon="7.16853">
        <ele>923</ele>
        <time>2009-09-27T09:56:39Z</time>
      </trkpt>
      <trkpt lat="48.07939" lon="7.16882">
        <ele>920.6</ele>
        <time>2009-09-27T09:56:42Z</time>
      </trkpt>
      <trkpt lat="48.07944" lon="7.16893">
        <ele>922.52</ele>
        <time>2009-09-27T09:56:43Z</time>
      </trkpt>
      <trkpt lat="48.07947" lon="7.16903">
        <ele>924.45</ele>
        <time>2009-09-27T09:56:44Z</time>
      </trkpt>
      <trkpt lat="48.07948" lon="7.16913">
        <ele>925.89</ele>
        <time>2009-09-27T09:56:45Z</time>
      </trkpt>
      <trkpt lat="48.07948" lon="7.16923">
        <ele>923.48</ele>
        <time>2009-09-27T09:56:46Z</time>
      </trkpt>
      <trkpt lat="48.07949" lon="7.16933">
        <ele>922.52</ele>
        <time>2009-09-27T09:56:47Z</time>
      </trkpt>
      <trkpt lat="48.07949" lon="7.16943">
        <ele>922.52</ele>
        <time>2009-09-27T09:56:48Z</time>
      </trkpt>
      <trkpt lat="48.07952" lon="7.16974">
        <ele>920.12</ele>
        <time>2009-09-27T09:56:51Z</time>
      </trkpt>
      <trkpt lat="48.07955" lon="7.16984">
        <ele>921.08</ele>
        <time>2009-09-27T09:56:52Z</time>
      </trkpt>
      <trkpt lat="48.07956" lon="7.16993">
        <ele>920.6</ele>
        <time>2009-09-27T09:56:53Z</time>
      </trkpt>
      <trkpt lat="48.07956" lon="7.17003">
        <ele>922.52</ele>
        <time>2009-09-27T09:56:54Z</time>
      </trkpt>
      <trkpt lat="48.07956" lon="7.17012">
        <ele>921.56</ele>
        <time>2009-09-27T09:56:55Z</time>
      </trkpt>
      <trkpt lat="48.07954" lon="7.17021">
        <ele>921.08</ele>
        <time>2009-09-27T09:56:56Z</time>
      </trkpt>
      <trkpt lat="48.07953" lon="7.17028">
        <ele>919.64</ele>
        <time>2009-09-27T09:56:57Z</time>
      </trkpt>
      <trkpt lat="48.07952" lon="7.17036">
        <ele>921.56</ele>
        <time>2009-09-27T09:56:58Z</time>
      </trkpt>
      <trkpt lat="48.07952" lon="7.17044">
        <ele>919.64</ele>
        <time>2009-09-27T09:56:59Z</time>
      </trkpt>
      <trkpt lat="48.07953" lon="7.17051">
        <ele>916.75</ele>
        <time>2009-09-27T09:57:00Z</time>
      </trkpt>
      <trkpt lat="48.07955" lon="7.17061">
        <ele>919.64</ele>
        <time>2009-09-27T09:57:01Z</time>
      </trkpt>
      <trkpt lat="48.07958" lon="7.17069">
        <ele>920.12</ele>
        <time>2009-09-27T09:57:02Z</time>
      </trkpt>
      <trkpt lat="48.07963" lon="7.17078">
        <ele>916.75</ele>
        <time>2009-09-27T09:57:03Z</time>
      </trkpt>
      <trkpt lat="48.0797" lon="7.17088">
        <ele>919.16</ele>
        <time>2009-09-27T09:57:04Z</time>
      </trkpt>
      <trkpt lat="48.07974" lon="7.17098">
        <ele>919.64</ele>
        <time>2009-09-27T09:57:05Z</time>
      </trkpt>
      <trkpt lat="48.07977" lon="7.17107">
        <ele>917.72</ele>
        <time>2009-09-27T09:57:06Z</time>
      </trkpt>
      <trkpt lat="48.0798" lon="7.17115">
        <ele>920.12</ele>
        <time>2009-09-27T09:57:07Z</time>
      </trkpt>
      <trkpt lat="48.07998" lon="7.17152">
        <ele>917.72</ele>
        <time>2009-09-27T09:57:11Z</time>
      </trkpt>
      <trkpt lat="48.08006" lon="7.17169">
        <ele>919.16</ele>
        <time>2009-09-27T09:57:13Z</time>
      </trkpt>
      <trkpt lat="48.0801" lon="7.17178">
        <ele>917.72</ele>
        <time>2009-09-27T09:57:14Z</time>
      </trkpt>
      <trkpt lat="48.08016" lon="7.17187">
        <ele>918.68</ele>
        <time>2009-09-27T09:57:15Z</time>
      </trkpt>
      <trkpt lat="48.08022" lon="7.17196">
        <ele>917.24</ele>
        <time>2009-09-27T09:57:16Z</time>
      </trkpt>
      <trkpt lat="48.08028" lon="7.17204">
        <ele>918.68</ele>
        <time>2009-09-27T09:57:17Z</time>
      </trkpt>
      <trkpt lat="48.08039" lon="7.17221">
        <ele>922.04</ele>
        <time>2009-09-27T09:57:19Z</time>
      </trkpt>
      <trkpt lat="48.08043" lon="7.17228">
        <ele>921.08</ele>
        <time>2009-09-27T09:57:20Z</time>
      </trkpt>
      <trkpt lat="48.08053" lon="7.17244">
        <ele>919.16</ele>
        <time>2009-09-27T09:57:22Z</time>
      </trkpt>
      <trkpt lat="48.08081" lon="7.17288">
        <ele>919.64</ele>
        <time>2009-09-27T09:57:28Z</time>
      </trkpt>
      <trkpt lat="48.08084" lon="7.17295">
        <ele>917.24</ele>
        <time>2009-09-27T09:57:29Z</time>
      </trkpt>
      <trkpt lat="48.08088" lon="7.17302">
        <ele>918.68</ele>
        <time>2009-09-27T09:57:30Z</time>
      </trkpt>
      <trkpt lat="48.08092" lon="7.17309">
        <ele>917.72</ele>
        <time>2009-09-27T09:57:31Z</time>
      </trkpt>
      <trkpt lat="48.08095" lon="7.17316">
        <ele>919.64</ele>
        <time>2009-09-27T09:57:32Z</time>
      </trkpt>
      <trkpt lat="48.08102" lon="7.17329">
        <ele>918.2</ele>
        <time>2009-09-27T09:57:34Z</time>
      </trkpt>
      <trkpt lat="48.08106" lon="7.17335">
        <ele>920.6</ele>
        <time>2009-09-27T09:57:35Z</time>
      </trkpt>
      <trkpt lat="48.0811" lon="7.1734">
        <ele>920.6</ele>
        <time>2009-09-27T09:57:36Z</time>
      </trkpt>
      <trkpt lat="48.08112" lon="7.17346">
        <ele>920.12</ele>
        <time>2009-09-27T09:57:37Z</time>
      </trkpt>
      <trkpt lat="48.08114" lon="7.17353">
        <ele>919.64</ele>
        <time>2009-09-27T09:57:38Z</time>
      </trkpt>
      <trkpt lat="48.08115" lon="7.17359">
        <ele>920.12</ele>
        <time>2009-09-27T09:57:39Z</time>
      </trkpt>
      <trkpt lat="48.08116" lon="7.17366">
        <ele>920.6</ele>
        <time>2009-09-27T09:57:40Z</time>
      </trkpt>
      <trkpt lat="48.08117" lon="7.17373">
        <ele>918.68</ele>
        <time>2009-09-27T09:57:41Z</time>
      </trkpt>
      <trkpt lat="48.08118" lon="7.17395">
        <ele>919.64</ele>
        <time>2009-09-27T09:57:44Z</time>
      </trkpt>
      <trkpt lat="48.08119" lon="7.17403">
        <ele>919.16</ele>
        <time>2009-09-27T09:57:45Z</time>
      </trkpt>
      <trkpt lat="48.08121" lon="7.17411">
        <ele>919.64</ele>
        <time>2009-09-27T09:57:46Z</time>
      </trkpt>
      <trkpt lat="48.08124" lon="7.17419">
        <ele>920.6</ele>
        <time>2009-09-27T09:57:47Z</time>
      </trkpt>
      <trkpt lat="48.08125" lon="7.17426">
        <ele>920.12</ele>
        <time>2009-09-27T09:57:48Z</time>
      </trkpt>
      <trkpt lat="48.08127" lon="7.17433">
        <ele>920.6</ele>
        <time>2009-09-27T09:57:49Z</time>
      </trkpt>
      <trkpt lat="48.0813" lon="7.17441">
        <ele>920.12</ele>
        <time>2009-09-27T09:57:50Z</time>
      </trkpt>
      <trkpt lat="48.08133" lon="7.1745">
        <ele>922.04</ele>
        <time>2009-09-27T09:57:51Z</time>
      </trkpt>
      <trkpt lat="48.08136" lon="7.17458">
        <ele>919.16</ele>
        <time>2009-09-27T09:57:52Z</time>
      </trkpt>
      <trkpt lat="48.08139" lon="7.17467">
        <ele>920.12</ele>
        <time>2009-09-27T09:57:53Z</time>
      </trkpt>
      <trkpt lat="48.08142" lon="7.17476">
        <ele>920.12</ele>
        <time>2009-09-27T09:57:54Z</time>
      </trkpt>
      <trkpt lat="48.08144" lon="7.17485">
        <ele>919.64</ele>
        <time>2009-09-27T09:57:55Z</time>
      </trkpt>
      <trkpt lat="48.08146" lon="7.17502">
        <ele>921.56</ele>
        <time>2009-09-27T09:57:57Z</time>
      </trkpt>
      <trkpt lat="48.08149" lon="7.17519">
        <ele>918.2</ele>
        <time>2009-09-27T09:57:59Z</time>
      </trkpt>
      <trkpt lat="48.0815" lon="7.17527">
        <ele>920.12</ele>
        <time>2009-09-27T09:58:00Z</time>
      </trkpt>
      <trkpt lat="48.0815" lon="7.17535">
        <ele>919.16</ele>
        <time>2009-09-27T09:58:01Z</time>
      </trkpt>
      <trkpt lat="48.0815" lon="7.17543">
        <ele>917.72</ele>
        <time>2009-09-27T09:58:02Z</time>
      </trkpt>
      <trkpt lat="48.08152" lon="7.17552">
        <ele>917.24</ele>
        <time>2009-09-27T09:58:03Z</time>
      </trkpt>
      <trkpt lat="48.08154" lon="7.17562">
        <ele>916.75</ele>
        <time>2009-09-27T09:58:04Z</time>
      </trkpt>
      <trkpt lat="48.08157" lon="7.17572">
        <ele>918.2</ele>
        <time>2009-09-27T09:58:05Z</time>
      </trkpt>
      <trkpt lat="48.08161" lon="7.17582">
        <ele>916.75</ele>
        <time>2009-09-27T09:58:06Z</time>
      </trkpt>
      <trkpt lat="48.08175" lon="7.17612">
        <ele>912.91</ele>
        <time>2009-09-27T09:58:09Z</time>
      </trkpt>
      <trkpt lat="48.0818" lon="7.17624">
        <ele>914.35</ele>
        <time>2009-09-27T09:58:10Z</time>
      </trkpt>
      <trkpt lat="48.08183" lon="7.17636">
        <ele>914.35</ele>
        <time>2009-09-27T09:58:11Z</time>
      </trkpt>
      <trkpt lat="48.08185" lon="7.17648">
        <ele>911.95</ele>
        <time>2009-09-27T09:58:12Z</time>
      </trkpt>
      <trkpt lat="48.08189" lon="7.17662">
        <ele>910.99</ele>
        <time>2009-09-27T09:58:13Z</time>
      </trkpt>
      <trkpt lat="48.08193" lon="7.17676">
        <ele>909.54</ele>
        <time>2009-09-27T09:58:14Z</time>
      </trkpt>
      <trkpt lat="48.08197" lon="7.17688">
        <ele>910.03</ele>
        <time>2009-09-27T09:58:15Z</time>
      </trkpt>
      <trkpt lat="48.08205" lon="7.17712">
        <ele>910.99</ele>
        <time>2009-09-27T09:58:17Z</time>
      </trkpt>
      <trkpt lat="48.08211" lon="7.17723">
        <ele>911.95</ele>
        <time>2009-09-27T09:58:18Z</time>
      </trkpt>
      <trkpt lat="48.08228" lon="7.17749">
        <ele>911.95</ele>
        <time>2009-09-27T09:58:21Z</time>
      </trkpt>
      <trkpt lat="48.08239" lon="7.17762">
        <ele>911.47</ele>
        <time>2009-09-27T09:58:23Z</time>
      </trkpt>
      <trkpt lat="48.08245" lon="7.17768">
        <ele>911.95</ele>
        <time>2009-09-27T09:58:24Z</time>
      </trkpt>
      <trkpt lat="48.08258" lon="7.17781">
        <ele>912.91</ele>
        <time>2009-09-27T09:58:26Z</time>
      </trkpt>
      <trkpt lat="48.08266" lon="7.17787">
        <ele>911.47</ele>
        <time>2009-09-27T09:58:27Z</time>
      </trkpt>
      <trkpt lat="48.08272" lon="7.17793">
        <ele>911.95</ele>
        <time>2009-09-27T09:58:28Z</time>
      </trkpt>
      <trkpt lat="48.08282" lon="7.17804">
        <ele>914.35</ele>
        <time>2009-09-27T09:58:30Z</time>
      </trkpt>
      <trkpt lat="48.08287" lon="7.1781">
        <ele>913.39</ele>
        <time>2009-09-27T09:58:31Z</time>
      </trkpt>
      <trkpt lat="48.08304" lon="7.17828">
        <ele>912.91</ele>
        <time>2009-09-27T09:58:34Z</time>
      </trkpt>
      <trkpt lat="48.0832" lon="7.17846">
        <ele>912.43</ele>
        <time>2009-09-27T09:58:37Z</time>
      </trkpt>
      <trkpt lat="48.08325" lon="7.17853">
        <ele>912.91</ele>
        <time>2009-09-27T09:58:38Z</time>
      </trkpt>
      <trkpt lat="48.08329" lon="7.1786">
        <ele>911.47</ele>
        <time>2009-09-27T09:58:39Z</time>
      </trkpt>
      <trkpt lat="48.08333" lon="7.17868">
        <ele>912.43</ele>
        <time>2009-09-27T09:58:40Z</time>
      </trkpt>
      <trkpt lat="48.08337" lon="7.17876">
        <ele>910.99</ele>
        <time>2009-09-27T09:58:41Z</time>
      </trkpt>
      <trkpt lat="48.0834" lon="7.17884">
        <ele>910.51</ele>
        <time>2009-09-27T09:58:42Z</time>
      </trkpt>
      <trkpt lat="48.08346" lon="7.179">
        <ele>912.91</ele>
        <time>2009-09-27T09:58:44Z</time>
      </trkpt>
      <trkpt lat="48.08353" lon="7.17919">
        <ele>911.47</ele>
        <time>2009-09-27T09:58:46Z</time>
      </trkpt>
      <trkpt lat="48.08361" lon="7.17939">
        <ele>910.03</ele>
        <time>2009-09-27T09:58:48Z</time>
      </trkpt>
      <trkpt lat="48.08364" lon="7.17951">
        <ele>907.62</ele>
        <time>2009-09-27T09:58:49Z</time>
      </trkpt>
      <trkpt lat="48.08365" lon="7.17963">
        <ele>908.1</ele>
        <time>2009-09-27T09:58:50Z</time>
      </trkpt>
      <trkpt lat="48.08367" lon="7.17975">
        <ele>908.58</ele>
        <time>2009-09-27T09:58:51Z</time>
      </trkpt>
      <trkpt lat="48.08368" lon="7.17986">
        <ele>908.58</ele>
        <time>2009-09-27T09:58:52Z</time>
      </trkpt>
      <trkpt lat="48.08369" lon="7.17997">
        <ele>908.58</ele>
        <time>2009-09-27T09:58:53Z</time>
      </trkpt>
      <trkpt lat="48.08368" lon="7.18009">
        <ele>907.62</ele>
        <time>2009-09-27T09:58:54Z</time>
      </trkpt>
      <trkpt lat="48.08368" lon="7.1802">
        <ele>910.03</ele>
        <time>2009-09-27T09:58:55Z</time>
      </trkpt>
      <trkpt lat="48.08367" lon="7.18031">
        <ele>909.06</ele>
        <time>2009-09-27T09:58:56Z</time>
      </trkpt>
      <trkpt lat="48.08366" lon="7.18042">
        <ele>908.58</ele>
        <time>2009-09-27T09:58:57Z</time>
      </trkpt>
      <trkpt lat="48.08364" lon="7.18051">
        <ele>907.14</ele>
        <time>2009-09-27T09:58:58Z</time>
      </trkpt>
      <trkpt lat="48.0836" lon="7.18058">
        <ele>907.62</ele>
        <time>2009-09-27T09:58:59Z</time>
      </trkpt>
      <trkpt lat="48.08357" lon="7.18065">
        <ele>908.58</ele>
        <time>2009-09-27T09:59:00Z</time>
      </trkpt>
      <trkpt lat="48.08354" lon="7.18072">
        <ele>909.06</ele>
        <time>2009-09-27T09:59:01Z</time>
      </trkpt>
      <trkpt lat="48.08352" lon="7.18079">
        <ele>909.54</ele>
        <time>2009-09-27T09:59:02Z</time>
      </trkpt>
      <trkpt lat="48.08349" lon="7.18086">
        <ele>910.03</ele>
        <time>2009-09-27T09:59:03Z</time>
      </trkpt>
      <trkpt lat="48.08347" lon="7.18094">
        <ele>909.54</ele>
        <time>2009-09-27T09:59:04Z</time>
      </trkpt>
      <trkpt lat="48.08345" lon="7.18101">
        <ele>909.06</ele>
        <time>2009-09-27T09:59:05Z</time>
      </trkpt>
      <trkpt lat="48.08343" lon="7.18108">
        <ele>909.54</ele>
        <time>2009-09-27T09:59:06Z</time>
      </trkpt>
      <trkpt lat="48.0834" lon="7.18114">
        <ele>908.58</ele>
        <time>2009-09-27T09:59:07Z</time>
      </trkpt>
      <trkpt lat="48.08339" lon="7.1812">
        <ele>909.54</ele>
        <time>2009-09-27T09:59:08Z</time>
      </trkpt>
      <trkpt lat="48.08334" lon="7.18142">
        <ele>910.99</ele>
        <time>2009-09-27T09:59:12Z</time>
      </trkpt>
      <trkpt lat="48.08334" lon="7.18146">
        <ele>910.99</ele>
        <time>2009-09-27T09:59:13Z</time>
      </trkpt>
      <trkpt lat="48.08333" lon="7.1815">
        <ele>910.03</ele>
        <time>2009-09-27T09:59:14Z</time>
      </trkpt>
      <trkpt lat="48.08332" lon="7.18154">
        <ele>909.06</ele>
        <time>2009-09-27T09:59:15Z</time>
      </trkpt>
      <trkpt lat="48.08331" lon="7.18158">
        <ele>910.03</ele>
        <time>2009-09-27T09:59:16Z</time>
      </trkpt>
      <trkpt lat="48.08329" lon="7.18164">
        <ele>910.03</ele>
        <time>2009-09-27T09:59:17Z</time>
      </trkpt>
      <trkpt lat="48.08327" lon="7.18171">
        <ele>909.54</ele>
        <time>2009-09-27T09:59:18Z</time>
      </trkpt>
      <trkpt lat="48.08326" lon="7.18178">
        <ele>909.06</ele>
        <time>2009-09-27T09:59:19Z</time>
      </trkpt>
      <trkpt lat="48.08326" lon="7.18186">
        <ele>909.06</ele>
        <time>2009-09-27T09:59:20Z</time>
      </trkpt>
      <trkpt lat="48.0833" lon="7.18211">
        <ele>907.14</ele>
        <time>2009-09-27T09:59:23Z</time>
      </trkpt>
      <trkpt lat="48.08336" lon="7.18227">
        <ele>908.58</ele>
        <time>2009-09-27T09:59:25Z</time>
      </trkpt>
      <trkpt lat="48.08341" lon="7.18234">
        <ele>908.58</ele>
        <time>2009-09-27T09:59:26Z</time>
      </trkpt>
      <trkpt lat="48.08362" lon="7.18265">
        <ele>904.74</ele>
        <time>2009-09-27T09:59:32Z</time>
      </trkpt>
      <trkpt lat="48.08365" lon="7.18271">
        <ele>905.7</ele>
        <time>2009-09-27T09:59:33Z</time>
      </trkpt>
      <trkpt lat="48.08373" lon="7.18282">
        <ele>904.26</ele>
        <time>2009-09-27T09:59:35Z</time>
      </trkpt>
      <trkpt lat="48.08376" lon="7.1829">
        <ele>901.85</ele>
        <time>2009-09-27T09:59:36Z</time>
      </trkpt>
      <trkpt lat="48.08379" lon="7.18299">
        <ele>904.74</ele>
        <time>2009-09-27T09:59:37Z</time>
      </trkpt>
      <trkpt lat="48.08382" lon="7.18309">
        <ele>903.3</ele>
        <time>2009-09-27T09:59:38Z</time>
      </trkpt>
      <trkpt lat="48.08385" lon="7.18319">
        <ele>903.78</ele>
        <time>2009-09-27T09:59:39Z</time>
      </trkpt>
      <trkpt lat="48.08388" lon="7.18329">
        <ele>902.82</ele>
        <time>2009-09-27T09:59:40Z</time>
      </trkpt>
      <trkpt lat="48.0839" lon="7.18337">
        <ele>902.82</ele>
        <time>2009-09-27T09:59:41Z</time>
      </trkpt>
      <trkpt lat="48.08392" lon="7.18343">
        <ele>902.82</ele>
        <time>2009-09-27T09:59:42Z</time>
      </trkpt>
      <trkpt lat="48.08394" lon="7.18349">
        <ele>901.85</ele>
        <time>2009-09-27T09:59:43Z</time>
      </trkpt>
      <trkpt lat="48.08395" lon="7.18353">
        <ele>905.22</ele>
        <time>2009-09-27T09:59:44Z</time>
      </trkpt>
      <trkpt lat="48.08397" lon="7.18361">
        <ele>902.82</ele>
        <time>2009-09-27T09:59:45Z</time>
      </trkpt>
      <trkpt lat="48.08398" lon="7.18368">
        <ele>903.78</ele>
        <time>2009-09-27T09:59:46Z</time>
      </trkpt>
      <trkpt lat="48.084" lon="7.18375">
        <ele>903.3</ele>
        <time>2009-09-27T09:59:47Z</time>
      </trkpt>
      <trkpt lat="48.0841" lon="7.18418">
        <ele>900.89</ele>
        <time>2009-09-27T09:59:54Z</time>
      </trkpt>
      <trkpt lat="48.08412" lon="7.18426">
        <ele>901.37</ele>
        <time>2009-09-27T09:59:55Z</time>
      </trkpt>
      <trkpt lat="48.08415" lon="7.18434">
        <ele>901.85</ele>
        <time>2009-09-27T09:59:56Z</time>
      </trkpt>
      <trkpt lat="48.08421" lon="7.18449">
        <ele>900.89</ele>
        <time>2009-09-27T09:59:58Z</time>
      </trkpt>
      <trkpt lat="48.08431" lon="7.18463">
        <ele>899.93</ele>
        <time>2009-09-27T10:00:01Z</time>
      </trkpt>
      <trkpt lat="48.08433" lon="7.18468">
        <ele>898.01</ele>
        <time>2009-09-27T10:00:02Z</time>
      </trkpt>
      <trkpt lat="48.08434" lon="7.18475">
        <ele>898.97</ele>
        <time>2009-09-27T10:00:03Z</time>
      </trkpt>
      <trkpt lat="48.08435" lon="7.1848">
        <ele>898.97</ele>
        <time>2009-09-27T10:00:04Z</time>
      </trkpt>
      <trkpt lat="48.08437" lon="7.18486">
        <ele>898.49</ele>
        <time>2009-09-27T10:00:05Z</time>
      </trkpt>
      <trkpt lat="48.08438" lon="7.18491">
        <ele>898.97</ele>
        <time>2009-09-27T10:00:06Z</time>
      </trkpt>
      <trkpt lat="48.08439" lon="7.18496">
        <ele>901.85</ele>
        <time>2009-09-27T10:00:07Z</time>
      </trkpt>
      <trkpt lat="48.08441" lon="7.18501">
        <ele>898.49</ele>
        <time>2009-09-27T10:00:08Z</time>
      </trkpt>
      <trkpt lat="48.08442" lon="7.18506">
        <ele>897.53</ele>
        <time>2009-09-27T10:00:09Z</time>
      </trkpt>
      <trkpt lat="48.08443" lon="7.1851">
        <ele>898.97</ele>
        <time>2009-09-27T10:00:10Z</time>
      </trkpt>
      <trkpt lat="48.08443" lon="7.18514">
        <ele>895.61</ele>
        <time>2009-09-27T10:00:11Z</time>
      </trkpt>
      <trkpt lat="48.08443" lon="7.18517">
        <ele>894.64</ele>
        <time>2009-09-27T10:00:12Z</time>
      </trkpt>
      <trkpt lat="48.08443" lon="7.18521">
        <ele>892.24</ele>
        <time>2009-09-27T10:00:13Z</time>
      </trkpt>
      <trkpt lat="48.08443" lon="7.18527">
        <ele>891.28</ele>
        <time>2009-09-27T10:00:14Z</time>
      </trkpt>
      <trkpt lat="48.08445" lon="7.18536">
        <ele>890.8</ele>
        <time>2009-09-27T10:00:15Z</time>
      </trkpt>
      <trkpt lat="48.08447" lon="7.18545">
        <ele>890.8</ele>
        <time>2009-09-27T10:00:16Z</time>
      </trkpt>
      <trkpt lat="48.0845" lon="7.18554">
        <ele>886.95</ele>
        <time>2009-09-27T10:00:17Z</time>
      </trkpt>
      <trkpt lat="48.08454" lon="7.18562">
        <ele>885.51</ele>
        <time>2009-09-27T10:00:18Z</time>
      </trkpt>
      <trkpt lat="48.08458" lon="7.18568">
        <ele>885.03</ele>
        <time>2009-09-27T10:00:19Z</time>
      </trkpt>
      <trkpt lat="48.08465" lon="7.18576">
        <ele>885.99</ele>
        <time>2009-09-27T10:00:21Z</time>
      </trkpt>
      <trkpt lat="48.08469" lon="7.18577">
        <ele>885.03</ele>
        <time>2009-09-27T10:00:22Z</time>
      </trkpt>
      <trkpt lat="48.08502" lon="7.18589">
        <ele>885.03</ele>
        <time>2009-09-27T10:00:30Z</time>
      </trkpt>
      <trkpt lat="48.08507" lon="7.1859">
        <ele>885.99</ele>
        <time>2009-09-27T10:00:31Z</time>
      </trkpt>
      <trkpt lat="48.08513" lon="7.1859">
        <ele>885.03</ele>
        <time>2009-09-27T10:00:32Z</time>
      </trkpt>
      <trkpt lat="48.08518" lon="7.1859">
        <ele>886.95</ele>
        <time>2009-09-27T10:00:33Z</time>
      </trkpt>
      <trkpt lat="48.08523" lon="7.18591">
        <ele>884.55</ele>
        <time>2009-09-27T10:00:34Z</time>
      </trkpt>
      <trkpt lat="48.08529" lon="7.18593">
        <ele>885.51</ele>
        <time>2009-09-27T10:00:35Z</time>
      </trkpt>
      <trkpt lat="48.08536" lon="7.18594">
        <ele>883.59</ele>
        <time>2009-09-27T10:00:36Z</time>
      </trkpt>
      <trkpt lat="48.08542" lon="7.18593">
        <ele>883.59</ele>
        <time>2009-09-27T10:00:37Z</time>
      </trkpt>
      <trkpt lat="48.08547" lon="7.18593">
        <ele>883.59</ele>
        <time>2009-09-27T10:00:38Z</time>
      </trkpt>
      <trkpt lat="48.08559" lon="7.18592">
        <ele>881.19</ele>
        <time>2009-09-27T10:00:42Z</time>
      </trkpt>
      <trkpt lat="48.08561" lon="7.18591">
        <ele>882.15</ele>
        <time>2009-09-27T10:00:43Z</time>
      </trkpt>
      <trkpt lat="48.0858" lon="7.18592">
        <ele>879.74</ele>
        <time>2009-09-27T10:00:48Z</time>
      </trkpt>
      <trkpt lat="48.08586" lon="7.18592">
        <ele>881.19</ele>
        <time>2009-09-27T10:00:50Z</time>
      </trkpt>
      <trkpt lat="48.08591" lon="7.18594">
        <ele>880.71</ele>
        <time>2009-09-27T10:00:51Z</time>
      </trkpt>
      <trkpt lat="48.08611" lon="7.18601">
        <ele>880.71</ele>
        <time>2009-09-27T10:00:55Z</time>
      </trkpt>
      <trkpt lat="48.08617" lon="7.18601">
        <ele>878.3</ele>
        <time>2009-09-27T10:00:56Z</time>
      </trkpt>
      <trkpt lat="48.08622" lon="7.18601">
        <ele>878.78</ele>
        <time>2009-09-27T10:00:57Z</time>
      </trkpt>
      <trkpt lat="48.08634" lon="7.18602">
        <ele>879.74</ele>
        <time>2009-09-27T10:00:59Z</time>
      </trkpt>
      <trkpt lat="48.08645" lon="7.18604">
        <ele>878.78</ele>
        <time>2009-09-27T10:01:01Z</time>
      </trkpt>
      <trkpt lat="48.08658" lon="7.18609">
        <ele>879.26</ele>
        <time>2009-09-27T10:01:03Z</time>
      </trkpt>
      <trkpt lat="48.08665" lon="7.18611">
        <ele>879.74</ele>
        <time>2009-09-27T10:01:04Z</time>
      </trkpt>
      <trkpt lat="48.08697" lon="7.18624">
        <ele>880.22</ele>
        <time>2009-09-27T10:01:09Z</time>
      </trkpt>
      <trkpt lat="48.08701" lon="7.18625">
        <ele>880.22</ele>
        <time>2009-09-27T10:01:10Z</time>
      </trkpt>
      <trkpt lat="48.08726" lon="7.1863">
        <ele>879.26</ele>
        <time>2009-09-27T10:01:16Z</time>
      </trkpt>
      <trkpt lat="48.08731" lon="7.18628">
        <ele>878.78</ele>
        <time>2009-09-27T10:01:17Z</time>
      </trkpt>
      <trkpt lat="48.08735" lon="7.18628">
        <ele>878.3</ele>
        <time>2009-09-27T10:01:18Z</time>
      </trkpt>
      <trkpt lat="48.0874" lon="7.18629">
        <ele>877.34</ele>
        <time>2009-09-27T10:01:19Z</time>
      </trkpt>
      <trkpt lat="48.08745" lon="7.1863">
        <ele>876.86</ele>
        <time>2009-09-27T10:01:20Z</time>
      </trkpt>
      <trkpt lat="48.0875" lon="7.18631">
        <ele>877.34</ele>
        <time>2009-09-27T10:01:21Z</time>
      </trkpt>
      <trkpt lat="48.08756" lon="7.18632">
        <ele>877.82</ele>
        <time>2009-09-27T10:01:22Z</time>
      </trkpt>
      <trkpt lat="48.08762" lon="7.18634">
        <ele>874.94</ele>
        <time>2009-09-27T10:01:23Z</time>
      </trkpt>
      <trkpt lat="48.08767" lon="7.18635">
        <ele>874.94</ele>
        <time>2009-09-27T10:01:24Z</time>
      </trkpt>
      <trkpt lat="48.08772" lon="7.18636">
        <ele>876.38</ele>
        <time>2009-09-27T10:01:25Z</time>
      </trkpt>
      <trkpt lat="48.08779" lon="7.18636">
        <ele>876.86</ele>
        <time>2009-09-27T10:01:26Z</time>
      </trkpt>
      <trkpt lat="48.08786" lon="7.18637">
        <ele>875.9</ele>
        <time>2009-09-27T10:01:27Z</time>
      </trkpt>
      <trkpt lat="48.08792" lon="7.18638">
        <ele>873.98</ele>
        <time>2009-09-27T10:01:28Z</time>
      </trkpt>
      <trkpt lat="48.08804" lon="7.18638">
        <ele>873.98</ele>
        <time>2009-09-27T10:01:30Z</time>
      </trkpt>
      <trkpt lat="48.0881" lon="7.18638">
        <ele>875.42</ele>
        <time>2009-09-27T10:01:31Z</time>
      </trkpt>
      <trkpt lat="48.08862" lon="7.18637">
        <ele>875.42</ele>
        <time>2009-09-27T10:01:39Z</time>
      </trkpt>
      <trkpt lat="48.08876" lon="7.18637">
        <ele>876.38</ele>
        <time>2009-09-27T10:01:41Z</time>
      </trkpt>
      <trkpt lat="48.08882" lon="7.18635">
        <ele>874.46</ele>
        <time>2009-09-27T10:01:42Z</time>
      </trkpt>
      <trkpt lat="48.08888" lon="7.18635">
        <ele>872.05</ele>
        <time>2009-09-27T10:01:43Z</time>
      </trkpt>
      <trkpt lat="48.08894" lon="7.18635">
        <ele>872.05</ele>
        <time>2009-09-27T10:01:44Z</time>
      </trkpt>
      <trkpt lat="48.08901" lon="7.18636">
        <ele>870.61</ele>
        <time>2009-09-27T10:01:45Z</time>
      </trkpt>
      <trkpt lat="48.08906" lon="7.18637">
        <ele>871.57</ele>
        <time>2009-09-27T10:01:46Z</time>
      </trkpt>
      <trkpt lat="48.08959" lon="7.18652">
        <ele>868.21</ele>
        <time>2009-09-27T10:01:55Z</time>
      </trkpt>
      <trkpt lat="48.08965" lon="7.18654">
        <ele>869.17</ele>
        <time>2009-09-27T10:01:56Z</time>
      </trkpt>
      <trkpt lat="48.08976" lon="7.18658">
        <ele>868.21</ele>
        <time>2009-09-27T10:01:58Z</time>
      </trkpt>
      <trkpt lat="48.08982" lon="7.1866">
        <ele>866.29</ele>
        <time>2009-09-27T10:01:59Z</time>
      </trkpt>
      <trkpt lat="48.08988" lon="7.18663">
        <ele>866.29</ele>
        <time>2009-09-27T10:02:00Z</time>
      </trkpt>
      <trkpt lat="48.08993" lon="7.18666">
        <ele>866.29</ele>
        <time>2009-09-27T10:02:01Z</time>
      </trkpt>
      <trkpt lat="48.08999" lon="7.18667">
        <ele>865.32</ele>
        <time>2009-09-27T10:02:02Z</time>
      </trkpt>
      <trkpt lat="48.09004" lon="7.18668">
        <ele>864.84</ele>
        <time>2009-09-27T10:02:03Z</time>
      </trkpt>
      <trkpt lat="48.09009" lon="7.18672">
        <ele>864.36</ele>
        <time>2009-09-27T10:02:04Z</time>
      </trkpt>
      <trkpt lat="48.09013" lon="7.18676">
        <ele>864.84</ele>
        <time>2009-09-27T10:02:05Z</time>
      </trkpt>
      <trkpt lat="48.09017" lon="7.18681">
        <ele>864.36</ele>
        <time>2009-09-27T10:02:06Z</time>
      </trkpt>
      <trkpt lat="48.0902" lon="7.18686">
        <ele>863.88</ele>
        <time>2009-09-27T10:02:07Z</time>
      </trkpt>
      <trkpt lat="48.09023" lon="7.18691">
        <ele>863.4</ele>
        <time>2009-09-27T10:02:08Z</time>
      </trkpt>
      <trkpt lat="48.09026" lon="7.18697">
        <ele>861.96</ele>
        <time>2009-09-27T10:02:09Z</time>
      </trkpt>
      <trkpt lat="48.09028" lon="7.18705">
        <ele>862.92</ele>
        <time>2009-09-27T10:02:10Z</time>
      </trkpt>
      <trkpt lat="48.0904" lon="7.18736">
        <ele>861</ele>
        <time>2009-09-27T10:02:14Z</time>
      </trkpt>
      <trkpt lat="48.09044" lon="7.18743">
        <ele>859.56</ele>
        <time>2009-09-27T10:02:15Z</time>
      </trkpt>
      <trkpt lat="48.09047" lon="7.18749">
        <ele>861</ele>
        <time>2009-09-27T10:02:16Z</time>
      </trkpt>
      <trkpt lat="48.09051" lon="7.18764">
        <ele>858.11</ele>
        <time>2009-09-27T10:02:18Z</time>
      </trkpt>
      <trkpt lat="48.09054" lon="7.18773">
        <ele>858.59</ele>
        <time>2009-09-27T10:02:19Z</time>
      </trkpt>
      <trkpt lat="48.09056" lon="7.18784">
        <ele>859.56</ele>
        <time>2009-09-27T10:02:20Z</time>
      </trkpt>
      <trkpt lat="48.09057" lon="7.18794">
        <ele>857.63</ele>
        <time>2009-09-27T10:02:21Z</time>
      </trkpt>
      <trkpt lat="48.09058" lon="7.18805">
        <ele>857.63</ele>
        <time>2009-09-27T10:02:22Z</time>
      </trkpt>
      <trkpt lat="48.09061" lon="7.18816">
        <ele>856.19</ele>
        <time>2009-09-27T10:02:23Z</time>
      </trkpt>
      <trkpt lat="48.09065" lon="7.18825">
        <ele>856.19</ele>
        <time>2009-09-27T10:02:24Z</time>
      </trkpt>
      <trkpt lat="48.09069" lon="7.18835">
        <ele>852.83</ele>
        <time>2009-09-27T10:02:25Z</time>
      </trkpt>
      <trkpt lat="48.09073" lon="7.18844">
        <ele>853.79</ele>
        <time>2009-09-27T10:02:26Z</time>
      </trkpt>
      <trkpt lat="48.09076" lon="7.18854">
        <ele>852.83</ele>
        <time>2009-09-27T10:02:27Z</time>
      </trkpt>
      <trkpt lat="48.09079" lon="7.18863">
        <ele>852.83</ele>
        <time>2009-09-27T10:02:28Z</time>
      </trkpt>
      <trkpt lat="48.09081" lon="7.18873">
        <ele>853.31</ele>
        <time>2009-09-27T10:02:29Z</time>
      </trkpt>
      <trkpt lat="48.09084" lon="7.18884">
        <ele>850.9</ele>
        <time>2009-09-27T10:02:30Z</time>
      </trkpt>
      <trkpt lat="48.09087" lon="7.18895">
        <ele>850.9</ele>
        <time>2009-09-27T10:02:31Z</time>
      </trkpt>
      <trkpt lat="48.09089" lon="7.18905">
        <ele>848.98</ele>
        <time>2009-09-27T10:02:32Z</time>
      </trkpt>
      <trkpt lat="48.0909" lon="7.18916">
        <ele>848.5</ele>
        <time>2009-09-27T10:02:33Z</time>
      </trkpt>
      <trkpt lat="48.09088" lon="7.18926">
        <ele>848.02</ele>
        <time>2009-09-27T10:02:34Z</time>
      </trkpt>
      <trkpt lat="48.09087" lon="7.18936">
        <ele>849.94</ele>
        <time>2009-09-27T10:02:35Z</time>
      </trkpt>
      <trkpt lat="48.09085" lon="7.18947">
        <ele>848.02</ele>
        <time>2009-09-27T10:02:36Z</time>
      </trkpt>
      <trkpt lat="48.09084" lon="7.18957">
        <ele>847.54</ele>
        <time>2009-09-27T10:02:37Z</time>
      </trkpt>
      <trkpt lat="48.09082" lon="7.18967">
        <ele>845.62</ele>
        <time>2009-09-27T10:02:38Z</time>
      </trkpt>
      <trkpt lat="48.0908" lon="7.18978">
        <ele>846.1</ele>
        <time>2009-09-27T10:02:39Z</time>
      </trkpt>
      <trkpt lat="48.09076" lon="7.19015">
        <ele>842.73</ele>
        <time>2009-09-27T10:02:42Z</time>
      </trkpt>
      <trkpt lat="48.09074" lon="7.19028">
        <ele>841.77</ele>
        <time>2009-09-27T10:02:43Z</time>
      </trkpt>
      <trkpt lat="48.09072" lon="7.19042">
        <ele>840.33</ele>
        <time>2009-09-27T10:02:44Z</time>
      </trkpt>
      <trkpt lat="48.0907" lon="7.19056">
        <ele>838.89</ele>
        <time>2009-09-27T10:02:45Z</time>
      </trkpt>
      <trkpt lat="48.09067" lon="7.1907">
        <ele>838.89</ele>
        <time>2009-09-27T10:02:46Z</time>
      </trkpt>
      <trkpt lat="48.09065" lon="7.191">
        <ele>836</ele>
        <time>2009-09-27T10:02:48Z</time>
      </trkpt>
      <trkpt lat="48.09065" lon="7.19112">
        <ele>835.52</ele>
        <time>2009-09-27T10:02:49Z</time>
      </trkpt>
      <trkpt lat="48.09065" lon="7.19122">
        <ele>834.56</ele>
        <time>2009-09-27T10:02:50Z</time>
      </trkpt>
      <trkpt lat="48.09064" lon="7.1913">
        <ele>834.08</ele>
        <time>2009-09-27T10:02:51Z</time>
      </trkpt>
      <trkpt lat="48.09062" lon="7.19135">
        <ele>833.6</ele>
        <time>2009-09-27T10:02:52Z</time>
      </trkpt>
      <trkpt lat="48.09061" lon="7.19139">
        <ele>830.24</ele>
        <time>2009-09-27T10:02:53Z</time>
      </trkpt>
      <trkpt lat="48.0906" lon="7.1914">
        <ele>832.16</ele>
        <time>2009-09-27T10:02:54Z</time>
      </trkpt>
      <trkpt lat="48.09062" lon="7.19149">
        <ele>833.6</ele>
        <time>2009-09-27T10:02:59Z</time>
      </trkpt>
      <trkpt lat="48.09061" lon="7.19153">
        <ele>831.68</ele>
        <time>2009-09-27T10:03:02Z</time>
      </trkpt>
      <trkpt lat="48.0906" lon="7.19161">
        <ele>832.16</ele>
        <time>2009-09-27T10:03:05Z</time>
      </trkpt>
      <trkpt lat="48.0906" lon="7.19164">
        <ele>832.64</ele>
        <time>2009-09-27T10:03:06Z</time>
      </trkpt>
      <trkpt lat="48.09056" lon="7.19173">
        <ele>830.72</ele>
        <time>2009-09-27T10:03:08Z</time>
      </trkpt>
      <trkpt lat="48.09054" lon="7.19178">
        <ele>831.2</ele>
        <time>2009-09-27T10:03:09Z</time>
      </trkpt>
      <trkpt lat="48.09052" lon="7.19184">
        <ele>829.27</ele>
        <time>2009-09-27T10:03:10Z</time>
      </trkpt>
      <trkpt lat="48.09051" lon="7.19191">
        <ele>828.79</ele>
        <time>2009-09-27T10:03:11Z</time>
      </trkpt>
      <trkpt lat="48.0905" lon="7.19221">
        <ele>825.91</ele>
        <time>2009-09-27T10:03:14Z</time>
      </trkpt>
      <trkpt lat="48.09049" lon="7.19229">
        <ele>824.47</ele>
        <time>2009-09-27T10:03:15Z</time>
      </trkpt>
      <trkpt lat="48.09048" lon="7.19236">
        <ele>824.47</ele>
        <time>2009-09-27T10:03:16Z</time>
      </trkpt>
      <trkpt lat="48.09048" lon="7.19242">
        <ele>823.51</ele>
        <time>2009-09-27T10:03:17Z</time>
      </trkpt>
      <trkpt lat="48.09049" lon="7.19247">
        <ele>822.55</ele>
        <time>2009-09-27T10:03:18Z</time>
      </trkpt>
      <trkpt lat="48.09052" lon="7.1925">
        <ele>821.58</ele>
        <time>2009-09-27T10:03:19Z</time>
      </trkpt>
      <trkpt lat="48.09057" lon="7.19253">
        <ele>820.62</ele>
        <time>2009-09-27T10:03:20Z</time>
      </trkpt>
      <trkpt lat="48.09071" lon="7.19267">
        <ele>818.7</ele>
        <time>2009-09-27T10:03:23Z</time>
      </trkpt>
      <trkpt lat="48.09081" lon="7.19281">
        <ele>814.37</ele>
        <time>2009-09-27T10:03:26Z</time>
      </trkpt>
      <trkpt lat="48.09081" lon="7.19287">
        <ele>814.85</ele>
        <time>2009-09-27T10:03:27Z</time>
      </trkpt>
      <trkpt lat="48.0908" lon="7.19292">
        <ele>815.82</ele>
        <time>2009-09-27T10:03:28Z</time>
      </trkpt>
      <trkpt lat="48.09075" lon="7.19304">
        <ele>814.37</ele>
        <time>2009-09-27T10:03:30Z</time>
      </trkpt>
      <trkpt lat="48.09072" lon="7.19312">
        <ele>814.37</ele>
        <time>2009-09-27T10:03:31Z</time>
      </trkpt>
      <trkpt lat="48.09068" lon="7.1932">
        <ele>813.89</ele>
        <time>2009-09-27T10:03:32Z</time>
      </trkpt>
      <trkpt lat="48.09063" lon="7.19328">
        <ele>812.93</ele>
        <time>2009-09-27T10:03:33Z</time>
      </trkpt>
      <trkpt lat="48.09058" lon="7.19336">
        <ele>811.49</ele>
        <time>2009-09-27T10:03:34Z</time>
      </trkpt>
      <trkpt lat="48.09051" lon="7.19344">
        <ele>811.97</ele>
        <time>2009-09-27T10:03:35Z</time>
      </trkpt>
      <trkpt lat="48.09044" lon="7.19352">
        <ele>810.53</ele>
        <time>2009-09-27T10:03:36Z</time>
      </trkpt>
      <trkpt lat="48.09037" lon="7.19362">
        <ele>809.57</ele>
        <time>2009-09-27T10:03:37Z</time>
      </trkpt>
      <trkpt lat="48.0903" lon="7.19374">
        <ele>807.16</ele>
        <time>2009-09-27T10:03:38Z</time>
      </trkpt>
      <trkpt lat="48.09025" lon="7.19386">
        <ele>804.76</ele>
        <time>2009-09-27T10:03:39Z</time>
      </trkpt>
      <trkpt lat="48.09021" lon="7.19397">
        <ele>804.76</ele>
        <time>2009-09-27T10:03:40Z</time>
      </trkpt>
      <trkpt lat="48.0902" lon="7.1941">
        <ele>804.76</ele>
        <time>2009-09-27T10:03:41Z</time>
      </trkpt>
      <trkpt lat="48.09021" lon="7.19424">
        <ele>803.8</ele>
        <time>2009-09-27T10:03:42Z</time>
      </trkpt>
      <trkpt lat="48.09023" lon="7.19439">
        <ele>801.88</ele>
        <time>2009-09-27T10:03:43Z</time>
      </trkpt>
      <trkpt lat="48.09026" lon="7.19453">
        <ele>799.95</ele>
        <time>2009-09-27T10:03:44Z</time>
      </trkpt>
      <trkpt lat="48.09029" lon="7.19468">
        <ele>799.47</ele>
        <time>2009-09-27T10:03:45Z</time>
      </trkpt>
      <trkpt lat="48.09037" lon="7.1951">
        <ele>795.63</ele>
        <time>2009-09-27T10:03:48Z</time>
      </trkpt>
      <trkpt lat="48.0904" lon="7.19524">
        <ele>796.11</ele>
        <time>2009-09-27T10:03:49Z</time>
      </trkpt>
      <trkpt lat="48.09058" lon="7.19594">
        <ele>794.67</ele>
        <time>2009-09-27T10:03:54Z</time>
      </trkpt>
      <trkpt lat="48.09062" lon="7.19608">
        <ele>795.15</ele>
        <time>2009-09-27T10:03:55Z</time>
      </trkpt>
      <trkpt lat="48.09067" lon="7.19622">
        <ele>793.22</ele>
        <time>2009-09-27T10:03:56Z</time>
      </trkpt>
      <trkpt lat="48.09084" lon="7.19663">
        <ele>792.74</ele>
        <time>2009-09-27T10:03:59Z</time>
      </trkpt>
      <trkpt lat="48.09089" lon="7.19678">
        <ele>791.3</ele>
        <time>2009-09-27T10:04:00Z</time>
      </trkpt>
      <trkpt lat="48.09092" lon="7.19693">
        <ele>791.78</ele>
        <time>2009-09-27T10:04:01Z</time>
      </trkpt>
      <trkpt lat="48.09106" lon="7.19777">
        <ele>789.86</ele>
        <time>2009-09-27T10:04:07Z</time>
      </trkpt>
      <trkpt lat="48.09109" lon="7.19789">
        <ele>788.42</ele>
        <time>2009-09-27T10:04:08Z</time>
      </trkpt>
      <trkpt lat="48.09133" lon="7.19852">
        <ele>786.02</ele>
        <time>2009-09-27T10:04:14Z</time>
      </trkpt>
      <trkpt lat="48.09139" lon="7.19861">
        <ele>786.02</ele>
        <time>2009-09-27T10:04:15Z</time>
      </trkpt>
      <trkpt lat="48.09144" lon="7.19869">
        <ele>787.46</ele>
        <time>2009-09-27T10:04:16Z</time>
      </trkpt>
      <trkpt lat="48.09159" lon="7.19896">
        <ele>787.94</ele>
        <time>2009-09-27T10:04:19Z</time>
      </trkpt>
      <trkpt lat="48.0917" lon="7.19915">
        <ele>789.86</ele>
        <time>2009-09-27T10:04:21Z</time>
      </trkpt>
      <trkpt lat="48.09189" lon="7.19954">
        <ele>790.34</ele>
        <time>2009-09-27T10:04:25Z</time>
      </trkpt>
      <trkpt lat="48.09204" lon="7.20018">
        <ele>791.3</ele>
        <time>2009-09-27T10:04:31Z</time>
      </trkpt>
      <trkpt lat="48.09206" lon="7.20028">
        <ele>791.3</ele>
        <time>2009-09-27T10:04:32Z</time>
      </trkpt>
      <trkpt lat="48.09211" lon="7.20057">
        <ele>791.78</ele>
        <time>2009-09-27T10:04:35Z</time>
      </trkpt>
      <trkpt lat="48.09211" lon="7.20065">
        <ele>790.82</ele>
        <time>2009-09-27T10:04:36Z</time>
      </trkpt>
      <trkpt lat="48.09211" lon="7.20072">
        <ele>790.82</ele>
        <time>2009-09-27T10:04:37Z</time>
      </trkpt>
      <trkpt lat="48.09211" lon="7.20079">
        <ele>789.38</ele>
        <time>2009-09-27T10:04:38Z</time>
      </trkpt>
      <trkpt lat="48.09213" lon="7.20088">
        <ele>790.34</ele>
        <time>2009-09-27T10:04:39Z</time>
      </trkpt>
      <trkpt lat="48.09215" lon="7.20098">
        <ele>789.38</ele>
        <time>2009-09-27T10:04:40Z</time>
      </trkpt>
      <trkpt lat="48.09224" lon="7.20137">
        <ele>785.53</ele>
        <time>2009-09-27T10:04:43Z</time>
      </trkpt>
      <trkpt lat="48.0923" lon="7.20162">
        <ele>784.09</ele>
        <time>2009-09-27T10:04:45Z</time>
      </trkpt>
      <trkpt lat="48.09231" lon="7.20174">
        <ele>781.21</ele>
        <time>2009-09-27T10:04:46Z</time>
      </trkpt>
      <trkpt lat="48.09232" lon="7.20187">
        <ele>784.57</ele>
        <time>2009-09-27T10:04:47Z</time>
      </trkpt>
      <trkpt lat="48.09234" lon="7.20202">
        <ele>782.17</ele>
        <time>2009-09-27T10:04:48Z</time>
      </trkpt>
      <trkpt lat="48.09236" lon="7.20217">
        <ele>781.69</ele>
        <time>2009-09-27T10:04:49Z</time>
      </trkpt>
      <trkpt lat="48.09238" lon="7.20233">
        <ele>782.17</ele>
        <time>2009-09-27T10:04:50Z</time>
      </trkpt>
      <trkpt lat="48.09238" lon="7.20276">
        <ele>779.29</ele>
        <time>2009-09-27T10:04:53Z</time>
      </trkpt>
      <trkpt lat="48.09239" lon="7.2029">
        <ele>777.84</ele>
        <time>2009-09-27T10:04:54Z</time>
      </trkpt>
      <trkpt lat="48.09241" lon="7.20302">
        <ele>776.4</ele>
        <time>2009-09-27T10:04:55Z</time>
      </trkpt>
      <trkpt lat="48.09246" lon="7.20314">
        <ele>777.36</ele>
        <time>2009-09-27T10:04:56Z</time>
      </trkpt>
      <trkpt lat="48.0925" lon="7.20324">
        <ele>777.36</ele>
        <time>2009-09-27T10:04:57Z</time>
      </trkpt>
      <trkpt lat="48.09252" lon="7.20334">
        <ele>779.29</ele>
        <time>2009-09-27T10:04:58Z</time>
      </trkpt>
      <trkpt lat="48.09254" lon="7.20343">
        <ele>777.36</ele>
        <time>2009-09-27T10:04:59Z</time>
      </trkpt>
      <trkpt lat="48.09257" lon="7.20364">
        <ele>776.4</ele>
        <time>2009-09-27T10:05:01Z</time>
      </trkpt>
      <trkpt lat="48.09258" lon="7.20374">
        <ele>774</ele>
        <time>2009-09-27T10:05:02Z</time>
      </trkpt>
      <trkpt lat="48.0926" lon="7.20384">
        <ele>774.48</ele>
        <time>2009-09-27T10:05:03Z</time>
      </trkpt>
      <trkpt lat="48.09262" lon="7.20393">
        <ele>774.48</ele>
        <time>2009-09-27T10:05:04Z</time>
      </trkpt>
      <trkpt lat="48.09264" lon="7.20402">
        <ele>774.96</ele>
        <time>2009-09-27T10:05:05Z</time>
      </trkpt>
      <trkpt lat="48.09266" lon="7.20411">
        <ele>774</ele>
        <time>2009-09-27T10:05:06Z</time>
      </trkpt>
      <trkpt lat="48.09267" lon="7.20418">
        <ele>766.31</ele>
        <time>2009-09-27T10:05:07Z</time>
      </trkpt>
      <trkpt lat="48.09268" lon="7.20425">
        <ele>774</ele>
        <time>2009-09-27T10:05:08Z</time>
      </trkpt>
      <trkpt lat="48.09271" lon="7.20434">
        <ele>774.96</ele>
        <time>2009-09-27T10:05:09Z</time>
      </trkpt>
      <trkpt lat="48.09274" lon="7.20442">
        <ele>775.44</ele>
        <time>2009-09-27T10:05:10Z</time>
      </trkpt>
      <trkpt lat="48.09275" lon="7.20449">
        <ele>774.96</ele>
        <time>2009-09-27T10:05:11Z</time>
      </trkpt>
      <trkpt lat="48.09275" lon="7.20456">
        <ele>774.48</ele>
        <time>2009-09-27T10:05:12Z</time>
      </trkpt>
      <trkpt lat="48.09278" lon="7.20464">
        <ele>772.56</ele>
        <time>2009-09-27T10:05:13Z</time>
      </trkpt>
      <trkpt lat="48.0928" lon="7.20472">
        <ele>773.04</ele>
        <time>2009-09-27T10:05:14Z</time>
      </trkpt>
      <trkpt lat="48.09293" lon="7.20507">
        <ele>774</ele>
        <time>2009-09-27T10:05:18Z</time>
      </trkpt>
      <trkpt lat="48.09296" lon="7.20516">
        <ele>772.56</ele>
        <time>2009-09-27T10:05:19Z</time>
      </trkpt>
      <trkpt lat="48.09299" lon="7.20525">
        <ele>773.52</ele>
        <time>2009-09-27T10:05:20Z</time>
      </trkpt>
      <trkpt lat="48.093" lon="7.20534">
        <ele>774.96</ele>
        <time>2009-09-27T10:05:21Z</time>
      </trkpt>
      <trkpt lat="48.09302" lon="7.20543">
        <ele>773.52</ele>
        <time>2009-09-27T10:05:22Z</time>
      </trkpt>
      <trkpt lat="48.09302" lon="7.20551">
        <ele>771.6</ele>
        <time>2009-09-27T10:05:23Z</time>
      </trkpt>
      <trkpt lat="48.09302" lon="7.2056">
        <ele>774.96</ele>
        <time>2009-09-27T10:05:24Z</time>
      </trkpt>
      <trkpt lat="48.093" lon="7.20567">
        <ele>773.04</ele>
        <time>2009-09-27T10:05:25Z</time>
      </trkpt>
      <trkpt lat="48.09297" lon="7.20575">
        <ele>773.04</ele>
        <time>2009-09-27T10:05:26Z</time>
      </trkpt>
      <trkpt lat="48.09295" lon="7.20581">
        <ele>773.52</ele>
        <time>2009-09-27T10:05:27Z</time>
      </trkpt>
      <trkpt lat="48.09293" lon="7.20588">
        <ele>774.96</ele>
        <time>2009-09-27T10:05:28Z</time>
      </trkpt>
      <trkpt lat="48.09292" lon="7.20595">
        <ele>774</ele>
        <time>2009-09-27T10:05:29Z</time>
      </trkpt>
      <trkpt lat="48.09292" lon="7.20602">
        <ele>773.04</ele>
        <time>2009-09-27T10:05:30Z</time>
      </trkpt>
      <trkpt lat="48.09293" lon="7.2061">
        <ele>773.04</ele>
        <time>2009-09-27T10:05:31Z</time>
      </trkpt>
      <trkpt lat="48.09294" lon="7.20618">
        <ele>774.48</ele>
        <time>2009-09-27T10:05:32Z</time>
      </trkpt>
      <trkpt lat="48.09295" lon="7.20627">
        <ele>774.96</ele>
        <time>2009-09-27T10:05:33Z</time>
      </trkpt>
      <trkpt lat="48.09294" lon="7.20635">
        <ele>773.52</ele>
        <time>2009-09-27T10:05:34Z</time>
      </trkpt>
      <trkpt lat="48.09294" lon="7.20643">
        <ele>774.48</ele>
        <time>2009-09-27T10:05:35Z</time>
      </trkpt>
      <trkpt lat="48.09293" lon="7.2065">
        <ele>774</ele>
        <time>2009-09-27T10:05:36Z</time>
      </trkpt>
      <trkpt lat="48.09289" lon="7.2068">
        <ele>773.52</ele>
        <time>2009-09-27T10:05:41Z</time>
      </trkpt>
      <trkpt lat="48.09289" lon="7.20688">
        <ele>772.56</ele>
        <time>2009-09-27T10:05:42Z</time>
      </trkpt>
      <trkpt lat="48.09289" lon="7.20695">
        <ele>772.08</ele>
        <time>2009-09-27T10:05:43Z</time>
      </trkpt>
      <trkpt lat="48.09291" lon="7.20703">
        <ele>771.6</ele>
        <time>2009-09-27T10:05:44Z</time>
      </trkpt>
      <trkpt lat="48.09294" lon="7.2071">
        <ele>769.67</ele>
        <time>2009-09-27T10:05:45Z</time>
      </trkpt>
      <trkpt lat="48.09296" lon="7.20718">
        <ele>769.19</ele>
        <time>2009-09-27T10:05:46Z</time>
      </trkpt>
      <trkpt lat="48.09299" lon="7.20726">
        <ele>768.23</ele>
        <time>2009-09-27T10:05:47Z</time>
      </trkpt>
      <trkpt lat="48.0931" lon="7.20745">
        <ele>768.23</ele>
        <time>2009-09-27T10:05:49Z</time>
      </trkpt>
      <trkpt lat="48.09316" lon="7.20754">
        <ele>767.75</ele>
        <time>2009-09-27T10:05:50Z</time>
      </trkpt>
      <trkpt lat="48.09323" lon="7.20764">
        <ele>770.15</ele>
        <time>2009-09-27T10:05:51Z</time>
      </trkpt>
      <trkpt lat="48.09335" lon="7.20784">
        <ele>767.75</ele>
        <time>2009-09-27T10:05:53Z</time>
      </trkpt>
      <trkpt lat="48.09343" lon="7.20794">
        <ele>766.79</ele>
        <time>2009-09-27T10:05:54Z</time>
      </trkpt>
      <trkpt lat="48.0935" lon="7.20804">
        <ele>766.79</ele>
        <time>2009-09-27T10:05:55Z</time>
      </trkpt>
      <trkpt lat="48.0939" lon="7.20849">
        <ele>765.35</ele>
        <time>2009-09-27T10:06:01Z</time>
      </trkpt>
      <trkpt lat="48.09396" lon="7.20857">
        <ele>764.39</ele>
        <time>2009-09-27T10:06:02Z</time>
      </trkpt>
      <trkpt lat="48.09404" lon="7.20865">
        <ele>763.9</ele>
        <time>2009-09-27T10:06:03Z</time>
      </trkpt>
      <trkpt lat="48.09412" lon="7.20873">
        <ele>763.9</ele>
        <time>2009-09-27T10:06:04Z</time>
      </trkpt>
      <trkpt lat="48.09419" lon="7.20881">
        <ele>761.5</ele>
        <time>2009-09-27T10:06:05Z</time>
      </trkpt>
      <trkpt lat="48.09425" lon="7.2089">
        <ele>761.5</ele>
        <time>2009-09-27T10:06:06Z</time>
      </trkpt>
      <trkpt lat="48.09432" lon="7.20898">
        <ele>758.62</ele>
        <time>2009-09-27T10:06:07Z</time>
      </trkpt>
      <trkpt lat="48.09459" lon="7.2093">
        <ele>758.14</ele>
        <time>2009-09-27T10:06:11Z</time>
      </trkpt>
      <trkpt lat="48.09464" lon="7.20939">
        <ele>758.14</ele>
        <time>2009-09-27T10:06:12Z</time>
      </trkpt>
      <trkpt lat="48.09471" lon="7.20948">
        <ele>755.73</ele>
        <time>2009-09-27T10:06:13Z</time>
      </trkpt>
      <trkpt lat="48.09478" lon="7.20957">
        <ele>756.21</ele>
        <time>2009-09-27T10:06:14Z</time>
      </trkpt>
      <trkpt lat="48.09491" lon="7.20975">
        <ele>755.73</ele>
        <time>2009-09-27T10:06:16Z</time>
      </trkpt>
      <trkpt lat="48.09511" lon="7.2101">
        <ele>751.89</ele>
        <time>2009-09-27T10:06:20Z</time>
      </trkpt>
      <trkpt lat="48.09515" lon="7.21017">
        <ele>750.93</ele>
        <time>2009-09-27T10:06:21Z</time>
      </trkpt>
      <trkpt lat="48.09519" lon="7.21024">
        <ele>750.45</ele>
        <time>2009-09-27T10:06:22Z</time>
      </trkpt>
      <trkpt lat="48.09529" lon="7.2104">
        <ele>749.49</ele>
        <time>2009-09-27T10:06:24Z</time>
      </trkpt>
      <trkpt lat="48.09536" lon="7.21048">
        <ele>749.49</ele>
        <time>2009-09-27T10:06:25Z</time>
      </trkpt>
      <trkpt lat="48.09542" lon="7.21057">
        <ele>749.49</ele>
        <time>2009-09-27T10:06:26Z</time>
      </trkpt>
      <trkpt lat="48.09548" lon="7.21068">
        <ele>748.04</ele>
        <time>2009-09-27T10:06:27Z</time>
      </trkpt>
      <trkpt lat="48.09553" lon="7.21078">
        <ele>748.52</ele>
        <time>2009-09-27T10:06:28Z</time>
      </trkpt>
      <trkpt lat="48.09556" lon="7.21088">
        <ele>747.56</ele>
        <time>2009-09-27T10:06:29Z</time>
      </trkpt>
      <trkpt lat="48.0956" lon="7.21098">
        <ele>748.04</ele>
        <time>2009-09-27T10:06:30Z</time>
      </trkpt>
      <trkpt lat="48.09563" lon="7.21108">
        <ele>745.16</ele>
        <time>2009-09-27T10:06:31Z</time>
      </trkpt>
      <trkpt lat="48.09567" lon="7.21118">
        <ele>745.64</ele>
        <time>2009-09-27T10:06:32Z</time>
      </trkpt>
      <trkpt lat="48.09581" lon="7.2116">
        <ele>741.79</ele>
        <time>2009-09-27T10:06:36Z</time>
      </trkpt>
      <trkpt lat="48.09587" lon="7.21186">
        <ele>739.39</ele>
        <time>2009-09-27T10:06:39Z</time>
      </trkpt>
      <trkpt lat="48.09589" lon="7.21197">
        <ele>737.95</ele>
        <time>2009-09-27T10:06:40Z</time>
      </trkpt>
      <trkpt lat="48.09591" lon="7.21209">
        <ele>736.51</ele>
        <time>2009-09-27T10:06:41Z</time>
      </trkpt>
      <trkpt lat="48.09594" lon="7.21222">
        <ele>736.03</ele>
        <time>2009-09-27T10:06:42Z</time>
      </trkpt>
      <trkpt lat="48.09597" lon="7.21233">
        <ele>735.55</ele>
        <time>2009-09-27T10:06:43Z</time>
      </trkpt>
      <trkpt lat="48.096" lon="7.21243">
        <ele>734.1</ele>
        <time>2009-09-27T10:06:44Z</time>
      </trkpt>
      <trkpt lat="48.09602" lon="7.21253">
        <ele>733.62</ele>
        <time>2009-09-27T10:06:45Z</time>
      </trkpt>
      <trkpt lat="48.09602" lon="7.21262">
        <ele>734.1</ele>
        <time>2009-09-27T10:06:46Z</time>
      </trkpt>
      <trkpt lat="48.09603" lon="7.21274">
        <ele>732.66</ele>
        <time>2009-09-27T10:06:47Z</time>
      </trkpt>
      <trkpt lat="48.09605" lon="7.21286">
        <ele>731.22</ele>
        <time>2009-09-27T10:06:48Z</time>
      </trkpt>
      <trkpt lat="48.09609" lon="7.2132">
        <ele>729.3</ele>
        <time>2009-09-27T10:06:51Z</time>
      </trkpt>
      <trkpt lat="48.09609" lon="7.2134">
        <ele>726.89</ele>
        <time>2009-09-27T10:06:53Z</time>
      </trkpt>
      <trkpt lat="48.09608" lon="7.21347">
        <ele>725.93</ele>
        <time>2009-09-27T10:06:54Z</time>
      </trkpt>
      <trkpt lat="48.09606" lon="7.21354">
        <ele>725.93</ele>
        <time>2009-09-27T10:06:55Z</time>
      </trkpt>
      <trkpt lat="48.09604" lon="7.21361">
        <ele>722.09</ele>
        <time>2009-09-27T10:06:56Z</time>
      </trkpt>
      <trkpt lat="48.09602" lon="7.21367">
        <ele>722.09</ele>
        <time>2009-09-27T10:06:57Z</time>
      </trkpt>
      <trkpt lat="48.09586" lon="7.21388">
        <ele>718.72</ele>
        <time>2009-09-27T10:07:01Z</time>
      </trkpt>
      <trkpt lat="48.09583" lon="7.21395">
        <ele>717.28</ele>
        <time>2009-09-27T10:07:02Z</time>
      </trkpt>
      <trkpt lat="48.09582" lon="7.21403">
        <ele>715.36</ele>
        <time>2009-09-27T10:07:03Z</time>
      </trkpt>
      <trkpt lat="48.09582" lon="7.21411">
        <ele>714.88</ele>
        <time>2009-09-27T10:07:04Z</time>
      </trkpt>
      <trkpt lat="48.09584" lon="7.2142">
        <ele>711.99</ele>
        <time>2009-09-27T10:07:05Z</time>
      </trkpt>
      <trkpt lat="48.09588" lon="7.21431">
        <ele>711.51</ele>
        <time>2009-09-27T10:07:06Z</time>
      </trkpt>
      <trkpt lat="48.09591" lon="7.21442">
        <ele>709.59</ele>
        <time>2009-09-27T10:07:07Z</time>
      </trkpt>
      <trkpt lat="48.09595" lon="7.21455">
        <ele>709.59</ele>
        <time>2009-09-27T10:07:08Z</time>
      </trkpt>
      <trkpt lat="48.09599" lon="7.21469">
        <ele>708.63</ele>
        <time>2009-09-27T10:07:09Z</time>
      </trkpt>
      <trkpt lat="48.09603" lon="7.21485">
        <ele>708.15</ele>
        <time>2009-09-27T10:07:10Z</time>
      </trkpt>
      <trkpt lat="48.09607" lon="7.21499">
        <ele>705.75</ele>
        <time>2009-09-27T10:07:11Z</time>
      </trkpt>
      <trkpt lat="48.09613" lon="7.21513">
        <ele>706.23</ele>
        <time>2009-09-27T10:07:12Z</time>
      </trkpt>
      <trkpt lat="48.09619" lon="7.21524">
        <ele>704.78</ele>
        <time>2009-09-27T10:07:13Z</time>
      </trkpt>
      <trkpt lat="48.09625" lon="7.21534">
        <ele>704.78</ele>
        <time>2009-09-27T10:07:14Z</time>
      </trkpt>
      <trkpt lat="48.09632" lon="7.21542">
        <ele>703.34</ele>
        <time>2009-09-27T10:07:15Z</time>
      </trkpt>
      <trkpt lat="48.09638" lon="7.21549">
        <ele>702.86</ele>
        <time>2009-09-27T10:07:16Z</time>
      </trkpt>
      <trkpt lat="48.09643" lon="7.21556">
        <ele>702.38</ele>
        <time>2009-09-27T10:07:17Z</time>
      </trkpt>
      <trkpt lat="48.09648" lon="7.21563">
        <ele>703.34</ele>
        <time>2009-09-27T10:07:18Z</time>
      </trkpt>
      <trkpt lat="48.09652" lon="7.21572">
        <ele>701.9</ele>
        <time>2009-09-27T10:07:19Z</time>
      </trkpt>
      <trkpt lat="48.09679" lon="7.21633">
        <ele>697.57</ele>
        <time>2009-09-27T10:07:24Z</time>
      </trkpt>
      <trkpt lat="48.09695" lon="7.21674">
        <ele>693.73</ele>
        <time>2009-09-27T10:07:27Z</time>
      </trkpt>
      <trkpt lat="48.09708" lon="7.21704">
        <ele>692.77</ele>
        <time>2009-09-27T10:07:29Z</time>
      </trkpt>
      <trkpt lat="48.09723" lon="7.21731">
        <ele>689.4</ele>
        <time>2009-09-27T10:07:31Z</time>
      </trkpt>
      <trkpt lat="48.09731" lon="7.21743">
        <ele>689.88</ele>
        <time>2009-09-27T10:07:32Z</time>
      </trkpt>
      <trkpt lat="48.09739" lon="7.21755">
        <ele>689.4</ele>
        <time>2009-09-27T10:07:33Z</time>
      </trkpt>
      <trkpt lat="48.09746" lon="7.21768">
        <ele>688.92</ele>
        <time>2009-09-27T10:07:34Z</time>
      </trkpt>
      <trkpt lat="48.09751" lon="7.21781">
        <ele>689.88</ele>
        <time>2009-09-27T10:07:35Z</time>
      </trkpt>
      <trkpt lat="48.09755" lon="7.21793">
        <ele>689.88</ele>
        <time>2009-09-27T10:07:36Z</time>
      </trkpt>
      <trkpt lat="48.09758" lon="7.21804">
        <ele>689.88</ele>
        <time>2009-09-27T10:07:37Z</time>
      </trkpt>
      <trkpt lat="48.09762" lon="7.21827">
        <ele>687.96</ele>
        <time>2009-09-27T10:07:39Z</time>
      </trkpt>
      <trkpt lat="48.09765" lon="7.21838">
        <ele>688.44</ele>
        <time>2009-09-27T10:07:40Z</time>
      </trkpt>
      <trkpt lat="48.09773" lon="7.21871">
        <ele>688.92</ele>
        <time>2009-09-27T10:07:43Z</time>
      </trkpt>
      <trkpt lat="48.09777" lon="7.21882">
        <ele>688.44</ele>
        <time>2009-09-27T10:07:44Z</time>
      </trkpt>
      <trkpt lat="48.0978" lon="7.21893">
        <ele>688.44</ele>
        <time>2009-09-27T10:07:45Z</time>
      </trkpt>
      <trkpt lat="48.09798" lon="7.21947">
        <ele>685.56</ele>
        <time>2009-09-27T10:07:50Z</time>
      </trkpt>
      <trkpt lat="48.09803" lon="7.2197">
        <ele>685.08</ele>
        <time>2009-09-27T10:07:52Z</time>
      </trkpt>
      <trkpt lat="48.09805" lon="7.21982">
        <ele>686.04</ele>
        <time>2009-09-27T10:07:53Z</time>
      </trkpt>
      <trkpt lat="48.09812" lon="7.2204">
        <ele>683.15</ele>
        <time>2009-09-27T10:07:58Z</time>
      </trkpt>
      <trkpt lat="48.09815" lon="7.22048">
        <ele>684.6</ele>
        <time>2009-09-27T10:07:59Z</time>
      </trkpt>
      <trkpt lat="48.09819" lon="7.22054">
        <ele>683.63</ele>
        <time>2009-09-27T10:08:00Z</time>
      </trkpt>
      <trkpt lat="48.09821" lon="7.2206">
        <ele>683.63</ele>
        <time>2009-09-27T10:08:01Z</time>
      </trkpt>
      <trkpt lat="48.09823" lon="7.22066">
        <ele>685.08</ele>
        <time>2009-09-27T10:08:02Z</time>
      </trkpt>
      <trkpt lat="48.09824" lon="7.22071">
        <ele>682.67</ele>
        <time>2009-09-27T10:08:03Z</time>
      </trkpt>
      <trkpt lat="48.09823" lon="7.22076">
        <ele>684.6</ele>
        <time>2009-09-27T10:08:04Z</time>
      </trkpt>
      <trkpt lat="48.09823" lon="7.22083">
        <ele>682.67</ele>
        <time>2009-09-27T10:08:05Z</time>
      </trkpt>
      <trkpt lat="48.09824" lon="7.2209">
        <ele>684.12</ele>
        <time>2009-09-27T10:08:06Z</time>
      </trkpt>
      <trkpt lat="48.09825" lon="7.22098">
        <ele>685.08</ele>
        <time>2009-09-27T10:08:07Z</time>
      </trkpt>
      <trkpt lat="48.09827" lon="7.22105">
        <ele>684.6</ele>
        <time>2009-09-27T10:08:08Z</time>
      </trkpt>
      <trkpt lat="48.09829" lon="7.22112">
        <ele>686.04</ele>
        <time>2009-09-27T10:08:09Z</time>
      </trkpt>
      <trkpt lat="48.09831" lon="7.22118">
        <ele>686.04</ele>
        <time>2009-09-27T10:08:10Z</time>
      </trkpt>
      <trkpt lat="48.09832" lon="7.22123">
        <ele>686.04</ele>
        <time>2009-09-27T10:08:11Z</time>
      </trkpt>
      <trkpt lat="48.09834" lon="7.22129">
        <ele>688.44</ele>
        <time>2009-09-27T10:08:12Z</time>
      </trkpt>
      <trkpt lat="48.09837" lon="7.22136">
        <ele>687.96</ele>
        <time>2009-09-27T10:08:13Z</time>
      </trkpt>
      <trkpt lat="48.09839" lon="7.22143">
        <ele>687.48</ele>
        <time>2009-09-27T10:08:14Z</time>
      </trkpt>
      <trkpt lat="48.09841" lon="7.2215">
        <ele>688.44</ele>
        <time>2009-09-27T10:08:15Z</time>
      </trkpt>
      <trkpt lat="48.09844" lon="7.22158">
        <ele>687</ele>
        <time>2009-09-27T10:08:16Z</time>
      </trkpt>
      <trkpt lat="48.09847" lon="7.22166">
        <ele>688.44</ele>
        <time>2009-09-27T10:08:17Z</time>
      </trkpt>
      <trkpt lat="48.09849" lon="7.22174">
        <ele>689.4</ele>
        <time>2009-09-27T10:08:18Z</time>
      </trkpt>
      <trkpt lat="48.09851" lon="7.2218">
        <ele>689.4</ele>
        <time>2009-09-27T10:08:19Z</time>
      </trkpt>
      <trkpt lat="48.09854" lon="7.22187">
        <ele>690.36</ele>
        <time>2009-09-27T10:08:20Z</time>
      </trkpt>
      <trkpt lat="48.09855" lon="7.22193">
        <ele>689.4</ele>
        <time>2009-09-27T10:08:21Z</time>
      </trkpt>
      <trkpt lat="48.09859" lon="7.22206">
        <ele>689.88</ele>
        <time>2009-09-27T10:08:23Z</time>
      </trkpt>
      <trkpt lat="48.09863" lon="7.22221">
        <ele>690.36</ele>
        <time>2009-09-27T10:08:25Z</time>
      </trkpt>
      <trkpt lat="48.09865" lon="7.22229">
        <ele>691.33</ele>
        <time>2009-09-27T10:08:26Z</time>
      </trkpt>
      <trkpt lat="48.09868" lon="7.22235">
        <ele>691.81</ele>
        <time>2009-09-27T10:08:27Z</time>
      </trkpt>
      <trkpt lat="48.09871" lon="7.22247">
        <ele>692.29</ele>
        <time>2009-09-27T10:08:29Z</time>
      </trkpt>
      <trkpt lat="48.09874" lon="7.22254">
        <ele>692.29</ele>
        <time>2009-09-27T10:08:30Z</time>
      </trkpt>
      <trkpt lat="48.09876" lon="7.22261">
        <ele>691.81</ele>
        <time>2009-09-27T10:08:31Z</time>
      </trkpt>
      <trkpt lat="48.0988" lon="7.22275">
        <ele>693.73</ele>
        <time>2009-09-27T10:08:33Z</time>
      </trkpt>
      <trkpt lat="48.09885" lon="7.2232">
        <ele>692.77</ele>
        <time>2009-09-27T10:08:40Z</time>
      </trkpt>
      <trkpt lat="48.09885" lon="7.22328">
        <ele>692.77</ele>
        <time>2009-09-27T10:08:41Z</time>
      </trkpt>
      <trkpt lat="48.09885" lon="7.22349">
        <ele>693.25</ele>
        <time>2009-09-27T10:08:44Z</time>
      </trkpt>
      <trkpt lat="48.09873" lon="7.22394">
        <ele>693.73</ele>
        <time>2009-09-27T10:08:51Z</time>
      </trkpt>
      <trkpt lat="48.09871" lon="7.22408">
        <ele>693.73</ele>
        <time>2009-09-27T10:08:53Z</time>
      </trkpt>
      <trkpt lat="48.09869" lon="7.22421">
        <ele>692.77</ele>
        <time>2009-09-27T10:08:55Z</time>
      </trkpt>
      <trkpt lat="48.09867" lon="7.22427">
        <ele>693.25</ele>
        <time>2009-09-27T10:08:56Z</time>
      </trkpt>
      <trkpt lat="48.09867" lon="7.22435">
        <ele>693.73</ele>
        <time>2009-09-27T10:08:57Z</time>
      </trkpt>
      <trkpt lat="48.09864" lon="7.2246">
        <ele>694.21</ele>
        <time>2009-09-27T10:09:01Z</time>
      </trkpt>
      <trkpt lat="48.09862" lon="7.22466">
        <ele>693.73</ele>
        <time>2009-09-27T10:09:02Z</time>
      </trkpt>
      <trkpt lat="48.09861" lon="7.22473">
        <ele>693.73</ele>
        <time>2009-09-27T10:09:03Z</time>
      </trkpt>
      <trkpt lat="48.0986" lon="7.2248">
        <ele>692.77</ele>
        <time>2009-09-27T10:09:04Z</time>
      </trkpt>
      <trkpt lat="48.09859" lon="7.22488">
        <ele>695.17</ele>
        <time>2009-09-27T10:09:05Z</time>
      </trkpt>
      <trkpt lat="48.09859" lon="7.22497">
        <ele>693.25</ele>
        <time>2009-09-27T10:09:06Z</time>
      </trkpt>
      <trkpt lat="48.09855" lon="7.22532">
        <ele>692.29</ele>
        <time>2009-09-27T10:09:10Z</time>
      </trkpt>
      <trkpt lat="48.09854" lon="7.22541">
        <ele>693.73</ele>
        <time>2009-09-27T10:09:11Z</time>
      </trkpt>
      <trkpt lat="48.09853" lon="7.2255">
        <ele>692.29</ele>
        <time>2009-09-27T10:09:12Z</time>
      </trkpt>
      <trkpt lat="48.09848" lon="7.22578">
        <ele>691.81</ele>
        <time>2009-09-27T10:09:15Z</time>
      </trkpt>
      <trkpt lat="48.09846" lon="7.22598">
        <ele>691.33</ele>
        <time>2009-09-27T10:09:17Z</time>
      </trkpt>
      <trkpt lat="48.09844" lon="7.22608">
        <ele>692.29</ele>
        <time>2009-09-27T10:09:18Z</time>
      </trkpt>
      <trkpt lat="48.09839" lon="7.22648">
        <ele>689.4</ele>
        <time>2009-09-27T10:09:22Z</time>
      </trkpt>
      <trkpt lat="48.09836" lon="7.2267">
        <ele>687.96</ele>
        <time>2009-09-27T10:09:25Z</time>
      </trkpt>
      <trkpt lat="48.09834" lon="7.22675">
        <ele>687.96</ele>
        <time>2009-09-27T10:09:26Z</time>
      </trkpt>
      <trkpt lat="48.09831" lon="7.2268">
        <ele>688.92</ele>
        <time>2009-09-27T10:09:27Z</time>
      </trkpt>
      <trkpt lat="48.0983" lon="7.22684">
        <ele>687.96</ele>
        <time>2009-09-27T10:09:28Z</time>
      </trkpt>
      <trkpt lat="48.09829" lon="7.22689">
        <ele>687.96</ele>
        <time>2009-09-27T10:09:29Z</time>
      </trkpt>
      <trkpt lat="48.09828" lon="7.22693">
        <ele>687</ele>
        <time>2009-09-27T10:09:30Z</time>
      </trkpt>
      <trkpt lat="48.09828" lon="7.22699">
        <ele>687.96</ele>
        <time>2009-09-27T10:09:31Z</time>
      </trkpt>
      <trkpt lat="48.09827" lon="7.22707">
        <ele>687.96</ele>
        <time>2009-09-27T10:09:32Z</time>
      </trkpt>
      <trkpt lat="48.09827" lon="7.22715">
        <ele>687.48</ele>
        <time>2009-09-27T10:09:33Z</time>
      </trkpt>
      <trkpt lat="48.09828" lon="7.22723">
        <ele>686.52</ele>
        <time>2009-09-27T10:09:34Z</time>
      </trkpt>
      <trkpt lat="48.09828" lon="7.22731">
        <ele>687.48</ele>
        <time>2009-09-27T10:09:35Z</time>
      </trkpt>
      <trkpt lat="48.0983" lon="7.22737">
        <ele>687.48</ele>
        <time>2009-09-27T10:09:36Z</time>
      </trkpt>
      <trkpt lat="48.0983" lon="7.22744">
        <ele>687.48</ele>
        <time>2009-09-27T10:09:37Z</time>
      </trkpt>
      <trkpt lat="48.09831" lon="7.22751">
        <ele>686.04</ele>
        <time>2009-09-27T10:09:38Z</time>
      </trkpt>
      <trkpt lat="48.09832" lon="7.2276">
        <ele>686.04</ele>
        <time>2009-09-27T10:09:39Z</time>
      </trkpt>
      <trkpt lat="48.09834" lon="7.22768">
        <ele>685.08</ele>
        <time>2009-09-27T10:09:40Z</time>
      </trkpt>
      <trkpt lat="48.09841" lon="7.22797">
        <ele>684.12</ele>
        <time>2009-09-27T10:09:43Z</time>
      </trkpt>
      <trkpt lat="48.09844" lon="7.2281">
        <ele>682.67</ele>
        <time>2009-09-27T10:09:44Z</time>
      </trkpt>
      <trkpt lat="48.0985" lon="7.22835">
        <ele>682.19</ele>
        <time>2009-09-27T10:09:46Z</time>
      </trkpt>
      <trkpt lat="48.09855" lon="7.22861">
        <ele>680.27</ele>
        <time>2009-09-27T10:09:48Z</time>
      </trkpt>
      <trkpt lat="48.09863" lon="7.22891">
        <ele>677.87</ele>
        <time>2009-09-27T10:09:50Z</time>
      </trkpt>
      <trkpt lat="48.09869" lon="7.22905">
        <ele>675.94</ele>
        <time>2009-09-27T10:09:51Z</time>
      </trkpt>
      <trkpt lat="48.09877" lon="7.22919">
        <ele>674.5</ele>
        <time>2009-09-27T10:09:52Z</time>
      </trkpt>
      <trkpt lat="48.09894" lon="7.22946">
        <ele>670.66</ele>
        <time>2009-09-27T10:09:54Z</time>
      </trkpt>
      <trkpt lat="48.09909" lon="7.22971">
        <ele>666.81</ele>
        <time>2009-09-27T10:09:56Z</time>
      </trkpt>
      <trkpt lat="48.09915" lon="7.22981">
        <ele>664.89</ele>
        <time>2009-09-27T10:09:57Z</time>
      </trkpt>
      <trkpt lat="48.09918" lon="7.22989">
        <ele>664.41</ele>
        <time>2009-09-27T10:09:58Z</time>
      </trkpt>
      <trkpt lat="48.0992" lon="7.22995">
        <ele>664.41</ele>
        <time>2009-09-27T10:09:59Z</time>
      </trkpt>
      <trkpt lat="48.09922" lon="7.22999">
        <ele>663.93</ele>
        <time>2009-09-27T10:10:00Z</time>
      </trkpt>
      <trkpt lat="48.09922" lon="7.23001">
        <ele>662.49</ele>
        <time>2009-09-27T10:10:01Z</time>
      </trkpt>
      <trkpt lat="48.09923" lon="7.23003">
        <ele>661.04</ele>
        <time>2009-09-27T10:10:02Z</time>
      </trkpt>
      <trkpt lat="48.09924" lon="7.23006">
        <ele>661.52</ele>
        <time>2009-09-27T10:10:03Z</time>
      </trkpt>
      <trkpt lat="48.09925" lon="7.2301">
        <ele>660.08</ele>
        <time>2009-09-27T10:10:04Z</time>
      </trkpt>
      <trkpt lat="48.09928" lon="7.23015">
        <ele>659.6</ele>
        <time>2009-09-27T10:10:05Z</time>
      </trkpt>
      <trkpt lat="48.09931" lon="7.23022">
        <ele>660.08</ele>
        <time>2009-09-27T10:10:06Z</time>
      </trkpt>
      <trkpt lat="48.09937" lon="7.2303">
        <ele>660.08</ele>
        <time>2009-09-27T10:10:07Z</time>
      </trkpt>
      <trkpt lat="48.09942" lon="7.23037">
        <ele>660.56</ele>
        <time>2009-09-27T10:10:08Z</time>
      </trkpt>
      <trkpt lat="48.09947" lon="7.23045">
        <ele>659.6</ele>
        <time>2009-09-27T10:10:09Z</time>
      </trkpt>
      <trkpt lat="48.09952" lon="7.23054">
        <ele>661.04</ele>
        <time>2009-09-27T10:10:10Z</time>
      </trkpt>
      <trkpt lat="48.09956" lon="7.23063">
        <ele>659.12</ele>
        <time>2009-09-27T10:10:11Z</time>
      </trkpt>
      <trkpt lat="48.0996" lon="7.23074">
        <ele>658.64</ele>
        <time>2009-09-27T10:10:12Z</time>
      </trkpt>
      <trkpt lat="48.09963" lon="7.23085">
        <ele>658.16</ele>
        <time>2009-09-27T10:10:13Z</time>
      </trkpt>
      <trkpt lat="48.09966" lon="7.23097">
        <ele>658.16</ele>
        <time>2009-09-27T10:10:14Z</time>
      </trkpt>
      <trkpt lat="48.0997" lon="7.23109">
        <ele>658.16</ele>
        <time>2009-09-27T10:10:15Z</time>
      </trkpt>
      <trkpt lat="48.09972" lon="7.23122">
        <ele>656.24</ele>
        <time>2009-09-27T10:10:16Z</time>
      </trkpt>
      <trkpt lat="48.09977" lon="7.23146">
        <ele>656.24</ele>
        <time>2009-09-27T10:10:18Z</time>
      </trkpt>
      <trkpt lat="48.09979" lon="7.23158">
        <ele>654.8</ele>
        <time>2009-09-27T10:10:19Z</time>
      </trkpt>
      <trkpt lat="48.0998" lon="7.23201">
        <ele>654.8</ele>
        <time>2009-09-27T10:10:22Z</time>
      </trkpt>
      <trkpt lat="48.09978" lon="7.23231">
        <ele>653.35</ele>
        <time>2009-09-27T10:10:24Z</time>
      </trkpt>
      <trkpt lat="48.09977" lon="7.23247">
        <ele>652.87</ele>
        <time>2009-09-27T10:10:25Z</time>
      </trkpt>
      <trkpt lat="48.09974" lon="7.23262">
        <ele>652.39</ele>
        <time>2009-09-27T10:10:26Z</time>
      </trkpt>
      <trkpt lat="48.0997" lon="7.23276">
        <ele>652.39</ele>
        <time>2009-09-27T10:10:27Z</time>
      </trkpt>
      <trkpt lat="48.09964" lon="7.23289">
        <ele>651.43</ele>
        <time>2009-09-27T10:10:28Z</time>
      </trkpt>
      <trkpt lat="48.09958" lon="7.23302">
        <ele>649.99</ele>
        <time>2009-09-27T10:10:29Z</time>
      </trkpt>
      <trkpt lat="48.09934" lon="7.23355">
        <ele>648.55</ele>
        <time>2009-09-27T10:10:33Z</time>
      </trkpt>
      <trkpt lat="48.0993" lon="7.23369">
        <ele>646.62</ele>
        <time>2009-09-27T10:10:34Z</time>
      </trkpt>
      <trkpt lat="48.09928" lon="7.23384">
        <ele>647.1</ele>
        <time>2009-09-27T10:10:35Z</time>
      </trkpt>
      <trkpt lat="48.09929" lon="7.23399">
        <ele>646.62</ele>
        <time>2009-09-27T10:10:36Z</time>
      </trkpt>
      <trkpt lat="48.09932" lon="7.23412">
        <ele>645.66</ele>
        <time>2009-09-27T10:10:37Z</time>
      </trkpt>
      <trkpt lat="48.09936" lon="7.23424">
        <ele>647.1</ele>
        <time>2009-09-27T10:10:38Z</time>
      </trkpt>
      <trkpt lat="48.09939" lon="7.23435">
        <ele>645.66</ele>
        <time>2009-09-27T10:10:39Z</time>
      </trkpt>
      <trkpt lat="48.09937" lon="7.23444">
        <ele>644.22</ele>
        <time>2009-09-27T10:10:40Z</time>
      </trkpt>
      <trkpt lat="48.09933" lon="7.23449">
        <ele>642.78</ele>
        <time>2009-09-27T10:10:41Z</time>
      </trkpt>
      <trkpt lat="48.09928" lon="7.23447">
        <ele>642.3</ele>
        <time>2009-09-27T10:10:42Z</time>
      </trkpt>
      <trkpt lat="48.09924" lon="7.23439">
        <ele>642.78</ele>
        <time>2009-09-27T10:10:43Z</time>
      </trkpt>
      <trkpt lat="48.09922" lon="7.23429">
        <ele>641.82</ele>
        <time>2009-09-27T10:10:44Z</time>
      </trkpt>
      <trkpt lat="48.0992" lon="7.23418">
        <ele>642.78</ele>
        <time>2009-09-27T10:10:45Z</time>
      </trkpt>
      <trkpt lat="48.09919" lon="7.23405">
        <ele>640.86</ele>
        <time>2009-09-27T10:10:46Z</time>
      </trkpt>
      <trkpt lat="48.09919" lon="7.23392">
        <ele>640.86</ele>
        <time>2009-09-27T10:10:47Z</time>
      </trkpt>
      <trkpt lat="48.0992" lon="7.23379">
        <ele>640.38</ele>
        <time>2009-09-27T10:10:48Z</time>
      </trkpt>
      <trkpt lat="48.09921" lon="7.23366">
        <ele>639.89</ele>
        <time>2009-09-27T10:10:49Z</time>
      </trkpt>
      <trkpt lat="48.0992" lon="7.23353">
        <ele>640.86</ele>
        <time>2009-09-27T10:10:50Z</time>
      </trkpt>
      <trkpt lat="48.09916" lon="7.23341">
        <ele>638.93</ele>
        <time>2009-09-27T10:10:51Z</time>
      </trkpt>
      <trkpt lat="48.09908" lon="7.23334">
        <ele>637.97</ele>
        <time>2009-09-27T10:10:52Z</time>
      </trkpt>
      <trkpt lat="48.099" lon="7.23334">
        <ele>637.49</ele>
        <time>2009-09-27T10:10:53Z</time>
      </trkpt>
      <trkpt lat="48.09892" lon="7.23341">
        <ele>637.01</ele>
        <time>2009-09-27T10:10:54Z</time>
      </trkpt>
      <trkpt lat="48.09888" lon="7.23353">
        <ele>636.53</ele>
        <time>2009-09-27T10:10:55Z</time>
      </trkpt>
      <trkpt lat="48.09886" lon="7.23365">
        <ele>635.09</ele>
        <time>2009-09-27T10:10:56Z</time>
      </trkpt>
      <trkpt lat="48.09886" lon="7.23377">
        <ele>635.09</ele>
        <time>2009-09-27T10:10:57Z</time>
      </trkpt>
      <trkpt lat="48.09883" lon="7.23415">
        <ele>631.24</ele>
        <time>2009-09-27T10:11:01Z</time>
      </trkpt>
      <trkpt lat="48.09884" lon="7.23424">
        <ele>631.24</ele>
        <time>2009-09-27T10:11:02Z</time>
      </trkpt>
      <trkpt lat="48.09885" lon="7.23433">
        <ele>631.72</ele>
        <time>2009-09-27T10:11:03Z</time>
      </trkpt>
      <trkpt lat="48.09899" lon="7.23516">
        <ele>626.92</ele>
        <time>2009-09-27T10:11:12Z</time>
      </trkpt>
      <trkpt lat="48.09901" lon="7.23524">
        <ele>626.92</ele>
        <time>2009-09-27T10:11:13Z</time>
      </trkpt>
      <trkpt lat="48.09911" lon="7.23549">
        <ele>622.59</ele>
        <time>2009-09-27T10:11:17Z</time>
      </trkpt>
      <trkpt lat="48.09914" lon="7.23556">
        <ele>623.55</ele>
        <time>2009-09-27T10:11:18Z</time>
      </trkpt>
      <trkpt lat="48.09916" lon="7.23566">
        <ele>619.71</ele>
        <time>2009-09-27T10:11:20Z</time>
      </trkpt>
      <trkpt lat="48.09918" lon="7.23572">
        <ele>618.26</ele>
        <time>2009-09-27T10:11:22Z</time>
      </trkpt>
      <trkpt lat="48.09921" lon="7.23581">
        <ele>615.38</ele>
        <time>2009-09-27T10:11:25Z</time>
      </trkpt>
      <trkpt lat="48.09922" lon="7.23587">
        <ele>613.94</ele>
        <time>2009-09-27T10:11:27Z</time>
      </trkpt>
      <trkpt lat="48.09922" lon="7.23589">
        <ele>613.94</ele>
        <time>2009-09-27T10:11:28Z</time>
      </trkpt>
      <trkpt lat="48.09924" lon="7.23598">
        <ele>612.02</ele>
        <time>2009-09-27T10:11:32Z</time>
      </trkpt>
      <trkpt lat="48.09927" lon="7.23607">
        <ele>612.5</ele>
        <time>2009-09-27T10:11:36Z</time>
      </trkpt>
      <trkpt lat="48.09928" lon="7.23609">
        <ele>612.02</ele>
        <time>2009-09-27T10:11:37Z</time>
      </trkpt>
      <trkpt lat="48.0993" lon="7.2361">
        <ele>611.06</ele>
        <time>2009-09-27T10:11:39Z</time>
      </trkpt>
      <trkpt lat="48.09931" lon="7.23613">
        <ele>610.57</ele>
        <time>2009-09-27T10:11:41Z</time>
      </trkpt>
      <trkpt lat="48.09932" lon="7.23617">
        <ele>611.06</ele>
        <time>2009-09-27T10:11:42Z</time>
      </trkpt>
      <trkpt lat="48.09934" lon="7.23622">
        <ele>612.02</ele>
        <time>2009-09-27T10:11:43Z</time>
      </trkpt>
      <trkpt lat="48.09936" lon="7.23628">
        <ele>610.57</ele>
        <time>2009-09-27T10:11:44Z</time>
      </trkpt>
      <trkpt lat="48.09937" lon="7.23636">
        <ele>609.13</ele>
        <time>2009-09-27T10:11:45Z</time>
      </trkpt>
      <trkpt lat="48.09938" lon="7.23645">
        <ele>609.13</ele>
        <time>2009-09-27T10:11:46Z</time>
      </trkpt>
      <trkpt lat="48.09938" lon="7.23654">
        <ele>608.17</ele>
        <time>2009-09-27T10:11:47Z</time>
      </trkpt>
      <trkpt lat="48.09938" lon="7.23663">
        <ele>607.21</ele>
        <time>2009-09-27T10:11:48Z</time>
      </trkpt>
      <trkpt lat="48.09937" lon="7.23671">
        <ele>603.85</ele>
        <time>2009-09-27T10:11:49Z</time>
      </trkpt>
      <trkpt lat="48.09936" lon="7.23678">
        <ele>604.81</ele>
        <time>2009-09-27T10:11:50Z</time>
      </trkpt>
      <trkpt lat="48.09934" lon="7.23683">
        <ele>602.88</ele>
        <time>2009-09-27T10:11:51Z</time>
      </trkpt>
      <trkpt lat="48.09929" lon="7.23694">
        <ele>602.88</ele>
        <time>2009-09-27T10:11:53Z</time>
      </trkpt>
      <trkpt lat="48.09925" lon="7.23699">
        <ele>599.52</ele>
        <time>2009-09-27T10:11:54Z</time>
      </trkpt>
      <trkpt lat="48.0992" lon="7.23704">
        <ele>600</ele>
        <time>2009-09-27T10:11:55Z</time>
      </trkpt>
      <trkpt lat="48.09915" lon="7.2371">
        <ele>600.48</ele>
        <time>2009-09-27T10:11:56Z</time>
      </trkpt>
      <trkpt lat="48.0991" lon="7.23718">
        <ele>599.52</ele>
        <time>2009-09-27T10:11:57Z</time>
      </trkpt>
      <trkpt lat="48.09905" lon="7.23726">
        <ele>598.08</ele>
        <time>2009-09-27T10:11:58Z</time>
      </trkpt>
      <trkpt lat="48.099" lon="7.23735">
        <ele>598.08</ele>
        <time>2009-09-27T10:11:59Z</time>
      </trkpt>
      <trkpt lat="48.09895" lon="7.23744">
        <ele>596.15</ele>
        <time>2009-09-27T10:12:00Z</time>
      </trkpt>
      <trkpt lat="48.0989" lon="7.23753">
        <ele>595.67</ele>
        <time>2009-09-27T10:12:01Z</time>
      </trkpt>
      <trkpt lat="48.09885" lon="7.2376">
        <ele>593.75</ele>
        <time>2009-09-27T10:12:02Z</time>
      </trkpt>
      <trkpt lat="48.0988" lon="7.23768">
        <ele>593.75</ele>
        <time>2009-09-27T10:12:03Z</time>
      </trkpt>
      <trkpt lat="48.09874" lon="7.23775">
        <ele>590.39</ele>
        <time>2009-09-27T10:12:04Z</time>
      </trkpt>
      <trkpt lat="48.09869" lon="7.23782">
        <ele>590.87</ele>
        <time>2009-09-27T10:12:05Z</time>
      </trkpt>
      <trkpt lat="48.09864" lon="7.23788">
        <ele>589.91</ele>
        <time>2009-09-27T10:12:06Z</time>
      </trkpt>
      <trkpt lat="48.09858" lon="7.23794">
        <ele>586.54</ele>
        <time>2009-09-27T10:12:07Z</time>
      </trkpt>
      <trkpt lat="48.09853" lon="7.23802">
        <ele>587.02</ele>
        <time>2009-09-27T10:12:08Z</time>
      </trkpt>
      <trkpt lat="48.09849" lon="7.23811">
        <ele>586.54</ele>
        <time>2009-09-27T10:12:09Z</time>
      </trkpt>
      <trkpt lat="48.09846" lon="7.23821">
        <ele>586.06</ele>
        <time>2009-09-27T10:12:10Z</time>
      </trkpt>
      <trkpt lat="48.09843" lon="7.23831">
        <ele>585.58</ele>
        <time>2009-09-27T10:12:11Z</time>
      </trkpt>
      <trkpt lat="48.09837" lon="7.23856">
        <ele>584.14</ele>
        <time>2009-09-27T10:12:13Z</time>
      </trkpt>
      <trkpt lat="48.09833" lon="7.23883">
        <ele>583.18</ele>
        <time>2009-09-27T10:12:15Z</time>
      </trkpt>
      <trkpt lat="48.09831" lon="7.23909">
        <ele>581.73</ele>
        <time>2009-09-27T10:12:17Z</time>
      </trkpt>
      <trkpt lat="48.09832" lon="7.23922">
        <ele>582.22</ele>
        <time>2009-09-27T10:12:18Z</time>
      </trkpt>
      <trkpt lat="48.09834" lon="7.23933">
        <ele>579.81</ele>
        <time>2009-09-27T10:12:19Z</time>
      </trkpt>
      <trkpt lat="48.09835" lon="7.2394">
        <ele>578.85</ele>
        <time>2009-09-27T10:12:20Z</time>
      </trkpt>
      <trkpt lat="48.09835" lon="7.23945">
        <ele>580.77</ele>
        <time>2009-09-27T10:12:21Z</time>
      </trkpt>
      <trkpt lat="48.09835" lon="7.23949">
        <ele>578.85</ele>
        <time>2009-09-27T10:12:22Z</time>
      </trkpt>
      <trkpt lat="48.09835" lon="7.23953">
        <ele>576.93</ele>
        <time>2009-09-27T10:12:23Z</time>
      </trkpt>
      <trkpt lat="48.09835" lon="7.23958">
        <ele>575.49</ele>
        <time>2009-09-27T10:12:24Z</time>
      </trkpt>
      <trkpt lat="48.09834" lon="7.23965">
        <ele>574.53</ele>
        <time>2009-09-27T10:12:25Z</time>
      </trkpt>
      <trkpt lat="48.09834" lon="7.23972">
        <ele>575.49</ele>
        <time>2009-09-27T10:12:26Z</time>
      </trkpt>
      <trkpt lat="48.09833" lon="7.23981">
        <ele>573.08</ele>
        <time>2009-09-27T10:12:27Z</time>
      </trkpt>
      <trkpt lat="48.09833" lon="7.23992">
        <ele>574.53</ele>
        <time>2009-09-27T10:12:28Z</time>
      </trkpt>
      <trkpt lat="48.09833" lon="7.24015">
        <ele>574.04</ele>
        <time>2009-09-27T10:12:30Z</time>
      </trkpt>
      <trkpt lat="48.09835" lon="7.24028">
        <ele>573.56</ele>
        <time>2009-09-27T10:12:31Z</time>
      </trkpt>
      <trkpt lat="48.09834" lon="7.24039">
        <ele>572.12</ele>
        <time>2009-09-27T10:12:32Z</time>
      </trkpt>
      <trkpt lat="48.09829" lon="7.2405">
        <ele>573.56</ele>
        <time>2009-09-27T10:12:33Z</time>
      </trkpt>
      <trkpt lat="48.09824" lon="7.24061">
        <ele>569.72</ele>
        <time>2009-09-27T10:12:34Z</time>
      </trkpt>
      <trkpt lat="48.09818" lon="7.24071">
        <ele>569.72</ele>
        <time>2009-09-27T10:12:35Z</time>
      </trkpt>
      <trkpt lat="48.09804" lon="7.24087">
        <ele>568.76</ele>
        <time>2009-09-27T10:12:37Z</time>
      </trkpt>
      <trkpt lat="48.09784" lon="7.24102">
        <ele>565.87</ele>
        <time>2009-09-27T10:12:40Z</time>
      </trkpt>
      <trkpt lat="48.09776" lon="7.24105">
        <ele>565.39</ele>
        <time>2009-09-27T10:12:41Z</time>
      </trkpt>
      <trkpt lat="48.09769" lon="7.2411">
        <ele>563.95</ele>
        <time>2009-09-27T10:12:42Z</time>
      </trkpt>
      <trkpt lat="48.09762" lon="7.24115">
        <ele>563.47</ele>
        <time>2009-09-27T10:12:43Z</time>
      </trkpt>
      <trkpt lat="48.09756" lon="7.2412">
        <ele>562.03</ele>
        <time>2009-09-27T10:12:44Z</time>
      </trkpt>
      <trkpt lat="48.09751" lon="7.24127">
        <ele>562.03</ele>
        <time>2009-09-27T10:12:45Z</time>
      </trkpt>
      <trkpt lat="48.09746" lon="7.24136">
        <ele>560.11</ele>
        <time>2009-09-27T10:12:46Z</time>
      </trkpt>
      <trkpt lat="48.0974" lon="7.24145">
        <ele>560.59</ele>
        <time>2009-09-27T10:12:47Z</time>
      </trkpt>
      <trkpt lat="48.09734" lon="7.24154">
        <ele>560.11</ele>
        <time>2009-09-27T10:12:48Z</time>
      </trkpt>
      <trkpt lat="48.09727" lon="7.24161">
        <ele>559.62</ele>
        <time>2009-09-27T10:12:49Z</time>
      </trkpt>
      <trkpt lat="48.09719" lon="7.24165">
        <ele>557.7</ele>
        <time>2009-09-27T10:12:50Z</time>
      </trkpt>
      <trkpt lat="48.09712" lon="7.24167">
        <ele>558.18</ele>
        <time>2009-09-27T10:12:51Z</time>
      </trkpt>
      <trkpt lat="48.09705" lon="7.24168">
        <ele>556.74</ele>
        <time>2009-09-27T10:12:52Z</time>
      </trkpt>
      <trkpt lat="48.09697" lon="7.24169">
        <ele>555.78</ele>
        <time>2009-09-27T10:12:53Z</time>
      </trkpt>
      <trkpt lat="48.09689" lon="7.2417">
        <ele>554.34</ele>
        <time>2009-09-27T10:12:54Z</time>
      </trkpt>
      <trkpt lat="48.09665" lon="7.24178">
        <ele>553.38</ele>
        <time>2009-09-27T10:12:57Z</time>
      </trkpt>
      <trkpt lat="48.09657" lon="7.24182">
        <ele>553.86</ele>
        <time>2009-09-27T10:12:58Z</time>
      </trkpt>
      <trkpt lat="48.09651" lon="7.24187">
        <ele>550.97</ele>
        <time>2009-09-27T10:12:59Z</time>
      </trkpt>
      <trkpt lat="48.09646" lon="7.24193">
        <ele>551.93</ele>
        <time>2009-09-27T10:13:00Z</time>
      </trkpt>
      <trkpt lat="48.09642" lon="7.24199">
        <ele>550.49</ele>
        <time>2009-09-27T10:13:01Z</time>
      </trkpt>
      <trkpt lat="48.0964" lon="7.24205">
        <ele>549.05</ele>
        <time>2009-09-27T10:13:02Z</time>
      </trkpt>
      <trkpt lat="48.09639" lon="7.24211">
        <ele>550.01</ele>
        <time>2009-09-27T10:13:03Z</time>
      </trkpt>
      <trkpt lat="48.09639" lon="7.2422">
        <ele>548.57</ele>
        <time>2009-09-27T10:13:04Z</time>
      </trkpt>
      <trkpt lat="48.09637" lon="7.24231">
        <ele>546.65</ele>
        <time>2009-09-27T10:13:05Z</time>
      </trkpt>
      <trkpt lat="48.09636" lon="7.24242">
        <ele>547.61</ele>
        <time>2009-09-27T10:13:06Z</time>
      </trkpt>
      <trkpt lat="48.09634" lon="7.24255">
        <ele>546.65</ele>
        <time>2009-09-27T10:13:07Z</time>
      </trkpt>
      <trkpt lat="48.09629" lon="7.24266">
        <ele>544.72</ele>
        <time>2009-09-27T10:13:08Z</time>
      </trkpt>
      <trkpt lat="48.09623" lon="7.24276">
        <ele>544.24</ele>
        <time>2009-09-27T10:13:09Z</time>
      </trkpt>
      <trkpt lat="48.09612" lon="7.24294">
        <ele>542.8</ele>
        <time>2009-09-27T10:13:11Z</time>
      </trkpt>
      <trkpt lat="48.09602" lon="7.24309">
        <ele>539.44</ele>
        <time>2009-09-27T10:13:13Z</time>
      </trkpt>
      <trkpt lat="48.09597" lon="7.24315">
        <ele>540.4</ele>
        <time>2009-09-27T10:13:14Z</time>
      </trkpt>
      <trkpt lat="48.09591" lon="7.24318">
        <ele>538.48</ele>
        <time>2009-09-27T10:13:15Z</time>
      </trkpt>
      <trkpt lat="48.09583" lon="7.24319">
        <ele>538.96</ele>
        <time>2009-09-27T10:13:16Z</time>
      </trkpt>
      <trkpt lat="48.09575" lon="7.2432">
        <ele>537.51</ele>
        <time>2009-09-27T10:13:17Z</time>
      </trkpt>
      <trkpt lat="48.09567" lon="7.2432">
        <ele>537.51</ele>
        <time>2009-09-27T10:13:18Z</time>
      </trkpt>
      <trkpt lat="48.09558" lon="7.24318">
        <ele>535.59</ele>
        <time>2009-09-27T10:13:19Z</time>
      </trkpt>
      <trkpt lat="48.09549" lon="7.24316">
        <ele>535.59</ele>
        <time>2009-09-27T10:13:20Z</time>
      </trkpt>
      <trkpt lat="48.0954" lon="7.24312">
        <ele>536.07</ele>
        <time>2009-09-27T10:13:21Z</time>
      </trkpt>
      <trkpt lat="48.09532" lon="7.24309">
        <ele>535.11</ele>
        <time>2009-09-27T10:13:22Z</time>
      </trkpt>
      <trkpt lat="48.09524" lon="7.24308">
        <ele>533.67</ele>
        <time>2009-09-27T10:13:23Z</time>
      </trkpt>
      <trkpt lat="48.09516" lon="7.24308">
        <ele>534.15</ele>
        <time>2009-09-27T10:13:24Z</time>
      </trkpt>
      <trkpt lat="48.0951" lon="7.24308">
        <ele>532.23</ele>
        <time>2009-09-27T10:13:25Z</time>
      </trkpt>
      <trkpt lat="48.09503" lon="7.24308">
        <ele>532.23</ele>
        <time>2009-09-27T10:13:26Z</time>
      </trkpt>
      <trkpt lat="48.09497" lon="7.24307">
        <ele>529.34</ele>
        <time>2009-09-27T10:13:27Z</time>
      </trkpt>
      <trkpt lat="48.09491" lon="7.24307">
        <ele>529.82</ele>
        <time>2009-09-27T10:13:28Z</time>
      </trkpt>
      <trkpt lat="48.09485" lon="7.24307">
        <ele>529.34</ele>
        <time>2009-09-27T10:13:29Z</time>
      </trkpt>
      <trkpt lat="48.09479" lon="7.24308">
        <ele>527.42</ele>
        <time>2009-09-27T10:13:30Z</time>
      </trkpt>
      <trkpt lat="48.09472" lon="7.2431">
        <ele>528.38</ele>
        <time>2009-09-27T10:13:31Z</time>
      </trkpt>
      <trkpt lat="48.09461" lon="7.24314">
        <ele>526.94</ele>
        <time>2009-09-27T10:13:33Z</time>
      </trkpt>
      <trkpt lat="48.09451" lon="7.24321">
        <ele>527.42</ele>
        <time>2009-09-27T10:13:35Z</time>
      </trkpt>
      <trkpt lat="48.09445" lon="7.24327">
        <ele>525.5</ele>
        <time>2009-09-27T10:13:36Z</time>
      </trkpt>
      <trkpt lat="48.09427" lon="7.24345">
        <ele>524.54</ele>
        <time>2009-09-27T10:13:39Z</time>
      </trkpt>
      <trkpt lat="48.09421" lon="7.2435">
        <ele>523.09</ele>
        <time>2009-09-27T10:13:40Z</time>
      </trkpt>
      <trkpt lat="48.09413" lon="7.24352">
        <ele>521.17</ele>
        <time>2009-09-27T10:13:41Z</time>
      </trkpt>
      <trkpt lat="48.09405" lon="7.24353">
        <ele>521.17</ele>
        <time>2009-09-27T10:13:42Z</time>
      </trkpt>
      <trkpt lat="48.09397" lon="7.24351">
        <ele>520.69</ele>
        <time>2009-09-27T10:13:43Z</time>
      </trkpt>
      <trkpt lat="48.09389" lon="7.24348">
        <ele>520.21</ele>
        <time>2009-09-27T10:13:44Z</time>
      </trkpt>
      <trkpt lat="48.09381" lon="7.24345">
        <ele>521.17</ele>
        <time>2009-09-27T10:13:45Z</time>
      </trkpt>
      <trkpt lat="48.09365" lon="7.24338">
        <ele>517.81</ele>
        <time>2009-09-27T10:13:47Z</time>
      </trkpt>
      <trkpt lat="48.0935" lon="7.24328">
        <ele>515.88</ele>
        <time>2009-09-27T10:13:49Z</time>
      </trkpt>
      <trkpt lat="48.09316" lon="7.24308">
        <ele>511.08</ele>
        <time>2009-09-27T10:13:53Z</time>
      </trkpt>
      <trkpt lat="48.09307" lon="7.24303">
        <ele>512.52</ele>
        <time>2009-09-27T10:13:54Z</time>
      </trkpt>
      <trkpt lat="48.09292" lon="7.24293">
        <ele>510.6</ele>
        <time>2009-09-27T10:13:56Z</time>
      </trkpt>
      <trkpt lat="48.09261" lon="7.24267">
        <ele>508.19</ele>
        <time>2009-09-27T10:14:00Z</time>
      </trkpt>
      <trkpt lat="48.09255" lon="7.24261">
        <ele>506.27</ele>
        <time>2009-09-27T10:14:01Z</time>
      </trkpt>
      <trkpt lat="48.09247" lon="7.24256">
        <ele>505.31</ele>
        <time>2009-09-27T10:14:02Z</time>
      </trkpt>
      <trkpt lat="48.09223" lon="7.24239">
        <ele>503.39</ele>
        <time>2009-09-27T10:14:05Z</time>
      </trkpt>
      <trkpt lat="48.09204" lon="7.24226">
        <ele>502.43</ele>
        <time>2009-09-27T10:14:07Z</time>
      </trkpt>
      <trkpt lat="48.09195" lon="7.24221">
        <ele>501.95</ele>
        <time>2009-09-27T10:14:08Z</time>
      </trkpt>
      <trkpt lat="48.09177" lon="7.24212">
        <ele>499.54</ele>
        <time>2009-09-27T10:14:10Z</time>
      </trkpt>
      <trkpt lat="48.09168" lon="7.24205">
        <ele>498.1</ele>
        <time>2009-09-27T10:14:11Z</time>
      </trkpt>
      <trkpt lat="48.09154" lon="7.24195">
        <ele>496.66</ele>
        <time>2009-09-27T10:14:13Z</time>
      </trkpt>
      <trkpt lat="48.09148" lon="7.24191">
        <ele>496.66</ele>
        <time>2009-09-27T10:14:14Z</time>
      </trkpt>
      <trkpt lat="48.09133" lon="7.24186">
        <ele>493.77</ele>
        <time>2009-09-27T10:14:16Z</time>
      </trkpt>
      <trkpt lat="48.09116" lon="7.2418">
        <ele>492.81</ele>
        <time>2009-09-27T10:14:18Z</time>
      </trkpt>
      <trkpt lat="48.09107" lon="7.24177">
        <ele>492.81</ele>
        <time>2009-09-27T10:14:19Z</time>
      </trkpt>
      <trkpt lat="48.09091" lon="7.24174">
        <ele>491.37</ele>
        <time>2009-09-27T10:14:21Z</time>
      </trkpt>
      <trkpt lat="48.09083" lon="7.24174">
        <ele>491.37</ele>
        <time>2009-09-27T10:14:22Z</time>
      </trkpt>
      <trkpt lat="48.09075" lon="7.24175">
        <ele>488.97</ele>
        <time>2009-09-27T10:14:23Z</time>
      </trkpt>
      <trkpt lat="48.0906" lon="7.24181">
        <ele>488.49</ele>
        <time>2009-09-27T10:14:25Z</time>
      </trkpt>
      <trkpt lat="48.09045" lon="7.2419">
        <ele>484.64</ele>
        <time>2009-09-27T10:14:27Z</time>
      </trkpt>
      <trkpt lat="48.09039" lon="7.24195">
        <ele>483.2</ele>
        <time>2009-09-27T10:14:28Z</time>
      </trkpt>
      <trkpt lat="48.09028" lon="7.24207">
        <ele>483.68</ele>
        <time>2009-09-27T10:14:30Z</time>
      </trkpt>
      <trkpt lat="48.09024" lon="7.24214">
        <ele>483.68</ele>
        <time>2009-09-27T10:14:31Z</time>
      </trkpt>
      <trkpt lat="48.09017" lon="7.24232">
        <ele>482.24</ele>
        <time>2009-09-27T10:14:33Z</time>
      </trkpt>
      <trkpt lat="48.09014" lon="7.24242">
        <ele>481.76</ele>
        <time>2009-09-27T10:14:34Z</time>
      </trkpt>
      <trkpt lat="48.09011" lon="7.24252">
        <ele>480.32</ele>
        <time>2009-09-27T10:14:35Z</time>
      </trkpt>
      <trkpt lat="48.09008" lon="7.2426">
        <ele>479.35</ele>
        <time>2009-09-27T10:14:36Z</time>
      </trkpt>
      <trkpt lat="48.09006" lon="7.24268">
        <ele>478.87</ele>
        <time>2009-09-27T10:14:37Z</time>
      </trkpt>
      <trkpt lat="48.09005" lon="7.24277">
        <ele>478.39</ele>
        <time>2009-09-27T10:14:38Z</time>
      </trkpt>
      <trkpt lat="48.09004" lon="7.24288">
        <ele>476.95</ele>
        <time>2009-09-27T10:14:39Z</time>
      </trkpt>
      <trkpt lat="48.09003" lon="7.24299">
        <ele>476.47</ele>
        <time>2009-09-27T10:14:40Z</time>
      </trkpt>
      <trkpt lat="48.09002" lon="7.2431">
        <ele>476.95</ele>
        <time>2009-09-27T10:14:41Z</time>
      </trkpt>
      <trkpt lat="48.09001" lon="7.24322">
        <ele>476.95</ele>
        <time>2009-09-27T10:14:42Z</time>
      </trkpt>
      <trkpt lat="48.09001" lon="7.24333">
        <ele>474.55</ele>
        <time>2009-09-27T10:14:43Z</time>
      </trkpt>
      <trkpt lat="48.09003" lon="7.24343">
        <ele>474.55</ele>
        <time>2009-09-27T10:14:44Z</time>
      </trkpt>
      <trkpt lat="48.09006" lon="7.2436">
        <ele>472.14</ele>
        <time>2009-09-27T10:14:46Z</time>
      </trkpt>
      <trkpt lat="48.09009" lon="7.24369">
        <ele>473.11</ele>
        <time>2009-09-27T10:14:47Z</time>
      </trkpt>
      <trkpt lat="48.09011" lon="7.24379">
        <ele>472.14</ele>
        <time>2009-09-27T10:14:48Z</time>
      </trkpt>
      <trkpt lat="48.09012" lon="7.2439">
        <ele>471.66</ele>
        <time>2009-09-27T10:14:49Z</time>
      </trkpt>
      <trkpt lat="48.09014" lon="7.24402">
        <ele>471.66</ele>
        <time>2009-09-27T10:14:50Z</time>
      </trkpt>
      <trkpt lat="48.09015" lon="7.24415">
        <ele>468.78</ele>
        <time>2009-09-27T10:14:51Z</time>
      </trkpt>
      <trkpt lat="48.09017" lon="7.2444">
        <ele>466.86</ele>
        <time>2009-09-27T10:14:53Z</time>
      </trkpt>
      <trkpt lat="48.09018" lon="7.2445">
        <ele>467.34</ele>
        <time>2009-09-27T10:14:54Z</time>
      </trkpt>
      <trkpt lat="48.0902" lon="7.24459">
        <ele>466.86</ele>
        <time>2009-09-27T10:14:55Z</time>
      </trkpt>
      <trkpt lat="48.09022" lon="7.24467">
        <ele>465.9</ele>
        <time>2009-09-27T10:14:56Z</time>
      </trkpt>
      <trkpt lat="48.09025" lon="7.24474">
        <ele>464.93</ele>
        <time>2009-09-27T10:14:57Z</time>
      </trkpt>
      <trkpt lat="48.0903" lon="7.2448">
        <ele>464.93</ele>
        <time>2009-09-27T10:14:58Z</time>
      </trkpt>
      <trkpt lat="48.09035" lon="7.24484">
        <ele>463.01</ele>
        <time>2009-09-27T10:14:59Z</time>
      </trkpt>
      <trkpt lat="48.0904" lon="7.24488">
        <ele>462.53</ele>
        <time>2009-09-27T10:15:00Z</time>
      </trkpt>
      <trkpt lat="48.09045" lon="7.24493">
        <ele>464.45</ele>
        <time>2009-09-27T10:15:01Z</time>
      </trkpt>
      <trkpt lat="48.09049" lon="7.24501">
        <ele>462.53</ele>
        <time>2009-09-27T10:15:02Z</time>
      </trkpt>
      <trkpt lat="48.09052" lon="7.24511">
        <ele>462.05</ele>
        <time>2009-09-27T10:15:03Z</time>
      </trkpt>
      <trkpt lat="48.09054" lon="7.24522">
        <ele>462.53</ele>
        <time>2009-09-27T10:15:04Z</time>
      </trkpt>
      <trkpt lat="48.09055" lon="7.24534">
        <ele>461.57</ele>
        <time>2009-09-27T10:15:05Z</time>
      </trkpt>
      <trkpt lat="48.09057" lon="7.24545">
        <ele>461.57</ele>
        <time>2009-09-27T10:15:06Z</time>
      </trkpt>
      <trkpt lat="48.09062" lon="7.24567">
        <ele>459.17</ele>
        <time>2009-09-27T10:15:08Z</time>
      </trkpt>
      <trkpt lat="48.09064" lon="7.24595">
        <ele>456.76</ele>
        <time>2009-09-27T10:15:11Z</time>
      </trkpt>
      <trkpt lat="48.09063" lon="7.24603">
        <ele>456.76</ele>
        <time>2009-09-27T10:15:12Z</time>
      </trkpt>
      <trkpt lat="48.09062" lon="7.24611">
        <ele>456.76</ele>
        <time>2009-09-27T10:15:13Z</time>
      </trkpt>
      <trkpt lat="48.09062" lon="7.2462">
        <ele>455.8</ele>
        <time>2009-09-27T10:15:14Z</time>
      </trkpt>
      <trkpt lat="48.09063" lon="7.24629">
        <ele>456.28</ele>
        <time>2009-09-27T10:15:15Z</time>
      </trkpt>
      <trkpt lat="48.09064" lon="7.24639">
        <ele>456.76</ele>
        <time>2009-09-27T10:15:16Z</time>
      </trkpt>
      <trkpt lat="48.09063" lon="7.24648">
        <ele>454.84</ele>
        <time>2009-09-27T10:15:17Z</time>
      </trkpt>
      <trkpt lat="48.09061" lon="7.24658">
        <ele>455.32</ele>
        <time>2009-09-27T10:15:18Z</time>
      </trkpt>
      <trkpt lat="48.0906" lon="7.2467">
        <ele>453.88</ele>
        <time>2009-09-27T10:15:19Z</time>
      </trkpt>
      <trkpt lat="48.0906" lon="7.24681">
        <ele>453.4</ele>
        <time>2009-09-27T10:15:20Z</time>
      </trkpt>
      <trkpt lat="48.0906" lon="7.24692">
        <ele>452.92</ele>
        <time>2009-09-27T10:15:21Z</time>
      </trkpt>
      <trkpt lat="48.0906" lon="7.24703">
        <ele>451.96</ele>
        <time>2009-09-27T10:15:22Z</time>
      </trkpt>
      <trkpt lat="48.09061" lon="7.24713">
        <ele>451.96</ele>
        <time>2009-09-27T10:15:23Z</time>
      </trkpt>
      <trkpt lat="48.09062" lon="7.2474">
        <ele>451.48</ele>
        <time>2009-09-27T10:15:27Z</time>
      </trkpt>
      <trkpt lat="48.09061" lon="7.24746">
        <ele>451.48</ele>
        <time>2009-09-27T10:15:29Z</time>
      </trkpt>
      <trkpt lat="48.09061" lon="7.24749">
        <ele>451</ele>
        <time>2009-09-27T10:15:30Z</time>
      </trkpt>
      <trkpt lat="48.09061" lon="7.24754">
        <ele>450.03</ele>
        <time>2009-09-27T10:15:32Z</time>
      </trkpt>
      <trkpt lat="48.09063" lon="7.24758">
        <ele>449.55</ele>
        <time>2009-09-27T10:15:33Z</time>
      </trkpt>
      <trkpt lat="48.09066" lon="7.24762">
        <ele>448.11</ele>
        <time>2009-09-27T10:15:34Z</time>
      </trkpt>
      <trkpt lat="48.0907" lon="7.24766">
        <ele>449.07</ele>
        <time>2009-09-27T10:15:35Z</time>
      </trkpt>
      <trkpt lat="48.09074" lon="7.24772">
        <ele>447.63</ele>
        <time>2009-09-27T10:15:36Z</time>
      </trkpt>
      <trkpt lat="48.09075" lon="7.24778">
        <ele>444.75</ele>
        <time>2009-09-27T10:15:37Z</time>
      </trkpt>
      <trkpt lat="48.09077" lon="7.24783">
        <ele>444.75</ele>
        <time>2009-09-27T10:15:38Z</time>
      </trkpt>
      <trkpt lat="48.09079" lon="7.24789">
        <ele>443.31</ele>
        <time>2009-09-27T10:15:39Z</time>
      </trkpt>
      <trkpt lat="48.09084" lon="7.24797">
        <ele>443.79</ele>
        <time>2009-09-27T10:15:40Z</time>
      </trkpt>
      <trkpt lat="48.09089" lon="7.24804">
        <ele>443.31</ele>
        <time>2009-09-27T10:15:41Z</time>
      </trkpt>
      <trkpt lat="48.09095" lon="7.24811">
        <ele>441.38</ele>
        <time>2009-09-27T10:15:42Z</time>
      </trkpt>
      <trkpt lat="48.09112" lon="7.24832">
        <ele>438.02</ele>
        <time>2009-09-27T10:15:45Z</time>
      </trkpt>
      <trkpt lat="48.09123" lon="7.24845">
        <ele>435.13</ele>
        <time>2009-09-27T10:15:47Z</time>
      </trkpt>
      <trkpt lat="48.09126" lon="7.24849">
        <ele>433.69</ele>
        <time>2009-09-27T10:15:48Z</time>
      </trkpt>
      <trkpt lat="48.09128" lon="7.24852">
        <ele>433.21</ele>
        <time>2009-09-27T10:15:49Z</time>
      </trkpt>
      <trkpt lat="48.09131" lon="7.24853">
        <ele>431.77</ele>
        <time>2009-09-27T10:15:50Z</time>
      </trkpt>
      <trkpt lat="48.09135" lon="7.24854">
        <ele>432.73</ele>
        <time>2009-09-27T10:15:51Z</time>
      </trkpt>
      <trkpt lat="48.09139" lon="7.24856">
        <ele>431.77</ele>
        <time>2009-09-27T10:15:52Z</time>
      </trkpt>
      <trkpt lat="48.09143" lon="7.24858">
        <ele>429.37</ele>
        <time>2009-09-27T10:15:53Z</time>
      </trkpt>
      <trkpt lat="48.09147" lon="7.24862">
        <ele>430.33</ele>
        <time>2009-09-27T10:15:54Z</time>
      </trkpt>
      <trkpt lat="48.09151" lon="7.24866">
        <ele>430.33</ele>
        <time>2009-09-27T10:15:55Z</time>
      </trkpt>
      <trkpt lat="48.09154" lon="7.24872">
        <ele>428.4</ele>
        <time>2009-09-27T10:15:56Z</time>
      </trkpt>
      <trkpt lat="48.09156" lon="7.24879">
        <ele>427.44</ele>
        <time>2009-09-27T10:15:57Z</time>
      </trkpt>
      <trkpt lat="48.09157" lon="7.24888">
        <ele>427.92</ele>
        <time>2009-09-27T10:15:58Z</time>
      </trkpt>
      <trkpt lat="48.09159" lon="7.24908">
        <ele>424.08</ele>
        <time>2009-09-27T10:16:00Z</time>
      </trkpt>
      <trkpt lat="48.09161" lon="7.24929">
        <ele>422.64</ele>
        <time>2009-09-27T10:16:02Z</time>
      </trkpt>
      <trkpt lat="48.09162" lon="7.24939">
        <ele>420.71</ele>
        <time>2009-09-27T10:16:03Z</time>
      </trkpt>
      <trkpt lat="48.09164" lon="7.24949">
        <ele>419.27</ele>
        <time>2009-09-27T10:16:04Z</time>
      </trkpt>
      <trkpt lat="48.09166" lon="7.24959">
        <ele>418.31</ele>
        <time>2009-09-27T10:16:05Z</time>
      </trkpt>
      <trkpt lat="48.09169" lon="7.24968">
        <ele>417.35</ele>
        <time>2009-09-27T10:16:06Z</time>
      </trkpt>
      <trkpt lat="48.09184" lon="7.2501">
        <ele>414.47</ele>
        <time>2009-09-27T10:16:10Z</time>
      </trkpt>
      <trkpt lat="48.09188" lon="7.25021">
        <ele>413.02</ele>
        <time>2009-09-27T10:16:11Z</time>
      </trkpt>
      <trkpt lat="48.09198" lon="7.25044">
        <ele>409.18</ele>
        <time>2009-09-27T10:16:13Z</time>
      </trkpt>
      <trkpt lat="48.09203" lon="7.25057">
        <ele>408.22</ele>
        <time>2009-09-27T10:16:14Z</time>
      </trkpt>
      <trkpt lat="48.09213" lon="7.25083">
        <ele>404.85</ele>
        <time>2009-09-27T10:16:16Z</time>
      </trkpt>
      <trkpt lat="48.09223" lon="7.25105">
        <ele>401.97</ele>
        <time>2009-09-27T10:16:18Z</time>
      </trkpt>
      <trkpt lat="48.09235" lon="7.25125">
        <ele>399.08</ele>
        <time>2009-09-27T10:16:20Z</time>
      </trkpt>
      <trkpt lat="48.09241" lon="7.25132">
        <ele>398.6</ele>
        <time>2009-09-27T10:16:21Z</time>
      </trkpt>
      <trkpt lat="48.09252" lon="7.25143">
        <ele>394.76</ele>
        <time>2009-09-27T10:16:23Z</time>
      </trkpt>
      <trkpt lat="48.09256" lon="7.25148">
        <ele>394.76</ele>
        <time>2009-09-27T10:16:24Z</time>
      </trkpt>
      <trkpt lat="48.09261" lon="7.25152">
        <ele>394.76</ele>
        <time>2009-09-27T10:16:25Z</time>
      </trkpt>
      <trkpt lat="48.09267" lon="7.25156">
        <ele>392.84</ele>
        <time>2009-09-27T10:16:26Z</time>
      </trkpt>
      <trkpt lat="48.09274" lon="7.25158">
        <ele>392.84</ele>
        <time>2009-09-27T10:16:27Z</time>
      </trkpt>
      <trkpt lat="48.09281" lon="7.2516">
        <ele>390.91</ele>
        <time>2009-09-27T10:16:28Z</time>
      </trkpt>
      <trkpt lat="48.09289" lon="7.25163">
        <ele>389.95</ele>
        <time>2009-09-27T10:16:29Z</time>
      </trkpt>
      <trkpt lat="48.09302" lon="7.25167">
        <ele>388.99</ele>
        <time>2009-09-27T10:16:31Z</time>
      </trkpt>
      <trkpt lat="48.09307" lon="7.25167">
        <ele>388.03</ele>
        <time>2009-09-27T10:16:32Z</time>
      </trkpt>
      <trkpt lat="48.09311" lon="7.25166">
        <ele>385.63</ele>
        <time>2009-09-27T10:16:33Z</time>
      </trkpt>
      <trkpt lat="48.09321" lon="7.25161">
        <ele>380.82</ele>
        <time>2009-09-27T10:16:36Z</time>
      </trkpt>
      <trkpt lat="48.09326" lon="7.25163">
        <ele>382.74</ele>
        <time>2009-09-27T10:16:37Z</time>
      </trkpt>
      <trkpt lat="48.09329" lon="7.25173">
        <ele>379.86</ele>
        <time>2009-09-27T10:16:39Z</time>
      </trkpt>
      <trkpt lat="48.09331" lon="7.25181">
        <ele>379.38</ele>
        <time>2009-09-27T10:16:40Z</time>
      </trkpt>
      <trkpt lat="48.09333" lon="7.25203">
        <ele>376.49</ele>
        <time>2009-09-27T10:16:42Z</time>
      </trkpt>
      <trkpt lat="48.09335" lon="7.25214">
        <ele>376.49</ele>
        <time>2009-09-27T10:16:43Z</time>
      </trkpt>
      <trkpt lat="48.09334" lon="7.25225">
        <ele>373.61</ele>
        <time>2009-09-27T10:16:44Z</time>
      </trkpt>
      <trkpt lat="48.09332" lon="7.25237">
        <ele>371.69</ele>
        <time>2009-09-27T10:16:45Z</time>
      </trkpt>
      <trkpt lat="48.09326" lon="7.25278">
        <ele>366.88</ele>
        <time>2009-09-27T10:16:49Z</time>
      </trkpt>
      <trkpt lat="48.09326" lon="7.25286">
        <ele>367.36</ele>
        <time>2009-09-27T10:16:50Z</time>
      </trkpt>
      <trkpt lat="48.09324" lon="7.25293">
        <ele>365.92</ele>
        <time>2009-09-27T10:16:51Z</time>
      </trkpt>
      <trkpt lat="48.0932" lon="7.25298">
        <ele>364.48</ele>
        <time>2009-09-27T10:16:52Z</time>
      </trkpt>
      <trkpt lat="48.09316" lon="7.25304">
        <ele>362.55</ele>
        <time>2009-09-27T10:16:53Z</time>
      </trkpt>
      <trkpt lat="48.09312" lon="7.25309">
        <ele>361.59</ele>
        <time>2009-09-27T10:16:54Z</time>
      </trkpt>
      <trkpt lat="48.09309" lon="7.25315">
        <ele>361.59</ele>
        <time>2009-09-27T10:16:55Z</time>
      </trkpt>
      <trkpt lat="48.09305" lon="7.25319">
        <ele>361.59</ele>
        <time>2009-09-27T10:16:56Z</time>
      </trkpt>
      <trkpt lat="48.09299" lon="7.25325">
        <ele>359.67</ele>
        <time>2009-09-27T10:16:57Z</time>
      </trkpt>
      <trkpt lat="48.09293" lon="7.2533">
        <ele>357.75</ele>
        <time>2009-09-27T10:16:58Z</time>
      </trkpt>
      <trkpt lat="48.09285" lon="7.25337">
        <ele>356.31</ele>
        <time>2009-09-27T10:16:59Z</time>
      </trkpt>
      <trkpt lat="48.0927" lon="7.25353">
        <ele>351.98</ele>
        <time>2009-09-27T10:17:01Z</time>
      </trkpt>
      <trkpt lat="48.09261" lon="7.2536">
        <ele>353.42</ele>
        <time>2009-09-27T10:17:02Z</time>
      </trkpt>
      <trkpt lat="48.09251" lon="7.25365">
        <ele>349.58</ele>
        <time>2009-09-27T10:17:03Z</time>
      </trkpt>
      <trkpt lat="48.09221" lon="7.25377">
        <ele>346.69</ele>
        <time>2009-09-27T10:17:06Z</time>
      </trkpt>
      <trkpt lat="48.0921" lon="7.25379">
        <ele>346.69</ele>
        <time>2009-09-27T10:17:07Z</time>
      </trkpt>
      <trkpt lat="48.09199" lon="7.25382">
        <ele>345.25</ele>
        <time>2009-09-27T10:17:08Z</time>
      </trkpt>
      <trkpt lat="48.09175" lon="7.25388">
        <ele>340.92</ele>
        <time>2009-09-27T10:17:10Z</time>
      </trkpt>
      <trkpt lat="48.09163" lon="7.2539">
        <ele>339.48</ele>
        <time>2009-09-27T10:17:11Z</time>
      </trkpt>
      <trkpt lat="48.09137" lon="7.25392">
        <ele>334.68</ele>
        <time>2009-09-27T10:17:13Z</time>
      </trkpt>
      <trkpt lat="48.09126" lon="7.25392">
        <ele>335.64</ele>
        <time>2009-09-27T10:17:14Z</time>
      </trkpt>
      <trkpt lat="48.09105" lon="7.25394">
        <ele>330.35</ele>
        <time>2009-09-27T10:17:16Z</time>
      </trkpt>
      <trkpt lat="48.09097" lon="7.25397">
        <ele>329.39</ele>
        <time>2009-09-27T10:17:17Z</time>
      </trkpt>
      <trkpt lat="48.09082" lon="7.25405">
        <ele>327.95</ele>
        <time>2009-09-27T10:17:19Z</time>
      </trkpt>
      <trkpt lat="48.09075" lon="7.25408">
        <ele>327.47</ele>
        <time>2009-09-27T10:17:20Z</time>
      </trkpt>
      <trkpt lat="48.09069" lon="7.25412">
        <ele>325.54</ele>
        <time>2009-09-27T10:17:21Z</time>
      </trkpt>
      <trkpt lat="48.09061" lon="7.25417">
        <ele>324.1</ele>
        <time>2009-09-27T10:17:22Z</time>
      </trkpt>
      <trkpt lat="48.09052" lon="7.25421">
        <ele>321.7</ele>
        <time>2009-09-27T10:17:23Z</time>
      </trkpt>
      <trkpt lat="48.09043" lon="7.25425">
        <ele>322.18</ele>
        <time>2009-09-27T10:17:24Z</time>
      </trkpt>
      <trkpt lat="48.09033" lon="7.25429">
        <ele>321.7</ele>
        <time>2009-09-27T10:17:25Z</time>
      </trkpt>
      <trkpt lat="48.09007" lon="7.25446">
        <ele>317.85</ele>
        <time>2009-09-27T10:17:28Z</time>
      </trkpt>
      <trkpt lat="48.08979" lon="7.2547">
        <ele>314.49</ele>
        <time>2009-09-27T10:17:31Z</time>
      </trkpt>
      <trkpt lat="48.08968" lon="7.25477">
        <ele>314.49</ele>
        <time>2009-09-27T10:17:32Z</time>
      </trkpt>
      <trkpt lat="48.08925" lon="7.25502">
        <ele>310.16</ele>
        <time>2009-09-27T10:17:36Z</time>
      </trkpt>
      <trkpt lat="48.08872" lon="7.25542">
        <ele>305.36</ele>
        <time>2009-09-27T10:17:41Z</time>
      </trkpt>
      <trkpt lat="48.08861" lon="7.25548">
        <ele>304.39</ele>
        <time>2009-09-27T10:17:42Z</time>
      </trkpt>
      <trkpt lat="48.08837" lon="7.25559">
        <ele>302.95</ele>
        <time>2009-09-27T10:17:44Z</time>
      </trkpt>
      <trkpt lat="48.08825" lon="7.25564">
        <ele>299.59</ele>
        <time>2009-09-27T10:17:45Z</time>
      </trkpt>
      <trkpt lat="48.08814" lon="7.25571">
        <ele>299.11</ele>
        <time>2009-09-27T10:17:46Z</time>
      </trkpt>
      <trkpt lat="48.08803" lon="7.2558">
        <ele>296.7</ele>
        <time>2009-09-27T10:17:47Z</time>
      </trkpt>
      <trkpt lat="48.0878" lon="7.256">
        <ele>292.38</ele>
        <time>2009-09-27T10:17:49Z</time>
      </trkpt>
      <trkpt lat="48.08768" lon="7.2561">
        <ele>292.38</ele>
        <time>2009-09-27T10:17:50Z</time>
      </trkpt>
      <trkpt lat="48.08745" lon="7.2563">
        <ele>288.53</ele>
        <time>2009-09-27T10:17:52Z</time>
      </trkpt>
      <trkpt lat="48.08735" lon="7.25641">
        <ele>288.53</ele>
        <time>2009-09-27T10:17:53Z</time>
      </trkpt>
      <trkpt lat="48.08688" lon="7.2569">
        <ele>285.65</ele>
        <time>2009-09-27T10:17:58Z</time>
      </trkpt>
      <trkpt lat="48.08674" lon="7.25709">
        <ele>283.73</ele>
        <time>2009-09-27T10:18:00Z</time>
      </trkpt>
      <trkpt lat="48.08667" lon="7.25719">
        <ele>281.32</ele>
        <time>2009-09-27T10:18:01Z</time>
      </trkpt>
      <trkpt lat="48.08662" lon="7.2573">
        <ele>281.32</ele>
        <time>2009-09-27T10:18:02Z</time>
      </trkpt>
      <trkpt lat="48.08657" lon="7.25741">
        <ele>281.32</ele>
        <time>2009-09-27T10:18:03Z</time>
      </trkpt>
      <trkpt lat="48.08653" lon="7.25753">
        <ele>280.84</ele>
        <time>2009-09-27T10:18:04Z</time>
      </trkpt>
      <trkpt lat="48.08641" lon="7.25799">
        <ele>278.92</ele>
        <time>2009-09-27T10:18:08Z</time>
      </trkpt>
      <trkpt lat="48.08635" lon="7.25831">
        <ele>280.36</ele>
        <time>2009-09-27T10:18:11Z</time>
      </trkpt>
      <trkpt lat="48.08629" lon="7.25879">
        <ele>276.04</ele>
        <time>2009-09-27T10:18:16Z</time>
      </trkpt>
      <trkpt lat="48.08624" lon="7.25907">
        <ele>276.52</ele>
        <time>2009-09-27T10:18:19Z</time>
      </trkpt>
      <trkpt lat="48.08621" lon="7.25915">
        <ele>275.07</ele>
        <time>2009-09-27T10:18:20Z</time>
      </trkpt>
      <trkpt lat="48.08618" lon="7.25923">
        <ele>275.56</ele>
        <time>2009-09-27T10:18:21Z</time>
      </trkpt>
      <trkpt lat="48.08614" lon="7.2593">
        <ele>274.59</ele>
        <time>2009-09-27T10:18:22Z</time>
      </trkpt>
      <trkpt lat="48.08609" lon="7.25937">
        <ele>274.11</ele>
        <time>2009-09-27T10:18:23Z</time>
      </trkpt>
      <trkpt lat="48.08604" lon="7.25944">
        <ele>273.63</ele>
        <time>2009-09-27T10:18:24Z</time>
      </trkpt>
      <trkpt lat="48.08599" lon="7.25952">
        <ele>270.27</ele>
        <time>2009-09-27T10:18:25Z</time>
      </trkpt>
      <trkpt lat="48.08595" lon="7.25961">
        <ele>270.75</ele>
        <time>2009-09-27T10:18:26Z</time>
      </trkpt>
      <trkpt lat="48.08591" lon="7.25971">
        <ele>269.79</ele>
        <time>2009-09-27T10:18:27Z</time>
      </trkpt>
      <trkpt lat="48.08588" lon="7.25982">
        <ele>269.31</ele>
        <time>2009-09-27T10:18:28Z</time>
      </trkpt>
      <trkpt lat="48.08586" lon="7.25995">
        <ele>270.27</ele>
        <time>2009-09-27T10:18:29Z</time>
      </trkpt>
      <trkpt lat="48.08584" lon="7.26008">
        <ele>268.35</ele>
        <time>2009-09-27T10:18:30Z</time>
      </trkpt>
      <trkpt lat="48.08582" lon="7.26021">
        <ele>267.38</ele>
        <time>2009-09-27T10:18:31Z</time>
      </trkpt>
      <trkpt lat="48.08579" lon="7.26047">
        <ele>263.54</ele>
        <time>2009-09-27T10:18:33Z</time>
      </trkpt>
      <trkpt lat="48.08578" lon="7.2606">
        <ele>262.1</ele>
        <time>2009-09-27T10:18:34Z</time>
      </trkpt>
      <trkpt lat="48.08578" lon="7.26072">
        <ele>263.06</ele>
        <time>2009-09-27T10:18:35Z</time>
      </trkpt>
      <trkpt lat="48.0858" lon="7.26084">
        <ele>263.06</ele>
        <time>2009-09-27T10:18:36Z</time>
      </trkpt>
      <trkpt lat="48.08582" lon="7.26095">
        <ele>261.14</ele>
        <time>2009-09-27T10:18:37Z</time>
      </trkpt>
      <trkpt lat="48.08585" lon="7.26106">
        <ele>260.17</ele>
        <time>2009-09-27T10:18:38Z</time>
      </trkpt>
      <trkpt lat="48.08623" lon="7.2623">
        <ele>257.77</ele>
        <time>2009-09-27T10:18:50Z</time>
      </trkpt>
      <trkpt lat="48.08631" lon="7.26275">
        <ele>256.81</ele>
        <time>2009-09-27T10:18:54Z</time>
      </trkpt>
      <trkpt lat="48.08631" lon="7.26286">
        <ele>256.33</ele>
        <time>2009-09-27T10:18:55Z</time>
      </trkpt>
      <trkpt lat="48.08632" lon="7.26298">
        <ele>256.33</ele>
        <time>2009-09-27T10:18:56Z</time>
      </trkpt>
      <trkpt lat="48.08631" lon="7.26309">
        <ele>255.85</ele>
        <time>2009-09-27T10:18:57Z</time>
      </trkpt>
      <trkpt lat="48.08629" lon="7.2632">
        <ele>255.37</ele>
        <time>2009-09-27T10:18:58Z</time>
      </trkpt>
      <trkpt lat="48.08626" lon="7.26331">
        <ele>254.41</ele>
        <time>2009-09-27T10:18:59Z</time>
      </trkpt>
      <trkpt lat="48.08623" lon="7.26342">
        <ele>254.41</ele>
        <time>2009-09-27T10:19:00Z</time>
      </trkpt>
      <trkpt lat="48.0862" lon="7.26353">
        <ele>252.48</ele>
        <time>2009-09-27T10:19:01Z</time>
      </trkpt>
      <trkpt lat="48.08618" lon="7.26363">
        <ele>251.52</ele>
        <time>2009-09-27T10:19:02Z</time>
      </trkpt>
      <trkpt lat="48.08615" lon="7.26374">
        <ele>251.04</ele>
        <time>2009-09-27T10:19:03Z</time>
      </trkpt>
      <trkpt lat="48.08614" lon="7.26384">
        <ele>251.52</ele>
        <time>2009-09-27T10:19:04Z</time>
      </trkpt>
      <trkpt lat="48.08612" lon="7.26394">
        <ele>251.52</ele>
        <time>2009-09-27T10:19:05Z</time>
      </trkpt>
      <trkpt lat="48.0861" lon="7.26414">
        <ele>249.12</ele>
        <time>2009-09-27T10:19:07Z</time>
      </trkpt>
      <trkpt lat="48.0861" lon="7.26423">
        <ele>248.64</ele>
        <time>2009-09-27T10:19:08Z</time>
      </trkpt>
      <trkpt lat="48.08612" lon="7.2648">
        <ele>246.72</ele>
        <time>2009-09-27T10:19:14Z</time>
      </trkpt>
      <trkpt lat="48.08612" lon="7.26598">
        <ele>245.75</ele>
        <time>2009-09-27T10:19:26Z</time>
      </trkpt>
      <trkpt lat="48.08613" lon="7.26625">
        <ele>247.68</ele>
        <time>2009-09-27T10:19:29Z</time>
      </trkpt>
      <trkpt lat="48.08621" lon="7.26693">
        <ele>247.2</ele>
        <time>2009-09-27T10:19:37Z</time>
      </trkpt>
      <trkpt lat="48.08621" lon="7.26701">
        <ele>248.16</ele>
        <time>2009-09-27T10:19:38Z</time>
      </trkpt>
      <trkpt lat="48.0862" lon="7.26709">
        <ele>248.16</ele>
        <time>2009-09-27T10:19:39Z</time>
      </trkpt>
      <trkpt lat="48.08608" lon="7.26766">
        <ele>246.23</ele>
        <time>2009-09-27T10:19:46Z</time>
      </trkpt>
      <trkpt lat="48.08601" lon="7.2679">
        <ele>244.79</ele>
        <time>2009-09-27T10:19:49Z</time>
      </trkpt>
      <trkpt lat="48.08596" lon="7.26847">
        <ele>244.31</ele>
        <time>2009-09-27T10:19:55Z</time>
      </trkpt>
      <trkpt lat="48.08598" lon="7.26884">
        <ele>243.83</ele>
        <time>2009-09-27T10:19:59Z</time>
      </trkpt>
      <trkpt lat="48.08599" lon="7.26902">
        <ele>244.31</ele>
        <time>2009-09-27T10:20:01Z</time>
      </trkpt>
      <trkpt lat="48.08604" lon="7.26969">
        <ele>241.43</ele>
        <time>2009-09-27T10:20:09Z</time>
      </trkpt>
      <trkpt lat="48.08605" lon="7.26984">
        <ele>245.27</ele>
        <time>2009-09-27T10:20:11Z</time>
      </trkpt>
      <trkpt lat="48.08606" lon="7.26991">
        <ele>242.87</ele>
        <time>2009-09-27T10:20:12Z</time>
      </trkpt>
      <trkpt lat="48.08607" lon="7.27011">
        <ele>241.43</ele>
        <time>2009-09-27T10:20:15Z</time>
      </trkpt>
      <trkpt lat="48.08604" lon="7.27015">
        <ele>241.91</ele>
        <time>2009-09-27T10:20:16Z</time>
      </trkpt>
      <trkpt lat="48.086" lon="7.27018">
        <ele>242.39</ele>
        <time>2009-09-27T10:20:17Z</time>
      </trkpt>
      <trkpt lat="48.08596" lon="7.2702">
        <ele>241.91</ele>
        <time>2009-09-27T10:20:18Z</time>
      </trkpt>
      <trkpt lat="48.08593" lon="7.27022">
        <ele>242.39</ele>
        <time>2009-09-27T10:20:19Z</time>
      </trkpt>
      <trkpt lat="48.08593" lon="7.27026">
        <ele>241.91</ele>
        <time>2009-09-27T10:20:20Z</time>
      </trkpt>
      <trkpt lat="48.08593" lon="7.2703">
        <ele>241.91</ele>
        <time>2009-09-27T10:20:21Z</time>
      </trkpt>
      <trkpt lat="48.08593" lon="7.27037">
        <ele>242.39</ele>
        <time>2009-09-27T10:20:22Z</time>
      </trkpt>
      <trkpt lat="48.08592" lon="7.27042">
        <ele>241.91</ele>
        <time>2009-09-27T10:20:23Z</time>
      </trkpt>
      <trkpt lat="48.08589" lon="7.27046">
        <ele>241.43</ele>
        <time>2009-09-27T10:20:24Z</time>
      </trkpt>
      <trkpt lat="48.08585" lon="7.27047">
        <ele>241.43</ele>
        <time>2009-09-27T10:20:25Z</time>
      </trkpt>
      <trkpt lat="48.08582" lon="7.27046">
        <ele>242.87</ele>
        <time>2009-09-27T10:20:26Z</time>
      </trkpt>
      <trkpt lat="48.08579" lon="7.27044">
        <ele>242.39</ele>
        <time>2009-09-27T10:20:27Z</time>
      </trkpt>
      <trkpt lat="48.08575" lon="7.27042">
        <ele>242.39</ele>
        <time>2009-09-27T10:20:28Z</time>
      </trkpt>
      <trkpt lat="48.0857" lon="7.27041">
        <ele>243.35</ele>
        <time>2009-09-27T10:20:29Z</time>
      </trkpt>
      <trkpt lat="48.08565" lon="7.2704">
        <ele>242.39</ele>
        <time>2009-09-27T10:20:30Z</time>
      </trkpt>
      <trkpt lat="48.0856" lon="7.27039">
        <ele>243.35</ele>
        <time>2009-09-27T10:20:31Z</time>
      </trkpt>
      <trkpt lat="48.08555" lon="7.27038">
        <ele>243.83</ele>
        <time>2009-09-27T10:20:32Z</time>
      </trkpt>
      <trkpt lat="48.08482" lon="7.27021">
        <ele>241.43</ele>
        <time>2009-09-27T10:20:46Z</time>
      </trkpt>
      <trkpt lat="48.0842" lon="7.27024">
        <ele>241.91</ele>
        <time>2009-09-27T10:20:59Z</time>
      </trkpt>
      <trkpt lat="48.08416" lon="7.27026">
        <ele>241.43</ele>
        <time>2009-09-27T10:21:00Z</time>
      </trkpt>
      <trkpt lat="48.08412" lon="7.2703">
        <ele>241.91</ele>
        <time>2009-09-27T10:21:01Z</time>
      </trkpt>
      <trkpt lat="48.08408" lon="7.27034">
        <ele>243.35</ele>
        <time>2009-09-27T10:21:02Z</time>
      </trkpt>
      <trkpt lat="48.08403" lon="7.27037">
        <ele>242.39</ele>
        <time>2009-09-27T10:21:03Z</time>
      </trkpt>
      <trkpt lat="48.08399" lon="7.27039">
        <ele>241.91</ele>
        <time>2009-09-27T10:21:04Z</time>
      </trkpt>
      <trkpt lat="48.08338" lon="7.27076">
        <ele>241.43</ele>
        <time>2009-09-27T10:21:17Z</time>
      </trkpt>
      <trkpt lat="48.08303" lon="7.27098">
        <ele>243.35</ele>
        <time>2009-09-27T10:21:25Z</time>
      </trkpt>
      <trkpt lat="48.08298" lon="7.27101">
        <ele>243.35</ele>
        <time>2009-09-27T10:21:26Z</time>
      </trkpt>
      <trkpt lat="48.08294" lon="7.27105">
        <ele>243.35</ele>
        <time>2009-09-27T10:21:27Z</time>
      </trkpt>
      <trkpt lat="48.0822" lon="7.2716">
        <ele>242.87</ele>
        <time>2009-09-27T10:21:42Z</time>
      </trkpt>
      <trkpt lat="48.08137" lon="7.2722">
        <ele>243.83</ele>
        <time>2009-09-27T10:21:58Z</time>
      </trkpt>
      <trkpt lat="48.08124" lon="7.27228">
        <ele>243.83</ele>
        <time>2009-09-27T10:22:01Z</time>
      </trkpt>
      <trkpt lat="48.0812" lon="7.27227">
        <ele>244.79</ele>
        <time>2009-09-27T10:22:02Z</time>
      </trkpt>
      <trkpt lat="48.08116" lon="7.27225">
        <ele>244.79</ele>
        <time>2009-09-27T10:22:03Z</time>
      </trkpt>
      <trkpt lat="48.08113" lon="7.2722">
        <ele>243.83</ele>
        <time>2009-09-27T10:22:04Z</time>
      </trkpt>
      <trkpt lat="48.08111" lon="7.27214">
        <ele>244.31</ele>
        <time>2009-09-27T10:22:05Z</time>
      </trkpt>
      <trkpt lat="48.08105" lon="7.27194">
        <ele>244.31</ele>
        <time>2009-09-27T10:22:08Z</time>
      </trkpt>
      <trkpt lat="48.08075" lon="7.27089">
        <ele>245.27</ele>
        <time>2009-09-27T10:22:23Z</time>
      </trkpt>
      <trkpt lat="48.08066" lon="7.27062">
        <ele>246.23</ele>
        <time>2009-09-27T10:22:27Z</time>
      </trkpt>
      <trkpt lat="48.08064" lon="7.27055">
        <ele>247.2</ele>
        <time>2009-09-27T10:22:28Z</time>
      </trkpt>
      <trkpt lat="48.08058" lon="7.27025">
        <ele>246.23</ele>
        <time>2009-09-27T10:22:32Z</time>
      </trkpt>
      <trkpt lat="48.08018" lon="7.26916">
        <ele>247.2</ele>
        <time>2009-09-27T10:22:47Z</time>
      </trkpt>
      <trkpt lat="48.08014" lon="7.26909">
        <ele>246.23</ele>
        <time>2009-09-27T10:22:48Z</time>
      </trkpt>
      <trkpt lat="48.0801" lon="7.26903">
        <ele>247.68</ele>
        <time>2009-09-27T10:22:49Z</time>
      </trkpt>
      <trkpt lat="48.08005" lon="7.26897">
        <ele>247.2</ele>
        <time>2009-09-27T10:22:50Z</time>
      </trkpt>
      <trkpt lat="48.08" lon="7.2689">
        <ele>246.72</ele>
        <time>2009-09-27T10:22:51Z</time>
      </trkpt>
      <trkpt lat="48.07996" lon="7.26884">
        <ele>246.23</ele>
        <time>2009-09-27T10:22:52Z</time>
      </trkpt>
      <trkpt lat="48.07986" lon="7.26872">
        <ele>246.23</ele>
        <time>2009-09-27T10:22:54Z</time>
      </trkpt>
      <trkpt lat="48.07981" lon="7.26868">
        <ele>247.2</ele>
        <time>2009-09-27T10:22:55Z</time>
      </trkpt>
      <trkpt lat="48.07975" lon="7.26865">
        <ele>247.2</ele>
        <time>2009-09-27T10:22:56Z</time>
      </trkpt>
      <trkpt lat="48.0797" lon="7.26863">
        <ele>247.68</ele>
        <time>2009-09-27T10:22:57Z</time>
      </trkpt>
      <trkpt lat="48.07964" lon="7.26863">
        <ele>246.72</ele>
        <time>2009-09-27T10:22:58Z</time>
      </trkpt>
      <trkpt lat="48.07958" lon="7.26864">
        <ele>247.2</ele>
        <time>2009-09-27T10:22:59Z</time>
      </trkpt>
      <trkpt lat="48.07952" lon="7.26866">
        <ele>247.2</ele>
        <time>2009-09-27T10:23:00Z</time>
      </trkpt>
      <trkpt lat="48.07917" lon="7.26874">
        <ele>247.68</ele>
        <time>2009-09-27T10:23:06Z</time>
      </trkpt>
      <trkpt lat="48.07911" lon="7.26873">
        <ele>247.68</ele>
        <time>2009-09-27T10:23:07Z</time>
      </trkpt>
      <trkpt lat="48.07906" lon="7.26871">
        <ele>247.68</ele>
        <time>2009-09-27T10:23:08Z</time>
      </trkpt>
      <trkpt lat="48.07901" lon="7.26868">
        <ele>248.16</ele>
        <time>2009-09-27T10:23:09Z</time>
      </trkpt>
      <trkpt lat="48.07897" lon="7.26863">
        <ele>247.2</ele>
        <time>2009-09-27T10:23:10Z</time>
      </trkpt>
      <trkpt lat="48.07893" lon="7.26857">
        <ele>247.68</ele>
        <time>2009-09-27T10:23:11Z</time>
      </trkpt>
      <trkpt lat="48.0789" lon="7.2685">
        <ele>248.64</ele>
        <time>2009-09-27T10:23:12Z</time>
      </trkpt>
      <trkpt lat="48.07887" lon="7.26843">
        <ele>249.12</ele>
        <time>2009-09-27T10:23:13Z</time>
      </trkpt>
      <trkpt lat="48.07885" lon="7.26836">
        <ele>249.6</ele>
        <time>2009-09-27T10:23:14Z</time>
      </trkpt>
      <trkpt lat="48.0785" lon="7.26717">
        <ele>249.12</ele>
        <time>2009-09-27T10:23:29Z</time>
      </trkpt>
      <trkpt lat="48.07846" lon="7.26711">
        <ele>250.08</ele>
        <time>2009-09-27T10:23:30Z</time>
      </trkpt>
      <trkpt lat="48.07807" lon="7.26672">
        <ele>250.08</ele>
        <time>2009-09-27T10:23:42Z</time>
      </trkpt>
      <trkpt lat="48.07803" lon="7.26675">
        <ele>250.56</ele>
        <time>2009-09-27T10:23:43Z</time>
      </trkpt>
      <trkpt lat="48.07801" lon="7.2668">
        <ele>250.08</ele>
        <time>2009-09-27T10:23:44Z</time>
      </trkpt>
      <trkpt lat="48.078" lon="7.26687">
        <ele>250.56</ele>
        <time>2009-09-27T10:23:45Z</time>
      </trkpt>
      <trkpt lat="48.07799" lon="7.26694">
        <ele>248.64</ele>
        <time>2009-09-27T10:23:46Z</time>
      </trkpt>
      <trkpt lat="48.07797" lon="7.26701">
        <ele>250.08</ele>
        <time>2009-09-27T10:23:47Z</time>
      </trkpt>
      <trkpt lat="48.07796" lon="7.26708">
        <ele>251.04</ele>
        <time>2009-09-27T10:23:48Z</time>
      </trkpt>
      <trkpt lat="48.07795" lon="7.26716">
        <ele>251.04</ele>
        <time>2009-09-27T10:23:49Z</time>
      </trkpt>
      <trkpt lat="48.07789" lon="7.26752">
        <ele>251.04</ele>
        <time>2009-09-27T10:23:54Z</time>
      </trkpt>
      <trkpt lat="48.07786" lon="7.26758">
        <ele>250.08</ele>
        <time>2009-09-27T10:23:55Z</time>
      </trkpt>
      <trkpt lat="48.07782" lon="7.26761">
        <ele>250.56</ele>
        <time>2009-09-27T10:23:56Z</time>
      </trkpt>
      <trkpt lat="48.07778" lon="7.26762">
        <ele>250.08</ele>
        <time>2009-09-27T10:23:57Z</time>
      </trkpt>
      <trkpt lat="48.07774" lon="7.26763">
        <ele>250.56</ele>
        <time>2009-09-27T10:23:58Z</time>
      </trkpt>
      <trkpt lat="48.07732" lon="7.26767">
        <ele>251.04</ele>
        <time>2009-09-27T10:24:10Z</time>
      </trkpt>
      <trkpt lat="48.07729" lon="7.26758">
        <ele>252</ele>
        <time>2009-09-27T10:24:16Z</time>
      </trkpt>
      <trkpt lat="48.0773" lon="7.26758">
        <ele>250.08</ele>
        <time>2009-09-27T10:26:29Z</time>
      </trkpt>
    </trkseg>
  </trk>
</gpx>